<?xml version='1.0' encoding='UTF-8'?><gpx version="1.1" creator="JPX - https://github.com/jenetics/jpx" xmlns="http://www.topografix.com/GPX/1/1"><trk><trkseg><trkpt lat="45.92100565714007" lon="1.1694440394731913"><ele>324.0</ele><time>2026-05-02T11:16:05.999Z</time></trkpt><trkpt lat="45.92107400212086" lon="1.1694906204394502"><ele>324.0</ele><time>2026-05-02T11:16:06.999Z</time></trkpt><trkpt lat="45.92115342545675" lon="1.1695474782182904"><ele>324.0</ele><time>2026-05-02T11:16:07.999Z</time></trkpt><trkpt lat="45.92124072368235" lon="1.1696149027836298"><ele>324.0</ele><time>2026-05-02T11:16:08.999Z</time></trkpt><trkpt lat="45.92133420482644" lon="1.169680788938335"><ele>324.0</ele><time>2026-05-02T11:16:09.999Z</time></trkpt><trkpt lat="45.921436520712035" lon="1.1697502235617916"><ele>324.0</ele><time>2026-05-02T11:16:10.999Z</time></trkpt><trkpt lat="45.92154582361843" lon="1.1698195519435814"><ele>324.0</ele><time>2026-05-02T11:16:11.999Z</time></trkpt><trkpt lat="45.92166078274903" lon="1.1698820162586925"><ele>324.0</ele><time>2026-05-02T11:16:12.999Z</time></trkpt><trkpt lat="45.921768446785926" lon="1.1699553192114853"><ele>324.0</ele><time>2026-05-02T11:16:13.999Z</time></trkpt><trkpt lat="45.9218718765241" lon="1.1700240838249543"><ele>322.2</ele><time>2026-05-02T11:16:14.999Z</time></trkpt><trkpt lat="45.92197010389306" lon="1.1700960911452531"><ele>320.4</ele><time>2026-05-02T11:16:15.999Z</time></trkpt><trkpt lat="45.92206657666988" lon="1.1701639577518876"><ele>318.6</ele><time>2026-05-02T11:16:16.999Z</time></trkpt><trkpt lat="45.92215268819712" lon="1.1702229169219298"><ele>316.8</ele><time>2026-05-02T11:16:17.999Z</time></trkpt><trkpt lat="45.922232287363435" lon="1.17027904043623"><ele>315.0</ele><time>2026-05-02T11:16:18.999Z</time></trkpt><trkpt lat="45.92230681004445" lon="1.1703356623267935"><ele>315.0</ele><time>2026-05-02T11:16:19.999Z</time></trkpt><trkpt lat="45.9223782422023" lon="1.1703882840303392"><ele>315.0</ele><time>2026-05-02T11:16:20.999Z</time></trkpt><trkpt lat="45.92244087795873" lon="1.1704354997251343"><ele>315.0</ele><time>2026-05-02T11:16:21.999Z</time></trkpt><trkpt lat="45.922537255929065" lon="1.1705439529171557"><ele>315.0</ele><time>2026-05-02T11:16:23.999Z</time></trkpt><trkpt lat="45.92261788555038" lon="1.170661309657646"><ele>315.0</ele><time>2026-05-02T11:16:25.999Z</time></trkpt><trkpt lat="45.922709394590896" lon="1.1707006330371692"><ele>314.6</ele><time>2026-05-02T11:16:27.999Z</time></trkpt><trkpt lat="45.92282939833289" lon="1.170714976280575"><ele>314.2</ele><time>2026-05-02T11:16:29.999Z</time></trkpt><trkpt lat="45.922908854706684" lon="1.1707392879102982"><ele>313.8</ele><time>2026-05-02T11:16:30.999Z</time></trkpt><trkpt lat="45.92299124733951" lon="1.1707787143644917"><ele>313.4</ele><time>2026-05-02T11:16:31.999Z</time></trkpt><trkpt lat="45.92308192947721" lon="1.1708274995468373"><ele>313.0</ele><time>2026-05-02T11:16:32.999Z</time></trkpt><trkpt lat="45.92318089335122" lon="1.1708755597628344"><ele>313.0</ele><time>2026-05-02T11:16:33.999Z</time></trkpt><trkpt lat="45.923272211791364" lon="1.1709144744450222"><ele>313.0</ele><time>2026-05-02T11:16:34.999Z</time></trkpt><trkpt lat="45.923346054057006" lon="1.17095029498779"><ele>313.0</ele><time>2026-05-02T11:16:35.999Z</time></trkpt><trkpt lat="45.92341714710088" lon="1.1709802859537226"><ele>313.0</ele><time>2026-05-02T11:16:36.999Z</time></trkpt><trkpt lat="45.92348020848358" lon="1.171011929024221"><ele>313.0</ele><time>2026-05-02T11:16:37.999Z</time></trkpt><trkpt lat="45.92354527634231" lon="1.1710404380368336"><ele>313.0</ele><time>2026-05-02T11:16:38.999Z</time></trkpt><trkpt lat="45.92360976099629" lon="1.1710694096556777"><ele>312.5</ele><time>2026-05-02T11:16:39.999Z</time></trkpt><trkpt lat="45.923681698776555" lon="1.1710932511530676"><ele>312.0</ele><time>2026-05-02T11:16:40.999Z</time></trkpt><trkpt lat="45.923762101401174" lon="1.171115892143145"><ele>311.5</ele><time>2026-05-02T11:16:41.999Z</time></trkpt><trkpt lat="45.92383759902145" lon="1.1711483643142109"><ele>311.0</ele><time>2026-05-02T11:16:42.999Z</time></trkpt><trkpt lat="45.9239239089486" lon="1.171187518260882"><ele>310.5</ele><time>2026-05-02T11:16:43.998Z</time></trkpt><trkpt lat="45.924012143243964" lon="1.1712248747150134"><ele>310.0</ele><time>2026-05-02T11:16:44.998Z</time></trkpt><trkpt lat="45.92410156168414" lon="1.1712629884580061"><ele>310.0</ele><time>2026-05-02T11:16:45.998Z</time></trkpt><trkpt lat="45.924183804637444" lon="1.1713008740798003"><ele>310.0</ele><time>2026-05-02T11:16:46.998Z</time></trkpt><trkpt lat="45.92426800330443" lon="1.1713335535082223"><ele>310.0</ele><time>2026-05-02T11:16:47.998Z</time></trkpt><trkpt lat="45.924356072871944" lon="1.1713747460817439"><ele>310.0</ele><time>2026-05-02T11:16:48.998Z</time></trkpt><trkpt lat="45.92444605761959" lon="1.171427175377179"><ele>310.0</ele><time>2026-05-02T11:16:49.998Z</time></trkpt><trkpt lat="45.924538106690655" lon="1.171499351745296"><ele>308.8</ele><time>2026-05-02T11:16:50.998Z</time></trkpt><trkpt lat="45.924624821659975" lon="1.171583934335843"><ele>307.6</ele><time>2026-05-02T11:16:51.999Z</time></trkpt><trkpt lat="45.92470941029481" lon="1.1716665476035186"><ele>306.4</ele><time>2026-05-02T11:16:52.999Z</time></trkpt><trkpt lat="45.924799793790235" lon="1.171746732944969"><ele>305.2</ele><time>2026-05-02T11:16:53.999Z</time></trkpt><trkpt lat="45.92489125659301" lon="1.1718307162529165"><ele>304.0</ele><time>2026-05-02T11:16:54.999Z</time></trkpt><trkpt lat="45.92498579176879" lon="1.1719093128269917"><ele>302.66666666666663</ele><time>2026-05-02T11:16:55.999Z</time></trkpt><trkpt lat="45.92507826896158" lon="1.1719911155630098"><ele>301.3333333333333</ele><time>2026-05-02T11:16:56.999Z</time></trkpt><trkpt lat="45.92516804665917" lon="1.172068580248061"><ele>300.0</ele><time>2026-05-02T11:16:57.999Z</time></trkpt><trkpt lat="45.92523347480988" lon="1.1721277210782928"><ele>298.6666666666667</ele><time>2026-05-02T11:16:58.999Z</time></trkpt><trkpt lat="45.92529458377178" lon="1.1721872474988988"><ele>297.33333333333337</ele><time>2026-05-02T11:16:59.999Z</time></trkpt><trkpt lat="45.925361934441476" lon="1.1722449947799998"><ele>296.0</ele><time>2026-05-02T11:17:00.999Z</time></trkpt><trkpt lat="45.925436056212185" lon="1.1723075771067033"><ele>295.8</ele><time>2026-05-02T11:17:01.999Z</time></trkpt><trkpt lat="45.92551644533898" lon="1.1723746615950557"><ele>295.6</ele><time>2026-05-02T11:17:02.999Z</time></trkpt><trkpt lat="45.92559895677124" lon="1.1724466058061451"><ele>295.4</ele><time>2026-05-02T11:17:03.999Z</time></trkpt><trkpt lat="45.925684647840384" lon="1.1725230159200373"><ele>295.2</ele><time>2026-05-02T11:17:04.999Z</time></trkpt><trkpt lat="45.92577600331674" lon="1.1726008946352775"><ele>295.0</ele><time>2026-05-02T11:17:05.999Z</time></trkpt><trkpt lat="45.92586607989574" lon="1.1726815760139757"><ele>294.66666666666663</ele><time>2026-05-02T11:17:06.999Z</time></trkpt><trkpt lat="45.92594128578782" lon="1.1727533343816485"><ele>294.3333333333333</ele><time>2026-05-02T11:17:07.999Z</time></trkpt><trkpt lat="45.92600213742369" lon="1.1728116946482803"><ele>294.0</ele><time>2026-05-02T11:17:08.999Z</time></trkpt><trkpt lat="45.926068740201444" lon="1.17294429437883"><ele>293.6666666666667</ele><time>2026-05-02T11:17:10.999Z</time></trkpt><trkpt lat="45.92608084465475" lon="1.173042762646682"><ele>293.33333333333337</ele><time>2026-05-02T11:17:11.999Z</time></trkpt><trkpt lat="45.9261010577932" lon="1.1731397427746006"><ele>293.0</ele><time>2026-05-02T11:17:12.999Z</time></trkpt><trkpt lat="45.92612496321919" lon="1.1732304994994842"><ele>293.71428571428567</ele><time>2026-05-02T11:17:13.999Z</time></trkpt><trkpt lat="45.92615199573065" lon="1.1733226761553515"><ele>294.42857142857144</ele><time>2026-05-02T11:17:14.999Z</time></trkpt><trkpt lat="45.926180670716406" lon="1.1734196741508804"><ele>295.1428571428571</ele><time>2026-05-02T11:17:15.999Z</time></trkpt><trkpt lat="45.92620437430134" lon="1.173521570272806"><ele>295.85714285714283</ele><time>2026-05-02T11:17:16.999Z</time></trkpt><trkpt lat="45.92622940223737" lon="1.1736322810060813"><ele>296.57142857142856</ele><time>2026-05-02T11:17:17.999Z</time></trkpt><trkpt lat="45.92626086545835" lon="1.1737316599534608"><ele>297.2857142857143</ele><time>2026-05-02T11:17:18.999Z</time></trkpt><trkpt lat="45.92628450570696" lon="1.1738255533260562"><ele>298.0</ele><time>2026-05-02T11:17:19.999Z</time></trkpt><trkpt lat="45.92631952744932" lon="1.1739235311281322"><ele>298.66666666666663</ele><time>2026-05-02T11:17:20.999Z</time></trkpt><trkpt lat="45.92634826214018" lon="1.174029020800169"><ele>299.3333333333333</ele><time>2026-05-02T11:17:21.999Z</time></trkpt><trkpt lat="45.92636738793368" lon="1.1741388699643094"><ele>300.0</ele><time>2026-05-02T11:17:22.999Z</time></trkpt><trkpt lat="45.926387000438964" lon="1.1742435219266802"><ele>300.6666666666667</ele><time>2026-05-02T11:17:23.999Z</time></trkpt><trkpt lat="45.92641277086892" lon="1.1743426415546516"><ele>301.33333333333337</ele><time>2026-05-02T11:17:24.999Z</time></trkpt><trkpt lat="45.92644444572014" lon="1.1744364539198742"><ele>302.0</ele><time>2026-05-02T11:17:25.999Z</time></trkpt><trkpt lat="45.926482435701566" lon="1.174525139710198"><ele>302.0</ele><time>2026-05-02T11:17:26.999Z</time></trkpt><trkpt lat="45.92651964921348" lon="1.1746080907327314"><ele>302.0</ele><time>2026-05-02T11:17:27.999Z</time></trkpt><trkpt lat="45.92655161251381" lon="1.1746922138426126"><ele>302.0</ele><time>2026-05-02T11:17:28.999Z</time></trkpt><trkpt lat="45.92658057558066" lon="1.1747892068305674"><ele>302.0</ele><time>2026-05-02T11:17:29.999Z</time></trkpt><trkpt lat="45.92659917015065" lon="1.1748864953337734"><ele>302.0</ele><time>2026-05-02T11:17:30.999Z</time></trkpt><trkpt lat="45.92660839337912" lon="1.1749778704842933"><ele>302.0</ele><time>2026-05-02T11:17:31.999Z</time></trkpt><trkpt lat="45.926614225910306" lon="1.175133528715274"><ele>302.6</ele><time>2026-05-02T11:17:33.999Z</time></trkpt><trkpt lat="45.92663072525097" lon="1.175273820221818"><ele>303.2</ele><time>2026-05-02T11:17:35.999Z</time></trkpt><trkpt lat="45.9266203980103" lon="1.1753950980951022"><ele>303.8</ele><time>2026-05-02T11:17:37.999Z</time></trkpt><trkpt lat="45.92654135521831" lon="1.175534485129093"><ele>304.4</ele><time>2026-05-02T11:17:39.999Z</time></trkpt><trkpt lat="45.92649052892451" lon="1.1756103058733685"><ele>305.0</ele><time>2026-05-02T11:17:40.999Z</time></trkpt><trkpt lat="45.92643173464205" lon="1.1756872496776996"><ele>305.2</ele><time>2026-05-02T11:17:41.999Z</time></trkpt><trkpt lat="45.92636943081264" lon="1.175773397473545"><ele>305.4</ele><time>2026-05-02T11:17:42.999Z</time></trkpt><trkpt lat="45.92628346439619" lon="1.1758361833697621"><ele>305.6</ele><time>2026-05-02T11:17:43.999Z</time></trkpt><trkpt lat="45.926211075266856" lon="1.1759310599662178"><ele>305.8</ele><time>2026-05-02T11:17:44.999Z</time></trkpt><trkpt lat="45.92613843775299" lon="1.1760254618642345"><ele>306.0</ele><time>2026-05-02T11:17:45.999Z</time></trkpt><trkpt lat="45.92606292148071" lon="1.1761065232089694"><ele>306.0</ele><time>2026-05-02T11:17:46.999Z</time></trkpt><trkpt lat="45.92598067804451" lon="1.1761677075926977"><ele>306.0</ele><time>2026-05-02T11:17:47.999Z</time></trkpt><trkpt lat="45.925891624072705" lon="1.1762075537608163"><ele>306.0</ele><time>2026-05-02T11:17:48.999Z</time></trkpt><trkpt lat="45.92579715447051" lon="1.1762425071472995"><ele>306.0</ele><time>2026-05-02T11:17:49.999Z</time></trkpt><trkpt lat="45.925704658483745" lon="1.1763119703660578"><ele>306.0</ele><time>2026-05-02T11:17:50.999Z</time></trkpt><trkpt lat="45.9256310523113" lon="1.176424263475326"><ele>306.8</ele><time>2026-05-02T11:17:51.999Z</time></trkpt><trkpt lat="45.92557776993528" lon="1.1765530103200725"><ele>307.6</ele><time>2026-05-02T11:17:52.999Z</time></trkpt><trkpt lat="45.9255381247267" lon="1.176694816077428"><ele>308.4</ele><time>2026-05-02T11:17:53.999Z</time></trkpt><trkpt lat="45.92551411943632" lon="1.1768396473722025"><ele>309.2</ele><time>2026-05-02T11:17:54.999Z</time></trkpt><trkpt lat="45.92548845245562" lon="1.176981473062401"><ele>310.0</ele><time>2026-05-02T11:17:55.999Z</time></trkpt><trkpt lat="45.92546262630502" lon="1.1771228242130998"><ele>310.0</ele><time>2026-05-02T11:17:56.999Z</time></trkpt><trkpt lat="45.9254350618351" lon="1.1772659977641702"><ele>310.0</ele><time>2026-05-02T11:17:57.999Z</time></trkpt><trkpt lat="45.92540650130738" lon="1.1774129146123384"><ele>310.0</ele><time>2026-05-02T11:17:58.999Z</time></trkpt><trkpt lat="45.92537674361735" lon="1.1775641118660396"><ele>310.0</ele><time>2026-05-02T11:17:59.999Z</time></trkpt><trkpt lat="45.92535254891619" lon="1.1777219364253415"><ele>310.0</ele><time>2026-05-02T11:18:00.999Z</time></trkpt><trkpt lat="45.92535564781784" lon="1.177889669316601"><ele>311.0</ele><time>2026-05-02T11:18:01.999Z</time></trkpt><trkpt lat="45.92537887498192" lon="1.178052571274365"><ele>312.0</ele><time>2026-05-02T11:18:02.999Z</time></trkpt><trkpt lat="45.925417980215286" lon="1.1782020661411974"><ele>313.0</ele><time>2026-05-02T11:18:03.999Z</time></trkpt><trkpt lat="45.92539638517923" lon="1.1783417886967638"><ele>314.0</ele><time>2026-05-02T11:18:04.999Z</time></trkpt><trkpt lat="45.92535724703221" lon="1.1784562142145494"><ele>315.0</ele><time>2026-05-02T11:18:05.999Z</time></trkpt><trkpt lat="45.92529530901909" lon="1.1785564464100298"><ele>315.2</ele><time>2026-05-02T11:18:06.999Z</time></trkpt><trkpt lat="45.92524087853615" lon="1.1786814137684798"><ele>315.4</ele><time>2026-05-02T11:18:07.999Z</time></trkpt><trkpt lat="45.925143801071066" lon="1.178730548393323"><ele>315.6</ele><time>2026-05-02T11:18:08.999Z</time></trkpt><trkpt lat="45.92505896895518" lon="1.1788086190998706"><ele>315.8</ele><time>2026-05-02T11:18:09.999Z</time></trkpt><trkpt lat="45.924972877207466" lon="1.1788949155762225"><ele>316.0</ele><time>2026-05-02T11:18:10.999Z</time></trkpt><trkpt lat="45.92489775386854" lon="1.178987047099161"><ele>314.40000000000003</ele><time>2026-05-02T11:18:11.999Z</time></trkpt><trkpt lat="45.92483188607212" lon="1.179105319829138"><ele>312.8</ele><time>2026-05-02T11:18:12.999Z</time></trkpt><trkpt lat="45.924780634965664" lon="1.179234658598579"><ele>311.20000000000005</ele><time>2026-05-02T11:18:13.999Z</time></trkpt><trkpt lat="45.9247482159814" lon="1.1793787817977035"><ele>309.6</ele><time>2026-05-02T11:18:14.999Z</time></trkpt><trkpt lat="45.924730767227935" lon="1.1795261831414723"><ele>308.0</ele><time>2026-05-02T11:18:15.999Z</time></trkpt><trkpt lat="45.924744685806914" lon="1.1796738530689257"><ele>308.0</ele><time>2026-05-02T11:18:16.999Z</time></trkpt><trkpt lat="45.92475676174463" lon="1.179813855571097"><ele>308.0</ele><time>2026-05-02T11:18:17.998Z</time></trkpt><trkpt lat="45.924792403272804" lon="1.1799492723538116"><ele>308.0</ele><time>2026-05-02T11:18:18.998Z</time></trkpt><trkpt lat="45.92484387969309" lon="1.1800752461195605"><ele>308.0</ele><time>2026-05-02T11:18:19.998Z</time></trkpt><trkpt lat="45.924896693362044" lon="1.1802015698971502"><ele>308.0</ele><time>2026-05-02T11:18:20.998Z</time></trkpt><trkpt lat="45.92496536393229" lon="1.180330672128376"><ele>309.5</ele><time>2026-05-02T11:18:21.998Z</time></trkpt><trkpt lat="45.92503858727942" lon="1.1804588460536554"><ele>311.0</ele><time>2026-05-02T11:18:22.998Z</time></trkpt><trkpt lat="45.925113846966696" lon="1.1805864555704553"><ele>312.5</ele><time>2026-05-02T11:18:23.998Z</time></trkpt><trkpt lat="45.92518692212395" lon="1.180719617108364"><ele>314.0</ele><time>2026-05-02T11:18:24.998Z</time></trkpt><trkpt lat="45.925232272225884" lon="1.1808702448032438"><ele>314.25</ele><time>2026-05-02T11:18:25.998Z</time></trkpt><trkpt lat="45.92526763055769" lon="1.18103057654782"><ele>314.5</ele><time>2026-05-02T11:18:26.998Z</time></trkpt><trkpt lat="45.92528453361047" lon="1.1811953741814516"><ele>314.75</ele><time>2026-05-02T11:18:27.998Z</time></trkpt><trkpt lat="45.92529588128296" lon="1.1813715678961738"><ele>315.0</ele><time>2026-05-02T11:18:28.998Z</time></trkpt><trkpt lat="45.925307105784746" lon="1.1815768502079191"><ele>315.0</ele><time>2026-05-02T11:18:29.998Z</time></trkpt><trkpt lat="45.92533336382518" lon="1.1817842004144465"><ele>315.0</ele><time>2026-05-02T11:18:30.998Z</time></trkpt><trkpt lat="45.925336091513046" lon="1.1820011293642734"><ele>315.0</ele><time>2026-05-02T11:18:31.998Z</time></trkpt><trkpt lat="45.92533026569288" lon="1.1821860139986353"><ele>315.0</ele><time>2026-05-02T11:18:32.998Z</time></trkpt><trkpt lat="45.92531617507089" lon="1.182358329607185"><ele>315.0</ele><time>2026-05-02T11:18:33.998Z</time></trkpt><trkpt lat="45.92525167637393" lon="1.1825098362439914"><ele>315.0</ele><time>2026-05-02T11:18:34.998Z</time></trkpt><trkpt lat="45.925181223063284" lon="1.1826532644459153"><ele>315.0</ele><time>2026-05-02T11:18:35.998Z</time></trkpt><trkpt lat="45.925096417274425" lon="1.182780634063065"><ele>315.0</ele><time>2026-05-02T11:18:36.998Z</time></trkpt><trkpt lat="45.92500655065861" lon="1.1828984760349384"><ele>316.25</ele><time>2026-05-02T11:18:37.998Z</time></trkpt><trkpt lat="45.924918594923476" lon="1.1829909086350796"><ele>317.5</ele><time>2026-05-02T11:18:38.998Z</time></trkpt><trkpt lat="45.9248256630285" lon="1.1830654143699415"><ele>318.75</ele><time>2026-05-02T11:18:39.998Z</time></trkpt><trkpt lat="45.924720443556886" lon="1.1831309992776362"><ele>320.0</ele><time>2026-05-02T11:18:40.998Z</time></trkpt><trkpt lat="45.9246080694282" lon="1.1832112937275927"><ele>320.0</ele><time>2026-05-02T11:18:41.998Z</time></trkpt><trkpt lat="45.924503011622456" lon="1.1833264467792135"><ele>320.0</ele><time>2026-05-02T11:18:42.998Z</time></trkpt><trkpt lat="45.924406737210646" lon="1.1834537305144983"><ele>320.0</ele><time>2026-05-02T11:18:43.998Z</time></trkpt><trkpt lat="45.92431692592405" lon="1.1836033047822834"><ele>320.0</ele><time>2026-05-02T11:18:44.998Z</time></trkpt><trkpt lat="45.92422890148029" lon="1.1837503135190086"><ele>321.0</ele><time>2026-05-02T11:18:45.998Z</time></trkpt><trkpt lat="45.924139631024694" lon="1.1838994031875796"><ele>322.0</ele><time>2026-05-02T11:18:46.998Z</time></trkpt><trkpt lat="45.92405084716401" lon="1.1840475507689454"><ele>323.0</ele><time>2026-05-02T11:18:47.998Z</time></trkpt><trkpt lat="45.923969853524376" lon="1.1842039892587781"><ele>324.0</ele><time>2026-05-02T11:18:48.998Z</time></trkpt><trkpt lat="45.92388284627378" lon="1.1843492989404605"><ele>324.0</ele><time>2026-05-02T11:18:49.998Z</time></trkpt><trkpt lat="45.923786231624135" lon="1.184480142262732"><ele>324.0</ele><time>2026-05-02T11:18:50.998Z</time></trkpt><trkpt lat="45.9236799091604" lon="1.1845786398978768"><ele>324.0</ele><time>2026-05-02T11:18:51.998Z</time></trkpt><trkpt lat="45.923576257172265" lon="1.1846851289870275"><ele>324.0</ele><time>2026-05-02T11:18:52.998Z</time></trkpt><trkpt lat="45.92348252668061" lon="1.1847941627997793"><ele>324.25</ele><time>2026-05-02T11:18:53.998Z</time></trkpt><trkpt lat="45.92338221167129" lon="1.1848858775128475"><ele>324.5</ele><time>2026-05-02T11:18:54.998Z</time></trkpt><trkpt lat="45.923285548507586" lon="1.1849758683954226"><ele>324.75</ele><time>2026-05-02T11:18:55.998Z</time></trkpt><trkpt lat="45.92319314556616" lon="1.1850690721725599"><ele>325.0</ele><time>2026-05-02T11:18:56.998Z</time></trkpt><trkpt lat="45.923105720904985" lon="1.185161010148639"><ele>325.0</ele><time>2026-05-02T11:18:57.998Z</time></trkpt><trkpt lat="45.92303003312563" lon="1.1852709138683133"><ele>325.0</ele><time>2026-05-02T11:18:58.998Z</time></trkpt><trkpt lat="45.9229675986611" lon="1.1854013509451542"><ele>325.0</ele><time>2026-05-02T11:18:59.998Z</time></trkpt><trkpt lat="45.92292855120609" lon="1.1855525048475524"><ele>325.0</ele><time>2026-05-02T11:19:00.998Z</time></trkpt><trkpt lat="45.9228912161692" lon="1.1857044068870348"><ele>325.0</ele><time>2026-05-02T11:19:01.998Z</time></trkpt><trkpt lat="45.922861300262866" lon="1.185866269216338"><ele>326.5</ele><time>2026-05-02T11:19:02.998Z</time></trkpt><trkpt lat="45.92282790471666" lon="1.1860292483565988"><ele>328.0</ele><time>2026-05-02T11:19:03.998Z</time></trkpt><trkpt lat="45.92279605361542" lon="1.1861953138146422"><ele>329.5</ele><time>2026-05-02T11:19:04.998Z</time></trkpt><trkpt lat="45.92276523653127" lon="1.1863617961843504"><ele>331.0</ele><time>2026-05-02T11:19:05.998Z</time></trkpt><trkpt lat="45.92273127515477" lon="1.1865319948821214"><ele>333.0</ele><time>2026-05-02T11:19:06.998Z</time></trkpt><trkpt lat="45.9226918708527" lon="1.1867001658999952"><ele>335.0</ele><time>2026-05-02T11:19:07.998Z</time></trkpt><trkpt lat="45.922650126749424" lon="1.1868651536315638"><ele>337.0</ele><time>2026-05-02T11:19:08.999Z</time></trkpt><trkpt lat="45.92261450534872" lon="1.1870309674012156"><ele>339.0</ele><time>2026-05-02T11:19:09.999Z</time></trkpt><trkpt lat="45.92257783028505" lon="1.187197614368874"><ele>338.6</ele><time>2026-05-02T11:19:10.999Z</time></trkpt><trkpt lat="45.92254285706406" lon="1.1873611492589518"><ele>338.2</ele><time>2026-05-02T11:19:11.999Z</time></trkpt><trkpt lat="45.92250647112749" lon="1.1875174781241982"><ele>337.8</ele><time>2026-05-02T11:19:12.999Z</time></trkpt><trkpt lat="45.92247555308879" lon="1.1876652548029503"><ele>337.40000000000003</ele><time>2026-05-02T11:19:13.999Z</time></trkpt><trkpt lat="45.92244652427269" lon="1.1877937596474355"><ele>337.0</ele><time>2026-05-02T11:19:14.999Z</time></trkpt><trkpt lat="45.92242206514699" lon="1.1878958200723035"><ele>337.0</ele><time>2026-05-02T11:19:15.999Z</time></trkpt><trkpt lat="45.92236134944458" lon="1.188015821648466"><ele>337.0</ele><time>2026-05-02T11:19:17.999Z</time></trkpt><trkpt lat="45.92246998200743" lon="1.1881694282707993"><ele>337.0</ele><time>2026-05-02T11:19:19.999Z</time></trkpt><trkpt lat="45.922529290296765" lon="1.1882228606883727"><ele>337.0</ele><time>2026-05-02T11:19:20.999Z</time></trkpt><trkpt lat="45.92259131759564" lon="1.18828394753746"><ele>337.0</ele><time>2026-05-02T11:19:21.999Z</time></trkpt><trkpt lat="45.922657802249475" lon="1.1883559770847658"><ele>337.3333333333333</ele><time>2026-05-02T11:19:22.999Z</time></trkpt><trkpt lat="45.9227271804191" lon="1.1884358690707488"><ele>337.66666666666663</ele><time>2026-05-02T11:19:23.999Z</time></trkpt><trkpt lat="45.922791777675535" lon="1.188519259749992"><ele>338.0</ele><time>2026-05-02T11:19:24.999Z</time></trkpt><trkpt lat="45.9228586397403" lon="1.1885984292497733"><ele>338.3333333333333</ele><time>2026-05-02T11:19:25.999Z</time></trkpt><trkpt lat="45.9229236182193" lon="1.1886826863411415"><ele>338.6666666666667</ele><time>2026-05-02T11:19:26.999Z</time></trkpt><trkpt lat="45.92298572905779" lon="1.1887723861462802"><ele>339.0</ele><time>2026-05-02T11:19:27.999Z</time></trkpt><trkpt lat="45.923045057539845" lon="1.1888568280066738"><ele>339.0</ele><time>2026-05-02T11:19:28.999Z</time></trkpt><trkpt lat="45.92309034270197" lon="1.1889556188857495"><ele>339.0</ele><time>2026-05-02T11:19:29.999Z</time></trkpt><trkpt lat="45.92314298087704" lon="1.1890317971018816"><ele>339.0</ele><time>2026-05-02T11:19:30.999Z</time></trkpt><trkpt lat="45.92319468937368" lon="1.189104899024452"><ele>339.0</ele><time>2026-05-02T11:19:31.999Z</time></trkpt><trkpt lat="45.92324916732985" lon="1.1891574311834188"><ele>339.0</ele><time>2026-05-02T11:19:32.999Z</time></trkpt><trkpt lat="45.9232974365332" lon="1.1892297439339348"><ele>339.0</ele><time>2026-05-02T11:19:33.999Z</time></trkpt><trkpt lat="45.923391290182174" lon="1.1893435146894356"><ele>339.2</ele><time>2026-05-02T11:19:35.999Z</time></trkpt><trkpt lat="45.92347928750042" lon="1.189471948186842"><ele>339.4</ele><time>2026-05-02T11:19:37.999Z</time></trkpt><trkpt lat="45.923555209993516" lon="1.1896075947157454"><ele>339.6</ele><time>2026-05-02T11:19:39.999Z</time></trkpt><trkpt lat="45.92361529325834" lon="1.1897104438676394"><ele>339.8</ele><time>2026-05-02T11:19:41.999Z</time></trkpt><trkpt lat="45.923665914816155" lon="1.1898000906045094"><ele>340.0</ele><time>2026-05-02T11:19:48.999Z</time></trkpt><trkpt lat="45.92376207215905" lon="1.189820266146003"><ele>339.6</ele><time>2026-05-02T11:19:50.999Z</time></trkpt><trkpt lat="45.92386313210789" lon="1.1898551954292158"><ele>339.2</ele><time>2026-05-02T11:19:52.999Z</time></trkpt><trkpt lat="45.9239748092326" lon="1.1898963093995178"><ele>338.79999999999995</ele><time>2026-05-02T11:19:54.999Z</time></trkpt><trkpt lat="45.924080526994224" lon="1.1899699737484306"><ele>338.4</ele><time>2026-05-02T11:19:56.999Z</time></trkpt><trkpt lat="45.92409980330689" lon="1.1900655712202255"><ele>338.0</ele><time>2026-05-02T11:19:58.999Z</time></trkpt><trkpt lat="45.92412204946403" lon="1.1901829892226488"><ele>338.0</ele><time>2026-05-02T11:20:00.999Z</time></trkpt><trkpt lat="45.92414133691358" lon="1.1903686560319828"><ele>338.0</ele><time>2026-05-02T11:20:02.999Z</time></trkpt><trkpt lat="45.924138008083666" lon="1.190469588665729"><ele>338.0</ele><time>2026-05-02T11:20:03.999Z</time></trkpt><trkpt lat="45.924134832822624" lon="1.190593206448944"><ele>338.0</ele><time>2026-05-02T11:20:04.999Z</time></trkpt><trkpt lat="45.92415138098336" lon="1.190715172123745"><ele>338.0</ele><time>2026-05-02T11:20:05.999Z</time></trkpt><trkpt lat="45.924139139729654" lon="1.190823199066166"><ele>338.0</ele><time>2026-05-02T11:20:06.999Z</time></trkpt><trkpt lat="45.92414159777938" lon="1.1909333064746854"><ele>339.0</ele><time>2026-05-02T11:20:07.999Z</time></trkpt><trkpt lat="45.924143790888074" lon="1.1910315459838194"><ele>340.0</ele><time>2026-05-02T11:20:08.999Z</time></trkpt><trkpt lat="45.924147542063" lon="1.1911995785730962"><ele>341.0</ele><time>2026-05-02T11:20:10.999Z</time></trkpt><trkpt lat="45.92415914463635" lon="1.191373106459257"><ele>342.0</ele><time>2026-05-02T11:20:12.999Z</time></trkpt><trkpt lat="45.924167319543315" lon="1.1914661636562114"><ele>343.0</ele><time>2026-05-02T11:20:13.999Z</time></trkpt><trkpt lat="45.92419905779161" lon="1.1916406556286259"><ele>341.66666666666663</ele><time>2026-05-02T11:20:15.999Z</time></trkpt><trkpt lat="45.92423465792125" lon="1.191737958225961"><ele>340.3333333333333</ele><time>2026-05-02T11:20:16.999Z</time></trkpt><trkpt lat="45.92426951853613" lon="1.1918173898916042"><ele>339.0</ele><time>2026-05-02T11:20:17.999Z</time></trkpt><trkpt lat="45.92433179852685" lon="1.1919731199696588"><ele>337.6666666666667</ele><time>2026-05-02T11:20:19.999Z</time></trkpt><trkpt lat="45.92436466616318" lon="1.1920600332700801"><ele>336.33333333333337</ele><time>2026-05-02T11:20:20.999Z</time></trkpt><trkpt lat="45.92440736517091" lon="1.1921493622887498"><ele>335.0</ele><time>2026-05-02T11:20:21.999Z</time></trkpt><trkpt lat="45.92445831976062" lon="1.192246156935368"><ele>335.6666666666667</ele><time>2026-05-02T11:20:22.999Z</time></trkpt><trkpt lat="45.924509059515884" lon="1.1923437376703174"><ele>336.33333333333337</ele><time>2026-05-02T11:20:23.999Z</time></trkpt><trkpt lat="45.92456559362059" lon="1.1924389865762428"><ele>337.0</ele><time>2026-05-02T11:20:24.999Z</time></trkpt><trkpt lat="45.92461843933589" lon="1.192523593884053"><ele>337.6666666666667</ele><time>2026-05-02T11:20:25.999Z</time></trkpt><trkpt lat="45.92467851261461" lon="1.1925891772371469"><ele>338.3333333333333</ele><time>2026-05-02T11:20:26.999Z</time></trkpt><trkpt lat="45.924756546611604" lon="1.1926137490970454"><ele>339.0</ele><time>2026-05-02T11:20:27.999Z</time></trkpt><trkpt lat="45.924830174785356" lon="1.1925669034610742"><ele>339.0</ele><time>2026-05-02T11:20:28.999Z</time></trkpt><trkpt lat="45.924898540545264" lon="1.1924946815316686"><ele>339.0</ele><time>2026-05-02T11:20:29.999Z</time></trkpt><trkpt lat="45.92498227798171" lon="1.1924228750659336"><ele>339.0</ele><time>2026-05-02T11:20:30.999Z</time></trkpt><trkpt lat="45.925050033809946" lon="1.1923180816883974"><ele>339.0</ele><time>2026-05-02T11:20:31.999Z</time></trkpt><trkpt lat="45.92513447911738" lon="1.1922227422901261"><ele>339.0</ele><time>2026-05-02T11:20:32.999Z</time></trkpt><trkpt lat="45.92522478615842" lon="1.192120482180995"><ele>339.5</ele><time>2026-05-02T11:20:33.999Z</time></trkpt><trkpt lat="45.92533691437125" lon="1.192029861147981"><ele>340.0</ele><time>2026-05-02T11:20:34.999Z</time></trkpt><trkpt lat="45.925456690606225" lon="1.1919021701709431"><ele>340.5</ele><time>2026-05-02T11:20:35.999Z</time></trkpt><trkpt lat="45.92556753677754" lon="1.1917556444555844"><ele>341.0</ele><time>2026-05-02T11:20:36.999Z</time></trkpt><trkpt lat="45.92568416276364" lon="1.1916385297769445"><ele>341.0</ele><time>2026-05-02T11:20:37.999Z</time></trkpt><trkpt lat="45.925792403251776" lon="1.1915285009835446"><ele>341.0</ele><time>2026-05-02T11:20:38.999Z</time></trkpt><trkpt lat="45.925885192206486" lon="1.1914167907305515"><ele>341.0</ele><time>2026-05-02T11:20:39.999Z</time></trkpt><trkpt lat="45.92597082572177" lon="1.1913173640338248"><ele>341.0</ele><time>2026-05-02T11:20:40.999Z</time></trkpt><trkpt lat="45.926040430251945" lon="1.1912478718105022"><ele>341.0</ele><time>2026-05-02T11:20:41.999Z</time></trkpt><trkpt lat="45.926134991122375" lon="1.1912214074368737"><ele>341.0</ele><time>2026-05-02T11:20:43.999Z</time></trkpt><trkpt lat="45.92621705156438" lon="1.1913379711729108"><ele>341.0</ele><time>2026-05-02T11:20:50.999Z</time></trkpt><trkpt lat="45.92624993158742" lon="1.1914199270227521"><ele>341.0</ele><time>2026-05-02T11:20:51.999Z</time></trkpt><trkpt lat="45.92626920895647" lon="1.1915226219931951"><ele>341.0</ele><time>2026-05-02T11:20:52.999Z</time></trkpt><trkpt lat="45.926296113109004" lon="1.1916437312977586"><ele>341.0</ele><time>2026-05-02T11:20:53.999Z</time></trkpt><trkpt lat="45.926322648146765" lon="1.1917702043544933"><ele>341.0</ele><time>2026-05-02T11:20:54.999Z</time></trkpt><trkpt lat="45.92635528082986" lon="1.1919076296743896"><ele>341.25</ele><time>2026-05-02T11:20:55.999Z</time></trkpt><trkpt lat="45.92638706434622" lon="1.1920546577149014"><ele>341.5</ele><time>2026-05-02T11:20:56.999Z</time></trkpt><trkpt lat="45.92642007013916" lon="1.1922065935765787"><ele>341.75</ele><time>2026-05-02T11:20:57.999Z</time></trkpt><trkpt lat="45.926455959543034" lon="1.192361865884821"><ele>342.0</ele><time>2026-05-02T11:20:58.999Z</time></trkpt><trkpt lat="45.92647519621993" lon="1.1925345875058364"><ele>343.0</ele><time>2026-05-02T11:20:59.999Z</time></trkpt><trkpt lat="45.92650922981423" lon="1.1927052244489071"><ele>344.0</ele><time>2026-05-02T11:21:00.999Z</time></trkpt><trkpt lat="45.926546785964504" lon="1.1928790458426353"><ele>345.0</ele><time>2026-05-02T11:21:01.999Z</time></trkpt><trkpt lat="45.92659540046098" lon="1.1930527695473891"><ele>346.0</ele><time>2026-05-02T11:21:02.999Z</time></trkpt><trkpt lat="45.92663321577122" lon="1.1932390285534282"><ele>346.75</ele><time>2026-05-02T11:21:03.999Z</time></trkpt><trkpt lat="45.926666908118364" lon="1.193429164205761"><ele>347.5</ele><time>2026-05-02T11:21:04.999Z</time></trkpt><trkpt lat="45.926704459226144" lon="1.1936174514680993"><ele>348.25</ele><time>2026-05-02T11:21:05.999Z</time></trkpt><trkpt lat="45.92673968948191" lon="1.1938067202625064"><ele>349.0</ele><time>2026-05-02T11:21:06.999Z</time></trkpt><trkpt lat="45.92678128803531" lon="1.19399423494589"><ele>348.75</ele><time>2026-05-02T11:21:07.999Z</time></trkpt><trkpt lat="45.926824203414945" lon="1.1941889123498781"><ele>348.5</ele><time>2026-05-02T11:21:08.999Z</time></trkpt><trkpt lat="45.92686363617984" lon="1.1943869491501917"><ele>348.25</ele><time>2026-05-02T11:21:09.999Z</time></trkpt><trkpt lat="45.92689784274805" lon="1.1945900725218737"><ele>348.0</ele><time>2026-05-02T11:21:10.999Z</time></trkpt><trkpt lat="45.92693702172837" lon="1.194797126430203"><ele>349.3333333333333</ele><time>2026-05-02T11:21:11.999Z</time></trkpt><trkpt lat="45.926980699848606" lon="1.1950051826023784"><ele>350.66666666666663</ele><time>2026-05-02T11:21:12.999Z</time></trkpt><trkpt lat="45.92701944532051" lon="1.1952180122434979"><ele>352.0</ele><time>2026-05-02T11:21:13.999Z</time></trkpt><trkpt lat="45.92709672674142" lon="1.195620784712184"><ele>352.75</ele><time>2026-05-02T11:21:15.999Z</time></trkpt><trkpt lat="45.9271268158395" lon="1.1958026573309102"><ele>353.5</ele><time>2026-05-02T11:21:16.999Z</time></trkpt><trkpt lat="45.92714300405678" lon="1.1959834127073468"><ele>354.25</ele><time>2026-05-02T11:21:17.999Z</time></trkpt><trkpt lat="45.927165577826514" lon="1.1961513943172952"><ele>355.0</ele><time>2026-05-02T11:21:18.999Z</time></trkpt><trkpt lat="45.92716230603265" lon="1.1963023970515"><ele>355.0</ele><time>2026-05-02T11:21:19.999Z</time></trkpt><trkpt lat="45.92715615983376" lon="1.1964352265351001"><ele>355.0</ele><time>2026-05-02T11:21:20.999Z</time></trkpt><trkpt lat="45.92715649312233" lon="1.196555701024216"><ele>355.0</ele><time>2026-05-02T11:21:21.999Z</time></trkpt><trkpt lat="45.927156431560846" lon="1.1966928783622646"><ele>355.0</ele><time>2026-05-02T11:21:24Z</time></trkpt><trkpt lat="45.92717122296802" lon="1.196859937206567"><ele>355.0</ele><time>2026-05-02T11:21:34Z</time></trkpt><trkpt lat="45.927202284407386" lon="1.1969495399104966"><ele>355.5</ele><time>2026-05-02T11:21:35Z</time></trkpt><trkpt lat="45.92723849102573" lon="1.1970385968331514"><ele>356.0</ele><time>2026-05-02T11:21:36Z</time></trkpt><trkpt lat="45.9272291078313" lon="1.1971706035932415"><ele>356.5</ele><time>2026-05-02T11:21:38Z</time></trkpt><trkpt lat="45.92728924361852" lon="1.1972097255559193"><ele>357.0</ele><time>2026-05-02T11:21:39Z</time></trkpt><trkpt lat="45.92730826679569" lon="1.1973177837414473"><ele>357.5</ele><time>2026-05-02T11:21:42Z</time></trkpt><trkpt lat="45.927349309461896" lon="1.1974078768018384"><ele>358.0</ele><time>2026-05-02T11:21:44Z</time></trkpt><trkpt lat="45.92741376135194" lon="1.1975194701806073"><ele>358.8571428571429</ele><time>2026-05-02T11:21:46Z</time></trkpt><trkpt lat="45.927469093401164" lon="1.1976120533108845"><ele>359.7142857142857</ele><time>2026-05-02T11:21:48Z</time></trkpt><trkpt lat="45.92751683357748" lon="1.1976886358741548"><ele>360.57142857142856</ele><time>2026-05-02T11:21:50Z</time></trkpt><trkpt lat="45.927556162173346" lon="1.197776366157561"><ele>361.42857142857144</ele><time>2026-05-02T11:21:52Z</time></trkpt><trkpt lat="45.927580569501046" lon="1.1978612807984628"><ele>362.2857142857143</ele><time>2026-05-02T11:21:54Z</time></trkpt><trkpt lat="45.92756181294641" lon="1.1979495418995845"><ele>363.14285714285717</ele><time>2026-05-02T11:23:16Z</time></trkpt><trkpt lat="45.92756677635299" lon="1.1980671736949542"><ele>364.0</ele><time>2026-05-02T11:23:18Z</time></trkpt><trkpt lat="45.927551741126614" lon="1.1981556424824176"><ele>365.16666666666663</ele><time>2026-05-02T11:23:20Z</time></trkpt><trkpt lat="45.92754193593188" lon="1.198283738752459"><ele>366.3333333333333</ele><time>2026-05-02T11:23:22Z</time></trkpt><trkpt lat="45.92753207562476" lon="1.1984097593326408"><ele>367.5</ele><time>2026-05-02T11:23:24Z</time></trkpt><trkpt lat="45.92751118914361" lon="1.1985495590579474"><ele>368.6666666666667</ele><time>2026-05-02T11:23:26Z</time></trkpt><trkpt lat="45.92748668389719" lon="1.1986848068742986"><ele>369.83333333333337</ele><time>2026-05-02T11:23:28Z</time></trkpt><trkpt lat="45.927478555384226" lon="1.1987820778665563"><ele>371.0</ele><time>2026-05-02T11:23:30Z</time></trkpt><trkpt lat="45.92747040245498" lon="1.198938844981301"><ele>371.20000000000005</ele><time>2026-05-02T11:23:32Z</time></trkpt><trkpt lat="45.92745196771678" lon="1.1990901838541286"><ele>371.40000000000003</ele><time>2026-05-02T11:23:34Z</time></trkpt><trkpt lat="45.927418061270565" lon="1.1992222412606426"><ele>371.6</ele><time>2026-05-02T11:23:36Z</time></trkpt><trkpt lat="45.9273699032586" lon="1.199340770804127"><ele>371.8</ele><time>2026-05-02T11:23:38Z</time></trkpt><trkpt lat="45.9273179866884" lon="1.1994460418620954"><ele>372.0</ele><time>2026-05-02T11:23:40Z</time></trkpt><trkpt lat="45.927264023121204" lon="1.1995763816623712"><ele>372.0</ele><time>2026-05-02T11:23:42Z</time></trkpt><trkpt lat="45.92720983681256" lon="1.1997191691555869"><ele>372.0</ele><time>2026-05-02T11:23:44Z</time></trkpt><trkpt lat="45.92715658380378" lon="1.1998209027950755"><ele>372.0</ele><time>2026-05-02T11:23:46Z</time></trkpt><trkpt lat="45.92713470018747" lon="1.199924637749098"><ele>372.0</ele><time>2026-05-02T11:23:48Z</time></trkpt><trkpt lat="45.92719923228049" lon="1.1999919968083996"><ele>372.0</ele><time>2026-05-02T11:23:51Z</time></trkpt><trkpt lat="45.92730067801138" lon="1.1999882638046933"><ele>372.1666666666667</ele><time>2026-05-02T11:23:53Z</time></trkpt><trkpt lat="45.927344525653524" lon="1.2000854963655694"><ele>372.3333333333333</ele><time>2026-05-02T11:23:55Z</time></trkpt><trkpt lat="45.92733789249513" lon="1.200212391570053"><ele>372.5</ele><time>2026-05-02T11:23:57Z</time></trkpt><trkpt lat="45.927352053062016" lon="1.200349042898487"><ele>372.66666666666663</ele><time>2026-05-02T11:23:59Z</time></trkpt><trkpt lat="45.92738682048688" lon="1.200505963412395"><ele>372.8333333333333</ele><time>2026-05-02T11:24:01Z</time></trkpt><trkpt lat="45.92742528380658" lon="1.2005784798779464"><ele>373.0</ele><time>2026-05-02T11:24:02Z</time></trkpt><trkpt lat="45.927473532801635" lon="1.2006395145073272"><ele>373.14285714285717</ele><time>2026-05-02T11:24:03Z</time></trkpt><trkpt lat="45.92751020824221" lon="1.200713833652493"><ele>373.28571428571433</ele><time>2026-05-02T11:24:04Z</time></trkpt><trkpt lat="45.92755693818185" lon="1.2007852864580286"><ele>373.42857142857144</ele><time>2026-05-02T11:24:05Z</time></trkpt><trkpt lat="45.927617302501936" lon="1.2008446268498025"><ele>373.57142857142856</ele><time>2026-05-02T11:24:06Z</time></trkpt><trkpt lat="45.927665598925095" lon="1.2009126177661151"><ele>373.7142857142857</ele><time>2026-05-02T11:24:07Z</time></trkpt><trkpt lat="45.92771651093025" lon="1.2009721858074216"><ele>373.85714285714283</ele><time>2026-05-02T11:24:08Z</time></trkpt><trkpt lat="45.9277666269562" lon="1.2010269692866453"><ele>374.0</ele><time>2026-05-02T11:24:09Z</time></trkpt><trkpt lat="45.92782793163152" lon="1.2010686733596267"><ele>372.2</ele><time>2026-05-02T11:24:10Z</time></trkpt><trkpt lat="45.927934955494834" lon="1.2011487898714006"><ele>370.4</ele><time>2026-05-02T11:24:12Z</time></trkpt><trkpt lat="45.92798633195423" lon="1.2012146910473194"><ele>368.6</ele><time>2026-05-02T11:24:13Z</time></trkpt><trkpt lat="45.92804075439987" lon="1.2012816554550838"><ele>366.8</ele><time>2026-05-02T11:24:14Z</time></trkpt><trkpt lat="45.928126070258436" lon="1.2014072476320083"><ele>365.0</ele><time>2026-05-02T11:24:16Z</time></trkpt><trkpt lat="45.92817900771023" lon="1.201471334516297"><ele>365.33333333333337</ele><time>2026-05-02T11:24:17Z</time></trkpt><trkpt lat="45.928234140525475" lon="1.2015376548945425"><ele>365.6666666666667</ele><time>2026-05-02T11:24:18Z</time></trkpt><trkpt lat="45.92831559139722" lon="1.2016348885750368"><ele>366.0</ele><time>2026-05-02T11:24:20Z</time></trkpt><trkpt lat="45.928390963697055" lon="1.2017263520435646"><ele>366.3333333333333</ele><time>2026-05-02T11:24:22Z</time></trkpt><trkpt lat="45.92844731115307" lon="1.2018012533883946"><ele>366.66666666666663</ele><time>2026-05-02T11:24:24Z</time></trkpt><trkpt lat="45.92853018104258" lon="1.2018485461735293"><ele>367.0</ele><time>2026-05-02T11:24:27Z</time></trkpt><trkpt lat="45.92861570793607" lon="1.2018495871712678"><ele>366.16666666666663</ele><time>2026-05-02T11:24:30Z</time></trkpt><trkpt lat="45.92869106189439" lon="1.2018444333492828"><ele>365.3333333333333</ele><time>2026-05-02T11:24:32Z</time></trkpt><trkpt lat="45.928759864662425" lon="1.2018509722010826"><ele>364.5</ele><time>2026-05-02T11:24:34Z</time></trkpt><trkpt lat="45.92883939266745" lon="1.201866243577125"><ele>363.6666666666667</ele><time>2026-05-02T11:24:38Z</time></trkpt><trkpt lat="45.92890577660422" lon="1.2019039783992578"><ele>362.83333333333337</ele><time>2026-05-02T11:24:41Z</time></trkpt><trkpt lat="45.928969442571024" lon="1.2019743443519533"><ele>362.0</ele><time>2026-05-02T11:24:43Z</time></trkpt><trkpt lat="45.92901418607546" lon="1.2020801189297343"><ele>362.0</ele><time>2026-05-02T11:24:45Z</time></trkpt><trkpt lat="45.92906803057126" lon="1.2021839261350067"><ele>362.0</ele><time>2026-05-02T11:24:47Z</time></trkpt><trkpt lat="45.92909164405936" lon="1.2022926720352285"><ele>362.0</ele><time>2026-05-02T11:24:49Z</time></trkpt><trkpt lat="45.92916037134822" lon="1.2023819236552513"><ele>362.0</ele><time>2026-05-02T11:24:51Z</time></trkpt><trkpt lat="45.929244502582904" lon="1.2024287023302151"><ele>362.0</ele><time>2026-05-02T11:24:53Z</time></trkpt><trkpt lat="45.92934825249915" lon="1.2025134795628853"><ele>364.8</ele><time>2026-05-02T11:24:55Z</time></trkpt><trkpt lat="45.92943428737942" lon="1.2025838135736295"><ele>367.6</ele><time>2026-05-02T11:24:57Z</time></trkpt><trkpt lat="45.92954419336869" lon="1.2026737946163606"><ele>370.40000000000003</ele><time>2026-05-02T11:24:59Z</time></trkpt><trkpt lat="45.92960427220947" lon="1.2027075187579523"><ele>373.20000000000005</ele><time>2026-05-02T11:25:00Z</time></trkpt><trkpt lat="45.92971571943959" lon="1.2027863570553192"><ele>376.0</ele><time>2026-05-02T11:25:02Z</time></trkpt><trkpt lat="45.929801624698676" lon="1.2028049937485576"><ele>376.0</ele><time>2026-05-02T11:25:04Z</time></trkpt><trkpt lat="45.92993112398555" lon="1.2028434912434902"><ele>376.0</ele><time>2026-05-02T11:25:06Z</time></trkpt><trkpt lat="45.92998845534043" lon="1.2029079531829687"><ele>376.0</ele><time>2026-05-02T11:25:07Z</time></trkpt><trkpt lat="45.93009927579745" lon="1.2029743419622947"><ele>376.0</ele><time>2026-05-02T11:25:09Z</time></trkpt><trkpt lat="45.93017828271459" lon="1.2030046457639962"><ele>376.0</ele><time>2026-05-02T11:25:10Z</time></trkpt><trkpt lat="45.930270232514246" lon="1.2030391390256383"><ele>375.16666666666663</ele><time>2026-05-02T11:25:11Z</time></trkpt><trkpt lat="45.9303564685267" lon="1.2030676093090404"><ele>374.3333333333333</ele><time>2026-05-02T11:25:12Z</time></trkpt><trkpt lat="45.9304372055721" lon="1.2030904327112468"><ele>373.5</ele><time>2026-05-02T11:25:13Z</time></trkpt><trkpt lat="45.930518728999814" lon="1.203118243673769"><ele>372.6666666666667</ele><time>2026-05-02T11:25:14Z</time></trkpt><trkpt lat="45.93059865719322" lon="1.2031491373652992"><ele>371.83333333333337</ele><time>2026-05-02T11:25:15Z</time></trkpt><trkpt lat="45.93067664297699" lon="1.2031804546679463"><ele>371.0</ele><time>2026-05-02T11:25:16Z</time></trkpt><trkpt lat="45.93075951495969" lon="1.2032022025250761"><ele>371.0</ele><time>2026-05-02T11:25:17Z</time></trkpt><trkpt lat="45.930840115578704" lon="1.2032332805275936"><ele>371.0</ele><time>2026-05-02T11:25:18Z</time></trkpt><trkpt lat="45.93091189577867" lon="1.203270709072445"><ele>371.0</ele><time>2026-05-02T11:25:19Z</time></trkpt><trkpt lat="45.93097601765096" lon="1.2033197801622855"><ele>371.0</ele><time>2026-05-02T11:25:20Z</time></trkpt><trkpt lat="45.93104075003552" lon="1.2033710120391488"><ele>371.0</ele><time>2026-05-02T11:25:21Z</time></trkpt><trkpt lat="45.931096208085236" lon="1.2034196568516862"><ele>371.0</ele><time>2026-05-02T11:25:22Z</time></trkpt><trkpt lat="45.93119087404119" lon="1.2034957159916848"><ele>368.8</ele><time>2026-05-02T11:25:24Z</time></trkpt><trkpt lat="45.93128573375195" lon="1.2035421422434323"><ele>366.6</ele><time>2026-05-02T11:25:26Z</time></trkpt><trkpt lat="45.93137207312951" lon="1.2036149706037866"><ele>364.4</ele><time>2026-05-02T11:25:28Z</time></trkpt><trkpt lat="45.931430137282774" lon="1.203737341105351"><ele>362.2</ele><time>2026-05-02T11:25:30Z</time></trkpt><trkpt lat="45.93148536097764" lon="1.2038670169292618"><ele>360.0</ele><time>2026-05-02T11:25:32Z</time></trkpt><trkpt lat="45.93153471281058" lon="1.204019790361444"><ele>360.0</ele><time>2026-05-02T11:25:34Z</time></trkpt><trkpt lat="45.9315887913601" lon="1.204177322447569"><ele>360.0</ele><time>2026-05-02T11:25:36Z</time></trkpt><trkpt lat="45.93161788996976" lon="1.204257703379194"><ele>360.0</ele><time>2026-05-02T11:25:37Z</time></trkpt><trkpt lat="45.931656250431445" lon="1.2044039650442346"><ele>360.0</ele><time>2026-05-02T11:25:39Z</time></trkpt><trkpt lat="45.9316538148635" lon="1.2045034011791331"><ele>360.0</ele><time>2026-05-02T11:25:40Z</time></trkpt><trkpt lat="45.931644393161136" lon="1.2046787806215662"><ele>359.8</ele><time>2026-05-02T11:25:42Z</time></trkpt><trkpt lat="45.93166431435462" lon="1.2048492151702153"><ele>359.6</ele><time>2026-05-02T11:25:44Z</time></trkpt><trkpt lat="45.931688527630165" lon="1.2049443763302286"><ele>359.4</ele><time>2026-05-02T11:25:45Z</time></trkpt><trkpt lat="45.93171204724566" lon="1.2050622535978044"><ele>359.2</ele><time>2026-05-02T11:25:47Z</time></trkpt><trkpt lat="45.931681416721766" lon="1.205168558755147"><ele>359.0</ele><time>2026-05-02T11:25:50Z</time></trkpt><trkpt lat="45.93160440635358" lon="1.205299236429661"><ele>359.0</ele><time>2026-05-02T11:25:52Z</time></trkpt><trkpt lat="45.931532215912725" lon="1.2054277871005672"><ele>359.0</ele><time>2026-05-02T11:25:54Z</time></trkpt><trkpt lat="45.93143449486905" lon="1.2055595253923783"><ele>359.0</ele><time>2026-05-02T11:25:56Z</time></trkpt><trkpt lat="45.931351621232295" lon="1.2056760016255297"><ele>359.0</ele><time>2026-05-02T11:25:58Z</time></trkpt><trkpt lat="45.93127732349045" lon="1.205767313059049"><ele>358.83333333333337</ele><time>2026-05-02T11:26:00Z</time></trkpt><trkpt lat="45.93131292484707" lon="1.2058631977360463"><ele>358.6666666666667</ele><time>2026-05-02T11:26:03Z</time></trkpt><trkpt lat="45.93134356750205" lon="1.205949965406473"><ele>358.5</ele><time>2026-05-02T11:26:09Z</time></trkpt><trkpt lat="45.93141160155319" lon="1.2060348287455525"><ele>358.3333333333333</ele><time>2026-05-02T11:26:18Z</time></trkpt><trkpt lat="45.93149136117279" lon="1.2060481786904529"><ele>358.16666666666663</ele><time>2026-05-02T11:26:20Z</time></trkpt><trkpt lat="45.931578031564094" lon="1.2060830519261556"><ele>358.0</ele><time>2026-05-02T11:26:22Z</time></trkpt><trkpt lat="45.931652226781154" lon="1.2060798102578199"><ele>358.0</ele><time>2026-05-02T11:26:23Z</time></trkpt><trkpt lat="45.93172104352143" lon="1.2060814315432251"><ele>358.0</ele><time>2026-05-02T11:26:25Z</time></trkpt><trkpt lat="45.931813462630956" lon="1.2060646466199496"><ele>358.0</ele><time>2026-05-02T11:26:28Z</time></trkpt><trkpt lat="45.93194903036308" lon="1.2060512991931567"><ele>358.0</ele><time>2026-05-02T11:26:31Z</time></trkpt><trkpt lat="45.9320384350354" lon="1.2060228549192051"><ele>358.0</ele><time>2026-05-02T11:26:33Z</time></trkpt><trkpt lat="45.93224557577465" lon="1.2060094468914677"><ele>358.0</ele><time>2026-05-02T11:26:38Z</time></trkpt><trkpt lat="45.932339680753685" lon="1.206023784714347"><ele>358.0</ele><time>2026-05-02T11:26:40Z</time></trkpt><trkpt lat="45.932405910527216" lon="1.2060399317642312"><ele>358.0</ele><time>2026-05-02T11:26:42Z</time></trkpt><trkpt lat="45.93250794375247" lon="1.206066730905273"><ele>358.0</ele><time>2026-05-02T11:26:44Z</time></trkpt><trkpt lat="45.93257114980563" lon="1.2061304900784344"><ele>358.0</ele><time>2026-05-02T11:26:46Z</time></trkpt><trkpt lat="45.93263369086564" lon="1.2061946719682797"><ele>358.0</ele><time>2026-05-02T11:26:48Z</time></trkpt><trkpt lat="45.93270988572477" lon="1.206248385830019"><ele>358.0</ele><time>2026-05-02T11:26:50Z</time></trkpt><trkpt lat="45.932773499514205" lon="1.206313662590494"><ele>358.0</ele><time>2026-05-02T11:26:52Z</time></trkpt><trkpt lat="45.93283397150721" lon="1.2063761062363054"><ele>358.0</ele><time>2026-05-02T11:26:54Z</time></trkpt><trkpt lat="45.93289580779944" lon="1.2064112058064946"><ele>358.0</ele><time>2026-05-02T11:26:55Z</time></trkpt><trkpt lat="45.932984095741205" lon="1.2064645946585997"><ele>358.0</ele><time>2026-05-02T11:26:57Z</time></trkpt><trkpt lat="45.9330763490702" lon="1.2065392421237857"><ele>358.0</ele><time>2026-05-02T11:26:59Z</time></trkpt><trkpt lat="45.933140526924475" lon="1.2065745392758946"><ele>360.4</ele><time>2026-05-02T11:27:00Z</time></trkpt><trkpt lat="45.933231428487474" lon="1.2066287173255614"><ele>362.79999999999995</ele><time>2026-05-02T11:27:02Z</time></trkpt><trkpt lat="45.93331062201071" lon="1.206698255630879"><ele>365.2</ele><time>2026-05-02T11:27:04Z</time></trkpt><trkpt lat="45.93339539205445" lon="1.2067533349656225"><ele>367.6</ele><time>2026-05-02T11:27:06Z</time></trkpt><trkpt lat="45.93345578214062" lon="1.206824804442189"><ele>370.0</ele><time>2026-05-02T11:27:08Z</time></trkpt><trkpt lat="45.93350494088119" lon="1.2069414961544425"><ele>369.99999999999994</ele><time>2026-05-02T11:27:11Z</time></trkpt><trkpt lat="45.933541977891686" lon="1.2070357782668957"><ele>370.0</ele><time>2026-05-02T11:27:13Z</time></trkpt><trkpt lat="45.93357395807005" lon="1.2071191437244106"><ele>370.0</ele><time>2026-05-02T11:27:15Z</time></trkpt><trkpt lat="45.93360226566763" lon="1.2072314874694436"><ele>370.0</ele><time>2026-05-02T11:27:18Z</time></trkpt><trkpt lat="45.933637583464666" lon="1.2073408200909677"><ele>370.0</ele><time>2026-05-02T11:27:22Z</time></trkpt><trkpt lat="45.93366019981479" lon="1.2074346490090162"><ele>369.99999999999994</ele><time>2026-05-02T11:27:24Z</time></trkpt><trkpt lat="45.93368739727297" lon="1.2075208550032372"><ele>370.0</ele><time>2026-05-02T11:27:26Z</time></trkpt><trkpt lat="45.93370867179595" lon="1.2076119566193546"><ele>370.5</ele><time>2026-05-02T11:27:28Z</time></trkpt><trkpt lat="45.93373632842262" lon="1.2076935184549487"><ele>371.0</ele><time>2026-05-02T11:27:30Z</time></trkpt><trkpt lat="45.9337610287915" lon="1.2077932932277364"><ele>371.5</ele><time>2026-05-02T11:27:32Z</time></trkpt><trkpt lat="45.93378438784319" lon="1.207899673923766"><ele>372.0</ele><time>2026-05-02T11:27:34Z</time></trkpt><trkpt lat="45.933808899838006" lon="1.2079914470487185"><ele>372.5</ele><time>2026-05-02T11:27:38Z</time></trkpt><trkpt lat="45.93381997791453" lon="1.2081270543157123"><ele>373.0</ele><time>2026-05-02T11:27:41Z</time></trkpt><trkpt lat="45.93381285219602" lon="1.2082602060631216"><ele>373.5</ele><time>2026-05-02T11:27:44Z</time></trkpt><trkpt lat="45.93382296935354" lon="1.208360720197405"><ele>374.0</ele><time>2026-05-02T11:27:46Z</time></trkpt><trkpt lat="45.93382497306637" lon="1.2084542837216146"><ele>374.5</ele><time>2026-05-02T11:27:48Z</time></trkpt><trkpt lat="45.93382475540401" lon="1.208550859944475"><ele>375.0</ele><time>2026-05-02T11:27:50Z</time></trkpt><trkpt lat="45.93389570435376" lon="1.2086438035251252"><ele>375.5</ele><time>2026-05-02T11:27:52Z</time></trkpt><trkpt lat="45.93391314031331" lon="1.2087769769217924"><ele>376.0</ele><time>2026-05-02T11:27:56Z</time></trkpt><trkpt lat="45.93388945683804" lon="1.2088896265111138"><ele>376.5</ele><time>2026-05-02T11:27:58Z</time></trkpt><trkpt lat="45.93388945683646" lon="1.20903122568216"><ele>377.0</ele><time>2026-05-02T11:28:00Z</time></trkpt><trkpt lat="45.93387542082316" lon="1.2091856912345136"><ele>377.5</ele><time>2026-05-02T11:28:02Z</time></trkpt><trkpt lat="45.9338026133838" lon="1.2092604122820072"><ele>378.0</ele><time>2026-05-02T11:28:04Z</time></trkpt><trkpt lat="45.93374260752448" lon="1.2093195398405474"><ele>378.5</ele><time>2026-05-02T11:28:05Z</time></trkpt><trkpt lat="45.93368856565636" lon="1.2093824537824616"><ele>379.0</ele><time>2026-05-02T11:28:06Z</time></trkpt><trkpt lat="45.933622592805534" lon="1.2094621724179397"><ele>379.0</ele><time>2026-05-02T11:28:08Z</time></trkpt><trkpt lat="45.93357340774966" lon="1.2095216176882253"><ele>379.0</ele><time>2026-05-02T11:28:11Z</time></trkpt><trkpt lat="45.93349964967178" lon="1.2096174041910233"><ele>379.0</ele><time>2026-05-02T11:28:13Z</time></trkpt><trkpt lat="45.93341657006215" lon="1.2097262990230662"><ele>379.0</ele><time>2026-05-02T11:28:15Z</time></trkpt><trkpt lat="45.933339988707495" lon="1.2098254175884995"><ele>379.0</ele><time>2026-05-02T11:28:17Z</time></trkpt><trkpt lat="45.933273878942735" lon="1.2098549299077614"><ele>379.0</ele><time>2026-05-02T11:28:19Z</time></trkpt><trkpt lat="45.93334473143419" lon="1.209824508787612"><ele>379.0</ele><time>2026-05-02T11:28:26Z</time></trkpt><trkpt lat="45.93344139879206" lon="1.209722163814361"><ele>379.0</ele><time>2026-05-02T11:28:28Z</time></trkpt><trkpt lat="45.933495237255066" lon="1.209652187308599"><ele>379.0</ele><time>2026-05-02T11:28:29Z</time></trkpt><trkpt lat="45.93356097350647" lon="1.209578346142854"><ele>379.0</ele><time>2026-05-02T11:28:30Z</time></trkpt><trkpt lat="45.93362995431028" lon="1.2094955998402044"><ele>379.0</ele><time>2026-05-02T11:28:31Z</time></trkpt><trkpt lat="45.933696854257164" lon="1.209413764938472"><ele>379.0</ele><time>2026-05-02T11:28:32Z</time></trkpt><trkpt lat="45.93375919398199" lon="1.2093472512263899"><ele>379.0</ele><time>2026-05-02T11:28:33Z</time></trkpt><trkpt lat="45.93381330779888" lon="1.2092969984519477"><ele>379.0</ele><time>2026-05-02T11:28:34Z</time></trkpt><trkpt lat="45.933897688106306" lon="1.2091835252537682"><ele>379.0</ele><time>2026-05-02T11:28:36Z</time></trkpt><trkpt lat="45.93389658516441" lon="1.2090180963767543"><ele>379.0</ele><time>2026-05-02T11:28:38Z</time></trkpt><trkpt lat="45.933895593875064" lon="1.2088562654167092"><ele>378.5</ele><time>2026-05-02T11:28:40Z</time></trkpt><trkpt lat="45.93396180567241" lon="1.2087351637647852"><ele>378.0</ele><time>2026-05-02T11:28:42Z</time></trkpt><trkpt lat="45.93402961028509" lon="1.2087190502192358"><ele>377.5</ele><time>2026-05-02T11:28:43Z</time></trkpt><trkpt lat="45.93409345983507" lon="1.2087323461094543"><ele>377.0</ele><time>2026-05-02T11:28:44Z</time></trkpt><trkpt lat="45.93415827041953" lon="1.2087854975890806"><ele>376.5</ele><time>2026-05-02T11:28:45Z</time></trkpt><trkpt lat="45.93422050030142" lon="1.208853788210678"><ele>376.0</ele><time>2026-05-02T11:28:46Z</time></trkpt><trkpt lat="45.934296678038486" lon="1.2089234937208548"><ele>376.0</ele><time>2026-05-02T11:28:47Z</time></trkpt><trkpt lat="45.93438367661477" lon="1.2089979346836575"><ele>376.0</ele><time>2026-05-02T11:28:48Z</time></trkpt><trkpt lat="45.9344696604628" lon="1.2090810119677613"><ele>376.0</ele><time>2026-05-02T11:28:49Z</time></trkpt><trkpt lat="45.93456173428738" lon="1.2091700457622276"><ele>376.0</ele><time>2026-05-02T11:28:50Z</time></trkpt><trkpt lat="45.93464895110457" lon="1.2092569539936748"><ele>376.0</ele><time>2026-05-02T11:28:51Z</time></trkpt><trkpt lat="45.934735389385985" lon="1.2093410155704385"><ele>376.0</ele><time>2026-05-02T11:28:52Z</time></trkpt><trkpt lat="45.9348178637109" lon="1.209429825947987"><ele>376.0</ele><time>2026-05-02T11:28:53Z</time></trkpt><trkpt lat="45.934900731907916" lon="1.209505227081748"><ele>376.0</ele><time>2026-05-02T11:28:54Z</time></trkpt><trkpt lat="45.934978875694505" lon="1.209583854297072"><ele>376.0</ele><time>2026-05-02T11:28:55Z</time></trkpt><trkpt lat="45.935057227471894" lon="1.20966331890031"><ele>376.0</ele><time>2026-05-02T11:28:56Z</time></trkpt><trkpt lat="45.935137994363195" lon="1.2097331623870893"><ele>376.0</ele><time>2026-05-02T11:28:57Z</time></trkpt><trkpt lat="45.93522394094881" lon="1.2097970068635722"><ele>376.0</ele><time>2026-05-02T11:28:58Z</time></trkpt><trkpt lat="45.93531560855948" lon="1.2098503392999862"><ele>376.0</ele><time>2026-05-02T11:28:59Z</time></trkpt><trkpt lat="45.9354128807142" lon="1.2098855739147132"><ele>376.0</ele><time>2026-05-02T11:29:00Z</time></trkpt><trkpt lat="45.935516202306744" lon="1.2099037824673933"><ele>376.0</ele><time>2026-05-02T11:29:01Z</time></trkpt><trkpt lat="45.93562110918389" lon="1.2099041456022774"><ele>375.8</ele><time>2026-05-02T11:29:02Z</time></trkpt><trkpt lat="45.93572359839508" lon="1.209906053818598"><ele>375.6</ele><time>2026-05-02T11:29:03Z</time></trkpt><trkpt lat="45.935826208195024" lon="1.2099223658138318"><ele>375.4</ele><time>2026-05-02T11:29:04Z</time></trkpt><trkpt lat="45.93592713005714" lon="1.2099662949294325"><ele>375.2</ele><time>2026-05-02T11:29:05Z</time></trkpt><trkpt lat="45.9360155829622" lon="1.21004686915113"><ele>375.0</ele><time>2026-05-02T11:29:06Z</time></trkpt><trkpt lat="45.936094288836486" lon="1.2101531404283898"><ele>375.0</ele><time>2026-05-02T11:29:07Z</time></trkpt><trkpt lat="45.93615527508848" lon="1.210280406867322"><ele>375.0</ele><time>2026-05-02T11:29:08Z</time></trkpt><trkpt lat="45.93619341592417" lon="1.210419833560933"><ele>375.0</ele><time>2026-05-02T11:29:09Z</time></trkpt><trkpt lat="45.93618656962016" lon="1.2105663288682107"><ele>375.0</ele><time>2026-05-02T11:29:10Z</time></trkpt><trkpt lat="45.93619508071922" lon="1.2107103942370918"><ele>375.0</ele><time>2026-05-02T11:29:11Z</time></trkpt><trkpt lat="45.93620571152333" lon="1.2108498856169976"><ele>375.2857142857143</ele><time>2026-05-02T11:29:12Z</time></trkpt><trkpt lat="45.936227868494996" lon="1.2109794079265295"><ele>375.57142857142856</ele><time>2026-05-02T11:29:12.999Z</time></trkpt><trkpt lat="45.93625472773454" lon="1.2110878482559735"><ele>375.85714285714283</ele><time>2026-05-02T11:29:13.999Z</time></trkpt><trkpt lat="45.93627994996788" lon="1.211182398350326"><ele>376.1428571428571</ele><time>2026-05-02T11:29:14.999Z</time></trkpt><trkpt lat="45.9363031191109" lon="1.2112708396944782"><ele>376.42857142857144</ele><time>2026-05-02T11:29:15.999Z</time></trkpt><trkpt lat="45.93633942404827" lon="1.2113461866241022"><ele>376.71428571428567</ele><time>2026-05-02T11:29:16.999Z</time></trkpt><trkpt lat="45.93633717108285" lon="1.2114541231507763"><ele>377.0</ele><time>2026-05-02T11:29:18.999Z</time></trkpt><trkpt lat="45.936379693090785" lon="1.2115922791449238"><ele>376.6</ele><time>2026-05-02T11:29:21.999Z</time></trkpt><trkpt lat="45.93646470492579" lon="1.2116626080035928"><ele>376.20000000000005</ele><time>2026-05-02T11:29:22.999Z</time></trkpt><trkpt lat="45.93654502979632" lon="1.2117453018913675"><ele>375.8</ele><time>2026-05-02T11:29:23.999Z</time></trkpt><trkpt lat="45.93663647766948" lon="1.2118333725479595"><ele>375.4</ele><time>2026-05-02T11:29:24.999Z</time></trkpt><trkpt lat="45.93673685837029" lon="1.21193544046272"><ele>375.0</ele><time>2026-05-02T11:29:25.999Z</time></trkpt><trkpt lat="45.93684394523097" lon="1.2120395357794014"><ele>375.0</ele><time>2026-05-02T11:29:26.999Z</time></trkpt><trkpt lat="45.936947812194084" lon="1.2121478557855618"><ele>375.0</ele><time>2026-05-02T11:29:27.999Z</time></trkpt><trkpt lat="45.9370552686311" lon="1.2122581321200971"><ele>375.0</ele><time>2026-05-02T11:29:28.999Z</time></trkpt><trkpt lat="45.93716665811367" lon="1.2123615985653815"><ele>375.0</ele><time>2026-05-02T11:29:29.999Z</time></trkpt><trkpt lat="45.93727349174053" lon="1.2124641226241673"><ele>374.75</ele><time>2026-05-02T11:29:30.999Z</time></trkpt><trkpt lat="45.937368339035864" lon="1.2125717568534196"><ele>374.5</ele><time>2026-05-02T11:29:31.999Z</time></trkpt><trkpt lat="45.93746297044492" lon="1.2126808552705282"><ele>374.25</ele><time>2026-05-02T11:29:32.999Z</time></trkpt><trkpt lat="45.93756397021104" lon="1.212785019628821"><ele>374.0</ele><time>2026-05-02T11:29:33.999Z</time></trkpt><trkpt lat="45.93766100889031" lon="1.2128893117578399"><ele>374.0</ele><time>2026-05-02T11:29:34.999Z</time></trkpt><trkpt lat="45.93775325781608" lon="1.2129920436943535"><ele>374.0</ele><time>2026-05-02T11:29:35.999Z</time></trkpt><trkpt lat="45.937842183432885" lon="1.213113958467073"><ele>374.0</ele><time>2026-05-02T11:29:36.999Z</time></trkpt><trkpt lat="45.937919940983946" lon="1.2132483438232027"><ele>374.0</ele><time>2026-05-02T11:29:37.999Z</time></trkpt><trkpt lat="45.93800731587292" lon="1.2133646177611808"><ele>374.25</ele><time>2026-05-02T11:29:38.999Z</time></trkpt><trkpt lat="45.93810716196126" lon="1.2134501382025327"><ele>374.5</ele><time>2026-05-02T11:29:39.999Z</time></trkpt><trkpt lat="45.93822990212081" lon="1.213487419897275"><ele>374.75</ele><time>2026-05-02T11:29:40.999Z</time></trkpt><trkpt lat="45.93836412061391" lon="1.2134925678843913"><ele>375.0</ele><time>2026-05-02T11:29:41.999Z</time></trkpt><trkpt lat="45.938503572074254" lon="1.2134983369550134"><ele>374.5</ele><time>2026-05-02T11:29:42.999Z</time></trkpt><trkpt lat="45.938643935503876" lon="1.213504418605039"><ele>374.0</ele><time>2026-05-02T11:29:43.999Z</time></trkpt><trkpt lat="45.93877504606732" lon="1.2135143258870484"><ele>373.5</ele><time>2026-05-02T11:29:44.999Z</time></trkpt><trkpt lat="45.938893485193915" lon="1.2135132147008676"><ele>373.0</ele><time>2026-05-02T11:29:45.999Z</time></trkpt><trkpt lat="45.93899375335027" lon="1.2135194612872975"><ele>373.0</ele><time>2026-05-02T11:29:46.999Z</time></trkpt><trkpt lat="45.939077537514926" lon="1.2135274548587671"><ele>373.0</ele><time>2026-05-02T11:29:47.999Z</time></trkpt><trkpt lat="45.93918257992097" lon="1.213549281798818"><ele>373.0</ele><time>2026-05-02T11:29:49.999Z</time></trkpt><trkpt lat="45.93920291185293" lon="1.2137053421040518"><ele>373.0</ele><time>2026-05-02T11:29:50.999Z</time></trkpt><trkpt lat="45.93923267452396" lon="1.2138048126702055"><ele>373.0</ele><time>2026-05-02T11:29:51.999Z</time></trkpt><trkpt lat="45.93927964085148" lon="1.213901039487286"><ele>373.66666666666663</ele><time>2026-05-02T11:29:52.999Z</time></trkpt><trkpt lat="45.93930439979302" lon="1.214010105282075"><ele>374.3333333333333</ele><time>2026-05-02T11:29:53.999Z</time></trkpt><trkpt lat="45.93934609364246" lon="1.2141083697856543"><ele>375.0</ele><time>2026-05-02T11:29:54.999Z</time></trkpt><trkpt lat="45.93938674825042" lon="1.2141896707498658"><ele>375.6666666666667</ele><time>2026-05-02T11:29:55.999Z</time></trkpt><trkpt lat="45.939434683208326" lon="1.2142995387384534"><ele>376.33333333333337</ele><time>2026-05-02T11:29:58Z</time></trkpt><trkpt lat="45.93947060846336" lon="1.2144150346968046"><ele>377.0</ele><time>2026-05-02T11:30:06.999Z</time></trkpt><trkpt lat="45.9395194504705" lon="1.2145130460350066"><ele>377.0</ele><time>2026-05-02T11:30:08.999Z</time></trkpt><trkpt lat="45.939553935540324" lon="1.2146375441063266"><ele>377.0</ele><time>2026-05-02T11:30:10.999Z</time></trkpt><trkpt lat="45.93960308331316" lon="1.214768537406488"><ele>377.0</ele><time>2026-05-02T11:30:12.999Z</time></trkpt><trkpt lat="45.93966226415266" lon="1.2148902482522352"><ele>377.0</ele><time>2026-05-02T11:30:14.999Z</time></trkpt><trkpt lat="45.939711176533685" lon="1.215027897515385"><ele>377.0</ele><time>2026-05-02T11:30:16.999Z</time></trkpt><trkpt lat="45.93976664691472" lon="1.2151754265324854"><ele>377.20000000000005</ele><time>2026-05-02T11:30:18.999Z</time></trkpt><trkpt lat="45.93982306219408" lon="1.2153252721971028"><ele>377.4</ele><time>2026-05-02T11:30:20.999Z</time></trkpt><trkpt lat="45.9398789276699" lon="1.2154729326994602"><ele>377.6</ele><time>2026-05-02T11:30:22.999Z</time></trkpt><trkpt lat="45.93993394375198" lon="1.2156340920189348"><ele>377.79999999999995</ele><time>2026-05-02T11:30:24.999Z</time></trkpt><trkpt lat="45.939955051386576" lon="1.2157195670504815"><ele>378.0</ele><time>2026-05-02T11:30:25.999Z</time></trkpt><trkpt lat="45.939998558455" lon="1.2157928811282275"><ele>377.59999999999997</ele><time>2026-05-02T11:30:26.999Z</time></trkpt><trkpt lat="45.94005864201748" lon="1.2159520526106844"><ele>377.2</ele><time>2026-05-02T11:30:28.999Z</time></trkpt><trkpt lat="45.94008629042893" lon="1.216037394916818"><ele>376.8</ele><time>2026-05-02T11:30:29.999Z</time></trkpt><trkpt lat="45.94013609655693" lon="1.2162031120897754"><ele>376.4</ele><time>2026-05-02T11:30:31.999Z</time></trkpt><trkpt lat="45.94016506926416" lon="1.2162937363154767"><ele>376.0</ele><time>2026-05-02T11:30:32.999Z</time></trkpt><trkpt lat="45.9401968458698" lon="1.2163911263286813"><ele>376.0</ele><time>2026-05-02T11:30:33.999Z</time></trkpt><trkpt lat="45.940230401108906" lon="1.2164810605909495"><ele>376.0</ele><time>2026-05-02T11:30:34.999Z</time></trkpt><trkpt lat="45.94026156119108" lon="1.21657757067958"><ele>376.0</ele><time>2026-05-02T11:30:35.999Z</time></trkpt><trkpt lat="45.94029490150386" lon="1.2166686745824726"><ele>376.0</ele><time>2026-05-02T11:30:36.999Z</time></trkpt><trkpt lat="45.9403350048301" lon="1.2167388337109524"><ele>376.0</ele><time>2026-05-02T11:30:37.999Z</time></trkpt><trkpt lat="45.94041603851276" lon="1.2168721263265694"><ele>376.0</ele><time>2026-05-02T11:30:39.999Z</time></trkpt><trkpt lat="45.94050772940691" lon="1.2169936204011715"><ele>376.16666666666663</ele><time>2026-05-02T11:30:41.999Z</time></trkpt><trkpt lat="45.940565147550835" lon="1.217041035949163"><ele>376.3333333333333</ele><time>2026-05-02T11:30:42.999Z</time></trkpt><trkpt lat="45.94063421079188" lon="1.2170893873137896"><ele>376.5</ele><time>2026-05-02T11:30:43.999Z</time></trkpt><trkpt lat="45.94070358077484" lon="1.217152145369988"><ele>376.6666666666667</ele><time>2026-05-02T11:30:44.999Z</time></trkpt><trkpt lat="45.940783109379836" lon="1.2171861610585746"><ele>376.83333333333337</ele><time>2026-05-02T11:30:45.999Z</time></trkpt><trkpt lat="45.94085740201058" lon="1.217234109651862"><ele>377.0</ele><time>2026-05-02T11:30:46.999Z</time></trkpt><trkpt lat="45.94093909972943" lon="1.2172821187687266"><ele>377.5</ele><time>2026-05-02T11:30:47.999Z</time></trkpt><trkpt lat="45.94102491646945" lon="1.2173255964795988"><ele>378.0</ele><time>2026-05-02T11:30:48.999Z</time></trkpt><trkpt lat="45.94110721882295" lon="1.217379442355748"><ele>378.5</ele><time>2026-05-02T11:30:49.999Z</time></trkpt><trkpt lat="45.941171374317385" lon="1.2174208879005526"><ele>379.0</ele><time>2026-05-02T11:30:50.999Z</time></trkpt><trkpt lat="45.94123346357767" lon="1.2174362534621643"><ele>379.5</ele><time>2026-05-02T11:30:51.999Z</time></trkpt><trkpt lat="45.941293880895685" lon="1.2174872680316933"><ele>380.0</ele><time>2026-05-02T11:30:52.999Z</time></trkpt><trkpt lat="45.941367514048764" lon="1.2175276560618356"><ele>380.0</ele><time>2026-05-02T11:30:53.999Z</time></trkpt><trkpt lat="45.9414374845236" lon="1.2175698168996114"><ele>380.0</ele><time>2026-05-02T11:30:54.999Z</time></trkpt><trkpt lat="45.94150591487393" lon="1.2176189945289912"><ele>380.0</ele><time>2026-05-02T11:30:55.999Z</time></trkpt><trkpt lat="45.94157404334787" lon="1.2176551157374682"><ele>380.0</ele><time>2026-05-02T11:30:56.999Z</time></trkpt><trkpt lat="45.94163993938055" lon="1.217703573019364"><ele>380.0</ele><time>2026-05-02T11:30:57.999Z</time></trkpt><trkpt lat="45.94170961030328" lon="1.217747653371931"><ele>380.0</ele><time>2026-05-02T11:30:58.999Z</time></trkpt><trkpt lat="45.94177980102496" lon="1.2177983559702086"><ele>379.5</ele><time>2026-05-02T11:30:59.999Z</time></trkpt><trkpt lat="45.94185170405994" lon="1.21783898666575"><ele>379.0</ele><time>2026-05-02T11:31:00.999Z</time></trkpt><trkpt lat="45.941908310913284" lon="1.217894200505247"><ele>378.5</ele><time>2026-05-02T11:31:01.999Z</time></trkpt><trkpt lat="45.94197395709111" lon="1.2179262962336903"><ele>378.0</ele><time>2026-05-02T11:31:02.999Z</time></trkpt><trkpt lat="45.942050268195715" lon="1.2179662804352045"><ele>377.5</ele><time>2026-05-02T11:31:03.999Z</time></trkpt><trkpt lat="45.942129490569556" lon="1.2180105600549513"><ele>377.0</ele><time>2026-05-02T11:31:04.999Z</time></trkpt><trkpt lat="45.94219749675874" lon="1.2180784503391895"><ele>376.99999999999994</ele><time>2026-05-02T11:31:05.999Z</time></trkpt><trkpt lat="45.94226218692788" lon="1.218119666507111"><ele>377.0</ele><time>2026-05-02T11:31:06.999Z</time></trkpt><trkpt lat="45.94233624867453" lon="1.218149270294256"><ele>377.0</ele><time>2026-05-02T11:31:07.999Z</time></trkpt><trkpt lat="45.9424015968853" lon="1.2181949139142056"><ele>377.0</ele><time>2026-05-02T11:31:08.999Z</time></trkpt><trkpt lat="45.94245762145291" lon="1.2182460858529385"><ele>377.0</ele><time>2026-05-02T11:31:09.999Z</time></trkpt><trkpt lat="45.942516051919654" lon="1.2182866774061698"><ele>376.99999999999994</ele><time>2026-05-02T11:31:10.999Z</time></trkpt><trkpt lat="45.94257348090993" lon="1.2183265732613064"><ele>377.0</ele><time>2026-05-02T11:31:11.999Z</time></trkpt><trkpt lat="45.942630807845696" lon="1.218369454089537"><ele>377.5</ele><time>2026-05-02T11:31:12.999Z</time></trkpt><trkpt lat="45.94268790267265" lon="1.2184132073178362"><ele>378.0</ele><time>2026-05-02T11:31:13.999Z</time></trkpt><trkpt lat="45.942757602446775" lon="1.218446241652237"><ele>378.5</ele><time>2026-05-02T11:31:14.999Z</time></trkpt><trkpt lat="45.94286085177458" lon="1.218566057511703"><ele>379.0</ele><time>2026-05-02T11:31:16.999Z</time></trkpt><trkpt lat="45.94291273162562" lon="1.218638957571571"><ele>379.5</ele><time>2026-05-02T11:31:17.999Z</time></trkpt><trkpt lat="45.94299739037034" lon="1.2187006524373165"><ele>380.0</ele><time>2026-05-02T11:31:18.999Z</time></trkpt><trkpt lat="45.94305936407798" lon="1.218787100133448"><ele>380.0</ele><time>2026-05-02T11:31:19.999Z</time></trkpt><trkpt lat="45.943135277393644" lon="1.2188535448227011"><ele>380.0</ele><time>2026-05-02T11:31:20.999Z</time></trkpt><trkpt lat="45.94320051043517" lon="1.2189435965366713"><ele>380.0</ele><time>2026-05-02T11:31:21.999Z</time></trkpt><trkpt lat="45.943284612019134" lon="1.2190126088521347"><ele>380.0</ele><time>2026-05-02T11:31:22.999Z</time></trkpt><trkpt lat="45.94335489240968" lon="1.2190826860277773"><ele>380.0</ele><time>2026-05-02T11:31:23.999Z</time></trkpt><trkpt lat="45.9434354743379" lon="1.2191622700269862"><ele>380.0</ele><time>2026-05-02T11:31:24.999Z</time></trkpt><trkpt lat="45.9435060223727" lon="1.2192344730214097"><ele>380.0</ele><time>2026-05-02T11:31:25.999Z</time></trkpt><trkpt lat="45.9435796277985" lon="1.21930814692332"><ele>380.0</ele><time>2026-05-02T11:31:26.999Z</time></trkpt><trkpt lat="45.94365489315687" lon="1.2193828104618831"><ele>380.0</ele><time>2026-05-02T11:31:27.999Z</time></trkpt><trkpt lat="45.94371701197259" lon="1.2194636381547896"><ele>380.0</ele><time>2026-05-02T11:31:28.999Z</time></trkpt><trkpt lat="45.94382518612946" lon="1.2195634582082608"><ele>380.0</ele><time>2026-05-02T11:31:30.999Z</time></trkpt><trkpt lat="45.943878782400546" lon="1.21962086356997"><ele>380.0</ele><time>2026-05-02T11:31:31.999Z</time></trkpt><trkpt lat="45.943959685304776" lon="1.2197112271094865"><ele>380.0</ele><time>2026-05-02T11:31:33.997Z</time></trkpt><trkpt lat="45.94401638094401" lon="1.2197988632013195"><ele>380.0</ele><time>2026-05-02T11:31:35.997Z</time></trkpt><trkpt lat="45.94408884561909" lon="1.2198517416690668"><ele>380.0</ele><time>2026-05-02T11:31:37.997Z</time></trkpt><trkpt lat="45.94414816758143" lon="1.2199109527685725"><ele>380.0</ele><time>2026-05-02T11:31:40.997Z</time></trkpt><trkpt lat="45.944203295102035" lon="1.219976543507019"><ele>379.75</ele><time>2026-05-02T11:31:45.998Z</time></trkpt><trkpt lat="45.94425172823324" lon="1.2200458316162388"><ele>379.5</ele><time>2026-05-02T11:32:11.999Z</time></trkpt><trkpt lat="45.94434019718648" lon="1.2196769355280375"><ele>379.25</ele><time>2026-05-02T11:32:29.999Z</time></trkpt><trkpt lat="45.94437546029935" lon="1.2195772455188334"><ele>379.0</ele><time>2026-05-02T11:32:30.999Z</time></trkpt><trkpt lat="45.94440501709546" lon="1.219482105629856"><ele>379.0</ele><time>2026-05-02T11:32:31.999Z</time></trkpt><trkpt lat="45.944445451395374" lon="1.2193850096349486"><ele>379.0</ele><time>2026-05-02T11:32:32.999Z</time></trkpt><trkpt lat="45.94448913668652" lon="1.21929119629813"><ele>379.0</ele><time>2026-05-02T11:32:33.999Z</time></trkpt><trkpt lat="45.944523365562965" lon="1.2192056552766508"><ele>379.0</ele><time>2026-05-02T11:32:34.999Z</time></trkpt><trkpt lat="45.94457968697077" lon="1.2191238608758432"><ele>379.0</ele><time>2026-05-02T11:32:36.999Z</time></trkpt><trkpt lat="45.944673120952004" lon="1.219210590063248"><ele>379.0</ele><time>2026-05-02T11:32:38.999Z</time></trkpt><trkpt lat="45.944719512153405" lon="1.21927251532263"><ele>379.00000000000006</ele><time>2026-05-02T11:32:39.999Z</time></trkpt><trkpt lat="45.944769900523944" lon="1.2193324587393959"><ele>379.0</ele><time>2026-05-02T11:32:40.999Z</time></trkpt><trkpt lat="45.94481905463237" lon="1.2193936346344918"><ele>379.0</ele><time>2026-05-02T11:32:41.999Z</time></trkpt><trkpt lat="45.944861567105434" lon="1.2194753220108865"><ele>379.0</ele><time>2026-05-02T11:32:42.999Z</time></trkpt><trkpt lat="45.944927397071126" lon="1.2195263980291602"><ele>379.0</ele><time>2026-05-02T11:32:43.999Z</time></trkpt><trkpt lat="45.94498193283327" lon="1.219597860490539"><ele>379.00000000000006</ele><time>2026-05-02T11:32:44.999Z</time></trkpt><trkpt lat="45.94502703612703" lon="1.2196722057794909"><ele>379.0</ele><time>2026-05-02T11:32:45.999Z</time></trkpt><trkpt lat="45.945079521505896" lon="1.2197485333565345"><ele>377.0</ele><time>2026-05-02T11:32:46.999Z</time></trkpt><trkpt lat="45.94512257070087" lon="1.2198390646109611"><ele>375.0</ele><time>2026-05-02T11:32:47.999Z</time></trkpt><trkpt lat="45.94513239158783" lon="1.2200231452223742"><ele>373.0</ele><time>2026-05-02T11:32:49.999Z</time></trkpt><trkpt lat="45.94514659172967" lon="1.2201425349436978"><ele>371.0</ele><time>2026-05-02T11:32:50.999Z</time></trkpt><trkpt lat="45.94515995338287" lon="1.2202523221640955"><ele>369.0</ele><time>2026-05-02T11:32:51.999Z</time></trkpt><trkpt lat="45.94517387427927" lon="1.2203667054721776"><ele>367.0</ele><time>2026-05-02T11:32:52.999Z</time></trkpt><trkpt lat="45.9451854687016" lon="1.220484048516796"><ele>367.0</ele><time>2026-05-02T11:32:53.999Z</time></trkpt><trkpt lat="45.9451931335668" lon="1.2205995504661464"><ele>367.0</ele><time>2026-05-02T11:32:54.999Z</time></trkpt><trkpt lat="45.94519689549749" lon="1.220715144291111"><ele>367.0</ele><time>2026-05-02T11:32:55.999Z</time></trkpt><trkpt lat="45.94521096750747" lon="1.220828417173"><ele>367.0</ele><time>2026-05-02T11:32:56.999Z</time></trkpt><trkpt lat="45.94520770501572" lon="1.2209396886488295"><ele>367.0</ele><time>2026-05-02T11:32:57.999Z</time></trkpt><trkpt lat="45.94520540723129" lon="1.2210396624838276"><ele>367.0</ele><time>2026-05-02T11:32:58.999Z</time></trkpt><trkpt lat="45.945224331750595" lon="1.2211343559273424"><ele>367.8333333333333</ele><time>2026-05-02T11:32:59.999Z</time></trkpt><trkpt lat="45.945266544577166" lon="1.221214303571282"><ele>368.66666666666663</ele><time>2026-05-02T11:33:00.999Z</time></trkpt><trkpt lat="45.94534139740108" lon="1.2212191245165542"><ele>369.5</ele><time>2026-05-02T11:33:01.999Z</time></trkpt><trkpt lat="45.94546015479389" lon="1.2212621461879771"><ele>370.3333333333333</ele><time>2026-05-02T11:33:03.999Z</time></trkpt><trkpt lat="45.94553314506361" lon="1.221277050105243"><ele>371.1666666666667</ele><time>2026-05-02T11:33:04.999Z</time></trkpt><trkpt lat="45.94561176246992" lon="1.2212997245492136"><ele>372.0</ele><time>2026-05-02T11:33:05.999Z</time></trkpt><trkpt lat="45.94569255186735" lon="1.2212702739372663"><ele>372.0</ele><time>2026-05-02T11:33:06.999Z</time></trkpt><trkpt lat="45.94574968468794" lon="1.2212106227495956"><ele>372.0</ele><time>2026-05-02T11:33:07.999Z</time></trkpt><trkpt lat="45.945798367094284" lon="1.2211477403525972"><ele>372.0</ele><time>2026-05-02T11:33:08.999Z</time></trkpt><trkpt lat="45.94590912005759" lon="1.221077334992238"><ele>372.0</ele><time>2026-05-02T11:33:10.999Z</time></trkpt><trkpt lat="45.945962229864925" lon="1.221010891321595"><ele>372.0</ele><time>2026-05-02T11:33:12.999Z</time></trkpt><trkpt lat="45.94603717934627" lon="1.2209826152314893"><ele>372.0</ele><time>2026-05-02T11:33:17.999Z</time></trkpt><trkpt lat="45.94611958036692" lon="1.2209772233395146"><ele>372.0</ele><time>2026-05-02T11:33:19.999Z</time></trkpt><trkpt lat="45.946208400975316" lon="1.220987719891841"><ele>372.0</ele><time>2026-05-02T11:33:21.999Z</time></trkpt><trkpt lat="45.94629671159788" lon="1.221012601501311"><ele>372.0</ele><time>2026-05-02T11:33:23.999Z</time></trkpt><trkpt lat="45.94619537763493" lon="1.2209954500030784"><ele>372.0</ele><time>2026-05-02T11:33:32.999Z</time></trkpt><trkpt lat="45.9461145650261" lon="1.2209773040322078"><ele>372.0</ele><time>2026-05-02T11:33:34.999Z</time></trkpt><trkpt lat="45.94602305613056" lon="1.2209675441366654"><ele>372.0</ele><time>2026-05-02T11:33:36.999Z</time></trkpt><trkpt lat="45.94595573982961" lon="1.220985505679254"><ele>372.0</ele><time>2026-05-02T11:33:38.999Z</time></trkpt><trkpt lat="45.945917284967244" lon="1.2210692895598307"><ele>372.0</ele><time>2026-05-02T11:33:42.999Z</time></trkpt><trkpt lat="45.94582975190639" lon="1.2211493970493454"><ele>372.0</ele><time>2026-05-02T11:34:09Z</time></trkpt><trkpt lat="45.945739842995096" lon="1.221222010345937"><ele>372.0</ele><time>2026-05-02T11:34:11Z</time></trkpt><trkpt lat="45.94562184149025" lon="1.2212856400557197"><ele>372.0</ele><time>2026-05-02T11:34:13Z</time></trkpt><trkpt lat="45.9454978827799" lon="1.221263013851981"><ele>372.0</ele><time>2026-05-02T11:34:15Z</time></trkpt><trkpt lat="45.94538067179991" lon="1.2212331540770018"><ele>372.0</ele><time>2026-05-02T11:34:17Z</time></trkpt><trkpt lat="45.94531428744553" lon="1.2211999014303543"><ele>372.0</ele><time>2026-05-02T11:34:18Z</time></trkpt><trkpt lat="45.94519418176114" lon="1.221144873444078"><ele>372.0</ele><time>2026-05-02T11:34:20Z</time></trkpt><trkpt lat="45.945167184809904" lon="1.2210618279883583"><ele>372.0</ele><time>2026-05-02T11:34:21Z</time></trkpt><trkpt lat="45.945213833151286" lon="1.2208550115992944"><ele>372.0</ele><time>2026-05-02T11:34:22Z</time></trkpt><trkpt lat="45.945222212011416" lon="1.2207639965405315"><ele>372.0</ele><time>2026-05-02T11:34:23Z</time></trkpt><trkpt lat="45.94522006204626" lon="1.2206450650724388"><ele>372.0</ele><time>2026-05-02T11:34:24Z</time></trkpt><trkpt lat="45.94520969648128" lon="1.2204543863646535"><ele>372.0</ele><time>2026-05-02T11:34:26Z</time></trkpt><trkpt lat="45.9451966128952" lon="1.220353783708598"><ele>371.42857142857144</ele><time>2026-05-02T11:34:27Z</time></trkpt><trkpt lat="45.945182627446776" lon="1.220252916166774"><ele>370.8571428571429</ele><time>2026-05-02T11:34:28Z</time></trkpt><trkpt lat="45.9451714105353" lon="1.2201523335753726"><ele>370.28571428571433</ele><time>2026-05-02T11:34:29Z</time></trkpt><trkpt lat="45.94515692731117" lon="1.2200512249812319"><ele>369.7142857142857</ele><time>2026-05-02T11:34:30Z</time></trkpt><trkpt lat="45.945145076529805" lon="1.2199467678265319"><ele>369.1428571428571</ele><time>2026-05-02T11:34:31Z</time></trkpt><trkpt lat="45.94512862967391" lon="1.2198526966415844"><ele>368.5714285714286</ele><time>2026-05-02T11:34:32Z</time></trkpt><trkpt lat="45.94510225509891" lon="1.2197623568709663"><ele>368.0</ele><time>2026-05-02T11:34:33Z</time></trkpt><trkpt lat="45.945052064458544" lon="1.2196909886601408"><ele>369.5714285714286</ele><time>2026-05-02T11:34:34Z</time></trkpt><trkpt lat="45.94499391600847" lon="1.219626128666619"><ele>371.1428571428571</ele><time>2026-05-02T11:34:35Z</time></trkpt><trkpt lat="45.94493124964722" lon="1.2195611879903148"><ele>372.7142857142857</ele><time>2026-05-02T11:34:36Z</time></trkpt><trkpt lat="45.944874516460736" lon="1.219488652508898"><ele>374.28571428571433</ele><time>2026-05-02T11:34:37Z</time></trkpt><trkpt lat="45.94481384796341" lon="1.2194211484965687"><ele>375.8571428571429</ele><time>2026-05-02T11:34:38Z</time></trkpt><trkpt lat="45.94475635603937" lon="1.2193527977336547"><ele>377.42857142857144</ele><time>2026-05-02T11:34:39Z</time></trkpt><trkpt lat="45.9447052987251" lon="1.2192876135149588"><ele>379.0</ele><time>2026-05-02T11:34:40Z</time></trkpt><trkpt lat="45.944630883593476" lon="1.219167296510571"><ele>379.0</ele><time>2026-05-02T11:34:42Z</time></trkpt><trkpt lat="45.9445934547745" lon="1.219094451036094"><ele>379.0</ele><time>2026-05-02T11:34:44Z</time></trkpt><trkpt lat="45.94459904142297" lon="1.21899615148113"><ele>379.0</ele><time>2026-05-02T11:35:54Z</time></trkpt><trkpt lat="45.944631598134094" lon="1.2188966686090528"><ele>379.0</ele><time>2026-05-02T11:35:56Z</time></trkpt><trkpt lat="45.944686056581965" lon="1.2187429402829344"><ele>379.0</ele><time>2026-05-02T11:35:58Z</time></trkpt><trkpt lat="45.94470469030544" lon="1.2186382988067284"><ele>379.0</ele><time>2026-05-02T11:35:59Z</time></trkpt><trkpt lat="45.94472825173854" lon="1.2185152194148716"><ele>379.2</ele><time>2026-05-02T11:36:00Z</time></trkpt><trkpt lat="45.94475226638983" lon="1.2183798764137845"><ele>379.4</ele><time>2026-05-02T11:36:01Z</time></trkpt><trkpt lat="45.944775099126645" lon="1.2182360587799004"><ele>379.6</ele><time>2026-05-02T11:36:02Z</time></trkpt><trkpt lat="45.94479844385749" lon="1.2180845806465506"><ele>379.8</ele><time>2026-05-02T11:36:03Z</time></trkpt><trkpt lat="45.94482436254048" lon="1.217929721953708"><ele>380.0</ele><time>2026-05-02T11:36:04Z</time></trkpt><trkpt lat="45.944851286593234" lon="1.2177715421251616"><ele>379.2</ele><time>2026-05-02T11:36:05Z</time></trkpt><trkpt lat="45.94487687535953" lon="1.2176089593827368"><ele>378.4</ele><time>2026-05-02T11:36:06Z</time></trkpt><trkpt lat="45.94489569104528" lon="1.2174503288793348"><ele>377.6</ele><time>2026-05-02T11:36:07Z</time></trkpt><trkpt lat="45.94490530875598" lon="1.2172941578777166"><ele>376.8</ele><time>2026-05-02T11:36:08Z</time></trkpt><trkpt lat="45.94491056908308" lon="1.2171416020140207"><ele>376.0</ele><time>2026-05-02T11:36:09Z</time></trkpt><trkpt lat="45.944875688362856" lon="1.2169919021677713"><ele>375.5</ele><time>2026-05-02T11:36:10Z</time></trkpt><trkpt lat="45.944824015401494" lon="1.2168633393245611"><ele>375.0</ele><time>2026-05-02T11:36:11Z</time></trkpt><trkpt lat="45.944772218741086" lon="1.2167479829950603"><ele>374.5</ele><time>2026-05-02T11:36:12Z</time></trkpt><trkpt lat="45.94472710112041" lon="1.2166412595051168"><ele>374.0</ele><time>2026-05-02T11:36:13Z</time></trkpt><trkpt lat="45.944684352442515" lon="1.216541149862135"><ele>373.5</ele><time>2026-05-02T11:36:14Z</time></trkpt><trkpt lat="45.944647069697844" lon="1.2164481831616842"><ele>373.0</ele><time>2026-05-02T11:36:15Z</time></trkpt><trkpt lat="45.94461510564005" lon="1.2163591163805205"><ele>373.0</ele><time>2026-05-02T11:36:16Z</time></trkpt><trkpt lat="45.94457404747608" lon="1.2162036914756913"><ele>373.0</ele><time>2026-05-02T11:36:18Z</time></trkpt><trkpt lat="45.944559674044285" lon="1.2160187653075074"><ele>373.0</ele><time>2026-05-02T11:36:20Z</time></trkpt><trkpt lat="45.94456917212996" lon="1.2159084200011032"><ele>373.0</ele><time>2026-05-02T11:36:21Z</time></trkpt><trkpt lat="45.944580845528044" lon="1.2157897786517797"><ele>373.0</ele><time>2026-05-02T11:36:22Z</time></trkpt><trkpt lat="45.944617550259686" lon="1.21566464257281"><ele>372.79999999999995</ele><time>2026-05-02T11:36:23Z</time></trkpt><trkpt lat="45.94465673738596" lon="1.2155481631516485"><ele>372.6</ele><time>2026-05-02T11:36:24Z</time></trkpt><trkpt lat="45.94470218507931" lon="1.2154247621181071"><ele>372.4</ele><time>2026-05-02T11:36:25Z</time></trkpt><trkpt lat="45.944744438261296" lon="1.2152950544606065"><ele>372.20000000000005</ele><time>2026-05-02T11:36:26Z</time></trkpt><trkpt lat="45.9447790338033" lon="1.2151582349965482"><ele>372.0</ele><time>2026-05-02T11:36:27Z</time></trkpt><trkpt lat="45.94481346288102" lon="1.215028831129079"><ele>372.0</ele><time>2026-05-02T11:36:28Z</time></trkpt><trkpt lat="45.94481507104241" lon="1.214878439552178"><ele>372.0</ele><time>2026-05-02T11:36:29Z</time></trkpt><trkpt lat="45.944767406368356" lon="1.214726002812756"><ele>372.0</ele><time>2026-05-02T11:36:30Z</time></trkpt><trkpt lat="45.94474239828817" lon="1.214591618182516"><ele>372.0</ele><time>2026-05-02T11:36:31Z</time></trkpt><trkpt lat="45.94471760851366" lon="1.214457530092194"><ele>372.0</ele><time>2026-05-02T11:36:32Z</time></trkpt><trkpt lat="45.944719112916246" lon="1.2143067102982785"><ele>371.0</ele><time>2026-05-02T11:36:33Z</time></trkpt><trkpt lat="45.94472803750972" lon="1.214161281365233"><ele>370.0</ele><time>2026-05-02T11:36:34Z</time></trkpt><trkpt lat="45.94474488242555" lon="1.2140038589761712"><ele>369.0</ele><time>2026-05-02T11:36:35Z</time></trkpt><trkpt lat="45.94476751470902" lon="1.2138412488359116"><ele>368.0</ele><time>2026-05-02T11:36:36Z</time></trkpt><trkpt lat="45.94475984556002" lon="1.2136833425059288"><ele>367.0</ele><time>2026-05-02T11:36:37Z</time></trkpt><trkpt lat="45.94473003601857" lon="1.2135316251839736"><ele>366.20000000000005</ele><time>2026-05-02T11:36:38Z</time></trkpt><trkpt lat="45.94469991814309" lon="1.2133823882536963"><ele>365.4</ele><time>2026-05-02T11:36:39Z</time></trkpt><trkpt lat="45.94468452735859" lon="1.2132448581531279"><ele>364.6</ele><time>2026-05-02T11:36:40Z</time></trkpt><trkpt lat="45.944674467102516" lon="1.2130989250266944"><ele>363.79999999999995</ele><time>2026-05-02T11:36:41Z</time></trkpt><trkpt lat="45.94465635806242" lon="1.212967329569964"><ele>363.0</ele><time>2026-05-02T11:36:42Z</time></trkpt><trkpt lat="45.944653735554894" lon="1.2128484682047174"><ele>362.79999999999995</ele><time>2026-05-02T11:36:43Z</time></trkpt><trkpt lat="45.944646612840394" lon="1.2127390951634194"><ele>362.6</ele><time>2026-05-02T11:36:44Z</time></trkpt><trkpt lat="45.94465108639161" lon="1.2126198181586927"><ele>362.4</ele><time>2026-05-02T11:36:46Z</time></trkpt><trkpt lat="45.944751532072324" lon="1.2125165004497716"><ele>362.20000000000005</ele><time>2026-05-02T11:36:49Z</time></trkpt><trkpt lat="45.944871126323605" lon="1.212465206243162"><ele>362.0</ele><time>2026-05-02T11:36:51Z</time></trkpt><trkpt lat="45.9449384321083" lon="1.2124351067168202"><ele>362.0</ele><time>2026-05-02T11:36:52Z</time></trkpt><trkpt lat="45.945018305994324" lon="1.2123913124679202"><ele>362.0</ele><time>2026-05-02T11:36:53Z</time></trkpt><trkpt lat="45.9451042877583" lon="1.2123360354127242"><ele>362.0</ele><time>2026-05-02T11:36:54Z</time></trkpt><trkpt lat="45.945199200449565" lon="1.212283893764769"><ele>362.0</ele><time>2026-05-02T11:36:55Z</time></trkpt><trkpt lat="45.94530302604743" lon="1.212246409238201"><ele>362.0</ele><time>2026-05-02T11:36:56Z</time></trkpt><trkpt lat="45.945417212153906" lon="1.2122288851355356"><ele>361.25</ele><time>2026-05-02T11:36:57Z</time></trkpt><trkpt lat="45.94553374903032" lon="1.2122121336679366"><ele>360.5</ele><time>2026-05-02T11:36:58Z</time></trkpt><trkpt lat="45.945656942554" lon="1.2122029841399098"><ele>359.75</ele><time>2026-05-02T11:36:59Z</time></trkpt><trkpt lat="45.94577450330645" lon="1.2121987178045723"><ele>359.0</ele><time>2026-05-02T11:37:00Z</time></trkpt><trkpt lat="45.94589113237603" lon="1.2121972859360755"><ele>359.0</ele><time>2026-05-02T11:37:01Z</time></trkpt><trkpt lat="45.946134884343984" lon="1.212154229232266"><ele>359.0</ele><time>2026-05-02T11:37:03Z</time></trkpt><trkpt lat="45.94625653860624" lon="1.2121156292725903"><ele>359.0</ele><time>2026-05-02T11:37:04Z</time></trkpt><trkpt lat="45.94635685654514" lon="1.2120495433463674"><ele>359.0</ele><time>2026-05-02T11:37:05Z</time></trkpt><trkpt lat="45.94646921547555" lon="1.211978679701219"><ele>359.0</ele><time>2026-05-02T11:37:06Z</time></trkpt><trkpt lat="45.94657012952571" lon="1.211895312790677"><ele>359.0</ele><time>2026-05-02T11:37:07Z</time></trkpt><trkpt lat="45.94666280986919" lon="1.2117842959330773"><ele>359.0</ele><time>2026-05-02T11:37:08Z</time></trkpt><trkpt lat="45.946725984641866" lon="1.2116822083142025"><ele>357.4</ele><time>2026-05-02T11:37:09Z</time></trkpt><trkpt lat="45.94676217050478" lon="1.2115507188374577"><ele>355.79999999999995</ele><time>2026-05-02T11:37:10Z</time></trkpt><trkpt lat="45.94678622320488" lon="1.2114025260719532"><ele>354.20000000000005</ele><time>2026-05-02T11:37:11Z</time></trkpt><trkpt lat="45.946811501310265" lon="1.211250866073421"><ele>352.6</ele><time>2026-05-02T11:37:12Z</time></trkpt><trkpt lat="45.94685324684652" lon="1.21110540091841"><ele>351.0</ele><time>2026-05-02T11:37:13Z</time></trkpt><trkpt lat="45.94692276605792" lon="1.2109850904569857"><ele>350.75</ele><time>2026-05-02T11:37:14Z</time></trkpt><trkpt lat="45.947017986482784" lon="1.2108689407108335"><ele>350.5</ele><time>2026-05-02T11:37:15Z</time></trkpt><trkpt lat="45.947115608721475" lon="1.2107590033501938"><ele>350.25</ele><time>2026-05-02T11:37:16Z</time></trkpt><trkpt lat="45.947233583212785" lon="1.2106406323894048"><ele>350.0</ele><time>2026-05-02T11:37:17Z</time></trkpt><trkpt lat="45.947365086815545" lon="1.2105146781637368"><ele>349.0</ele><time>2026-05-02T11:37:18Z</time></trkpt><trkpt lat="45.94749808537054" lon="1.2103815291743183"><ele>348.0</ele><time>2026-05-02T11:37:19Z</time></trkpt><trkpt lat="45.947624552430675" lon="1.2102566595596451"><ele>347.0</ele><time>2026-05-02T11:37:20Z</time></trkpt><trkpt lat="45.94774218215783" lon="1.2101450027081457"><ele>347.25</ele><time>2026-05-02T11:37:21Z</time></trkpt><trkpt lat="45.94786221411903" lon="1.2100337027974255"><ele>347.5</ele><time>2026-05-02T11:37:22Z</time></trkpt><trkpt lat="45.94796962843967" lon="1.2099308629665764"><ele>347.75</ele><time>2026-05-02T11:37:23Z</time></trkpt><trkpt lat="45.948068359803" lon="1.2098280590377457"><ele>348.0</ele><time>2026-05-02T11:37:24Z</time></trkpt><trkpt lat="45.94815929238415" lon="1.209730436950243"><ele>348.0</ele><time>2026-05-02T11:37:25Z</time></trkpt><trkpt lat="45.948239093826224" lon="1.2096167535529494"><ele>348.0</ele><time>2026-05-02T11:37:26Z</time></trkpt><trkpt lat="45.948305048638716" lon="1.209482693530403"><ele>348.0</ele><time>2026-05-02T11:37:27Z</time></trkpt><trkpt lat="45.94836026252028" lon="1.2093372109317817"><ele>348.0</ele><time>2026-05-02T11:37:28Z</time></trkpt><trkpt lat="45.948404838995785" lon="1.2091850104331743"><ele>349.25</ele><time>2026-05-02T11:37:29Z</time></trkpt><trkpt lat="45.94844753791682" lon="1.2090432019679676"><ele>350.5</ele><time>2026-05-02T11:37:30Z</time></trkpt><trkpt lat="45.94847884141851" lon="1.208895154294164"><ele>351.75</ele><time>2026-05-02T11:37:31Z</time></trkpt><trkpt lat="45.948501562270486" lon="1.208733200566838"><ele>353.0</ele><time>2026-05-02T11:37:32Z</time></trkpt><trkpt lat="45.948514444294034" lon="1.2085589440957871"><ele>353.0</ele><time>2026-05-02T11:37:33Z</time></trkpt><trkpt lat="45.94851429523222" lon="1.2083713473021642"><ele>353.0</ele><time>2026-05-02T11:37:34Z</time></trkpt><trkpt lat="45.94852280831859" lon="1.2081867820353467"><ele>353.0</ele><time>2026-05-02T11:37:35.001Z</time></trkpt><trkpt lat="45.94854893082554" lon="1.2080067712612221"><ele>353.0</ele><time>2026-05-02T11:37:36.001Z</time></trkpt><trkpt lat="45.94857703705084" lon="1.2078235605595036"><ele>352.25</ele><time>2026-05-02T11:37:37.001Z</time></trkpt><trkpt lat="45.94859972328416" lon="1.207639823929707"><ele>351.5</ele><time>2026-05-02T11:37:38.001Z</time></trkpt><trkpt lat="45.94862121470292" lon="1.2074562739713084"><ele>350.75</ele><time>2026-05-02T11:37:39.001Z</time></trkpt><trkpt lat="45.94864588354528" lon="1.2072796154665368"><ele>350.0</ele><time>2026-05-02T11:37:40.001Z</time></trkpt><trkpt lat="45.94869023059317" lon="1.2071153015472296"><ele>348.75</ele><time>2026-05-02T11:37:41.001Z</time></trkpt><trkpt lat="45.94875397927627" lon="1.2069814896482853"><ele>347.5</ele><time>2026-05-02T11:37:42.001Z</time></trkpt><trkpt lat="45.94883663558567" lon="1.2068733206324669"><ele>346.25</ele><time>2026-05-02T11:37:43.001Z</time></trkpt><trkpt lat="45.94894350591739" lon="1.2067904329757702"><ele>345.0</ele><time>2026-05-02T11:37:44.001Z</time></trkpt><trkpt lat="45.94904648639397" lon="1.206744681094772"><ele>345.0</ele><time>2026-05-02T11:37:45.001Z</time></trkpt><trkpt lat="45.94914032157931" lon="1.2067053418490041"><ele>345.0</ele><time>2026-05-02T11:37:46.001Z</time></trkpt><trkpt lat="45.949217596964864" lon="1.2066872312310966"><ele>345.0</ele><time>2026-05-02T11:37:47.001Z</time></trkpt><trkpt lat="45.94929221323842" lon="1.2066765066475589"><ele>345.0</ele><time>2026-05-02T11:37:48.001Z</time></trkpt><trkpt lat="45.94937261463753" lon="1.206652376544958"><ele>345.0</ele><time>2026-05-02T11:37:49.001Z</time></trkpt><trkpt lat="45.949545908160964" lon="1.2065521271694541"><ele>343.6</ele><time>2026-05-02T11:37:52.001Z</time></trkpt><trkpt lat="45.94963030454199" lon="1.206437005920947"><ele>342.2</ele><time>2026-05-02T11:37:54.001Z</time></trkpt><trkpt lat="45.949682435794344" lon="1.2063280010101987"><ele>340.79999999999995</ele><time>2026-05-02T11:37:56.001Z</time></trkpt><trkpt lat="45.94973792987084" lon="1.206236901058022"><ele>339.4</ele><time>2026-05-02T11:37:58.001Z</time></trkpt><trkpt lat="45.94977893627264" lon="1.2061164003209666"><ele>338.0</ele><time>2026-05-02T11:38:00.001Z</time></trkpt><trkpt lat="45.94986010537782" lon="1.2059907441335498"><ele>338.0</ele><time>2026-05-02T11:38:02.001Z</time></trkpt><trkpt lat="45.9499177956179" lon="1.2059323965415036"><ele>338.0</ele><time>2026-05-02T11:38:03.001Z</time></trkpt><trkpt lat="45.94998227571743" lon="1.2058707849215162"><ele>338.0</ele><time>2026-05-02T11:38:04.001Z</time></trkpt><trkpt lat="45.95006421719613" lon="1.2058141271071476"><ele>338.0</ele><time>2026-05-02T11:38:05.001Z</time></trkpt><trkpt lat="45.95015503770649" lon="1.20575058602622"><ele>338.0</ele><time>2026-05-02T11:38:06.001Z</time></trkpt><trkpt lat="45.95024769343994" lon="1.205691065721413"><ele>338.0</ele><time>2026-05-02T11:38:07.001Z</time></trkpt><trkpt lat="45.95034267275667" lon="1.2056376447032982"><ele>335.0</ele><time>2026-05-02T11:38:08.001Z</time></trkpt><trkpt lat="45.95044627930202" lon="1.2055941770729715"><ele>332.0</ele><time>2026-05-02T11:38:09.001Z</time></trkpt><trkpt lat="45.950554808097664" lon="1.2055748678956772"><ele>329.0</ele><time>2026-05-02T11:38:10.001Z</time></trkpt><trkpt lat="45.95066310532956" lon="1.2055725229659646"><ele>326.0</ele><time>2026-05-02T11:38:11.001Z</time></trkpt><trkpt lat="45.95077650066611" lon="1.2055837556934759"><ele>323.0</ele><time>2026-05-02T11:38:12.001Z</time></trkpt><trkpt lat="45.950878306344435" lon="1.2056554910664765"><ele>324.0</ele><time>2026-05-02T11:38:13.001Z</time></trkpt><trkpt lat="45.95098221141592" lon="1.2057177560029224"><ele>325.0</ele><time>2026-05-02T11:38:14.001Z</time></trkpt><trkpt lat="45.95110584438852" lon="1.205781692943501"><ele>326.0</ele><time>2026-05-02T11:38:15.001Z</time></trkpt><trkpt lat="45.95120702257174" lon="1.2058536239711997"><ele>327.0</ele><time>2026-05-02T11:38:16.001Z</time></trkpt><trkpt lat="45.9512972198881" lon="1.2059140244894"><ele>327.0</ele><time>2026-05-02T11:38:17.001Z</time></trkpt><trkpt lat="45.95138609834071" lon="1.2059648597049821"><ele>327.0</ele><time>2026-05-02T11:38:18.001Z</time></trkpt><trkpt lat="45.951467719670525" lon="1.2060023412962502"><ele>327.0</ele><time>2026-05-02T11:38:19.001Z</time></trkpt><trkpt lat="45.95155592121348" lon="1.2060118996523315"><ele>327.0</ele><time>2026-05-02T11:38:20.001Z</time></trkpt><trkpt lat="45.95165543436299" lon="1.2060074609595617"><ele>327.0</ele><time>2026-05-02T11:38:21.001Z</time></trkpt><trkpt lat="45.95176137207096" lon="1.2059804289552065"><ele>328.25</ele><time>2026-05-02T11:38:22.001Z</time></trkpt><trkpt lat="45.95186730303165" lon="1.2059267004974126"><ele>329.5</ele><time>2026-05-02T11:38:23.001Z</time></trkpt><trkpt lat="45.951979780005736" lon="1.2058506140773955"><ele>330.75</ele><time>2026-05-02T11:38:24.001Z</time></trkpt><trkpt lat="45.95209261556162" lon="1.2057395309357757"><ele>332.0</ele><time>2026-05-02T11:38:25.001Z</time></trkpt><trkpt lat="45.95219881293811" lon="1.205590161441932"><ele>332.0</ele><time>2026-05-02T11:38:26.001Z</time></trkpt><trkpt lat="45.952312567178936" lon="1.2054406304567278"><ele>332.0</ele><time>2026-05-02T11:38:27.001Z</time></trkpt><trkpt lat="45.95242325977267" lon="1.2052741389086563"><ele>332.0</ele><time>2026-05-02T11:38:28.001Z</time></trkpt><trkpt lat="45.952533219321154" lon="1.2051060761199965"><ele>336.0</ele><time>2026-05-02T11:38:29.001Z</time></trkpt><trkpt lat="45.95265438328679" lon="1.2049452129720435"><ele>340.0</ele><time>2026-05-02T11:38:30.001Z</time></trkpt><trkpt lat="45.95277456702113" lon="1.2047831180366473"><ele>344.0</ele><time>2026-05-02T11:38:31.001Z</time></trkpt><trkpt lat="45.95289250937688" lon="1.2046089173747394"><ele>344.0</ele><time>2026-05-02T11:38:32.001Z</time></trkpt><trkpt lat="45.95301337210181" lon="1.2044353059666546"><ele>344.0</ele><time>2026-05-02T11:38:33.001Z</time></trkpt><trkpt lat="45.95314111492727" lon="1.2042674099421364"><ele>344.0</ele><time>2026-05-02T11:38:34.001Z</time></trkpt><trkpt lat="45.9532689041619" lon="1.2040951708454863"><ele>345.6666666666667</ele><time>2026-05-02T11:38:35.001Z</time></trkpt><trkpt lat="45.95339205050544" lon="1.2039348310235565"><ele>347.3333333333333</ele><time>2026-05-02T11:38:36.001Z</time></trkpt><trkpt lat="45.95352353560003" lon="1.2038082845905618"><ele>349.0</ele><time>2026-05-02T11:38:37.001Z</time></trkpt><trkpt lat="45.95366484953388" lon="1.2037118856072528"><ele>349.0</ele><time>2026-05-02T11:38:38.001Z</time></trkpt><trkpt lat="45.9538150328502" lon="1.2036446925535382"><ele>349.0</ele><time>2026-05-02T11:38:39.001Z</time></trkpt><trkpt lat="45.95395893194667" lon="1.203603009613628"><ele>349.0</ele><time>2026-05-02T11:38:40.001Z</time></trkpt><trkpt lat="45.95408981867092" lon="1.2035608650019622"><ele>349.0</ele><time>2026-05-02T11:38:41.001Z</time></trkpt><trkpt lat="45.954305394958865" lon="1.2034817699613616"><ele>348.2</ele><time>2026-05-02T11:38:43.001Z</time></trkpt><trkpt lat="45.954388327153126" lon="1.2034549057320523"><ele>347.4</ele><time>2026-05-02T11:38:44.001Z</time></trkpt><trkpt lat="45.95448786204075" lon="1.203465285766941"><ele>346.6</ele><time>2026-05-02T11:38:46.001Z</time></trkpt><trkpt lat="45.95447448732048" lon="1.2036559979809647"><ele>345.8</ele><time>2026-05-02T11:38:48.001Z</time></trkpt><trkpt lat="45.954465934183276" lon="1.2037617652360275"><ele>345.0</ele><time>2026-05-02T11:38:49.001Z</time></trkpt><trkpt lat="45.954455169810764" lon="1.2038805868299571"><ele>346.5</ele><time>2026-05-02T11:38:50.001Z</time></trkpt><trkpt lat="45.954443659586154" lon="1.2040077079135205"><ele>348.0</ele><time>2026-05-02T11:38:51.001Z</time></trkpt><trkpt lat="45.9544328976863" lon="1.2041251152444354"><ele>349.5</ele><time>2026-05-02T11:38:52.001Z</time></trkpt><trkpt lat="45.95441739049298" lon="1.204280464070197"><ele>351.0</ele><time>2026-05-02T11:38:54.001Z</time></trkpt><trkpt lat="45.95463263417975" lon="1.2043784605040921"><ele>351.00000000000006</ele><time>2026-05-02T11:40:22.001Z</time></trkpt><trkpt lat="45.95469710450156" lon="1.2044046106084485"><ele>351.0</ele><time>2026-05-02T11:40:29.001Z</time></trkpt><trkpt lat="45.95476142973101" lon="1.204440424302406"><ele>351.0</ele><time>2026-05-02T11:40:37.001Z</time></trkpt><trkpt lat="45.95482598949831" lon="1.204457623336533"><ele>351.0</ele><time>2026-05-02T11:40:44.001Z</time></trkpt><trkpt lat="45.954803171537804" lon="1.2045534945842462"><ele>351.0</ele><time>2026-05-02T11:40:50.001Z</time></trkpt><trkpt lat="45.95486525212773" lon="1.204583131251481"><ele>351.00000000000006</ele><time>2026-05-02T11:46:01.999Z</time></trkpt><trkpt lat="45.95479341455622" lon="1.2045872253513137"><ele>351.0</ele><time>2026-05-02T11:48:08.999Z</time></trkpt><trkpt lat="45.95486673118848" lon="1.2045866293980856"><ele>351.0</ele><time>2026-05-02T11:51:47.999Z</time></trkpt><trkpt lat="45.95477089585227" lon="1.2045706217868817"><ele>351.0</ele><time>2026-05-02T11:52:26.999Z</time></trkpt><trkpt lat="45.95485725445336" lon="1.2045446985144435"><ele>351.0</ele><time>2026-05-02T12:07:40Z</time></trkpt><trkpt lat="45.954857762250256" lon="1.2044446363447519"><ele>351.0</ele><time>2026-05-02T12:07:44Z</time></trkpt><trkpt lat="45.954810411406726" lon="1.2045074582323687"><ele>351.0</ele><time>2026-05-02T12:08:01.999Z</time></trkpt><trkpt lat="45.95478380815882" lon="1.2045901771544876"><ele>351.0</ele><time>2026-05-02T12:08:08.999Z</time></trkpt><trkpt lat="45.95488135813924" lon="1.204543135876457"><ele>351.0</ele><time>2026-05-02T12:30:54Z</time></trkpt><trkpt lat="45.95480400920772" lon="1.2045573902614144"><ele>351.0</ele><time>2026-05-02T12:32:32Z</time></trkpt><trkpt lat="45.95471567762973" lon="1.20455956215909"><ele>351.0</ele><time>2026-05-02T12:49:50Z</time></trkpt><trkpt lat="45.95478980411405" lon="1.2045904076209166"><ele>351.0</ele><time>2026-05-02T12:51:20.998Z</time></trkpt><trkpt lat="45.95474606133813" lon="1.2046622142498227"><ele>351.0</ele><time>2026-05-02T12:53:10.998Z</time></trkpt><trkpt lat="45.9548501835092" lon="1.204647760863697"><ele>351.0</ele><time>2026-05-02T12:55:24.998Z</time></trkpt><trkpt lat="45.95477447115233" lon="1.2045869919219845"><ele>351.0</ele><time>2026-05-02T12:57:01.999Z</time></trkpt><trkpt lat="45.95483072660187" lon="1.2046640275198837"><ele>351.0</ele><time>2026-05-02T12:58:57.999Z</time></trkpt><trkpt lat="45.954777320311536" lon="1.20459817210437"><ele>351.0</ele><time>2026-05-02T12:59:35.998Z</time></trkpt><trkpt lat="45.954721692895404" lon="1.2045304615791461"><ele>351.0</ele><time>2026-05-02T13:00:39.999Z</time></trkpt><trkpt lat="45.95477846568208" lon="1.204593882744341"><ele>351.0</ele><time>2026-05-02T13:02:07Z</time></trkpt><trkpt lat="45.95484927503385" lon="1.204666621661994"><ele>351.0</ele><time>2026-05-02T13:02:24Z</time></trkpt><trkpt lat="45.9547881159997" lon="1.2045780258320478"><ele>351.00000000000006</ele><time>2026-05-02T13:12:18.998Z</time></trkpt><trkpt lat="45.95482933425773" lon="1.204479968404988"><ele>351.0</ele><time>2026-05-02T13:17:24.999Z</time></trkpt><trkpt lat="45.95479800931433" lon="1.2044006624789303"><ele>351.0</ele><time>2026-05-02T13:17:32.999Z</time></trkpt><trkpt lat="45.95473924833037" lon="1.2043571107986744"><ele>351.0</ele><time>2026-05-02T13:17:38.999Z</time></trkpt><trkpt lat="45.954673500898814" lon="1.2043371544348196"><ele>351.0</ele><time>2026-05-02T13:17:43.999Z</time></trkpt><trkpt lat="45.95460639116533" lon="1.204333876144579"><ele>351.00000000000006</ele><time>2026-05-02T13:17:55.999Z</time></trkpt><trkpt lat="45.954538272195435" lon="1.2043258161871615"><ele>351.0</ele><time>2026-05-02T13:18:08.999Z</time></trkpt><trkpt lat="45.95461228532152" lon="1.204362724093894"><ele>351.00000000000006</ele><time>2026-05-02T13:18:15.999Z</time></trkpt><trkpt lat="45.95469570025422" lon="1.2043844441441665"><ele>351.0</ele><time>2026-05-02T13:18:21.999Z</time></trkpt><trkpt lat="45.95476548627665" lon="1.2044103800614046"><ele>351.0</ele><time>2026-05-02T13:18:26.999Z</time></trkpt><trkpt lat="45.95479713582766" lon="1.2045171276270208"><ele>351.0</ele><time>2026-05-02T13:18:31.998Z</time></trkpt><trkpt lat="45.95475553101343" lon="1.2045984598287236"><ele>351.0</ele><time>2026-05-02T13:18:36.998Z</time></trkpt><trkpt lat="45.9547914422984" lon="1.2045105983375612"><ele>351.00000000000006</ele><time>2026-05-02T13:18:45Z</time></trkpt><trkpt lat="45.954783238355915" lon="1.204412261090649"><ele>351.0</ele><time>2026-05-02T13:18:50Z</time></trkpt><trkpt lat="45.95471124120716" lon="1.204370799256782"><ele>351.0</ele><time>2026-05-02T13:18:56Z</time></trkpt><trkpt lat="45.95464726589856" lon="1.2043596901250837"><ele>351.0</ele><time>2026-05-02T13:19:01Z</time></trkpt><trkpt lat="45.9545839418131" lon="1.204342037369879"><ele>351.0</ele><time>2026-05-02T13:19:06Z</time></trkpt><trkpt lat="45.954518062855556" lon="1.2043329912892573"><ele>351.0</ele><time>2026-05-02T13:19:14Z</time></trkpt><trkpt lat="45.95447332624709" lon="1.2041905447584988"><ele>351.0</ele><time>2026-05-02T13:21:34.999Z</time></trkpt><trkpt lat="45.95446400003919" lon="1.2039836491744205"><ele>351.0</ele><time>2026-05-02T13:21:36.999Z</time></trkpt><trkpt lat="45.9544790302187" lon="1.2038058406299887"><ele>349.8</ele><time>2026-05-02T13:21:37.999Z</time></trkpt><trkpt lat="45.95449872171347" lon="1.2036574500138264"><ele>348.6</ele><time>2026-05-02T13:21:38.999Z</time></trkpt><trkpt lat="45.954508773467595" lon="1.2035534218855644"><ele>347.4</ele><time>2026-05-02T13:21:39.999Z</time></trkpt><trkpt lat="45.95454766021339" lon="1.2034681748503797"><ele>346.2</ele><time>2026-05-02T13:21:41.999Z</time></trkpt><trkpt lat="45.95473892826447" lon="1.2034415071882578"><ele>345.0</ele><time>2026-05-02T13:21:45.999Z</time></trkpt><trkpt lat="45.954852572314365" lon="1.2034763774630715"><ele>345.0</ele><time>2026-05-02T13:21:46.999Z</time></trkpt><trkpt lat="45.954963747019846" lon="1.2035359141675241"><ele>345.0</ele><time>2026-05-02T13:21:47.999Z</time></trkpt><trkpt lat="45.95505202896877" lon="1.2036372744776975"><ele>345.0</ele><time>2026-05-02T13:21:48.999Z</time></trkpt><trkpt lat="45.95510663747122" lon="1.2037902911798057"><ele>345.0</ele><time>2026-05-02T13:21:49.999Z</time></trkpt><trkpt lat="45.95515124100131" lon="1.2039541680006507"><ele>343.6</ele><time>2026-05-02T13:21:50.999Z</time></trkpt><trkpt lat="45.95520417048047" lon="1.2040987198212572"><ele>342.2</ele><time>2026-05-02T13:21:51.999Z</time></trkpt><trkpt lat="45.95524287989065" lon="1.2042318874847253"><ele>340.79999999999995</ele><time>2026-05-02T13:21:52.999Z</time></trkpt><trkpt lat="45.95527788145021" lon="1.2043611014321374"><ele>339.4</ele><time>2026-05-02T13:21:53.999Z</time></trkpt><trkpt lat="45.955327911581996" lon="1.2044559301269053"><ele>338.0</ele><time>2026-05-02T13:21:54.999Z</time></trkpt><trkpt lat="45.955385602274056" lon="1.2045023722365749"><ele>338.0</ele><time>2026-05-02T13:21:55.999Z</time></trkpt><trkpt lat="45.955412363661914" lon="1.2046215313655848"><ele>338.0</ele><time>2026-05-02T13:21:59.999Z</time></trkpt><trkpt lat="45.955448917066164" lon="1.204710540562229"><ele>338.0</ele><time>2026-05-02T13:22:00.999Z</time></trkpt><trkpt lat="45.95534678940562" lon="1.2050467239179872"><ele>338.0</ele><time>2026-05-02T13:22:02.999Z</time></trkpt><trkpt lat="45.95533888205799" lon="1.2051712159484484"><ele>339.2</ele><time>2026-05-02T13:22:03.999Z</time></trkpt><trkpt lat="45.95533765787155" lon="1.2052759610169024"><ele>340.4</ele><time>2026-05-02T13:22:04.999Z</time></trkpt><trkpt lat="45.95533500940515" lon="1.2053974317810165"><ele>341.59999999999997</ele><time>2026-05-02T13:22:05.999Z</time></trkpt><trkpt lat="45.955345813138415" lon="1.2055791416844386"><ele>342.79999999999995</ele><time>2026-05-02T13:22:07.999Z</time></trkpt><trkpt lat="45.95535621167081" lon="1.20568574101311"><ele>344.0</ele><time>2026-05-02T13:22:08.999Z</time></trkpt><trkpt lat="45.95540383979213" lon="1.2058991336553397"><ele>344.33333333333337</ele><time>2026-05-02T13:22:10.999Z</time></trkpt><trkpt lat="45.955407878974704" lon="1.2060071125557639"><ele>344.6666666666667</ele><time>2026-05-02T13:22:11.999Z</time></trkpt><trkpt lat="45.95539737656029" lon="1.2061058438131207"><ele>345.0</ele><time>2026-05-02T13:22:12.999Z</time></trkpt><trkpt lat="45.955384717395454" lon="1.2062325066298747"><ele>345.3333333333333</ele><time>2026-05-02T13:22:13.999Z</time></trkpt><trkpt lat="45.95537013156506" lon="1.2063386122452504"><ele>345.66666666666663</ele><time>2026-05-02T13:22:14.999Z</time></trkpt><trkpt lat="45.95534093647102" lon="1.2064547388760862"><ele>346.0</ele><time>2026-05-02T13:22:15.999Z</time></trkpt><trkpt lat="45.95529279624874" lon="1.2065252787763945"><ele>346.4285714285714</ele><time>2026-05-02T13:22:16.999Z</time></trkpt><trkpt lat="45.95524464494364" lon="1.2065966808450133"><ele>346.8571428571429</ele><time>2026-05-02T13:22:17.999Z</time></trkpt><trkpt lat="45.95521264070595" lon="1.206697882892352"><ele>347.2857142857143</ele><time>2026-05-02T13:22:18.999Z</time></trkpt><trkpt lat="45.95517337199646" lon="1.2068079084311045"><ele>347.71428571428567</ele><time>2026-05-02T13:22:19.999Z</time></trkpt><trkpt lat="45.955138664415436" lon="1.2068974892926414"><ele>348.1428571428571</ele><time>2026-05-02T13:22:20.999Z</time></trkpt><trkpt lat="45.955101115166435" lon="1.2069783004047592"><ele>348.57142857142856</ele><time>2026-05-02T13:22:21.999Z</time></trkpt><trkpt lat="45.95510011559994" lon="1.2070741974993793"><ele>349.0</ele><time>2026-05-02T13:22:24.999Z</time></trkpt><trkpt lat="45.95508128099677" lon="1.2072332326407342"><ele>349.4</ele><time>2026-05-02T13:22:26.999Z</time></trkpt><trkpt lat="45.95507200049195" lon="1.2073476087564197"><ele>349.79999999999995</ele><time>2026-05-02T13:22:27.999Z</time></trkpt><trkpt lat="45.955075659947944" lon="1.2074598652700759"><ele>350.20000000000005</ele><time>2026-05-02T13:22:28.999Z</time></trkpt><trkpt lat="45.955047412967566" lon="1.2075863738444055"><ele>350.6</ele><time>2026-05-02T13:22:29.999Z</time></trkpt><trkpt lat="45.955002810807905" lon="1.2077104562158338"><ele>351.0</ele><time>2026-05-02T13:22:30.999Z</time></trkpt><trkpt lat="45.954943374143106" lon="1.208044001454348"><ele>355.0</ele><time>2026-05-02T13:22:32.999Z</time></trkpt><trkpt lat="45.954905404959774" lon="1.208216056891031"><ele>359.0</ele><time>2026-05-02T13:22:33.999Z</time></trkpt><trkpt lat="45.95484720294951" lon="1.2083867437212936"><ele>363.0</ele><time>2026-05-02T13:22:34.999Z</time></trkpt><trkpt lat="45.954779515265805" lon="1.2085528867511106"><ele>367.0</ele><time>2026-05-02T13:22:35.999Z</time></trkpt><trkpt lat="45.954757439529786" lon="1.2086983201850763"><ele>367.0</ele><time>2026-05-02T13:22:36.999Z</time></trkpt><trkpt lat="45.954717308246906" lon="1.2088492010228942"><ele>367.0</ele><time>2026-05-02T13:22:37.999Z</time></trkpt><trkpt lat="45.954682689952755" lon="1.2089689369493524"><ele>367.0</ele><time>2026-05-02T13:22:38.999Z</time></trkpt><trkpt lat="45.954660228742625" lon="1.209080938778911"><ele>367.0</ele><time>2026-05-02T13:22:39.999Z</time></trkpt><trkpt lat="45.95464640498646" lon="1.2092321339347425"><ele>367.0</ele><time>2026-05-02T13:22:41.999Z</time></trkpt><trkpt lat="45.95464280941333" lon="1.209391076892295"><ele>367.0</ele><time>2026-05-02T13:22:43.999Z</time></trkpt><trkpt lat="45.954646922974725" lon="1.2095059657490859"><ele>367.0</ele><time>2026-05-02T13:22:45.999Z</time></trkpt><trkpt lat="45.95459646206528" lon="1.2096418400266031"><ele>367.0</ele><time>2026-05-02T13:22:47.999Z</time></trkpt><trkpt lat="45.95450848924426" lon="1.2096486026370052"><ele>367.0</ele><time>2026-05-02T13:22:49.998Z</time></trkpt><trkpt lat="45.95441868797145" lon="1.2098127756246686"><ele>367.0</ele><time>2026-05-02T13:22:51.999Z</time></trkpt><trkpt lat="45.95433490301181" lon="1.2099559219074152"><ele>367.20000000000005</ele><time>2026-05-02T13:22:52.999Z</time></trkpt><trkpt lat="45.95426115560148" lon="1.2100975187604337"><ele>367.4</ele><time>2026-05-02T13:22:53.999Z</time></trkpt><trkpt lat="45.954213921750984" lon="1.2102104575866792"><ele>367.6</ele><time>2026-05-02T13:22:54.999Z</time></trkpt><trkpt lat="45.95417028152865" lon="1.2103070002986698"><ele>367.79999999999995</ele><time>2026-05-02T13:22:55.999Z</time></trkpt><trkpt lat="45.9541366709309" lon="1.2103879856908861"><ele>368.0</ele><time>2026-05-02T13:22:56.999Z</time></trkpt><trkpt lat="45.95411261544614" lon="1.210516575284655"><ele>369.14285714285717</ele><time>2026-05-02T13:22:58.999Z</time></trkpt><trkpt lat="45.95411587781784" lon="1.2106086822896005"><ele>370.2857142857143</ele><time>2026-05-02T13:22:59.999Z</time></trkpt><trkpt lat="45.954112074154" lon="1.2107071974336976"><ele>371.42857142857144</ele><time>2026-05-02T13:23:00.999Z</time></trkpt><trkpt lat="45.954105313154045" lon="1.2108159515427572"><ele>372.57142857142856</ele><time>2026-05-02T13:23:01.999Z</time></trkpt><trkpt lat="45.9540791591652" lon="1.210912948273627"><ele>373.71428571428567</ele><time>2026-05-02T13:23:02.999Z</time></trkpt><trkpt lat="45.95405310849838" lon="1.2110082204230166"><ele>374.85714285714283</ele><time>2026-05-02T13:23:03.999Z</time></trkpt><trkpt lat="45.954036401523744" lon="1.2111169474975134"><ele>376.0</ele><time>2026-05-02T13:23:04.999Z</time></trkpt><trkpt lat="45.95402018164285" lon="1.211220722743217"><ele>376.0</ele><time>2026-05-02T13:23:05.999Z</time></trkpt><trkpt lat="45.953983384764605" lon="1.2113108757140663"><ele>376.0</ele><time>2026-05-02T13:23:06.999Z</time></trkpt><trkpt lat="45.953947364486076" lon="1.2114091057898926"><ele>376.0</ele><time>2026-05-02T13:23:07.999Z</time></trkpt><trkpt lat="45.953921265587944" lon="1.2114942481052287"><ele>376.0</ele><time>2026-05-02T13:23:08.999Z</time></trkpt><trkpt lat="45.953873779452884" lon="1.211633776005206"><ele>376.0</ele><time>2026-05-02T13:23:10.999Z</time></trkpt><trkpt lat="45.95378327563986" lon="1.211760001090624"><ele>376.0</ele><time>2026-05-02T13:23:12.999Z</time></trkpt><trkpt lat="45.95373624603115" lon="1.2118240024201807"><ele>375.75</ele><time>2026-05-02T13:23:13.999Z</time></trkpt><trkpt lat="45.95367066407192" lon="1.211932420588455"><ele>375.5</ele><time>2026-05-02T13:23:15.999Z</time></trkpt><trkpt lat="45.95363253875952" lon="1.2121035924214216"><ele>375.25</ele><time>2026-05-02T13:23:17.999Z</time></trkpt><trkpt lat="45.95355757807808" lon="1.2123016756944183"><ele>375.0</ele><time>2026-05-02T13:23:19.999Z</time></trkpt><trkpt lat="45.95350435643891" lon="1.2124105957464257"><ele>374.7142857142857</ele><time>2026-05-02T13:23:20.999Z</time></trkpt><trkpt lat="45.953459851280286" lon="1.2124839687264157"><ele>374.4285714285714</ele><time>2026-05-02T13:23:21.999Z</time></trkpt><trkpt lat="45.95341180797967" lon="1.2125443394132187"><ele>374.1428571428571</ele><time>2026-05-02T13:23:22.999Z</time></trkpt><trkpt lat="45.953370227758526" lon="1.2126140819016944"><ele>373.8571428571429</ele><time>2026-05-02T13:23:24.999Z</time></trkpt><trkpt lat="45.953321464845935" lon="1.2127007419085503"><ele>373.57142857142856</ele><time>2026-05-02T13:23:28.999Z</time></trkpt><trkpt lat="45.95325019655934" lon="1.2126516709103736"><ele>373.2857142857143</ele><time>2026-05-02T13:23:32.999Z</time></trkpt><trkpt lat="45.95326447664422" lon="1.2125347920601979"><ele>373.0</ele><time>2026-05-02T13:23:34.999Z</time></trkpt><trkpt lat="45.95330515457142" lon="1.2123986871561763"><ele>372.8333333333333</ele><time>2026-05-02T13:23:36.999Z</time></trkpt><trkpt lat="45.95328710065648" lon="1.2123061846484924"><ele>372.66666666666663</ele><time>2026-05-02T13:23:39.999Z</time></trkpt><trkpt lat="45.95328473024307" lon="1.2122048400188865"><ele>372.5</ele><time>2026-05-02T13:23:41.999Z</time></trkpt><trkpt lat="45.95322176980268" lon="1.2121263192440448"><ele>372.3333333333333</ele><time>2026-05-02T13:23:44.999Z</time></trkpt><trkpt lat="45.95315328989652" lon="1.2120758389218855"><ele>372.1666666666667</ele><time>2026-05-02T13:23:47.999Z</time></trkpt><trkpt lat="45.953100413389684" lon="1.211985543793929"><ele>372.0</ele><time>2026-05-02T13:23:51.999Z</time></trkpt><trkpt lat="45.953019669199065" lon="1.2119373012431998"><ele>372.0</ele><time>2026-05-02T13:23:54.999Z</time></trkpt><trkpt lat="45.952960582951064" lon="1.2118849716210225"><ele>372.0</ele><time>2026-05-02T13:23:56.999Z</time></trkpt><trkpt lat="45.95289861040503" lon="1.2118411597623937"><ele>372.0</ele><time>2026-05-02T13:23:58.999Z</time></trkpt><trkpt lat="45.95282661553568" lon="1.2118209186430564"><ele>372.0</ele><time>2026-05-02T13:24:03.999Z</time></trkpt><trkpt lat="45.95276450416675" lon="1.2119114098154868"><ele>372.0</ele><time>2026-05-02T13:24:06.999Z</time></trkpt><trkpt lat="45.95266978031328" lon="1.2120093936440923"><ele>372.0</ele><time>2026-05-02T13:24:08.999Z</time></trkpt><trkpt lat="45.95256861860539" lon="1.2120492248424468"><ele>371.40000000000003</ele><time>2026-05-02T13:24:10.999Z</time></trkpt><trkpt lat="45.95247767953014" lon="1.2120734874569"><ele>370.8</ele><time>2026-05-02T13:24:12.999Z</time></trkpt><trkpt lat="45.95241838900205" lon="1.2121577426512056"><ele>370.2</ele><time>2026-05-02T13:24:14.999Z</time></trkpt><trkpt lat="45.9523628698255" lon="1.2122100406842444"><ele>369.6</ele><time>2026-05-02T13:24:15.999Z</time></trkpt><trkpt lat="45.95229319264265" lon="1.2123545999648213"><ele>369.0</ele><time>2026-05-02T13:24:17.999Z</time></trkpt><trkpt lat="45.952200874107966" lon="1.2124027529461738"><ele>369.0</ele><time>2026-05-02T13:24:19.999Z</time></trkpt><trkpt lat="45.95212062000804" lon="1.2123709050558285"><ele>369.0</ele><time>2026-05-02T13:24:21.999Z</time></trkpt><trkpt lat="45.95207539905175" lon="1.2122533253631487"><ele>369.0</ele><time>2026-05-02T13:24:23.999Z</time></trkpt><trkpt lat="45.952048390307624" lon="1.212137050187308"><ele>369.0</ele><time>2026-05-02T13:24:26.999Z</time></trkpt><trkpt lat="45.95202048448925" lon="1.2120249165263994"><ele>369.0</ele><time>2026-05-02T13:24:29.999Z</time></trkpt><trkpt lat="45.951998821546006" lon="1.2119107411759098"><ele>369.0</ele><time>2026-05-02T13:24:31.999Z</time></trkpt><trkpt lat="45.95195811484207" lon="1.2117697490137347"><ele>368.0</ele><time>2026-05-02T13:24:33.999Z</time></trkpt><trkpt lat="45.95189352534604" lon="1.2116590497684099"><ele>367.0</ele><time>2026-05-02T13:24:35.999Z</time></trkpt><trkpt lat="45.9518186957646" lon="1.2115468417525783"><ele>366.0</ele><time>2026-05-02T13:24:37.999Z</time></trkpt><trkpt lat="45.95173065986043" lon="1.2114715618075267"><ele>365.0</ele><time>2026-05-02T13:24:39.999Z</time></trkpt><trkpt lat="45.951618959254134" lon="1.2114664500303098"><ele>364.0</ele><time>2026-05-02T13:24:41.999Z</time></trkpt><trkpt lat="45.95154575252567" lon="1.2114814157421288"><ele>364.16666666666663</ele><time>2026-05-02T13:24:43.999Z</time></trkpt><trkpt lat="45.9514839741216" lon="1.2115261464809353"><ele>364.3333333333333</ele><time>2026-05-02T13:24:45.999Z</time></trkpt><trkpt lat="45.95139975140822" lon="1.2115544380679644"><ele>364.5</ele><time>2026-05-02T13:24:47.999Z</time></trkpt><trkpt lat="45.95131135914884" lon="1.2115889680307832"><ele>364.6666666666667</ele><time>2026-05-02T13:24:49.999Z</time></trkpt><trkpt lat="45.95123026777913" lon="1.2115915626385216"><ele>364.83333333333337</ele><time>2026-05-02T13:24:51.998Z</time></trkpt><trkpt lat="45.95112757855653" lon="1.2115965656407137"><ele>365.0</ele><time>2026-05-02T13:24:53.998Z</time></trkpt><trkpt lat="45.951024799724074" lon="1.211619007300697"><ele>365.0</ele><time>2026-05-02T13:24:55.998Z</time></trkpt><trkpt lat="45.95096252931349" lon="1.2116032388841407"><ele>365.0</ele><time>2026-05-02T13:24:56.999Z</time></trkpt><trkpt lat="45.95089828448499" lon="1.2115863686945596"><ele>365.0</ele><time>2026-05-02T13:24:57.999Z</time></trkpt><trkpt lat="45.95079484898892" lon="1.2115652033140343"><ele>365.0</ele><time>2026-05-02T13:24:59.999Z</time></trkpt><trkpt lat="45.95071066705156" lon="1.2114962301193921"><ele>365.0</ele><time>2026-05-02T13:25:01.999Z</time></trkpt><trkpt lat="45.950617273409755" lon="1.2114162970654128"><ele>365.0</ele><time>2026-05-02T13:25:03.999Z</time></trkpt><trkpt lat="45.950539717185954" lon="1.2113463749653797"><ele>364.4</ele><time>2026-05-02T13:25:05.999Z</time></trkpt><trkpt lat="45.950495977867234" lon="1.2112721237175972"><ele>363.8</ele><time>2026-05-02T13:25:06.999Z</time></trkpt><trkpt lat="45.95040774604242" lon="1.2111707726002512"><ele>363.20000000000005</ele><time>2026-05-02T13:25:08.999Z</time></trkpt><trkpt lat="45.95032018159191" lon="1.2110506865463138"><ele>362.6</ele><time>2026-05-02T13:25:10.999Z</time></trkpt><trkpt lat="45.95023075674113" lon="1.2109797433275549"><ele>362.0</ele><time>2026-05-02T13:25:12.999Z</time></trkpt><trkpt lat="45.950188837467145" lon="1.2109010765162824"><ele>362.0</ele><time>2026-05-02T13:25:13.999Z</time></trkpt><trkpt lat="45.9501131827144" lon="1.2107910122864132"><ele>362.0</ele><time>2026-05-02T13:25:15.999Z</time></trkpt><trkpt lat="45.950056073330245" lon="1.2107335454971024"><ele>362.0</ele><time>2026-05-02T13:25:16.999Z</time></trkpt><trkpt lat="45.949967631916884" lon="1.2106115925115677"><ele>362.0</ele><time>2026-05-02T13:25:18.999Z</time></trkpt><trkpt lat="45.94990945588373" lon="1.210557897988606"><ele>362.0</ele><time>2026-05-02T13:25:19.999Z</time></trkpt><trkpt lat="45.94985844166125" lon="1.2104959097547632"><ele>362.0</ele><time>2026-05-02T13:25:20.999Z</time></trkpt><trkpt lat="45.94978662160928" lon="1.2103586068606254"><ele>362.0</ele><time>2026-05-02T13:25:22.999Z</time></trkpt><trkpt lat="45.94973184217324" lon="1.2102318313304832"><ele>362.0</ele><time>2026-05-02T13:25:24.999Z</time></trkpt><trkpt lat="45.94969799782837" lon="1.2101525215254665"><ele>362.0</ele><time>2026-05-02T13:26:27.999Z</time></trkpt><trkpt lat="45.9496631344323" lon="1.2100127968439816"><ele>362.0</ele><time>2026-05-02T13:26:30.999Z</time></trkpt><trkpt lat="45.9496039806807" lon="1.2099154905533964"><ele>362.0</ele><time>2026-05-02T13:26:32.999Z</time></trkpt><trkpt lat="45.94952864625219" lon="1.209855919603017"><ele>362.0</ele><time>2026-05-02T13:26:34.999Z</time></trkpt><trkpt lat="45.94944181054391" lon="1.2097903601569793"><ele>361.1666666666667</ele><time>2026-05-02T13:26:36.999Z</time></trkpt><trkpt lat="45.949373164430604" lon="1.2097221201932344"><ele>360.33333333333337</ele><time>2026-05-02T13:26:38.999Z</time></trkpt><trkpt lat="45.949308066435876" lon="1.209635725566441"><ele>359.5</ele><time>2026-05-02T13:26:40.999Z</time></trkpt><trkpt lat="45.9492427798169" lon="1.2095909315019824"><ele>358.6666666666667</ele><time>2026-05-02T13:26:42.999Z</time></trkpt><trkpt lat="45.94917498040525" lon="1.2095272256293017"><ele>357.8333333333333</ele><time>2026-05-02T13:26:44.999Z</time></trkpt><trkpt lat="45.94917825161316" lon="1.2094057254401576"><ele>357.0</ele><time>2026-05-02T13:26:48.999Z</time></trkpt><trkpt lat="45.94921079726608" lon="1.2092664771223072"><ele>356.57142857142856</ele><time>2026-05-02T13:26:50.999Z</time></trkpt><trkpt lat="45.94922657980487" lon="1.2091695860515193"><ele>356.1428571428571</ele><time>2026-05-02T13:26:51.999Z</time></trkpt><trkpt lat="45.94924146556603" lon="1.2090614094813266"><ele>355.7142857142857</ele><time>2026-05-02T13:26:52.999Z</time></trkpt><trkpt lat="45.949249564157746" lon="1.2089470650135026"><ele>355.2857142857143</ele><time>2026-05-02T13:26:53.999Z</time></trkpt><trkpt lat="45.94925716499151" lon="1.2088473621588884"><ele>354.85714285714283</ele><time>2026-05-02T13:26:54.999Z</time></trkpt><trkpt lat="45.94927163654443" lon="1.2087449044052454"><ele>354.42857142857144</ele><time>2026-05-02T13:26:55.999Z</time></trkpt><trkpt lat="45.94928908978059" lon="1.2086487958614798"><ele>354.0</ele><time>2026-05-02T13:26:56.999Z</time></trkpt><trkpt lat="45.949315550697" lon="1.208517980789114"><ele>353.8333333333333</ele><time>2026-05-02T13:26:58.999Z</time></trkpt><trkpt lat="45.94926554589428" lon="1.2083810763381213"><ele>353.6666666666667</ele><time>2026-05-02T13:27:00.999Z</time></trkpt><trkpt lat="45.94919014022365" lon="1.2083251140025513"><ele>353.5</ele><time>2026-05-02T13:27:01.999Z</time></trkpt><trkpt lat="45.94910965685073" lon="1.208312308704716"><ele>353.33333333333337</ele><time>2026-05-02T13:27:03Z</time></trkpt><trkpt lat="45.94902433764599" lon="1.2082953256228721"><ele>353.1666666666667</ele><time>2026-05-02T13:27:04Z</time></trkpt><trkpt lat="45.948941444837914" lon="1.208300165245976"><ele>353.0</ele><time>2026-05-02T13:27:05Z</time></trkpt><trkpt lat="45.94885986928293" lon="1.2083209758660782"><ele>353.0</ele><time>2026-05-02T13:27:06Z</time></trkpt><trkpt lat="45.94878174287282" lon="1.2083399984175953"><ele>353.0</ele><time>2026-05-02T13:27:07Z</time></trkpt><trkpt lat="45.94870560841811" lon="1.2083352699341834"><ele>353.0</ele><time>2026-05-02T13:27:08Z</time></trkpt><trkpt lat="45.94864777264062" lon="1.2082870473503882"><ele>353.0</ele><time>2026-05-02T13:27:09Z</time></trkpt><trkpt lat="45.94855828489758" lon="1.2082631376416058"><ele>353.0</ele><time>2026-05-02T13:27:11Z</time></trkpt><trkpt lat="45.94846734978848" lon="1.2084060117793665"><ele>353.0</ele><time>2026-05-02T13:27:21Z</time></trkpt><trkpt lat="45.94847368825606" lon="1.20852552036908"><ele>353.0</ele><time>2026-05-02T13:27:22Z</time></trkpt><trkpt lat="45.94847626186822" lon="1.2086536905615106"><ele>353.0</ele><time>2026-05-02T13:27:23Z</time></trkpt><trkpt lat="45.94846855092163" lon="1.2087950701974697"><ele>353.0</ele><time>2026-05-02T13:27:24Z</time></trkpt><trkpt lat="45.94843823703412" lon="1.2089355386683749"><ele>353.0</ele><time>2026-05-02T13:27:25Z</time></trkpt><trkpt lat="45.94839826046424" lon="1.209088550264303"><ele>353.0</ele><time>2026-05-02T13:27:26Z</time></trkpt><trkpt lat="45.94834266867524" lon="1.209274284948524"><ele>353.25</ele><time>2026-05-02T13:27:27Z</time></trkpt><trkpt lat="45.948280373859745" lon="1.209443647821437"><ele>353.5</ele><time>2026-05-02T13:27:28Z</time></trkpt><trkpt lat="45.94821433303596" lon="1.209593722856636"><ele>353.75</ele><time>2026-05-02T13:27:29Z</time></trkpt><trkpt lat="45.94812483079567" lon="1.2097101448489498"><ele>354.0</ele><time>2026-05-02T13:27:30Z</time></trkpt><trkpt lat="45.9480201084634" lon="1.2098254873754046"><ele>354.0</ele><time>2026-05-02T13:27:31Z</time></trkpt><trkpt lat="45.947906815511914" lon="1.2099419424643503"><ele>354.0</ele><time>2026-05-02T13:27:32Z</time></trkpt><trkpt lat="45.947782263123756" lon="1.210057257758824"><ele>354.0</ele><time>2026-05-02T13:27:33Z</time></trkpt><trkpt lat="45.94765762701675" lon="1.21018228931926"><ele>354.0</ele><time>2026-05-02T13:27:34Z</time></trkpt><trkpt lat="45.94753891638781" lon="1.2103013768165185"><ele>353.0</ele><time>2026-05-02T13:27:35Z</time></trkpt><trkpt lat="45.94742369804392" lon="1.210435074605262"><ele>352.0</ele><time>2026-05-02T13:27:36Z</time></trkpt><trkpt lat="45.94730255096609" lon="1.2105405207148816"><ele>351.0</ele><time>2026-05-02T13:27:37Z</time></trkpt><trkpt lat="45.94718333876862" lon="1.2106530754317775"><ele>350.0</ele><time>2026-05-02T13:27:38Z</time></trkpt><trkpt lat="45.94707664995017" lon="1.2107698169814505"><ele>350.0</ele><time>2026-05-02T13:27:39Z</time></trkpt><trkpt lat="45.94697314546779" lon="1.2108942538568712"><ele>350.0</ele><time>2026-05-02T13:27:40Z</time></trkpt><trkpt lat="45.94687680961193" lon="1.2110004927986213"><ele>350.0</ele><time>2026-05-02T13:27:41Z</time></trkpt><trkpt lat="45.94682040797696" lon="1.2111383654124332"><ele>350.0</ele><time>2026-05-02T13:27:42Z</time></trkpt><trkpt lat="45.94679050154827" lon="1.211307281428463"><ele>350.0</ele><time>2026-05-02T13:27:43Z</time></trkpt><trkpt lat="45.94675012378167" lon="1.2114263366523834"><ele>350.0</ele><time>2026-05-02T13:27:44Z</time></trkpt><trkpt lat="45.94671988205348" lon="1.2115692668501683"><ele>350.0</ele><time>2026-05-02T13:27:45Z</time></trkpt><trkpt lat="45.94667427273047" lon="1.2116706890298525"><ele>350.0</ele><time>2026-05-02T13:27:46Z</time></trkpt><trkpt lat="45.94662173279229" lon="1.2117600337594048"><ele>350.0</ele><time>2026-05-02T13:27:47Z</time></trkpt><trkpt lat="45.946551229815704" lon="1.2118600609395769"><ele>352.25</ele><time>2026-05-02T13:27:48Z</time></trkpt><trkpt lat="45.94646426981496" lon="1.2119175538166773"><ele>354.5</ele><time>2026-05-02T13:27:49Z</time></trkpt><trkpt lat="45.94636300166681" lon="1.2119882562479412"><ele>356.75</ele><time>2026-05-02T13:27:50Z</time></trkpt><trkpt lat="45.94625115671985" lon="1.212044037313472"><ele>359.0</ele><time>2026-05-02T13:27:51Z</time></trkpt><trkpt lat="45.94612861821427" lon="1.2120861309031838"><ele>359.0</ele><time>2026-05-02T13:27:52Z</time></trkpt><trkpt lat="45.945997031157084" lon="1.2121319411095306"><ele>359.0</ele><time>2026-05-02T13:27:53Z</time></trkpt><trkpt lat="45.94585000796264" lon="1.212146250647175"><ele>359.0</ele><time>2026-05-02T13:27:54Z</time></trkpt><trkpt lat="45.94569379546218" lon="1.2121576953123845"><ele>359.0</ele><time>2026-05-02T13:27:55Z</time></trkpt><trkpt lat="45.94552747062028" lon="1.2121790350525132"><ele>360.6666666666667</ele><time>2026-05-02T13:27:56Z</time></trkpt><trkpt lat="45.94535914080193" lon="1.2121781166986398"><ele>362.3333333333333</ele><time>2026-05-02T13:27:57Z</time></trkpt><trkpt lat="45.94519601592889" lon="1.2122217425153083"><ele>364.0</ele><time>2026-05-02T13:27:58Z</time></trkpt><trkpt lat="45.94502628134527" lon="1.21230330413677"><ele>363.5</ele><time>2026-05-02T13:27:59Z</time></trkpt><trkpt lat="45.944874145619096" lon="1.2123941736761565"><ele>363.0</ele><time>2026-05-02T13:28:00Z</time></trkpt><trkpt lat="45.94476159723125" lon="1.212454787184689"><ele>362.5</ele><time>2026-05-02T13:28:01Z</time></trkpt><trkpt lat="45.94468445999405" lon="1.212496330655066"><ele>362.0</ele><time>2026-05-02T13:28:02Z</time></trkpt><trkpt lat="45.9445976026701" lon="1.2125305295773174"><ele>362.0</ele><time>2026-05-02T13:28:04Z</time></trkpt><trkpt lat="45.944608285890354" lon="1.2127981948479836"><ele>362.0</ele><time>2026-05-02T13:28:05Z</time></trkpt><trkpt lat="45.944624634426084" lon="1.212928968395086"><ele>362.0</ele><time>2026-05-02T13:28:06Z</time></trkpt><trkpt lat="45.9446423707989" lon="1.2130780143184765"><ele>362.0</ele><time>2026-05-02T13:28:07Z</time></trkpt><trkpt lat="45.94466394700599" lon="1.213245763037917"><ele>362.25</ele><time>2026-05-02T13:28:08Z</time></trkpt><trkpt lat="45.94468631514455" lon="1.2134172289466514"><ele>362.5</ele><time>2026-05-02T13:28:09Z</time></trkpt><trkpt lat="45.94471080056152" lon="1.2135814176823423"><ele>362.75</ele><time>2026-05-02T13:28:10Z</time></trkpt><trkpt lat="45.944745076238306" lon="1.2137450023514216"><ele>363.0</ele><time>2026-05-02T13:28:11Z</time></trkpt><trkpt lat="45.94473633237214" lon="1.2139024746697789"><ele>364.0</ele><time>2026-05-02T13:28:12Z</time></trkpt><trkpt lat="45.944723738897665" lon="1.2140617221788776"><ele>365.0</ele><time>2026-05-02T13:28:13Z</time></trkpt><trkpt lat="45.94469253202912" lon="1.2142395393765173"><ele>366.0</ele><time>2026-05-02T13:28:14Z</time></trkpt><trkpt lat="45.9446936408276" lon="1.2144190823245462"><ele>367.0</ele><time>2026-05-02T13:28:15Z</time></trkpt><trkpt lat="45.944734635795456" lon="1.2145905909124193"><ele>367.0</ele><time>2026-05-02T13:28:16Z</time></trkpt><trkpt lat="45.94474971083053" lon="1.2147575637214658"><ele>367.0</ele><time>2026-05-02T13:28:17Z</time></trkpt><trkpt lat="45.94479605309308" lon="1.2148997528428958"><ele>367.0</ele><time>2026-05-02T13:28:18Z</time></trkpt><trkpt lat="45.94478593042599" lon="1.215046359796575"><ele>367.0</ele><time>2026-05-02T13:28:19Z</time></trkpt><trkpt lat="45.94475284943365" lon="1.215177450770861"><ele>367.0</ele><time>2026-05-02T13:28:20Z</time></trkpt><trkpt lat="45.94471575058808" lon="1.215305527004458"><ele>368.0</ele><time>2026-05-02T13:28:21Z</time></trkpt><trkpt lat="45.94467315370669" lon="1.2154286986654408"><ele>369.0</ele><time>2026-05-02T13:28:22Z</time></trkpt><trkpt lat="45.94462845653627" lon="1.2155578409447232"><ele>370.0</ele><time>2026-05-02T13:28:23Z</time></trkpt><trkpt lat="45.944597681363135" lon="1.2157018584905268"><ele>371.0</ele><time>2026-05-02T13:28:24Z</time></trkpt><trkpt lat="45.94455651168685" lon="1.215841230770933"><ele>372.0</ele><time>2026-05-02T13:28:25Z</time></trkpt><trkpt lat="45.944535227968686" lon="1.2159876143340866"><ele>372.20000000000005</ele><time>2026-05-02T13:28:26Z</time></trkpt><trkpt lat="45.94453495157854" lon="1.2161149896251922"><ele>372.4</ele><time>2026-05-02T13:28:27Z</time></trkpt><trkpt lat="45.94454532149877" lon="1.2162053805874755"><ele>372.6</ele><time>2026-05-02T13:28:28Z</time></trkpt><trkpt lat="45.94457259497328" lon="1.2163331709269398"><ele>372.79999999999995</ele><time>2026-05-02T13:28:30Z</time></trkpt><trkpt lat="45.94459608436328" lon="1.2164173769331017"><ele>373.0</ele><time>2026-05-02T13:28:32Z</time></trkpt><trkpt lat="45.94454528942475" lon="1.2162149107094538"><ele>373.0</ele><time>2026-05-02T13:28:48.999Z</time></trkpt><trkpt lat="45.944573743346844" lon="1.2160293643583864"><ele>373.0</ele><time>2026-05-02T13:28:49.999Z</time></trkpt><trkpt lat="45.94458278786239" lon="1.2158915216803377"><ele>373.0</ele><time>2026-05-02T13:28:50.999Z</time></trkpt><trkpt lat="45.94461115095556" lon="1.2157530751572871"><ele>373.0</ele><time>2026-05-02T13:28:51.999Z</time></trkpt><trkpt lat="45.94464763692865" lon="1.2156175181312079"><ele>373.0</ele><time>2026-05-02T13:28:52.999Z</time></trkpt><trkpt lat="45.94469458646921" lon="1.215488431847664"><ele>372.79999999999995</ele><time>2026-05-02T13:28:53.999Z</time></trkpt><trkpt lat="45.944744848133126" lon="1.2153527393809342"><ele>372.6</ele><time>2026-05-02T13:28:54.999Z</time></trkpt><trkpt lat="45.94478928011335" lon="1.215202537870727"><ele>372.4</ele><time>2026-05-02T13:28:55.999Z</time></trkpt><trkpt lat="45.94481405012449" lon="1.2150601271962078"><ele>372.20000000000005</ele><time>2026-05-02T13:28:56.999Z</time></trkpt><trkpt lat="45.94480011245135" lon="1.2149161243714641"><ele>372.0</ele><time>2026-05-02T13:28:57.999Z</time></trkpt><trkpt lat="45.94477140773805" lon="1.2147684111918093"><ele>371.0</ele><time>2026-05-02T13:28:58.999Z</time></trkpt><trkpt lat="45.944742437826086" lon="1.214631439901677"><ele>370.0</ele><time>2026-05-02T13:28:59.999Z</time></trkpt><trkpt lat="45.94471394023625" lon="1.2144906885585163"><ele>369.0</ele><time>2026-05-02T13:29:00.999Z</time></trkpt><trkpt lat="45.94470398206791" lon="1.2143382754013865"><ele>368.0</ele><time>2026-05-02T13:29:01.999Z</time></trkpt><trkpt lat="45.944713786215324" lon="1.2141759910948748"><ele>367.0</ele><time>2026-05-02T13:29:02.999Z</time></trkpt><trkpt lat="45.9447272082972" lon="1.2140152681092373"><ele>366.0</ele><time>2026-05-02T13:29:03.999Z</time></trkpt><trkpt lat="45.94474992554001" lon="1.2138553633157176"><ele>365.0</ele><time>2026-05-02T13:29:04.999Z</time></trkpt><trkpt lat="45.944739796846164" lon="1.2136950994531084"><ele>364.0</ele><time>2026-05-02T13:29:05.999Z</time></trkpt><trkpt lat="45.94470696761516" lon="1.213533148855196"><ele>363.0</ele><time>2026-05-02T13:29:06.999Z</time></trkpt><trkpt lat="45.94468485997938" lon="1.2133630019917807"><ele>363.0</ele><time>2026-05-02T13:29:07.999Z</time></trkpt><trkpt lat="45.94465070746861" lon="1.2132063689249917"><ele>363.0</ele><time>2026-05-02T13:29:09Z</time></trkpt><trkpt lat="45.9446279737683" lon="1.2130520946526282"><ele>363.0</ele><time>2026-05-02T13:29:10Z</time></trkpt><trkpt lat="45.94461154521958" lon="1.2129080916772446"><ele>363.0</ele><time>2026-05-02T13:29:11Z</time></trkpt><trkpt lat="45.94460794790466" lon="1.212766892081382"><ele>363.0</ele><time>2026-05-02T13:29:12Z</time></trkpt><trkpt lat="45.944632925876626" lon="1.2126682214102917"><ele>362.79999999999995</ele><time>2026-05-02T13:29:13Z</time></trkpt><trkpt lat="45.94471532020672" lon="1.2125505681613349"><ele>362.6</ele><time>2026-05-02T13:29:15Z</time></trkpt><trkpt lat="45.94479191687459" lon="1.2124889509081143"><ele>362.4</ele><time>2026-05-02T13:29:16Z</time></trkpt><trkpt lat="45.94488010361673" lon="1.2124431370137418"><ele>362.20000000000005</ele><time>2026-05-02T13:29:17Z</time></trkpt><trkpt lat="45.94497581767303" lon="1.2123931785343485"><ele>362.0</ele><time>2026-05-02T13:29:18Z</time></trkpt><trkpt lat="45.945077062690494" lon="1.212335397862783"><ele>363.25</ele><time>2026-05-02T13:29:19Z</time></trkpt><trkpt lat="45.94519023986137" lon="1.212281620115493"><ele>364.5</ele><time>2026-05-02T13:29:20Z</time></trkpt><trkpt lat="45.945303619531636" lon="1.212239570491985"><ele>365.75</ele><time>2026-05-02T13:29:21Z</time></trkpt><trkpt lat="45.945433245957936" lon="1.2122126479197533"><ele>367.0</ele><time>2026-05-02T13:29:22Z</time></trkpt><trkpt lat="45.94555739644204" lon="1.2121991374132715"><ele>367.0</ele><time>2026-05-02T13:29:23Z</time></trkpt><trkpt lat="45.945685347854074" lon="1.2121968278183135"><ele>367.0</ele><time>2026-05-02T13:29:24Z</time></trkpt><trkpt lat="45.94579521768366" lon="1.2121901214821744"><ele>367.0</ele><time>2026-05-02T13:29:25Z</time></trkpt><trkpt lat="45.945917887137725" lon="1.2121877201626259"><ele>367.0</ele><time>2026-05-02T13:29:26Z</time></trkpt><trkpt lat="45.946040648575114" lon="1.212173464236202"><ele>365.0</ele><time>2026-05-02T13:29:27Z</time></trkpt><trkpt lat="45.946161285186975" lon="1.2121504495831064"><ele>363.0</ele><time>2026-05-02T13:29:28Z</time></trkpt><trkpt lat="45.94627843890602" lon="1.21210950319957"><ele>361.0</ele><time>2026-05-02T13:29:29Z</time></trkpt><trkpt lat="45.946388567993075" lon="1.2120417497561777"><ele>359.0</ele><time>2026-05-02T13:29:30Z</time></trkpt><trkpt lat="45.94650137608298" lon="1.2119645258573657"><ele>359.0</ele><time>2026-05-02T13:29:31Z</time></trkpt><trkpt lat="45.94659473008357" lon="1.2118554642284372"><ele>359.0</ele><time>2026-05-02T13:29:32Z</time></trkpt><trkpt lat="45.946668927292464" lon="1.211746499508388"><ele>359.0</ele><time>2026-05-02T13:29:33Z</time></trkpt><trkpt lat="45.94673053223198" lon="1.21162931757142"><ele>359.0</ele><time>2026-05-02T13:29:34Z</time></trkpt><trkpt lat="45.94677468291026" lon="1.2114746613287146"><ele>359.0</ele><time>2026-05-02T13:29:35Z</time></trkpt><trkpt lat="45.9468061987482" lon="1.2113257081234672"><ele>357.2</ele><time>2026-05-02T13:29:36Z</time></trkpt><trkpt lat="45.946842749634925" lon="1.2111836780490437"><ele>355.4</ele><time>2026-05-02T13:29:37Z</time></trkpt><trkpt lat="45.946893044895845" lon="1.2110506942815324"><ele>353.6</ele><time>2026-05-02T13:29:38Z</time></trkpt><trkpt lat="45.946956676661436" lon="1.2109137365151423"><ele>351.8</ele><time>2026-05-02T13:29:39Z</time></trkpt><trkpt lat="45.94706184069748" lon="1.2108370391006062"><ele>350.0</ele><time>2026-05-02T13:29:40Z</time></trkpt><trkpt lat="45.94715324564354" lon="1.210719585407932"><ele>349.25</ele><time>2026-05-02T13:29:41Z</time></trkpt><trkpt lat="45.94725582401588" lon="1.2106366018103492"><ele>348.5</ele><time>2026-05-02T13:29:42Z</time></trkpt><trkpt lat="45.94735962092148" lon="1.2105424604619484"><ele>347.75</ele><time>2026-05-02T13:29:43Z</time></trkpt><trkpt lat="45.947450056295125" lon="1.2104427818558485"><ele>347.0</ele><time>2026-05-02T13:29:44Z</time></trkpt><trkpt lat="45.9475420505792" lon="1.2103534639153617"><ele>348.75</ele><time>2026-05-02T13:29:45Z</time></trkpt><trkpt lat="45.9476305819382" lon="1.2102505562309407"><ele>350.5</ele><time>2026-05-02T13:29:46Z</time></trkpt><trkpt lat="45.947726605315715" lon="1.2101543499219747"><ele>352.25</ele><time>2026-05-02T13:29:47Z</time></trkpt><trkpt lat="45.94782204581752" lon="1.2100671986864062"><ele>354.0</ele><time>2026-05-02T13:29:48Z</time></trkpt><trkpt lat="45.947916547585756" lon="1.2099636278749382"><ele>354.0</ele><time>2026-05-02T13:29:49Z</time></trkpt><trkpt lat="45.948020717609225" lon="1.2098734155388897"><ele>354.0</ele><time>2026-05-02T13:29:50Z</time></trkpt><trkpt lat="45.948114429191904" lon="1.2097763000693418"><ele>354.0</ele><time>2026-05-02T13:29:51Z</time></trkpt><trkpt lat="45.94819385116571" lon="1.2096722522415047"><ele>354.0</ele><time>2026-05-02T13:29:52Z</time></trkpt><trkpt lat="45.94826731130366" lon="1.2095503516873163"><ele>353.79999999999995</ele><time>2026-05-02T13:29:53Z</time></trkpt><trkpt lat="45.94832142464222" lon="1.2094222222604853"><ele>353.59999999999997</ele><time>2026-05-02T13:29:54Z</time></trkpt><trkpt lat="45.948366610753304" lon="1.209292402881097"><ele>353.4</ele><time>2026-05-02T13:29:55Z</time></trkpt><trkpt lat="45.948412191387696" lon="1.2091586393192164"><ele>353.2</ele><time>2026-05-02T13:29:56Z</time></trkpt><trkpt lat="45.94845077790098" lon="1.2090153971250266"><ele>353.0</ele><time>2026-05-02T13:29:57Z</time></trkpt><trkpt lat="45.94848719966517" lon="1.2088677061879107"><ele>353.0</ele><time>2026-05-02T13:29:58Z</time></trkpt><trkpt lat="45.948504718328195" lon="1.208713719841734"><ele>353.0</ele><time>2026-05-02T13:29:59Z</time></trkpt><trkpt lat="45.94850363982228" lon="1.208571457261054"><ele>353.0</ele><time>2026-05-02T13:30:00Z</time></trkpt><trkpt lat="45.94850452729832" lon="1.208444337188835"><ele>353.0</ele><time>2026-05-02T13:30:01Z</time></trkpt><trkpt lat="45.948512382256936" lon="1.2083501383516466"><ele>353.0</ele><time>2026-05-02T13:30:02Z</time></trkpt><trkpt lat="45.94854151967502" lon="1.2082591373354827"><ele>353.0</ele><time>2026-05-02T13:30:04Z</time></trkpt><trkpt lat="45.94865385754696" lon="1.2083408791091104"><ele>353.0</ele><time>2026-05-02T13:30:06Z</time></trkpt><trkpt lat="45.94875923065583" lon="1.2083891191175777"><ele>353.0</ele><time>2026-05-02T13:30:08Z</time></trkpt><trkpt lat="45.948823932488004" lon="1.2083661434808088"><ele>353.0</ele><time>2026-05-02T13:30:09Z</time></trkpt><trkpt lat="45.94889119558035" lon="1.2083515997803338"><ele>353.0</ele><time>2026-05-02T13:30:10Z</time></trkpt><trkpt lat="45.94895845495347" lon="1.208337157625226"><ele>353.0</ele><time>2026-05-02T13:30:11Z</time></trkpt><trkpt lat="45.949028964777646" lon="1.2083322375402055"><ele>353.0</ele><time>2026-05-02T13:30:12Z</time></trkpt><trkpt lat="45.949093639905506" lon="1.2083434166789646"><ele>353.0</ele><time>2026-05-02T13:30:13Z</time></trkpt><trkpt lat="45.949206604833456" lon="1.2083898045488974"><ele>352.4</ele><time>2026-05-02T13:30:15Z</time></trkpt><trkpt lat="45.949282396446165" lon="1.2084744706965158"><ele>351.79999999999995</ele><time>2026-05-02T13:30:17Z</time></trkpt><trkpt lat="45.949256282344564" lon="1.2086047382470273"><ele>351.2</ele><time>2026-05-02T13:30:19Z</time></trkpt><trkpt lat="45.94923504688201" lon="1.208766102175999"><ele>350.6</ele><time>2026-05-02T13:30:21Z</time></trkpt><trkpt lat="45.94922581076451" lon="1.208856154188865"><ele>350.0</ele><time>2026-05-02T13:30:22Z</time></trkpt><trkpt lat="45.94920704170093" lon="1.2090391523939652"><ele>351.1666666666667</ele><time>2026-05-02T13:30:24Z</time></trkpt><trkpt lat="45.94919606381659" lon="1.209138696530774"><ele>352.33333333333337</ele><time>2026-05-02T13:30:25Z</time></trkpt><trkpt lat="45.94918358683653" lon="1.2092276344872184"><ele>353.5</ele><time>2026-05-02T13:30:26Z</time></trkpt><trkpt lat="45.949165161315925" lon="1.2093259210786924"><ele>354.6666666666667</ele><time>2026-05-02T13:30:27Z</time></trkpt><trkpt lat="45.94911938307581" lon="1.2094611594936266"><ele>355.8333333333333</ele><time>2026-05-02T13:30:29Z</time></trkpt><trkpt lat="45.94903023770279" lon="1.2094737555305426"><ele>357.0</ele><time>2026-05-02T13:30:31Z</time></trkpt><trkpt lat="45.94891574560824" lon="1.209581586939198"><ele>357.0</ele><time>2026-05-02T13:30:33Z</time></trkpt><trkpt lat="45.94894059700799" lon="1.2097221140654546"><ele>357.0</ele><time>2026-05-02T13:30:34Z</time></trkpt><trkpt lat="45.94895612325376" lon="1.2098641743102572"><ele>357.0</ele><time>2026-05-02T13:30:36Z</time></trkpt><trkpt lat="45.94897550985695" lon="1.2100415556288846"><ele>357.0</ele><time>2026-05-02T13:30:38Z</time></trkpt><trkpt lat="45.94898679750131" lon="1.210144834031225"><ele>357.0</ele><time>2026-05-02T13:30:39Z</time></trkpt><trkpt lat="45.949077236615395" lon="1.2102320860328515"><ele>357.8333333333333</ele><time>2026-05-02T13:30:40Z</time></trkpt><trkpt lat="45.94910688731336" lon="1.2103320642435411"><ele>358.6666666666667</ele><time>2026-05-02T13:30:41Z</time></trkpt><trkpt lat="45.949146608754425" lon="1.2104300503822218"><ele>359.5</ele><time>2026-05-02T13:30:42Z</time></trkpt><trkpt lat="45.9491890469686" lon="1.2105249298780758"><ele>360.33333333333337</ele><time>2026-05-02T13:30:43Z</time></trkpt><trkpt lat="45.94924127451036" lon="1.210610789017597"><ele>361.1666666666667</ele><time>2026-05-02T13:30:44Z</time></trkpt><trkpt lat="45.94929323137385" lon="1.2106957309287083"><ele>362.0</ele><time>2026-05-02T13:30:45Z</time></trkpt><trkpt lat="45.94934494410068" lon="1.2107872566097462"><ele>362.5</ele><time>2026-05-02T13:30:46Z</time></trkpt><trkpt lat="45.94938684272094" lon="1.2108867029691919"><ele>363.0</ele><time>2026-05-02T13:30:46.999Z</time></trkpt><trkpt lat="45.949426649154844" lon="1.2109960874085766"><ele>363.5</ele><time>2026-05-02T13:30:47.999Z</time></trkpt><trkpt lat="45.94946886446313" lon="1.2110870166260743"><ele>364.0</ele><time>2026-05-02T13:30:48.999Z</time></trkpt><trkpt lat="45.94950112674369" lon="1.211184660969296"><ele>364.5</ele><time>2026-05-02T13:30:49.999Z</time></trkpt><trkpt lat="45.949533869107995" lon="1.211269854329436"><ele>365.0</ele><time>2026-05-02T13:30:50.999Z</time></trkpt><trkpt lat="45.94956283644954" lon="1.2113802620258423"><ele>365.0</ele><time>2026-05-02T13:30:52.999Z</time></trkpt><trkpt lat="45.94957386956225" lon="1.2114736070976617"><ele>365.0</ele><time>2026-05-02T13:30:56.999Z</time></trkpt><trkpt lat="45.94962159601416" lon="1.2116242103564492"><ele>365.0</ele><time>2026-05-02T13:30:58.999Z</time></trkpt><trkpt lat="45.94966378088606" lon="1.2117275973413935"><ele>365.0</ele><time>2026-05-02T13:30:59.999Z</time></trkpt><trkpt lat="45.9497041573042" lon="1.2118354432026335"><ele>365.0</ele><time>2026-05-02T13:31:00.999Z</time></trkpt><trkpt lat="45.94971510245309" lon="1.2119578226079255"><ele>365.0</ele><time>2026-05-02T13:31:01.999Z</time></trkpt><trkpt lat="45.94970970969391" lon="1.2121021120856603"><ele>366.0</ele><time>2026-05-02T13:31:02.999Z</time></trkpt><trkpt lat="45.94967459454034" lon="1.2122540744551147"><ele>367.0</ele><time>2026-05-02T13:31:03.999Z</time></trkpt><trkpt lat="45.94963114757138" lon="1.212430276340442"><ele>368.0</ele><time>2026-05-02T13:31:04.999Z</time></trkpt><trkpt lat="45.94959232335238" lon="1.2125901735346285"><ele>369.0</ele><time>2026-05-02T13:31:05.999Z</time></trkpt><trkpt lat="45.94958501914938" lon="1.2127258839012016"><ele>370.0</ele><time>2026-05-02T13:31:06.999Z</time></trkpt><trkpt lat="45.949563489238194" lon="1.212848577684487"><ele>371.0</ele><time>2026-05-02T13:31:07.999Z</time></trkpt><trkpt lat="45.94956159706031" lon="1.213000871958629"><ele>372.0</ele><time>2026-05-02T13:31:08.999Z</time></trkpt><trkpt lat="45.94955124657338" lon="1.2131500871018455"><ele>373.0</ele><time>2026-05-02T13:31:09.999Z</time></trkpt><trkpt lat="45.94953722137728" lon="1.21329893498418"><ele>374.0</ele><time>2026-05-02T13:31:10.999Z</time></trkpt><trkpt lat="45.94952884612129" lon="1.2134440069880283"><ele>374.2</ele><time>2026-05-02T13:31:11.999Z</time></trkpt><trkpt lat="45.94952029102511" lon="1.213588770003137"><ele>374.4</ele><time>2026-05-02T13:31:12.999Z</time></trkpt><trkpt lat="45.94950989471481" lon="1.213726407076375"><ele>374.6</ele><time>2026-05-02T13:31:13.999Z</time></trkpt><trkpt lat="45.949503149653594" lon="1.2138533653933221"><ele>374.8</ele><time>2026-05-02T13:31:15.001Z</time></trkpt><trkpt lat="45.94949373594142" lon="1.213973542641687"><ele>375.0</ele><time>2026-05-02T13:31:16.001Z</time></trkpt><trkpt lat="45.94949129560988" lon="1.2140964837162256"><ele>375.0</ele><time>2026-05-02T13:31:17.001Z</time></trkpt><trkpt lat="45.9494861538448" lon="1.214235379226217"><ele>375.0</ele><time>2026-05-02T13:31:18.001Z</time></trkpt><trkpt lat="45.94948895943066" lon="1.2143669317598549"><ele>375.0</ele><time>2026-05-02T13:31:19.001Z</time></trkpt><trkpt lat="45.94950157384536" lon="1.2145059682640935"><ele>375.0</ele><time>2026-05-02T13:31:20.001Z</time></trkpt><trkpt lat="45.949522651829696" lon="1.2146228814741389"><ele>375.0</ele><time>2026-05-02T13:31:21.001Z</time></trkpt><trkpt lat="45.94957411218433" lon="1.2147273863688217"><ele>374.2</ele><time>2026-05-02T13:31:22.001Z</time></trkpt><trkpt lat="45.94964105427576" lon="1.214838652064467"><ele>373.4</ele><time>2026-05-02T13:31:23.001Z</time></trkpt><trkpt lat="45.94973850656183" lon="1.2149944985453578"><ele>372.6</ele><time>2026-05-02T13:31:25.001Z</time></trkpt><trkpt lat="45.949779586754154" lon="1.2150673209716432"><ele>371.8</ele><time>2026-05-02T13:31:26Z</time></trkpt><trkpt lat="45.949828359564805" lon="1.2151519209326935"><ele>371.0</ele><time>2026-05-02T13:31:27Z</time></trkpt><trkpt lat="45.94987871988784" lon="1.2152565072832047"><ele>371.0</ele><time>2026-05-02T13:31:28Z</time></trkpt><trkpt lat="45.94994110242283" lon="1.2153432035222456"><ele>371.0</ele><time>2026-05-02T13:31:29Z</time></trkpt><trkpt lat="45.949986351457994" lon="1.2154253013544274"><ele>371.0</ele><time>2026-05-02T13:31:30Z</time></trkpt><trkpt lat="45.950051215433454" lon="1.2154912121606418"><ele>371.0</ele><time>2026-05-02T13:31:31Z</time></trkpt><trkpt lat="45.950125016805934" lon="1.2155635470905484"><ele>371.0</ele><time>2026-05-02T13:31:32Z</time></trkpt><trkpt lat="45.950201651203166" lon="1.2156280105783668"><ele>371.0</ele><time>2026-05-02T13:31:33Z</time></trkpt><trkpt lat="45.95024706934149" lon="1.215696882967343"><ele>371.0</ele><time>2026-05-02T13:31:58Z</time></trkpt><trkpt lat="45.950350222705914" lon="1.2158322357360596"><ele>371.0</ele><time>2026-05-02T13:32:00Z</time></trkpt><trkpt lat="45.95044255816332" lon="1.2159175165248333"><ele>371.0</ele><time>2026-05-02T13:32:01Z</time></trkpt><trkpt lat="45.950522981718024" lon="1.2160200377916883"><ele>371.0</ele><time>2026-05-02T13:32:02Z</time></trkpt><trkpt lat="45.95060251808376" lon="1.21610536155554"><ele>371.0</ele><time>2026-05-02T13:32:03Z</time></trkpt><trkpt lat="45.95067805050441" lon="1.21621268052949"><ele>371.0</ele><time>2026-05-02T13:32:04Z</time></trkpt><trkpt lat="45.950732280622745" lon="1.2162913746453878"><ele>371.0</ele><time>2026-05-02T13:32:05Z</time></trkpt><trkpt lat="45.95078553881851" lon="1.2163514928659742"><ele>371.0</ele><time>2026-05-02T13:32:06Z</time></trkpt><trkpt lat="45.95084683103635" lon="1.2164231959249945"><ele>371.0</ele><time>2026-05-02T13:32:07Z</time></trkpt><trkpt lat="45.95089857050286" lon="1.2165058268232603"><ele>371.0</ele><time>2026-05-02T13:32:08Z</time></trkpt><trkpt lat="45.95095268635442" lon="1.2165706329255488"><ele>371.20000000000005</ele><time>2026-05-02T13:32:09Z</time></trkpt><trkpt lat="45.95102216370866" lon="1.2166616249618014"><ele>371.40000000000003</ele><time>2026-05-02T13:32:11Z</time></trkpt><trkpt lat="45.95109323512016" lon="1.2167279851165238"><ele>371.6</ele><time>2026-05-02T13:32:14Z</time></trkpt><trkpt lat="45.95116787142103" lon="1.2167954467903797"><ele>371.8</ele><time>2026-05-02T13:32:15Z</time></trkpt><trkpt lat="45.95125357728299" lon="1.2168722924153643"><ele>372.0</ele><time>2026-05-02T13:32:16Z</time></trkpt><trkpt lat="45.95134960175213" lon="1.2169281766478508"><ele>372.0</ele><time>2026-05-02T13:32:17Z</time></trkpt><trkpt lat="45.95142691499753" lon="1.21699431111015"><ele>372.0</ele><time>2026-05-02T13:32:18Z</time></trkpt><trkpt lat="45.95154138045922" lon="1.2171055751554505"><ele>372.0</ele><time>2026-05-02T13:32:19Z</time></trkpt><trkpt lat="45.9516086559037" lon="1.217217388602759"><ele>372.0</ele><time>2026-05-02T13:32:20Z</time></trkpt><trkpt lat="45.95169411229872" lon="1.21733035329059"><ele>372.0</ele><time>2026-05-02T13:32:21Z</time></trkpt><trkpt lat="45.95176613643347" lon="1.2174372843526642"><ele>372.8</ele><time>2026-05-02T13:32:22Z</time></trkpt><trkpt lat="45.951837947236285" lon="1.217548504493732"><ele>373.6</ele><time>2026-05-02T13:32:23Z</time></trkpt><trkpt lat="45.95190596328412" lon="1.2176573400652362"><ele>374.40000000000003</ele><time>2026-05-02T13:32:24Z</time></trkpt><trkpt lat="45.95196981074461" lon="1.2177521999626455"><ele>375.20000000000005</ele><time>2026-05-02T13:32:25Z</time></trkpt><trkpt lat="45.95203525338701" lon="1.217855045429119"><ele>376.0</ele><time>2026-05-02T13:32:26Z</time></trkpt><trkpt lat="45.95209975118431" lon="1.2179475640153985"><ele>376.0</ele><time>2026-05-02T13:32:27Z</time></trkpt><trkpt lat="45.95214752298315" lon="1.2180672580178464"><ele>376.0</ele><time>2026-05-02T13:32:28Z</time></trkpt><trkpt lat="45.95219263503657" lon="1.218161047460752"><ele>376.0</ele><time>2026-05-02T13:32:29Z</time></trkpt><trkpt lat="45.952227194604276" lon="1.2182535804914945"><ele>376.0</ele><time>2026-05-02T13:32:30Z</time></trkpt><trkpt lat="45.95228134503303" lon="1.2183414836971809"><ele>376.0</ele><time>2026-05-02T13:32:31Z</time></trkpt><trkpt lat="45.95233681343912" lon="1.2184255821838523"><ele>376.0</ele><time>2026-05-02T13:32:32Z</time></trkpt><trkpt lat="45.95240563853669" lon="1.2185029051358394"><ele>376.0</ele><time>2026-05-02T13:32:33Z</time></trkpt><trkpt lat="45.95247379771835" lon="1.2185780552836858"><ele>376.0</ele><time>2026-05-02T13:32:34Z</time></trkpt><trkpt lat="45.95253608244564" lon="1.2186623496204962"><ele>376.0</ele><time>2026-05-02T13:32:35Z</time></trkpt><trkpt lat="45.95258968068992" lon="1.2187453875200183"><ele>376.0</ele><time>2026-05-02T13:32:36Z</time></trkpt><trkpt lat="45.952662500851055" lon="1.2188268936226385"><ele>376.0</ele><time>2026-05-02T13:32:37Z</time></trkpt><trkpt lat="45.95271012730732" lon="1.2189113057943766"><ele>376.0</ele><time>2026-05-02T13:32:38Z</time></trkpt><trkpt lat="45.95275692336269" lon="1.2190091775976006"><ele>376.4</ele><time>2026-05-02T13:32:39Z</time></trkpt><trkpt lat="45.95279206089029" lon="1.2191286154846095"><ele>376.8</ele><time>2026-05-02T13:32:40Z</time></trkpt><trkpt lat="45.95284242265372" lon="1.219240164235089"><ele>377.2</ele><time>2026-05-02T13:32:41Z</time></trkpt><trkpt lat="45.952889599420324" lon="1.2193025101087418"><ele>377.59999999999997</ele><time>2026-05-02T13:32:42Z</time></trkpt><trkpt lat="45.95297123840132" lon="1.2194453792373292"><ele>378.0</ele><time>2026-05-02T13:32:44Z</time></trkpt><trkpt lat="45.95305498801762" lon="1.2195062980237232"><ele>378.0</ele><time>2026-05-02T13:32:45Z</time></trkpt><trkpt lat="45.95317549975965" lon="1.2195585451365367"><ele>378.0</ele><time>2026-05-02T13:32:45.999Z</time></trkpt><trkpt lat="45.95330455346047" lon="1.2196201249506728"><ele>378.0</ele><time>2026-05-02T13:32:46.999Z</time></trkpt><trkpt lat="45.95344351346423" lon="1.2197004939310467"><ele>378.0</ele><time>2026-05-02T13:32:47.999Z</time></trkpt><trkpt lat="45.953569434755" lon="1.2197840956205468"><ele>379.4</ele><time>2026-05-02T13:32:48.999Z</time></trkpt><trkpt lat="45.95365364736407" lon="1.219866255461239"><ele>380.79999999999995</ele><time>2026-05-02T13:32:49.999Z</time></trkpt><trkpt lat="45.95373511754461" lon="1.2199306539227637"><ele>382.2</ele><time>2026-05-02T13:32:50.999Z</time></trkpt><trkpt lat="45.95380014239436" lon="1.2199953949838178"><ele>383.6</ele><time>2026-05-02T13:32:51.999Z</time></trkpt><trkpt lat="45.95387841647081" lon="1.2200667965125405"><ele>385.0</ele><time>2026-05-02T13:32:53.999Z</time></trkpt><trkpt lat="45.953959144720436" lon="1.220201896047667"><ele>385.0</ele><time>2026-05-02T13:32:56.999Z</time></trkpt><trkpt lat="45.95398359436306" lon="1.2203429953393559"><ele>385.0</ele><time>2026-05-02T13:32:57.999Z</time></trkpt><trkpt lat="45.954024277314126" lon="1.2204974649117728"><ele>385.0</ele><time>2026-05-02T13:32:58.999Z</time></trkpt><trkpt lat="45.95408423283698" lon="1.2206761012609948"><ele>385.0</ele><time>2026-05-02T13:32:59.999Z</time></trkpt><trkpt lat="45.95413284732043" lon="1.2208823388262422"><ele>384.33333333333337</ele><time>2026-05-02T13:33:00.999Z</time></trkpt><trkpt lat="45.95419159321411" lon="1.2211121548079609"><ele>383.6666666666667</ele><time>2026-05-02T13:33:01.999Z</time></trkpt><trkpt lat="45.95425610223074" lon="1.2213434820454994"><ele>383.0</ele><time>2026-05-02T13:33:02.999Z</time></trkpt><trkpt lat="45.95431039845553" lon="1.221593226066645"><ele>383.0</ele><time>2026-05-02T13:33:03.999Z</time></trkpt><trkpt lat="45.95437380848077" lon="1.2218495672375203"><ele>383.0</ele><time>2026-05-02T13:33:04.999Z</time></trkpt><trkpt lat="45.95444316137643" lon="1.2221193446836263"><ele>383.0</ele><time>2026-05-02T13:33:05.999Z</time></trkpt><trkpt lat="45.95451333317166" lon="1.2223965241113597"><ele>382.6666666666667</ele><time>2026-05-02T13:33:06.999Z</time></trkpt><trkpt lat="45.9545868481411" lon="1.2226552632034513"><ele>382.3333333333333</ele><time>2026-05-02T13:33:07.999Z</time></trkpt><trkpt lat="45.95466186945491" lon="1.2229498589128738"><ele>382.0</ele><time>2026-05-02T13:33:08.999Z</time></trkpt><trkpt lat="45.95474304255089" lon="1.223253380556013"><ele>381.66666666666663</ele><time>2026-05-02T13:33:09.999Z</time></trkpt><trkpt lat="45.954822435791044" lon="1.2235492555295593"><ele>381.3333333333333</ele><time>2026-05-02T13:33:10.999Z</time></trkpt><trkpt lat="45.954903724140124" lon="1.223854763359185"><ele>381.0</ele><time>2026-05-02T13:33:11.999Z</time></trkpt><trkpt lat="45.95498503715949" lon="1.2241565429065078"><ele>383.0</ele><time>2026-05-02T13:33:12.999Z</time></trkpt><trkpt lat="45.95505244997297" lon="1.2244239346695924"><ele>385.0</ele><time>2026-05-02T13:33:13.999Z</time></trkpt><trkpt lat="45.955117100301564" lon="1.2246841144368272"><ele>387.0</ele><time>2026-05-02T13:33:14.999Z</time></trkpt><trkpt lat="45.95517206780767" lon="1.2249314225002874"><ele>387.0</ele><time>2026-05-02T13:33:15.999Z</time></trkpt><trkpt lat="45.955232739255635" lon="1.225129361466585"><ele>387.0</ele><time>2026-05-02T13:33:16.999Z</time></trkpt><trkpt lat="45.9552745674612" lon="1.2252736463523408"><ele>387.0</ele><time>2026-05-02T13:33:17.999Z</time></trkpt><trkpt lat="45.95528732535338" lon="1.22540504957481"><ele>387.0</ele><time>2026-05-02T13:33:19.999Z</time></trkpt><trkpt lat="45.955144465762686" lon="1.2253450896022962"><ele>387.0</ele><time>2026-05-02T13:33:22Z</time></trkpt><trkpt lat="45.955039501207644" lon="1.2252938005037386"><ele>387.0</ele><time>2026-05-02T13:33:23Z</time></trkpt><trkpt lat="45.95494614297142" lon="1.225251361776258"><ele>387.0</ele><time>2026-05-02T13:33:24Z</time></trkpt><trkpt lat="45.95486071251293" lon="1.2252142095301262"><ele>387.0</ele><time>2026-05-02T13:33:25Z</time></trkpt><trkpt lat="45.954794454730425" lon="1.2251898127048644"><ele>387.0</ele><time>2026-05-02T13:33:26Z</time></trkpt><trkpt lat="45.954741809433585" lon="1.2251270129198004"><ele>387.0</ele><time>2026-05-02T13:33:29Z</time></trkpt><trkpt lat="45.95467242264056" lon="1.2251368164575787"><ele>376.0</ele><time>2026-05-02T13:34:09.999Z</time></trkpt><trkpt lat="45.95466961176162" lon="1.2248793484647267"><ele>376.0</ele><time>2026-05-02T13:34:12.999Z</time></trkpt><trkpt lat="45.954669455466956" lon="1.2247886417606408"><ele>381.0</ele><time>2026-05-02T13:34:14.999Z</time></trkpt></trkseg><trkseg><trkpt lat="45.95463895568997" lon="1.2247958308576992"><ele>380.0</ele><time>2026-05-02T15:35:34.999Z</time></trkpt><trkpt lat="45.954659694441204" lon="1.224907521998382"><ele>379.0</ele><time>2026-05-02T15:35:36.999Z</time></trkpt><trkpt lat="45.95467879769785" lon="1.2250036966040216"><ele>378.0</ele><time>2026-05-02T15:35:37.999Z</time></trkpt><trkpt lat="45.95474325290911" lon="1.2251409924866787"><ele>377.0</ele><time>2026-05-02T15:35:39.999Z</time></trkpt><trkpt lat="45.954800893228324" lon="1.2252408232998007"><ele>376.0</ele><time>2026-05-02T15:35:41.999Z</time></trkpt><trkpt lat="45.954906073915275" lon="1.2252832105168352"><ele>376.0</ele><time>2026-05-02T15:35:42.999Z</time></trkpt><trkpt lat="45.95500986255703" lon="1.225330390708382"><ele>376.0</ele><time>2026-05-02T15:35:43.999Z</time></trkpt><trkpt lat="45.95513286384335" lon="1.2253863045023095"><ele>376.0</ele><time>2026-05-02T15:35:44.999Z</time></trkpt><trkpt lat="45.95525093102498" lon="1.2254332462037454"><ele>376.0</ele><time>2026-05-02T15:35:45.999Z</time></trkpt><trkpt lat="45.955328380628515" lon="1.225453589403689"><ele>376.0</ele><time>2026-05-02T15:35:46.999Z</time></trkpt><trkpt lat="45.95540156984642" lon="1.2254901795546185"><ele>376.5</ele><time>2026-05-02T15:35:48.999Z</time></trkpt><trkpt lat="45.95546291568997" lon="1.225590811651155"><ele>377.0</ele><time>2026-05-02T15:35:49.999Z</time></trkpt><trkpt lat="45.95554721061131" lon="1.2257279545124367"><ele>377.5</ele><time>2026-05-02T15:35:50.999Z</time></trkpt><trkpt lat="45.95564735387772" lon="1.2258801210018642"><ele>378.0</ele><time>2026-05-02T15:35:51.999Z</time></trkpt><trkpt lat="45.955758358988845" lon="1.2260434500379789"><ele>378.0</ele><time>2026-05-02T15:35:52.999Z</time></trkpt><trkpt lat="45.95585796008193" lon="1.2262291093036086"><ele>378.0</ele><time>2026-05-02T15:35:53.999Z</time></trkpt><trkpt lat="45.95596335346774" lon="1.2263901992213988"><ele>378.0</ele><time>2026-05-02T15:35:54.999Z</time></trkpt><trkpt lat="45.95606238768644" lon="1.2265526519351058"><ele>378.5</ele><time>2026-05-02T15:35:55.999Z</time></trkpt><trkpt lat="45.9561497584807" lon="1.2267185031030514"><ele>379.0</ele><time>2026-05-02T15:35:56.999Z</time></trkpt><trkpt lat="45.956227446202845" lon="1.2269002175232675"><ele>379.5</ele><time>2026-05-02T15:35:57.998Z</time></trkpt><trkpt lat="45.956272105640664" lon="1.2270985690660396"><ele>380.0</ele><time>2026-05-02T15:35:58.998Z</time></trkpt><trkpt lat="45.95629923420794" lon="1.2273213718733234"><ele>378.0</ele><time>2026-05-02T15:35:59.998Z</time></trkpt><trkpt lat="45.9563084412315" lon="1.227568190600441"><ele>376.0</ele><time>2026-05-02T15:36:00.998Z</time></trkpt><trkpt lat="45.956305358014504" lon="1.2278178008059022"><ele>374.0</ele><time>2026-05-02T15:36:01.998Z</time></trkpt><trkpt lat="45.956298603817565" lon="1.2280830539633667"><ele>372.6666666666667</ele><time>2026-05-02T15:36:02.998Z</time></trkpt><trkpt lat="45.956291748583816" lon="1.228344060062632"><ele>371.3333333333333</ele><time>2026-05-02T15:36:03.998Z</time></trkpt><trkpt lat="45.95630004431984" lon="1.228609034709131"><ele>370.0</ele><time>2026-05-02T15:36:04.998Z</time></trkpt><trkpt lat="45.95629276551268" lon="1.228875176753534"><ele>371.66666666666663</ele><time>2026-05-02T15:36:05.998Z</time></trkpt><trkpt lat="45.95629125599139" lon="1.229139602827399"><ele>373.3333333333333</ele><time>2026-05-02T15:36:06.998Z</time></trkpt><trkpt lat="45.95627600542242" lon="1.2294113554989428"><ele>375.0</ele><time>2026-05-02T15:36:07.998Z</time></trkpt><trkpt lat="45.956272762798314" lon="1.2296913067792021"><ele>377.0</ele><time>2026-05-02T15:36:08.998Z</time></trkpt><trkpt lat="45.956275679690116" lon="1.2299599589802361"><ele>379.0</ele><time>2026-05-02T15:36:09.998Z</time></trkpt><trkpt lat="45.95628578027205" lon="1.2302018794863723"><ele>381.0</ele><time>2026-05-02T15:36:10.998Z</time></trkpt><trkpt lat="45.95637155626066" lon="1.2304468769874581"><ele>383.33333333333337</ele><time>2026-05-02T15:36:11.998Z</time></trkpt><trkpt lat="45.956418435303625" lon="1.2306809279950148"><ele>385.6666666666667</ele><time>2026-05-02T15:36:12.998Z</time></trkpt><trkpt lat="45.95643315825421" lon="1.2309086941498315"><ele>388.0</ele><time>2026-05-02T15:36:13.998Z</time></trkpt><trkpt lat="45.956403686205505" lon="1.2310984310736457"><ele>388.0</ele><time>2026-05-02T15:36:14.998Z</time></trkpt><trkpt lat="45.95636618828417" lon="1.2313103902662712"><ele>388.0</ele><time>2026-05-02T15:36:15.998Z</time></trkpt><trkpt lat="45.956335554562244" lon="1.2314793278498846"><ele>388.0</ele><time>2026-05-02T15:36:16.998Z</time></trkpt><trkpt lat="45.95635026266673" lon="1.231636915627363"><ele>388.0</ele><time>2026-05-02T15:36:17.998Z</time></trkpt><trkpt lat="45.956408217857636" lon="1.231761109681753"><ele>389.0</ele><time>2026-05-02T15:36:18.998Z</time></trkpt><trkpt lat="45.95650852200565" lon="1.2318401757365818"><ele>390.0</ele><time>2026-05-02T15:36:19.998Z</time></trkpt><trkpt lat="45.95662369924449" lon="1.2319083030097877"><ele>391.0</ele><time>2026-05-02T15:36:20.999Z</time></trkpt><trkpt lat="45.956766508980685" lon="1.2319362806588208"><ele>392.0</ele><time>2026-05-02T15:36:21.999Z</time></trkpt><trkpt lat="45.95693556761148" lon="1.232018153476085"><ele>392.0</ele><time>2026-05-02T15:36:22.999Z</time></trkpt><trkpt lat="45.95709381124623" lon="1.2320915037841227"><ele>392.0</ele><time>2026-05-02T15:36:23.999Z</time></trkpt><trkpt lat="45.95723533559739" lon="1.232176309548733"><ele>392.0</ele><time>2026-05-02T15:36:24.999Z</time></trkpt><trkpt lat="45.957383126991104" lon="1.2322759368774536"><ele>392.0</ele><time>2026-05-02T15:36:25.999Z</time></trkpt><trkpt lat="45.9575325314013" lon="1.232379983794126"><ele>392.0</ele><time>2026-05-02T15:36:26.999Z</time></trkpt><trkpt lat="45.95766377203852" lon="1.2325241757544372"><ele>392.0</ele><time>2026-05-02T15:36:27.999Z</time></trkpt><trkpt lat="45.957782873222634" lon="1.2327027075758148"><ele>392.0</ele><time>2026-05-02T15:36:28.999Z</time></trkpt><trkpt lat="45.95787184091486" lon="1.232820978961155"><ele>392.0</ele><time>2026-05-02T15:36:29.999Z</time></trkpt><trkpt lat="45.95793590370624" lon="1.23300782961619"><ele>392.0</ele><time>2026-05-02T15:36:30.999Z</time></trkpt><trkpt lat="45.957974920788196" lon="1.2332104070518208"><ele>392.0</ele><time>2026-05-02T15:36:31.999Z</time></trkpt><trkpt lat="45.95799237619305" lon="1.2334242605150565"><ele>393.5</ele><time>2026-05-02T15:36:32.999Z</time></trkpt><trkpt lat="45.95795665895892" lon="1.2336408023196352"><ele>395.0</ele><time>2026-05-02T15:36:33.999Z</time></trkpt><trkpt lat="45.95791582601944" lon="1.2338431899987967"><ele>396.5</ele><time>2026-05-02T15:36:34.999Z</time></trkpt><trkpt lat="45.95786253009992" lon="1.2340266872528958"><ele>398.0</ele><time>2026-05-02T15:36:35.999Z</time></trkpt><trkpt lat="45.95781794161746" lon="1.2341841699369756"><ele>398.3333333333333</ele><time>2026-05-02T15:36:36.999Z</time></trkpt><trkpt lat="45.95776456177446" lon="1.234293652172009"><ele>398.66666666666663</ele><time>2026-05-02T15:36:37.999Z</time></trkpt><trkpt lat="45.957714286419524" lon="1.2343688175362808"><ele>399.0</ele><time>2026-05-02T15:36:38.999Z</time></trkpt><trkpt lat="45.95765032237403" lon="1.2344326268194765"><ele>399.33333333333337</ele><time>2026-05-02T15:36:41.999Z</time></trkpt><trkpt lat="45.957602334502134" lon="1.2345366826364357"><ele>399.6666666666667</ele><time>2026-05-02T15:36:42.999Z</time></trkpt><trkpt lat="45.95757811728898" lon="1.234677012205798"><ele>400.0</ele><time>2026-05-02T15:36:43.999Z</time></trkpt><trkpt lat="45.957599560021926" lon="1.2348378274347054"><ele>402.5</ele><time>2026-05-02T15:36:44.999Z</time></trkpt><trkpt lat="45.95766656177151" lon="1.2349859864567478"><ele>405.0</ele><time>2026-05-02T15:36:45.999Z</time></trkpt><trkpt lat="45.957773421691996" lon="1.235101059715613"><ele>407.5</ele><time>2026-05-02T15:36:46.999Z</time></trkpt><trkpt lat="45.95790409352761" lon="1.2352019006472676"><ele>410.0</ele><time>2026-05-02T15:36:47.999Z</time></trkpt><trkpt lat="45.95804282366189" lon="1.235300909432318"><ele>410.0</ele><time>2026-05-02T15:36:48.999Z</time></trkpt><trkpt lat="45.958171651350085" lon="1.235437638415422"><ele>410.0</ele><time>2026-05-02T15:36:49.999Z</time></trkpt><trkpt lat="45.95826894328569" lon="1.235620940584145"><ele>410.0</ele><time>2026-05-02T15:36:50.999Z</time></trkpt><trkpt lat="45.95833663491006" lon="1.235815921732207"><ele>412.0</ele><time>2026-05-02T15:36:51.999Z</time></trkpt><trkpt lat="45.958360796771885" lon="1.236006877189264"><ele>414.0</ele><time>2026-05-02T15:36:52.999Z</time></trkpt><trkpt lat="45.95835504121271" lon="1.2362072360004686"><ele>416.0</ele><time>2026-05-02T15:36:53.999Z</time></trkpt><trkpt lat="45.958323453986374" lon="1.2364112678888521"><ele>418.0</ele><time>2026-05-02T15:36:54.999Z</time></trkpt><trkpt lat="45.95824555693637" lon="1.2366170951853113"><ele>418.33333333333337</ele><time>2026-05-02T15:36:55.999Z</time></trkpt><trkpt lat="45.958158873249666" lon="1.2368272710619084"><ele>418.66666666666663</ele><time>2026-05-02T15:36:56.999Z</time></trkpt><trkpt lat="45.958042252203256" lon="1.237040411670145"><ele>419.0</ele><time>2026-05-02T15:36:57.999Z</time></trkpt><trkpt lat="45.95795832092475" lon="1.2372552219861874"><ele>418.0</ele><time>2026-05-02T15:36:58.999Z</time></trkpt><trkpt lat="45.95789682952577" lon="1.2374459548964765"><ele>417.0</ele><time>2026-05-02T15:36:59.999Z</time></trkpt><trkpt lat="45.95786243448359" lon="1.2376544811462493"><ele>416.0</ele><time>2026-05-02T15:37:00.999Z</time></trkpt><trkpt lat="45.95786326430747" lon="1.237883933762881"><ele>416.3333333333333</ele><time>2026-05-02T15:37:01.999Z</time></trkpt><trkpt lat="45.95788361392189" lon="1.2381403459983216"><ele>416.66666666666663</ele><time>2026-05-02T15:37:02.999Z</time></trkpt><trkpt lat="45.95793723518811" lon="1.2383995199178033"><ele>417.0</ele><time>2026-05-02T15:37:03.999Z</time></trkpt><trkpt lat="45.95797541507091" lon="1.2386593604661196"><ele>417.0</ele><time>2026-05-02T15:37:04.999Z</time></trkpt><trkpt lat="45.95800809162599" lon="1.2389260968876357"><ele>417.0</ele><time>2026-05-02T15:37:05.999Z</time></trkpt><trkpt lat="45.95805165553634" lon="1.2392006828237685"><ele>417.0</ele><time>2026-05-02T15:37:06.999Z</time></trkpt><trkpt lat="45.958091237285444" lon="1.239464909006568"><ele>417.66666666666663</ele><time>2026-05-02T15:37:07.999Z</time></trkpt><trkpt lat="45.958134887569244" lon="1.2397176502518292"><ele>418.3333333333333</ele><time>2026-05-02T15:37:08.999Z</time></trkpt><trkpt lat="45.95819818944864" lon="1.2399426596041585"><ele>419.0</ele><time>2026-05-02T15:37:09.999Z</time></trkpt><trkpt lat="45.9582821873856" lon="1.2401413904549055"><ele>420.3333333333333</ele><time>2026-05-02T15:37:10.999Z</time></trkpt><trkpt lat="45.95838729900459" lon="1.2403169280459532"><ele>421.66666666666663</ele><time>2026-05-02T15:37:11.999Z</time></trkpt><trkpt lat="45.95851513364226" lon="1.2404643898107088"><ele>423.0</ele><time>2026-05-02T15:37:12.999Z</time></trkpt><trkpt lat="45.95868152586414" lon="1.2405798361402536"><ele>421.66666666666663</ele><time>2026-05-02T15:37:13.999Z</time></trkpt><trkpt lat="45.95884003168757" lon="1.2407378992768796"><ele>420.3333333333333</ele><time>2026-05-02T15:37:14.999Z</time></trkpt><trkpt lat="45.95900059819119" lon="1.2408756762458473"><ele>419.0</ele><time>2026-05-02T15:37:15.999Z</time></trkpt><trkpt lat="45.95917605144563" lon="1.2410261207258992"><ele>416.3333333333333</ele><time>2026-05-02T15:37:16.999Z</time></trkpt><trkpt lat="45.959350645370584" lon="1.2411537485878834"><ele>413.66666666666663</ele><time>2026-05-02T15:37:17.999Z</time></trkpt><trkpt lat="45.959541318048096" lon="1.2413103119341375"><ele>411.0</ele><time>2026-05-02T15:37:18.999Z</time></trkpt><trkpt lat="45.95971913841845" lon="1.2414885554358244"><ele>409.66666666666663</ele><time>2026-05-02T15:37:19.999Z</time></trkpt><trkpt lat="45.95990491010396" lon="1.2416483991324734"><ele>408.3333333333333</ele><time>2026-05-02T15:37:20.999Z</time></trkpt><trkpt lat="45.96008909086895" lon="1.2418063491268139"><ele>407.0</ele><time>2026-05-02T15:37:21.999Z</time></trkpt><trkpt lat="45.960269371057755" lon="1.241960944582517"><ele>407.0</ele><time>2026-05-02T15:37:22.999Z</time></trkpt><trkpt lat="45.96043796657937" lon="1.2421055201043567"><ele>407.0</ele><time>2026-05-02T15:37:23.999Z</time></trkpt><trkpt lat="45.9606038799203" lon="1.2422477955729458"><ele>407.0</ele><time>2026-05-02T15:37:24.999Z</time></trkpt><trkpt lat="45.96077080715729" lon="1.2423909404787141"><ele>405.3333333333333</ele><time>2026-05-02T15:37:25.999Z</time></trkpt><trkpt lat="45.96093210584553" lon="1.2425295479449894"><ele>403.66666666666663</ele><time>2026-05-02T15:37:26.999Z</time></trkpt><trkpt lat="45.96109245941404" lon="1.2426689569288027"><ele>402.0</ele><time>2026-05-02T15:37:27.999Z</time></trkpt><trkpt lat="45.961248995921785" lon="1.2428050473914352"><ele>402.0</ele><time>2026-05-02T15:37:28.999Z</time></trkpt><trkpt lat="45.96140747537982" lon="1.2429428270582625"><ele>402.0</ele><time>2026-05-02T15:37:29.999Z</time></trkpt><trkpt lat="45.96156446142245" lon="1.243079308348562"><ele>402.0</ele><time>2026-05-02T15:37:30.999Z</time></trkpt><trkpt lat="45.96172298347425" lon="1.243213997954234"><ele>400.66666666666663</ele><time>2026-05-02T15:37:31.999Z</time></trkpt><trkpt lat="45.961880538566945" lon="1.243346271721163"><ele>399.3333333333333</ele><time>2026-05-02T15:37:32.999Z</time></trkpt><trkpt lat="45.96203703400061" lon="1.2434828418507629"><ele>398.0</ele><time>2026-05-02T15:37:33.999Z</time></trkpt><trkpt lat="45.962195477889715" lon="1.2436204266975817"><ele>398.0</ele><time>2026-05-02T15:37:34.999Z</time></trkpt><trkpt lat="45.9623512168454" lon="1.2437541444319895"><ele>398.0</ele><time>2026-05-02T15:37:35.999Z</time></trkpt><trkpt lat="45.962505154368124" lon="1.2438861661752314"><ele>398.0</ele><time>2026-05-02T15:37:36.999Z</time></trkpt><trkpt lat="45.96266106137561" lon="1.244019803709813"><ele>398.0</ele><time>2026-05-02T15:37:37.999Z</time></trkpt><trkpt lat="45.96281604323999" lon="1.2441526483018455"><ele>398.0</ele><time>2026-05-02T15:37:38.999Z</time></trkpt><trkpt lat="45.962973677939125" lon="1.244287766779946"><ele>398.0</ele><time>2026-05-02T15:37:39.999Z</time></trkpt><trkpt lat="45.96312463786276" lon="1.2444171638920418"><ele>398.0</ele><time>2026-05-02T15:37:40.999Z</time></trkpt><trkpt lat="45.9632834196051" lon="1.2445341792151814"><ele>398.0</ele><time>2026-05-02T15:37:41.999Z</time></trkpt><trkpt lat="45.963435665258864" lon="1.2446723021371697"><ele>398.0</ele><time>2026-05-02T15:37:42.999Z</time></trkpt><trkpt lat="45.96358753125778" lon="1.2448235049878809"><ele>399.0</ele><time>2026-05-02T15:37:43.999Z</time></trkpt><trkpt lat="45.96371523631774" lon="1.2450065478265755"><ele>400.0</ele><time>2026-05-02T15:37:44.999Z</time></trkpt><trkpt lat="45.963842360306494" lon="1.2451859307932496"><ele>401.0</ele><time>2026-05-02T15:37:45.999Z</time></trkpt><trkpt lat="45.96397510359163" lon="1.2453512041153554"><ele>401.0</ele><time>2026-05-02T15:37:46.999Z</time></trkpt><trkpt lat="45.96409711596497" lon="1.245539963097948"><ele>401.0</ele><time>2026-05-02T15:37:47.999Z</time></trkpt><trkpt lat="45.964222139928346" lon="1.245731418639391"><ele>401.0</ele><time>2026-05-02T15:37:48.999Z</time></trkpt><trkpt lat="45.964350355971504" lon="1.2459280073534829"><ele>400.3333333333333</ele><time>2026-05-02T15:37:49.999Z</time></trkpt><trkpt lat="45.96448292298899" lon="1.2461268078518843"><ele>399.66666666666663</ele><time>2026-05-02T15:37:50.999Z</time></trkpt><trkpt lat="45.96461641307168" lon="1.2463240478105273"><ele>399.0</ele><time>2026-05-02T15:37:51.999Z</time></trkpt><trkpt lat="45.964749622874535" lon="1.2465254804177865"><ele>398.66666666666663</ele><time>2026-05-02T15:37:52.999Z</time></trkpt><trkpt lat="45.96489163021018" lon="1.2467542824178859"><ele>398.3333333333333</ele><time>2026-05-02T15:37:53.999Z</time></trkpt><trkpt lat="45.96502274513104" lon="1.2469419693218238"><ele>398.0</ele><time>2026-05-02T15:37:54.999Z</time></trkpt><trkpt lat="45.965153999865294" lon="1.2471183533847372"><ele>396.0</ele><time>2026-05-02T15:37:55.999Z</time></trkpt><trkpt lat="45.965287505064424" lon="1.24733300479982"><ele>394.0</ele><time>2026-05-02T15:37:56.999Z</time></trkpt><trkpt lat="45.965420620044156" lon="1.2475347669379238"><ele>392.0</ele><time>2026-05-02T15:37:57.999Z</time></trkpt><trkpt lat="45.965557422016644" lon="1.2477412845582319"><ele>392.0</ele><time>2026-05-02T15:37:58.999Z</time></trkpt><trkpt lat="45.96569635619656" lon="1.247960752299107"><ele>392.0</ele><time>2026-05-02T15:37:59.999Z</time></trkpt><trkpt lat="45.96583385592607" lon="1.2481670333380235"><ele>392.0</ele><time>2026-05-02T15:38:00.999Z</time></trkpt><trkpt lat="45.96597077159814" lon="1.248371360088433"><ele>392.0</ele><time>2026-05-02T15:38:01.999Z</time></trkpt><trkpt lat="45.96610608379885" lon="1.2485732938953595"><ele>392.0</ele><time>2026-05-02T15:38:02.999Z</time></trkpt><trkpt lat="45.966242198505505" lon="1.248776424829941"><ele>392.0</ele><time>2026-05-02T15:38:03.999Z</time></trkpt><trkpt lat="45.966377677431474" lon="1.2489807554248953"><ele>392.66666666666663</ele><time>2026-05-02T15:38:04.999Z</time></trkpt><trkpt lat="45.96651186016701" lon="1.24918195731204"><ele>393.33333333333337</ele><time>2026-05-02T15:38:05.999Z</time></trkpt><trkpt lat="45.96664280656733" lon="1.249379142027254"><ele>394.0</ele><time>2026-05-02T15:38:06.999Z</time></trkpt><trkpt lat="45.96676909495193" lon="1.249571555474025"><ele>397.0</ele><time>2026-05-02T15:38:07.999Z</time></trkpt><trkpt lat="45.96689293916089" lon="1.249760419231104"><ele>400.0</ele><time>2026-05-02T15:38:08.999Z</time></trkpt><trkpt lat="45.96702815814629" lon="1.2499286300366024"><ele>403.0</ele><time>2026-05-02T15:38:09.999Z</time></trkpt><trkpt lat="45.96715880350377" lon="1.2501040065250633"><ele>403.33333333333337</ele><time>2026-05-02T15:38:10.999Z</time></trkpt><trkpt lat="45.967302569213274" lon="1.2502627763591458"><ele>403.66666666666663</ele><time>2026-05-02T15:38:11.999Z</time></trkpt><trkpt lat="45.96745210800123" lon="1.2503986530854125"><ele>404.0</ele><time>2026-05-02T15:38:12.999Z</time></trkpt><trkpt lat="45.967614882837694" lon="1.250515908431288"><ele>405.0</ele><time>2026-05-02T15:38:13.999Z</time></trkpt><trkpt lat="45.96778705871944" lon="1.2506208829797145"><ele>406.0</ele><time>2026-05-02T15:38:14.999Z</time></trkpt><trkpt lat="45.96795718784103" lon="1.2507454892040504"><ele>407.0</ele><time>2026-05-02T15:38:15.999Z</time></trkpt><trkpt lat="45.96813231729619" lon="1.2508593959749996"><ele>407.0</ele><time>2026-05-02T15:38:16.999Z</time></trkpt><trkpt lat="45.96830242138376" lon="1.2509700342521262"><ele>407.0</ele><time>2026-05-02T15:38:17.999Z</time></trkpt><trkpt lat="45.968471085009966" lon="1.2510797356128174"><ele>407.0</ele><time>2026-05-02T15:38:18.999Z</time></trkpt><trkpt lat="45.96864429843258" lon="1.2511923515858276"><ele>407.0</ele><time>2026-05-02T15:38:19.999Z</time></trkpt><trkpt lat="45.96881839489858" lon="1.251305344278291"><ele>407.0</ele><time>2026-05-02T15:38:20.999Z</time></trkpt><trkpt lat="45.968992648045656" lon="1.2514187388988314"><ele>407.0</ele><time>2026-05-02T15:38:21.999Z</time></trkpt><trkpt lat="45.969164478441186" lon="1.2515321604135647"><ele>408.0</ele><time>2026-05-02T15:38:22.999Z</time></trkpt><trkpt lat="45.96933422102132" lon="1.2516442037999953"><ele>409.0</ele><time>2026-05-02T15:38:23.999Z</time></trkpt><trkpt lat="45.969505856719586" lon="1.251759008437734"><ele>410.0</ele><time>2026-05-02T15:38:24.999Z</time></trkpt><trkpt lat="45.96967327881262" lon="1.2518784611105316"><ele>410.0</ele><time>2026-05-02T15:38:25.999Z</time></trkpt><trkpt lat="45.96984480129242" lon="1.2519901325654255"><ele>410.0</ele><time>2026-05-02T15:38:26.999Z</time></trkpt><trkpt lat="45.96998174885265" lon="1.2521808301669597"><ele>410.0</ele><time>2026-05-02T15:38:27.999Z</time></trkpt><trkpt lat="45.97012349854515" lon="1.252364499295443"><ele>411.0</ele><time>2026-05-02T15:38:28.999Z</time></trkpt><trkpt lat="45.970269791860176" lon="1.2525583145453998"><ele>412.0</ele><time>2026-05-02T15:38:29.999Z</time></trkpt><trkpt lat="45.97042312493354" lon="1.2527421966631653"><ele>413.0</ele><time>2026-05-02T15:38:30.999Z</time></trkpt><trkpt lat="45.97057971421645" lon="1.2529025952704103"><ele>413.0</ele><time>2026-05-02T15:38:31.999Z</time></trkpt><trkpt lat="45.970745651576365" lon="1.2530470098716524"><ele>413.0</ele><time>2026-05-02T15:38:32.999Z</time></trkpt><trkpt lat="45.97089658018274" lon="1.2531983115481324"><ele>413.0</ele><time>2026-05-02T15:38:33.999Z</time></trkpt><trkpt lat="45.97104446446779" lon="1.2533650663918594"><ele>412.0</ele><time>2026-05-02T15:38:34.999Z</time></trkpt><trkpt lat="45.97118480045343" lon="1.2535428054777293"><ele>411.0</ele><time>2026-05-02T15:38:36Z</time></trkpt><trkpt lat="45.97127927029964" lon="1.253760682082835"><ele>410.0</ele><time>2026-05-02T15:38:37Z</time></trkpt><trkpt lat="45.97138777694686" lon="1.2539879865383867"><ele>410.0</ele><time>2026-05-02T15:38:38Z</time></trkpt><trkpt lat="45.97149598055777" lon="1.2542146562087515"><ele>410.0</ele><time>2026-05-02T15:38:39Z</time></trkpt><trkpt lat="45.97160535975947" lon="1.254440601855229"><ele>410.0</ele><time>2026-05-02T15:38:40Z</time></trkpt><trkpt lat="45.97171308989202" lon="1.2546652305916275"><ele>410.0</ele><time>2026-05-02T15:38:41Z</time></trkpt><trkpt lat="45.97182533385617" lon="1.2549002124266124"><ele>410.0</ele><time>2026-05-02T15:38:42Z</time></trkpt><trkpt lat="45.97192850346086" lon="1.2551161981888501"><ele>410.0</ele><time>2026-05-02T15:38:43Z</time></trkpt><trkpt lat="45.97203323521877" lon="1.2553093549946337"><ele>410.0</ele><time>2026-05-02T15:38:44Z</time></trkpt><trkpt lat="45.97212447664254" lon="1.2555145629990854"><ele>410.0</ele><time>2026-05-02T15:38:45Z</time></trkpt><trkpt lat="45.97223772597123" lon="1.2557170765202128"><ele>410.0</ele><time>2026-05-02T15:38:46Z</time></trkpt><trkpt lat="45.97232624956804" lon="1.2559276470351808"><ele>407.3333333333333</ele><time>2026-05-02T15:38:47Z</time></trkpt><trkpt lat="45.97244255458438" lon="1.2560964006189792"><ele>404.66666666666663</ele><time>2026-05-02T15:38:48Z</time></trkpt><trkpt lat="45.97255687517376" lon="1.2562074544535704"><ele>402.0</ele><time>2026-05-02T15:38:49Z</time></trkpt><trkpt lat="45.97269979586025" lon="1.2562992150818815"><ele>402.0</ele><time>2026-05-02T15:38:50Z</time></trkpt><trkpt lat="45.9728539589181" lon="1.2563438546655705"><ele>402.0</ele><time>2026-05-02T15:38:51Z</time></trkpt><trkpt lat="45.97303055641224" lon="1.2563305028588243"><ele>402.0</ele><time>2026-05-02T15:38:52Z</time></trkpt><trkpt lat="45.97319956147527" lon="1.2562708619244773"><ele>399.66666666666663</ele><time>2026-05-02T15:38:53Z</time></trkpt><trkpt lat="45.973376246264124" lon="1.256213189701761"><ele>397.3333333333333</ele><time>2026-05-02T15:38:54Z</time></trkpt><trkpt lat="45.97352663800222" lon="1.2561953677387199"><ele>395.0</ele><time>2026-05-02T15:38:55Z</time></trkpt><trkpt lat="45.97369680143288" lon="1.256217037003722"><ele>395.0</ele><time>2026-05-02T15:38:56Z</time></trkpt><trkpt lat="45.97387540613269" lon="1.256268722604772"><ele>395.0</ele><time>2026-05-02T15:38:57Z</time></trkpt><trkpt lat="45.974056848514444" lon="1.2563276199459847"><ele>395.0</ele><time>2026-05-02T15:38:58Z</time></trkpt><trkpt lat="45.97424574124891" lon="1.2563647123687933"><ele>394.0</ele><time>2026-05-02T15:38:59Z</time></trkpt><trkpt lat="45.97444211113173" lon="1.2563310542209687"><ele>393.0</ele><time>2026-05-02T15:39:00Z</time></trkpt><trkpt lat="45.974616797719584" lon="1.256247562002511"><ele>392.0</ele><time>2026-05-02T15:39:01Z</time></trkpt><trkpt lat="45.97479073030173" lon="1.2561705876602036"><ele>392.0</ele><time>2026-05-02T15:39:02Z</time></trkpt><trkpt lat="45.97494850517223" lon="1.2561594848968032"><ele>392.0</ele><time>2026-05-02T15:39:03Z</time></trkpt><trkpt lat="45.97510900462431" lon="1.2561767362572116"><ele>392.0</ele><time>2026-05-02T15:39:04Z</time></trkpt><trkpt lat="45.97524583856224" lon="1.2562402125478602"><ele>391.66666666666663</ele><time>2026-05-02T15:39:05Z</time></trkpt><trkpt lat="45.975380047129505" lon="1.2563526299828323"><ele>391.33333333333337</ele><time>2026-05-02T15:39:06Z</time></trkpt><trkpt lat="45.97549688630449" lon="1.2565057066716017"><ele>391.0</ele><time>2026-05-02T15:39:07Z</time></trkpt><trkpt lat="45.97560474724681" lon="1.2566920039205753"><ele>393.33333333333337</ele><time>2026-05-02T15:39:08Z</time></trkpt><trkpt lat="45.9757036595403" lon="1.2568891739521373"><ele>395.66666666666663</ele><time>2026-05-02T15:39:09Z</time></trkpt><trkpt lat="45.975737159539364" lon="1.257105804312181"><ele>398.0</ele><time>2026-05-02T15:39:10Z</time></trkpt><trkpt lat="45.975740900913294" lon="1.2573159685251645"><ele>398.3333333333333</ele><time>2026-05-02T15:39:11Z</time></trkpt><trkpt lat="45.97576246706191" lon="1.2575314485009879"><ele>398.66666666666663</ele><time>2026-05-02T15:39:12Z</time></trkpt><trkpt lat="45.975734829350635" lon="1.2577484152333533"><ele>399.0</ele><time>2026-05-02T15:39:13Z</time></trkpt><trkpt lat="45.97574268244255" lon="1.2579592195529183"><ele>398.33333333333337</ele><time>2026-05-02T15:39:14Z</time></trkpt><trkpt lat="45.97578483842358" lon="1.2581709944351376"><ele>397.6666666666667</ele><time>2026-05-02T15:39:15Z</time></trkpt><trkpt lat="45.975863124106134" lon="1.2583653486336122"><ele>397.0</ele><time>2026-05-02T15:39:16Z</time></trkpt><trkpt lat="45.9759749955925" lon="1.2585378565923355"><ele>396.6666666666667</ele><time>2026-05-02T15:39:17Z</time></trkpt><trkpt lat="45.97610549483595" lon="1.2586762153350657"><ele>396.33333333333337</ele><time>2026-05-02T15:39:18Z</time></trkpt><trkpt lat="45.976248426013335" lon="1.258799901211425"><ele>396.0</ele><time>2026-05-02T15:39:19Z</time></trkpt><trkpt lat="45.97639238266772" lon="1.2589316334954428"><ele>396.33333333333337</ele><time>2026-05-02T15:39:20Z</time></trkpt><trkpt lat="45.97654158632004" lon="1.2590713591274894"><ele>396.6666666666667</ele><time>2026-05-02T15:39:21Z</time></trkpt><trkpt lat="45.976691183777476" lon="1.2592167453791185"><ele>397.0</ele><time>2026-05-02T15:39:22Z</time></trkpt><trkpt lat="45.976833258182616" lon="1.2593502692305951"><ele>397.25</ele><time>2026-05-02T15:39:23Z</time></trkpt><trkpt lat="45.97695364237965" lon="1.259472653745419"><ele>397.5</ele><time>2026-05-02T15:39:24Z</time></trkpt><trkpt lat="45.977065943557704" lon="1.2595904604311405"><ele>397.75</ele><time>2026-05-02T15:39:25Z</time></trkpt><trkpt lat="45.97717318795498" lon="1.2596877199813825"><ele>398.0</ele><time>2026-05-02T15:39:26Z</time></trkpt><trkpt lat="45.9772692993993" lon="1.259776128038913"><ele>398.25</ele><time>2026-05-02T15:39:27Z</time></trkpt><trkpt lat="45.977357014684955" lon="1.2598580864719786"><ele>398.5</ele><time>2026-05-02T15:39:28Z</time></trkpt><trkpt lat="45.977446420998064" lon="1.2599487929656148"><ele>398.75</ele><time>2026-05-02T15:39:29Z</time></trkpt><trkpt lat="45.97755258753427" lon="1.2600528263227682"><ele>399.0</ele><time>2026-05-02T15:39:30Z</time></trkpt><trkpt lat="45.97766809922269" lon="1.2601626003337087"><ele>400.0</ele><time>2026-05-02T15:39:31Z</time></trkpt><trkpt lat="45.97778601487608" lon="1.2602968139528643"><ele>401.0</ele><time>2026-05-02T15:39:32Z</time></trkpt><trkpt lat="45.977916234302704" lon="1.2604241843553716"><ele>402.0</ele><time>2026-05-02T15:39:33Z</time></trkpt><trkpt lat="45.97804792089704" lon="1.260556657494958"><ele>401.66666666666663</ele><time>2026-05-02T15:39:34Z</time></trkpt><trkpt lat="45.97818321022144" lon="1.2607052878315088"><ele>401.3333333333333</ele><time>2026-05-02T15:39:35Z</time></trkpt><trkpt lat="45.97831869650127" lon="1.2608628001332942"><ele>401.0</ele><time>2026-05-02T15:39:36Z</time></trkpt><trkpt lat="45.97842825998244" lon="1.2610554814818715"><ele>401.0</ele><time>2026-05-02T15:39:37Z</time></trkpt><trkpt lat="45.97851862178717" lon="1.2612777770377186"><ele>401.0</ele><time>2026-05-02T15:39:37.999Z</time></trkpt><trkpt lat="45.978593455532696" lon="1.2615175345805645"><ele>401.0</ele><time>2026-05-02T15:39:38.999Z</time></trkpt><trkpt lat="45.978661393257205" lon="1.2617528664010917"><ele>401.66666666666663</ele><time>2026-05-02T15:39:39.999Z</time></trkpt><trkpt lat="45.97873962380327" lon="1.2619822001360628"><ele>402.33333333333337</ele><time>2026-05-02T15:39:40.999Z</time></trkpt><trkpt lat="45.97884043725485" lon="1.2621987360694127"><ele>403.0</ele><time>2026-05-02T15:39:41.999Z</time></trkpt><trkpt lat="45.978950377314" lon="1.262410441943388"><ele>403.0</ele><time>2026-05-02T15:39:42.999Z</time></trkpt><trkpt lat="45.97906618416211" lon="1.2626239407102435"><ele>403.0</ele><time>2026-05-02T15:39:43.999Z</time></trkpt><trkpt lat="45.979186868711885" lon="1.262835402092102"><ele>403.0</ele><time>2026-05-02T15:39:44.999Z</time></trkpt><trkpt lat="45.97930323569614" lon="1.2630375804341454"><ele>400.6666666666667</ele><time>2026-05-02T15:39:45.999Z</time></trkpt><trkpt lat="45.97941124866488" lon="1.2632141897848943"><ele>398.33333333333337</ele><time>2026-05-02T15:39:46.999Z</time></trkpt><trkpt lat="45.97952086964455" lon="1.2633687521276322"><ele>396.0</ele><time>2026-05-02T15:39:47.999Z</time></trkpt><trkpt lat="45.97964480669261" lon="1.2635028467124183"><ele>396.0</ele><time>2026-05-02T15:39:48.999Z</time></trkpt><trkpt lat="45.97979234440368" lon="1.2636078741617218"><ele>396.0</ele><time>2026-05-02T15:39:49.999Z</time></trkpt><trkpt lat="45.97995194938186" lon="1.263681229119469"><ele>396.0</ele><time>2026-05-02T15:39:50.999Z</time></trkpt><trkpt lat="45.98012060393262" lon="1.263727242230874"><ele>394.66666666666663</ele><time>2026-05-02T15:39:51.999Z</time></trkpt><trkpt lat="45.98029928415704" lon="1.2637518644872814"><ele>393.3333333333333</ele><time>2026-05-02T15:39:52.999Z</time></trkpt><trkpt lat="45.98047718833465" lon="1.263753114811467"><ele>392.0</ele><time>2026-05-02T15:39:53.999Z</time></trkpt><trkpt lat="45.98063487880243" lon="1.26377126578685"><ele>392.0</ele><time>2026-05-02T15:39:54.999Z</time></trkpt><trkpt lat="45.98077436679361" lon="1.2638316079855452"><ele>392.0</ele><time>2026-05-02T15:39:55.999Z</time></trkpt><trkpt lat="45.98090373834784" lon="1.263944045776177"><ele>392.0</ele><time>2026-05-02T15:39:56.999Z</time></trkpt><trkpt lat="45.981024887241134" lon="1.2640905535105886"><ele>390.3333333333333</ele><time>2026-05-02T15:39:57.999Z</time></trkpt><trkpt lat="45.98112962785894" lon="1.264271163963498"><ele>388.66666666666663</ele><time>2026-05-02T15:39:58.999Z</time></trkpt><trkpt lat="45.98123130240157" lon="1.2644727107499072"><ele>387.0</ele><time>2026-05-02T15:39:59.999Z</time></trkpt><trkpt lat="45.9813285597773" lon="1.2646904852886298"><ele>385.3333333333333</ele><time>2026-05-02T15:40:00.999Z</time></trkpt><trkpt lat="45.98143042200019" lon="1.264889768361129"><ele>383.66666666666663</ele><time>2026-05-02T15:40:01.999Z</time></trkpt><trkpt lat="45.98152109432182" lon="1.2650716176009569"><ele>382.0</ele><time>2026-05-02T15:40:02.999Z</time></trkpt><trkpt lat="45.98158490603782" lon="1.2652482463869832"><ele>382.0</ele><time>2026-05-02T15:40:03.999Z</time></trkpt><trkpt lat="45.98161653975908" lon="1.265437326581202"><ele>382.0</ele><time>2026-05-02T15:40:04.999Z</time></trkpt><trkpt lat="45.98161171097989" lon="1.2656338188836893"><ele>382.0</ele><time>2026-05-02T15:40:05.999Z</time></trkpt><trkpt lat="45.98158520754188" lon="1.2658474150741141"><ele>382.0</ele><time>2026-05-02T15:40:06.999Z</time></trkpt><trkpt lat="45.98156264539863" lon="1.2660681510395526"><ele>382.0</ele><time>2026-05-02T15:40:07.999Z</time></trkpt><trkpt lat="45.981521760693546" lon="1.266287228617186"><ele>382.0</ele><time>2026-05-02T15:40:08.999Z</time></trkpt><trkpt lat="45.98151368951555" lon="1.2665196088626505"><ele>382.0</ele><time>2026-05-02T15:40:09.999Z</time></trkpt><trkpt lat="45.98153677030436" lon="1.2667473711860362"><ele>381.5</ele><time>2026-05-02T15:40:10.999Z</time></trkpt><trkpt lat="45.98158867762312" lon="1.2669369227063692"><ele>381.0</ele><time>2026-05-02T15:40:11.999Z</time></trkpt><trkpt lat="45.981677643031745" lon="1.2670986486334226"><ele>380.5</ele><time>2026-05-02T15:40:12.999Z</time></trkpt><trkpt lat="45.98179217730744" lon="1.2672382038842145"><ele>380.0</ele><time>2026-05-02T15:40:13.999Z</time></trkpt><trkpt lat="45.981929354563434" lon="1.2673446216158215"><ele>377.6666666666667</ele><time>2026-05-02T15:40:14.999Z</time></trkpt><trkpt lat="45.98207511285357" lon="1.2674354714268072"><ele>375.3333333333333</ele><time>2026-05-02T15:40:15.999Z</time></trkpt><trkpt lat="45.98221721659045" lon="1.2675473559378398"><ele>373.0</ele><time>2026-05-02T15:40:16.999Z</time></trkpt><trkpt lat="45.98237865855396" lon="1.2676120136854454"><ele>371.0</ele><time>2026-05-02T15:40:17.999Z</time></trkpt><trkpt lat="45.98253108585748" lon="1.2677157195382174"><ele>369.0</ele><time>2026-05-02T15:40:18.999Z</time></trkpt><trkpt lat="45.982695136163635" lon="1.2677969664732593"><ele>367.0</ele><time>2026-05-02T15:40:19.999Z</time></trkpt><trkpt lat="45.98286112701083" lon="1.267877975896467"><ele>367.0</ele><time>2026-05-02T15:40:20.999Z</time></trkpt><trkpt lat="45.98302576762715" lon="1.2679681310388244"><ele>367.0</ele><time>2026-05-02T15:40:21.999Z</time></trkpt><trkpt lat="45.983178815791454" lon="1.2680814828684543"><ele>367.0</ele><time>2026-05-02T15:40:22.999Z</time></trkpt><trkpt lat="45.98332367226847" lon="1.2682217608040962"><ele>366.0</ele><time>2026-05-02T15:40:23.999Z</time></trkpt><trkpt lat="45.98342847157748" lon="1.268358539241096"><ele>365.0</ele><time>2026-05-02T15:40:24.999Z</time></trkpt><trkpt lat="45.98351150705117" lon="1.2684954587466866"><ele>364.0</ele><time>2026-05-02T15:40:25.999Z</time></trkpt><trkpt lat="45.983576115492326" lon="1.2686353674316422"><ele>363.0</ele><time>2026-05-02T15:40:26.999Z</time></trkpt><trkpt lat="45.98362080533076" lon="1.2687798628680655"><ele>364.25</ele><time>2026-05-02T15:40:27.999Z</time></trkpt><trkpt lat="45.983672406824965" lon="1.268951268046878"><ele>365.5</ele><time>2026-05-02T15:40:28.999Z</time></trkpt><trkpt lat="45.983733295045795" lon="1.269147263934629"><ele>366.75</ele><time>2026-05-02T15:40:29.999Z</time></trkpt><trkpt lat="45.98380190109841" lon="1.2692944742736545"><ele>368.0</ele><time>2026-05-02T15:40:30.999Z</time></trkpt><trkpt lat="45.984050754837185" lon="1.2696048926474142"><ele>368.0</ele><time>2026-05-02T15:40:31.999Z</time></trkpt><trkpt lat="45.98419319975805" lon="1.2697115075635097"><ele>368.0</ele><time>2026-05-02T15:40:33Z</time></trkpt><trkpt lat="45.98434318779809" lon="1.269787320583546"><ele>368.0</ele><time>2026-05-02T15:40:34Z</time></trkpt><trkpt lat="45.98449137656427" lon="1.2698696141041776"><ele>368.0</ele><time>2026-05-02T15:40:35Z</time></trkpt><trkpt lat="45.98464561339741" lon="1.2699613080513636"><ele>368.0</ele><time>2026-05-02T15:40:36Z</time></trkpt><trkpt lat="45.98480726305493" lon="1.2700567656796546"><ele>368.0</ele><time>2026-05-02T15:40:37Z</time></trkpt><trkpt lat="45.98496495673958" lon="1.2701506452597568"><ele>370.33333333333337</ele><time>2026-05-02T15:40:38Z</time></trkpt><trkpt lat="45.985125730838675" lon="1.270254175250086"><ele>372.6666666666667</ele><time>2026-05-02T15:40:39Z</time></trkpt><trkpt lat="45.985290509358514" lon="1.2703584815522322"><ele>375.0</ele><time>2026-05-02T15:40:40Z</time></trkpt><trkpt lat="45.98545368849813" lon="1.270457779344117"><ele>375.0</ele><time>2026-05-02T15:40:41Z</time></trkpt><trkpt lat="45.98560821018468" lon="1.270579148747181"><ele>375.0</ele><time>2026-05-02T15:40:42Z</time></trkpt><trkpt lat="45.9857811611299" lon="1.270665440187489"><ele>375.0</ele><time>2026-05-02T15:40:43Z</time></trkpt><trkpt lat="45.98594193321804" lon="1.2707937764366737"><ele>375.6666666666667</ele><time>2026-05-02T15:40:44Z</time></trkpt><trkpt lat="45.98610233744228" lon="1.2708995831855638"><ele>376.33333333333337</ele><time>2026-05-02T15:40:45Z</time></trkpt><trkpt lat="45.986272054889014" lon="1.2709877595833898"><ele>377.0</ele><time>2026-05-02T15:40:46Z</time></trkpt><trkpt lat="45.9864172747187" lon="1.271129878344098"><ele>377.0</ele><time>2026-05-02T15:40:47Z</time></trkpt><trkpt lat="45.98655384783978" lon="1.2712667463032679"><ele>377.0</ele><time>2026-05-02T15:40:48Z</time></trkpt><trkpt lat="45.986672410247515" lon="1.271399674479019"><ele>377.0</ele><time>2026-05-02T15:40:49Z</time></trkpt><trkpt lat="45.98677772037331" lon="1.2715302016465664"><ele>378.25</ele><time>2026-05-02T15:40:50Z</time></trkpt><trkpt lat="45.98687306226641" lon="1.271661774816942"><ele>379.5</ele><time>2026-05-02T15:40:51Z</time></trkpt><trkpt lat="45.98695741307031" lon="1.271794029110566"><ele>380.75</ele><time>2026-05-02T15:40:52Z</time></trkpt><trkpt lat="45.98702482625116" lon="1.2719262715428266"><ele>382.0</ele><time>2026-05-02T15:40:53Z</time></trkpt><trkpt lat="45.98707921519954" lon="1.2720461936641647"><ele>382.0</ele><time>2026-05-02T15:40:54Z</time></trkpt><trkpt lat="45.98712781585057" lon="1.2721818217691454"><ele>382.0</ele><time>2026-05-02T15:40:55Z</time></trkpt><trkpt lat="45.98717834698959" lon="1.2723235324788924"><ele>382.0</ele><time>2026-05-02T15:40:56Z</time></trkpt><trkpt lat="45.987235310928" lon="1.27246711843922"><ele>382.0</ele><time>2026-05-02T15:40:57Z</time></trkpt><trkpt lat="45.98729798982861" lon="1.2726150646583834"><ele>382.0</ele><time>2026-05-02T15:40:58Z</time></trkpt><trkpt lat="45.98736955358233" lon="1.2727582534896247"><ele>382.0</ele><time>2026-05-02T15:40:59Z</time></trkpt><trkpt lat="45.98745603755394" lon="1.2728749648962392"><ele>382.0</ele><time>2026-05-02T15:41:00Z</time></trkpt><trkpt lat="45.98754006839241" lon="1.2729961143400892"><ele>382.0</ele><time>2026-05-02T15:41:01Z</time></trkpt><trkpt lat="45.98761024418383" lon="1.273129332663676"><ele>382.0</ele><time>2026-05-02T15:41:02Z</time></trkpt><trkpt lat="45.98770162049296" lon="1.2732250584103844"><ele>382.0</ele><time>2026-05-02T15:41:03Z</time></trkpt><trkpt lat="45.987793996686015" lon="1.2733227062308925"><ele>382.0</ele><time>2026-05-02T15:41:04Z</time></trkpt><trkpt lat="45.98788772178651" lon="1.2734035901010488"><ele>382.0</ele><time>2026-05-02T15:41:05Z</time></trkpt><trkpt lat="45.987988067980616" lon="1.2734626564765017"><ele>382.0</ele><time>2026-05-02T15:41:06Z</time></trkpt><trkpt lat="45.98808615878467" lon="1.2735235589121894"><ele>382.0</ele><time>2026-05-02T15:41:07Z</time></trkpt><trkpt lat="45.988196289713635" lon="1.2735596020385809"><ele>382.0</ele><time>2026-05-02T15:41:08Z</time></trkpt><trkpt lat="45.98830617302519" lon="1.2735896721710378"><ele>382.0</ele><time>2026-05-02T15:41:09Z</time></trkpt><trkpt lat="45.988405912877994" lon="1.2736169665043093"><ele>382.0</ele><time>2026-05-02T15:41:10Z</time></trkpt><trkpt lat="45.98850675042065" lon="1.273644561222054"><ele>382.0</ele><time>2026-05-02T15:41:11Z</time></trkpt><trkpt lat="45.98860709981916" lon="1.2736489306060834"><ele>382.20000000000005</ele><time>2026-05-02T15:41:12Z</time></trkpt><trkpt lat="45.988702158053336" lon="1.2736995250395673"><ele>382.4</ele><time>2026-05-02T15:41:13Z</time></trkpt><trkpt lat="45.988802916681266" lon="1.2737094086347085"><ele>382.6</ele><time>2026-05-02T15:41:14Z</time></trkpt><trkpt lat="45.9888932229964" lon="1.273734211170716"><ele>382.79999999999995</ele><time>2026-05-02T15:41:15Z</time></trkpt><trkpt lat="45.98899449266778" lon="1.2737693216783323"><ele>383.0</ele><time>2026-05-02T15:41:16Z</time></trkpt><trkpt lat="45.98908066591734" lon="1.2737980972931209"><ele>383.0</ele><time>2026-05-02T15:41:17Z</time></trkpt><trkpt lat="45.98916511547156" lon="1.2738576195272842"><ele>383.0</ele><time>2026-05-02T15:41:18Z</time></trkpt><trkpt lat="45.9892526536382" lon="1.273912423357981"><ele>383.0</ele><time>2026-05-02T15:41:19Z</time></trkpt><trkpt lat="45.98934992815805" lon="1.2739713314986243"><ele>383.0</ele><time>2026-05-02T15:41:20Z</time></trkpt><trkpt lat="45.98943278020777" lon="1.2740619398717152"><ele>383.0</ele><time>2026-05-02T15:41:21Z</time></trkpt><trkpt lat="45.9895041348559" lon="1.2741585606507035"><ele>384.0</ele><time>2026-05-02T15:41:22Z</time></trkpt><trkpt lat="45.98955730540341" lon="1.2742773042975113"><ele>385.0</ele><time>2026-05-02T15:41:23Z</time></trkpt><trkpt lat="45.98963743776561" lon="1.274372264070745"><ele>386.0</ele><time>2026-05-02T15:41:24Z</time></trkpt><trkpt lat="45.989702546440334" lon="1.2744892923339914"><ele>387.0</ele><time>2026-05-02T15:41:25Z</time></trkpt><trkpt lat="45.98975551452195" lon="1.2746128322959736"><ele>388.0</ele><time>2026-05-02T15:41:26Z</time></trkpt><trkpt lat="45.98982598116596" lon="1.2747272595805001"><ele>388.4</ele><time>2026-05-02T15:41:27Z</time></trkpt><trkpt lat="45.9899065741694" lon="1.2748272551245006"><ele>388.79999999999995</ele><time>2026-05-02T15:41:28Z</time></trkpt><trkpt lat="45.989998584042226" lon="1.274886605313537"><ele>389.2</ele><time>2026-05-02T15:41:29Z</time></trkpt><trkpt lat="45.99008667150335" lon="1.2749397544516745"><ele>389.6</ele><time>2026-05-02T15:41:30Z</time></trkpt><trkpt lat="45.99018297790236" lon="1.2749631070958072"><ele>390.0</ele><time>2026-05-02T15:41:31Z</time></trkpt><trkpt lat="45.990276683852095" lon="1.2749644860373197"><ele>391.0</ele><time>2026-05-02T15:41:32Z</time></trkpt><trkpt lat="45.990375452417446" lon="1.2749547502282406"><ele>392.0</ele><time>2026-05-02T15:41:33Z</time></trkpt><trkpt lat="45.990475183574574" lon="1.2749403173108709"><ele>393.0</ele><time>2026-05-02T15:41:34Z</time></trkpt><trkpt lat="45.99057134777244" lon="1.2749313648289788"><ele>394.0</ele><time>2026-05-02T15:41:35Z</time></trkpt><trkpt lat="45.990665126538325" lon="1.274925835661496"><ele>395.0</ele><time>2026-05-02T15:41:36Z</time></trkpt><trkpt lat="45.99075740694328" lon="1.2749263342774335"><ele>395.8</ele><time>2026-05-02T15:41:37Z</time></trkpt><trkpt lat="45.99086382049467" lon="1.2749148175066924"><ele>396.6</ele><time>2026-05-02T15:41:38Z</time></trkpt><trkpt lat="45.990958274574076" lon="1.2749096673210971"><ele>397.4</ele><time>2026-05-02T15:41:39Z</time></trkpt><trkpt lat="45.99105522541962" lon="1.2749077720907345"><ele>398.2</ele><time>2026-05-02T15:41:40Z</time></trkpt><trkpt lat="45.991153432994146" lon="1.2749035923767922"><ele>399.0</ele><time>2026-05-02T15:41:41Z</time></trkpt><trkpt lat="45.991247776115806" lon="1.2748933816002888"><ele>399.0</ele><time>2026-05-02T15:41:42Z</time></trkpt><trkpt lat="45.991348505145595" lon="1.27488503712442"><ele>399.0</ele><time>2026-05-02T15:41:43Z</time></trkpt><trkpt lat="45.991444635016784" lon="1.2748769195263825"><ele>399.0</ele><time>2026-05-02T15:41:44Z</time></trkpt><trkpt lat="45.991531883014886" lon="1.2748679013129438"><ele>399.0</ele><time>2026-05-02T15:41:45Z</time></trkpt><trkpt lat="45.99161063617984" lon="1.2748623031912603"><ele>399.0</ele><time>2026-05-02T15:41:46Z</time></trkpt><trkpt lat="45.991676388407356" lon="1.274862979220849"><ele>399.0</ele><time>2026-05-02T15:41:47Z</time></trkpt><trkpt lat="45.99178444006677" lon="1.2748753420913768"><ele>399.2</ele><time>2026-05-02T15:41:49Z</time></trkpt><trkpt lat="45.99184808130252" lon="1.2748538874839033"><ele>399.4</ele><time>2026-05-02T15:41:51Z</time></trkpt><trkpt lat="45.99192436530531" lon="1.2748856815224154"><ele>399.6</ele><time>2026-05-02T15:41:55Z</time></trkpt><trkpt lat="45.99205646261469" lon="1.2748412335001453"><ele>399.8</ele><time>2026-05-02T15:41:57Z</time></trkpt><trkpt lat="45.99213919964028" lon="1.2748193581637002"><ele>400.0</ele><time>2026-05-02T15:41:58Z</time></trkpt><trkpt lat="45.99223816981042" lon="1.2748250619170862"><ele>400.0</ele><time>2026-05-02T15:41:59Z</time></trkpt><trkpt lat="45.99234550647303" lon="1.2748533574521066"><ele>400.0</ele><time>2026-05-02T15:42:00Z</time></trkpt><trkpt lat="45.99245660491185" lon="1.2748575159000415"><ele>400.0</ele><time>2026-05-02T15:42:01Z</time></trkpt><trkpt lat="45.992577565118616" lon="1.2748598657600179"><ele>400.0</ele><time>2026-05-02T15:42:02Z</time></trkpt><trkpt lat="45.99269398161916" lon="1.2748604770810912"><ele>399.25</ele><time>2026-05-02T15:42:03Z</time></trkpt><trkpt lat="45.9928053819967" lon="1.2748579616613378"><ele>398.5</ele><time>2026-05-02T15:42:04Z</time></trkpt><trkpt lat="45.992931733958486" lon="1.2748468409748823"><ele>397.75</ele><time>2026-05-02T15:42:05Z</time></trkpt><trkpt lat="45.99305064637679" lon="1.2748305540659788"><ele>397.0</ele><time>2026-05-02T15:42:06Z</time></trkpt><trkpt lat="45.99317387622436" lon="1.2748126243297175"><ele>397.0</ele><time>2026-05-02T15:42:07Z</time></trkpt><trkpt lat="45.993296411822094" lon="1.2747916512010176"><ele>397.0</ele><time>2026-05-02T15:42:08Z</time></trkpt><trkpt lat="45.99340862541033" lon="1.2747539074313348"><ele>397.0</ele><time>2026-05-02T15:42:09Z</time></trkpt><trkpt lat="45.99353205412343" lon="1.2747472793757366"><ele>397.0</ele><time>2026-05-02T15:42:10Z</time></trkpt><trkpt lat="45.99364346838978" lon="1.2748039117165437"><ele>395.0</ele><time>2026-05-02T15:42:11Z</time></trkpt><trkpt lat="45.99375511399255" lon="1.27485761683185"><ele>393.0</ele><time>2026-05-02T15:42:12Z</time></trkpt><trkpt lat="45.993878106798974" lon="1.2749389357262229"><ele>391.0</ele><time>2026-05-02T15:42:13Z</time></trkpt><trkpt lat="45.994018600300926" lon="1.2750705448252795"><ele>389.0</ele><time>2026-05-02T15:42:14Z</time></trkpt><trkpt lat="45.994155877932386" lon="1.2751732036176826"><ele>386.0</ele><time>2026-05-02T15:42:15Z</time></trkpt><trkpt lat="45.99430814033464" lon="1.275225622843143"><ele>383.0</ele><time>2026-05-02T15:42:16Z</time></trkpt><trkpt lat="45.99445223250238" lon="1.275288556991849"><ele>380.0</ele><time>2026-05-02T15:42:17Z</time></trkpt><trkpt lat="45.99458875748445" lon="1.2753401928402754"><ele>377.0</ele><time>2026-05-02T15:42:18Z</time></trkpt><trkpt lat="45.994738610173904" lon="1.275384238319192"><ele>377.0</ele><time>2026-05-02T15:42:19Z</time></trkpt><trkpt lat="45.99490597178386" lon="1.2754504587353321"><ele>377.0</ele><time>2026-05-02T15:42:20Z</time></trkpt><trkpt lat="45.99509313230562" lon="1.2755137895796445"><ele>377.0</ele><time>2026-05-02T15:42:21Z</time></trkpt><trkpt lat="45.99527341371673" lon="1.275579503597371"><ele>375.6666666666667</ele><time>2026-05-02T15:42:22Z</time></trkpt><trkpt lat="45.995443400544275" lon="1.2756587145699623"><ele>374.3333333333333</ele><time>2026-05-02T15:42:23Z</time></trkpt><trkpt lat="45.995606276893604" lon="1.2757541043582294"><ele>373.0</ele><time>2026-05-02T15:42:24Z</time></trkpt><trkpt lat="45.99579714688364" lon="1.2758495694923262"><ele>370.66666666666663</ele><time>2026-05-02T15:42:25Z</time></trkpt><trkpt lat="45.99598593903234" lon="1.275964599160407"><ele>368.3333333333333</ele><time>2026-05-02T15:42:26Z</time></trkpt><trkpt lat="45.996170259067675" lon="1.2760776819140536"><ele>366.0</ele><time>2026-05-02T15:42:27Z</time></trkpt><trkpt lat="45.996336183638704" lon="1.2762089320964698"><ele>366.0</ele><time>2026-05-02T15:42:28Z</time></trkpt><trkpt lat="45.996494346341855" lon="1.2763397732787964"><ele>366.0</ele><time>2026-05-02T15:42:29Z</time></trkpt><trkpt lat="45.996648712029994" lon="1.2764912081378395"><ele>366.0</ele><time>2026-05-02T15:42:30Z</time></trkpt><trkpt lat="45.99681207617306" lon="1.276623813414171"><ele>363.6666666666667</ele><time>2026-05-02T15:42:31Z</time></trkpt><trkpt lat="45.99697597698639" lon="1.276792601693768"><ele>361.33333333333337</ele><time>2026-05-02T15:42:32Z</time></trkpt><trkpt lat="45.997144204707226" lon="1.276952429580316"><ele>359.0</ele><time>2026-05-02T15:42:33Z</time></trkpt><trkpt lat="45.997315173343544" lon="1.277099250245595"><ele>359.0</ele><time>2026-05-02T15:42:34Z</time></trkpt><trkpt lat="45.99750065816345" lon="1.277241588569908"><ele>359.0</ele><time>2026-05-02T15:42:35Z</time></trkpt><trkpt lat="45.99768987443" lon="1.277379330830749"><ele>359.0</ele><time>2026-05-02T15:42:36Z</time></trkpt><trkpt lat="45.99785972060212" lon="1.2775015927928093"><ele>355.6666666666667</ele><time>2026-05-02T15:42:37Z</time></trkpt><trkpt lat="45.998009618200726" lon="1.2776251177779618"><ele>352.3333333333333</ele><time>2026-05-02T15:42:38Z</time></trkpt><trkpt lat="45.99814533732063" lon="1.277788518747474"><ele>349.0</ele><time>2026-05-02T15:42:39.001Z</time></trkpt><trkpt lat="45.99825576523039" lon="1.2779614809578626"><ele>346.66666666666663</ele><time>2026-05-02T15:42:40.001Z</time></trkpt><trkpt lat="45.998362569360765" lon="1.2781580588195613"><ele>344.3333333333333</ele><time>2026-05-02T15:42:41.001Z</time></trkpt><trkpt lat="45.998504769761894" lon="1.2782996806939273"><ele>342.0</ele><time>2026-05-02T15:42:42.001Z</time></trkpt><trkpt lat="45.99864701586363" lon="1.2784402792450127"><ele>342.0</ele><time>2026-05-02T15:42:43.001Z</time></trkpt><trkpt lat="45.99881553588218" lon="1.2785224580287842"><ele>342.0</ele><time>2026-05-02T15:42:44.001Z</time></trkpt><trkpt lat="45.99898893368284" lon="1.278578208019347"><ele>342.0</ele><time>2026-05-02T15:42:45.001Z</time></trkpt><trkpt lat="45.9991617248053" lon="1.2786513504956805"><ele>343.3333333333333</ele><time>2026-05-02T15:42:46.001Z</time></trkpt><trkpt lat="45.999332125078375" lon="1.2787373853084136"><ele>344.66666666666663</ele><time>2026-05-02T15:42:47.001Z</time></trkpt><trkpt lat="45.9995024982036" lon="1.2788051340039435"><ele>346.0</ele><time>2026-05-02T15:42:48.001Z</time></trkpt><trkpt lat="45.999695544227976" lon="1.2788590376936269"><ele>346.0</ele><time>2026-05-02T15:42:49.001Z</time></trkpt><trkpt lat="45.99989424014304" lon="1.2788727793251056"><ele>346.0</ele><time>2026-05-02T15:42:50.001Z</time></trkpt><trkpt lat="46.00009641694512" lon="1.2788595766890263"><ele>346.0</ele><time>2026-05-02T15:42:51.001Z</time></trkpt><trkpt lat="46.00029600767776" lon="1.278834636016902"><ele>346.0</ele><time>2026-05-02T15:42:52.001Z</time></trkpt><trkpt lat="46.000488430701594" lon="1.2788206189700335"><ele>346.0</ele><time>2026-05-02T15:42:53Z</time></trkpt><trkpt lat="46.00066407937091" lon="1.278840807287396"><ele>346.0</ele><time>2026-05-02T15:42:54Z</time></trkpt><trkpt lat="46.00083240912981" lon="1.2788877884917869"><ele>350.0</ele><time>2026-05-02T15:42:55Z</time></trkpt><trkpt lat="46.00099260297028" lon="1.2789696824344345"><ele>354.0</ele><time>2026-05-02T15:42:56Z</time></trkpt><trkpt lat="46.00114945711924" lon="1.2790580948047654"><ele>358.0</ele><time>2026-05-02T15:42:57Z</time></trkpt><trkpt lat="46.001286572601146" lon="1.2791612522088527"><ele>358.0</ele><time>2026-05-02T15:42:58Z</time></trkpt><trkpt lat="46.00137997938939" lon="1.279291706770898"><ele>358.0</ele><time>2026-05-02T15:42:59Z</time></trkpt><trkpt lat="46.00143274383037" lon="1.2794341079227576"><ele>358.0</ele><time>2026-05-02T15:43:00Z</time></trkpt><trkpt lat="46.001502961934605" lon="1.2796061734010873"><ele>358.0</ele><time>2026-05-02T15:43:01Z</time></trkpt><trkpt lat="46.001604955406535" lon="1.2797734192079404"><ele>356.0</ele><time>2026-05-02T15:43:02Z</time></trkpt><trkpt lat="46.001773397032565" lon="1.279868575995515"><ele>354.0</ele><time>2026-05-02T15:43:03Z</time></trkpt><trkpt lat="46.00193144634668" lon="1.2799723589647607"><ele>352.0</ele><time>2026-05-02T15:43:04Z</time></trkpt><trkpt lat="46.00206703467011" lon="1.2800701448206828"><ele>352.0</ele><time>2026-05-02T15:43:05Z</time></trkpt><trkpt lat="46.00218334134401" lon="1.2802060546333933"><ele>352.0</ele><time>2026-05-02T15:43:06Z</time></trkpt><trkpt lat="46.00225573439191" lon="1.2803814273041576"><ele>352.0</ele><time>2026-05-02T15:43:07Z</time></trkpt><trkpt lat="46.00227876681532" lon="1.2805714941153699"><ele>352.0</ele><time>2026-05-02T15:43:08Z</time></trkpt><trkpt lat="46.0023080307878" lon="1.280767860162069"><ele>352.0</ele><time>2026-05-02T15:43:09Z</time></trkpt><trkpt lat="46.002346530274586" lon="1.281000697366356"><ele>352.0</ele><time>2026-05-02T15:43:10Z</time></trkpt><trkpt lat="46.00240558942581" lon="1.2812407978023477"><ele>352.0</ele><time>2026-05-02T15:43:11Z</time></trkpt><trkpt lat="46.00244676786985" lon="1.281489858463908"><ele>354.0</ele><time>2026-05-02T15:43:12Z</time></trkpt><trkpt lat="46.00251364676525" lon="1.2817341669520985"><ele>356.0</ele><time>2026-05-02T15:43:13Z</time></trkpt><trkpt lat="46.00261291306033" lon="1.2819645142032525"><ele>358.0</ele><time>2026-05-02T15:43:14Z</time></trkpt><trkpt lat="46.00270852420462" lon="1.282199945598611"><ele>358.3333333333333</ele><time>2026-05-02T15:43:15Z</time></trkpt><trkpt lat="46.002811815007945" lon="1.2824259983759603"><ele>358.6666666666667</ele><time>2026-05-02T15:43:16Z</time></trkpt><trkpt lat="46.00291508413213" lon="1.2826676525757998"><ele>359.0</ele><time>2026-05-02T15:43:17Z</time></trkpt><trkpt lat="46.003021019082446" lon="1.2828938720842773"><ele>359.0</ele><time>2026-05-02T15:43:18Z</time></trkpt><trkpt lat="46.00313643407418" lon="1.283085884417181"><ele>359.0</ele><time>2026-05-02T15:43:19Z</time></trkpt><trkpt lat="46.003283208728284" lon="1.2832433446540397"><ele>359.0</ele><time>2026-05-02T15:43:20Z</time></trkpt><trkpt lat="46.003446759026644" lon="1.283400312332488"><ele>359.33333333333337</ele><time>2026-05-02T15:43:21Z</time></trkpt><trkpt lat="46.003611512705994" lon="1.2835698096038899"><ele>359.6666666666667</ele><time>2026-05-02T15:43:22Z</time></trkpt><trkpt lat="46.00378252908808" lon="1.28369498178859"><ele>360.0</ele><time>2026-05-02T15:43:23Z</time></trkpt><trkpt lat="46.00395160613294" lon="1.2838282820279683"><ele>360.0</ele><time>2026-05-02T15:43:24Z</time></trkpt><trkpt lat="46.00415180632801" lon="1.2839195918604291"><ele>360.0</ele><time>2026-05-02T15:43:25Z</time></trkpt><trkpt lat="46.00435798056468" lon="1.2840129022764712"><ele>360.0</ele><time>2026-05-02T15:43:26Z</time></trkpt><trkpt lat="46.00457179476597" lon="1.2841049956434618"><ele>358.6666666666667</ele><time>2026-05-02T15:43:27Z</time></trkpt><trkpt lat="46.004787967673835" lon="1.2842028403944457"><ele>357.33333333333337</ele><time>2026-05-02T15:43:28Z</time></trkpt><trkpt lat="46.0050005479265" lon="1.2842980387333434"><ele>356.0</ele><time>2026-05-02T15:43:29Z</time></trkpt><trkpt lat="46.00520838651836" lon="1.284391380410855"><ele>358.6666666666667</ele><time>2026-05-02T15:43:30Z</time></trkpt><trkpt lat="46.00541938876254" lon="1.2844804729668704"><ele>361.3333333333333</ele><time>2026-05-02T15:43:31Z</time></trkpt><trkpt lat="46.00562487289165" lon="1.2845743309939732"><ele>364.0</ele><time>2026-05-02T15:43:32Z</time></trkpt><trkpt lat="46.0058284739926" lon="1.2846748792408125"><ele>361.3333333333333</ele><time>2026-05-02T15:43:33Z</time></trkpt><trkpt lat="46.00601830876772" lon="1.2847915061481008"><ele>358.6666666666667</ele><time>2026-05-02T15:43:34Z</time></trkpt><trkpt lat="46.006197972500885" lon="1.2849257555890683"><ele>356.0</ele><time>2026-05-02T15:43:35Z</time></trkpt><trkpt lat="46.0063522418472" lon="1.2850698893644132"><ele>356.0</ele><time>2026-05-02T15:43:36Z</time></trkpt><trkpt lat="46.00648986359645" lon="1.2852246771427858"><ele>356.0</ele><time>2026-05-02T15:43:37Z</time></trkpt><trkpt lat="46.00658723719162" lon="1.2854134164748607"><ele>356.0</ele><time>2026-05-02T15:43:38Z</time></trkpt><trkpt lat="46.00665758424614" lon="1.2855890237378393"><ele>355.6666666666667</ele><time>2026-05-02T15:43:39Z</time></trkpt><trkpt lat="46.00670640989555" lon="1.2857778187434639"><ele>355.3333333333333</ele><time>2026-05-02T15:43:40Z</time></trkpt><trkpt lat="46.00675108539655" lon="1.2859933320806194"><ele>355.0</ele><time>2026-05-02T15:43:41Z</time></trkpt><trkpt lat="46.006796004369654" lon="1.2862347280348814"><ele>354.66666666666663</ele><time>2026-05-02T15:43:42Z</time></trkpt><trkpt lat="46.006858969053205" lon="1.2864481787952518"><ele>354.3333333333333</ele><time>2026-05-02T15:43:43Z</time></trkpt><trkpt lat="46.0069580979871" lon="1.2866288474950673"><ele>354.0</ele><time>2026-05-02T15:43:44Z</time></trkpt><trkpt lat="46.00706541556071" lon="1.2867859877487262"><ele>354.0</ele><time>2026-05-02T15:43:45Z</time></trkpt><trkpt lat="46.00720785523433" lon="1.2868704625098237"><ele>354.0</ele><time>2026-05-02T15:43:46Z</time></trkpt><trkpt lat="46.00735787775491" lon="1.2869709237237794"><ele>354.0</ele><time>2026-05-02T15:43:47Z</time></trkpt><trkpt lat="46.007526126876506" lon="1.28703242473813"><ele>356.6666666666667</ele><time>2026-05-02T15:43:48Z</time></trkpt><trkpt lat="46.00769470577746" lon="1.2871191340210393"><ele>359.33333333333337</ele><time>2026-05-02T15:43:49Z</time></trkpt><trkpt lat="46.007868484328476" lon="1.2872069991703041"><ele>362.0</ele><time>2026-05-02T15:43:50Z</time></trkpt><trkpt lat="46.00804143346005" lon="1.2872964907328526"><ele>362.0</ele><time>2026-05-02T15:43:51Z</time></trkpt><trkpt lat="46.008219135384415" lon="1.2873806416817024"><ele>362.0</ele><time>2026-05-02T15:43:52Z</time></trkpt><trkpt lat="46.00840714207046" lon="1.2874372041539945"><ele>362.0</ele><time>2026-05-02T15:43:53Z</time></trkpt><trkpt lat="46.00860275993003" lon="1.2874910344510613"><ele>363.33333333333337</ele><time>2026-05-02T15:43:54Z</time></trkpt><trkpt lat="46.00877909229915" lon="1.2876047098115055"><ele>364.6666666666667</ele><time>2026-05-02T15:43:54.999Z</time></trkpt><trkpt lat="46.00896084134321" lon="1.2877214719566104"><ele>366.0</ele><time>2026-05-02T15:43:55.999Z</time></trkpt><trkpt lat="46.00913878184096" lon="1.2878395391362187"><ele>366.0</ele><time>2026-05-02T15:43:56.999Z</time></trkpt><trkpt lat="46.00931272496516" lon="1.2879580635783994"><ele>366.0</ele><time>2026-05-02T15:43:57.999Z</time></trkpt><trkpt lat="46.00944810751523" lon="1.288092755785783"><ele>366.0</ele><time>2026-05-02T15:43:58.999Z</time></trkpt><trkpt lat="46.009553297669896" lon="1.288245193235349"><ele>366.0</ele><time>2026-05-02T15:43:59.999Z</time></trkpt><trkpt lat="46.00963212387042" lon="1.2884260873382691"><ele>366.0</ele><time>2026-05-02T15:44:00.999Z</time></trkpt><trkpt lat="46.0097193469253" lon="1.2886447719583367"><ele>366.0</ele><time>2026-05-02T15:44:01.999Z</time></trkpt><trkpt lat="46.00981174768484" lon="1.2888781361522603"><ele>364.6666666666667</ele><time>2026-05-02T15:44:02.999Z</time></trkpt><trkpt lat="46.009903115783594" lon="1.2891002261531994"><ele>363.33333333333337</ele><time>2026-05-02T15:44:03.999Z</time></trkpt><trkpt lat="46.00999397190239" lon="1.2893267756100615"><ele>362.0</ele><time>2026-05-02T15:44:04.999Z</time></trkpt><trkpt lat="46.01009184889364" lon="1.2895720228558187"><ele>364.0</ele><time>2026-05-02T15:44:05.999Z</time></trkpt><trkpt lat="46.010197275345575" lon="1.2898009627716398"><ele>366.0</ele><time>2026-05-02T15:44:06.999Z</time></trkpt><trkpt lat="46.0103165478695" lon="1.2899940183500989"><ele>368.0</ele><time>2026-05-02T15:44:07.999Z</time></trkpt><trkpt lat="46.01045991022384" lon="1.2901697145047946"><ele>368.0</ele><time>2026-05-02T15:44:08.999Z</time></trkpt><trkpt lat="46.01060614151276" lon="1.2903349438387022"><ele>368.0</ele><time>2026-05-02T15:44:09.999Z</time></trkpt><trkpt lat="46.010726561226335" lon="1.2905441914317337"><ele>368.0</ele><time>2026-05-02T15:44:10.999Z</time></trkpt><trkpt lat="46.01084365095747" lon="1.2907545932490943"><ele>369.0</ele><time>2026-05-02T15:44:11.999Z</time></trkpt><trkpt lat="46.010976846961555" lon="1.2909331994744329"><ele>370.0</ele><time>2026-05-02T15:44:12.999Z</time></trkpt><trkpt lat="46.01112171510528" lon="1.2910927825432281"><ele>371.0</ele><time>2026-05-02T15:44:13.999Z</time></trkpt><trkpt lat="46.01128579444997" lon="1.2912072257005789"><ele>371.0</ele><time>2026-05-02T15:44:14.999Z</time></trkpt><trkpt lat="46.011458917327964" lon="1.2912704371373007"><ele>371.0</ele><time>2026-05-02T15:44:15.999Z</time></trkpt><trkpt lat="46.01163520159919" lon="1.291343605579034"><ele>371.0</ele><time>2026-05-02T15:44:16.999Z</time></trkpt><trkpt lat="46.01181219964164" lon="1.2913663597613545"><ele>376.6666666666667</ele><time>2026-05-02T15:44:17.999Z</time></trkpt><trkpt lat="46.01199144240696" lon="1.2913875944519835"><ele>382.33333333333337</ele><time>2026-05-02T15:44:18.999Z</time></trkpt><trkpt lat="46.01215750591845" lon="1.2913797327118066"><ele>388.0</ele><time>2026-05-02T15:44:19.999Z</time></trkpt><trkpt lat="46.0123252525642" lon="1.2913304293540948"><ele>390.0</ele><time>2026-05-02T15:44:20.999Z</time></trkpt><trkpt lat="46.01249700447574" lon="1.2912556580842802"><ele>392.0</ele><time>2026-05-02T15:44:21.999Z</time></trkpt><trkpt lat="46.01265272985886" lon="1.2911825582338528"><ele>394.0</ele><time>2026-05-02T15:44:22.999Z</time></trkpt><trkpt lat="46.01278392076806" lon="1.2911610417587265"><ele>394.0</ele><time>2026-05-02T15:44:23.999Z</time></trkpt><trkpt lat="46.012904182187796" lon="1.291220988374854"><ele>394.0</ele><time>2026-05-02T15:44:24.999Z</time></trkpt><trkpt lat="46.013008389013294" lon="1.2913427686530943"><ele>394.0</ele><time>2026-05-02T15:44:25.999Z</time></trkpt><trkpt lat="46.01310908612672" lon="1.2914620957952496"><ele>394.0</ele><time>2026-05-02T15:44:26.999Z</time></trkpt><trkpt lat="46.013219254893166" lon="1.291580893898954"><ele>392.0</ele><time>2026-05-02T15:44:27.999Z</time></trkpt><trkpt lat="46.01334125667766" lon="1.2917107984529106"><ele>390.0</ele><time>2026-05-02T15:44:28.999Z</time></trkpt><trkpt lat="46.01348188742823" lon="1.2918052741474688"><ele>388.0</ele><time>2026-05-02T15:44:29.999Z</time></trkpt><trkpt lat="46.01363435682307" lon="1.2918762242593393"><ele>388.0</ele><time>2026-05-02T15:44:30.999Z</time></trkpt><trkpt lat="46.013794631363076" lon="1.291926396745322"><ele>388.0</ele><time>2026-05-02T15:44:31.999Z</time></trkpt><trkpt lat="46.013965613262584" lon="1.2919457383980608"><ele>388.0</ele><time>2026-05-02T15:44:32.999Z</time></trkpt><trkpt lat="46.014137796042256" lon="1.2919635175600788"><ele>391.6666666666667</ele><time>2026-05-02T15:44:33.999Z</time></trkpt><trkpt lat="46.014307847993365" lon="1.2919788449700103"><ele>395.33333333333337</ele><time>2026-05-02T15:44:34.999Z</time></trkpt><trkpt lat="46.01447917515852" lon="1.2920080468175446"><ele>399.0</ele><time>2026-05-02T15:44:35.999Z</time></trkpt><trkpt lat="46.014647774744255" lon="1.2920304869288468"><ele>399.0</ele><time>2026-05-02T15:44:36.999Z</time></trkpt><trkpt lat="46.0148260744356" lon="1.2920375490509253"><ele>399.0</ele><time>2026-05-02T15:44:37.999Z</time></trkpt><trkpt lat="46.01500363258752" lon="1.292046905225199"><ele>399.0</ele><time>2026-05-02T15:44:38.999Z</time></trkpt><trkpt lat="46.015177355349195" lon="1.2920573440049485"><ele>402.33333333333337</ele><time>2026-05-02T15:44:39.999Z</time></trkpt><trkpt lat="46.015348297339166" lon="1.2920574907058409"><ele>405.6666666666667</ele><time>2026-05-02T15:44:40.999Z</time></trkpt><trkpt lat="46.015526088206386" lon="1.292066624769264"><ele>409.0</ele><time>2026-05-02T15:44:41.999Z</time></trkpt><trkpt lat="46.01570461695866" lon="1.2920691502909154"><ele>410.6666666666667</ele><time>2026-05-02T15:44:42.999Z</time></trkpt><trkpt lat="46.01588530170355" lon="1.2920703158296232"><ele>412.33333333333337</ele><time>2026-05-02T15:44:43.999Z</time></trkpt><trkpt lat="46.01606493867223" lon="1.2920751413318097"><ele>414.0</ele><time>2026-05-02T15:44:45Z</time></trkpt><trkpt lat="46.016246646714386" lon="1.292082082039583"><ele>414.0</ele><time>2026-05-02T15:44:46Z</time></trkpt><trkpt lat="46.01642950159674" lon="1.292078850522496"><ele>414.0</ele><time>2026-05-02T15:44:47Z</time></trkpt><trkpt lat="46.01660373035785" lon="1.2920954745482582"><ele>414.0</ele><time>2026-05-02T15:44:48Z</time></trkpt><trkpt lat="46.01676547854123" lon="1.29211959841227"><ele>412.33333333333337</ele><time>2026-05-02T15:44:49Z</time></trkpt><trkpt lat="46.016911468435765" lon="1.292204715462603"><ele>410.6666666666667</ele><time>2026-05-02T15:44:50Z</time></trkpt><trkpt lat="46.01705136635656" lon="1.292319424247552"><ele>409.0</ele><time>2026-05-02T15:44:51Z</time></trkpt><trkpt lat="46.017183527480526" lon="1.2924707469732646"><ele>409.33333333333337</ele><time>2026-05-02T15:44:52Z</time></trkpt><trkpt lat="46.01731983358446" lon="1.2926328725422014"><ele>409.66666666666663</ele><time>2026-05-02T15:44:53Z</time></trkpt><trkpt lat="46.01745208909395" lon="1.2927752494399052"><ele>410.0</ele><time>2026-05-02T15:44:54Z</time></trkpt><trkpt lat="46.017590386887065" lon="1.2928646236525412"><ele>410.0</ele><time>2026-05-02T15:44:55Z</time></trkpt><trkpt lat="46.01771759990666" lon="1.2929321607075672"><ele>410.0</ele><time>2026-05-02T15:44:56Z</time></trkpt><trkpt lat="46.01785077054774" lon="1.2929369047929293"><ele>410.0</ele><time>2026-05-02T15:44:57Z</time></trkpt><trkpt lat="46.01797263225961" lon="1.2929193504942287"><ele>410.0</ele><time>2026-05-02T15:44:58Z</time></trkpt><trkpt lat="46.01808456351824" lon="1.2928999673270682"><ele>410.0</ele><time>2026-05-02T15:44:59Z</time></trkpt><trkpt lat="46.01815643942527" lon="1.2928259668387594"><ele>410.0</ele><time>2026-05-02T15:45:00Z</time></trkpt><trkpt lat="46.018273043867744" lon="1.2930022365781833"><ele>410.0</ele><time>2026-05-02T15:45:01Z</time></trkpt><trkpt lat="46.01836636201464" lon="1.2931242643808405"><ele>410.0</ele><time>2026-05-02T15:45:02Z</time></trkpt><trkpt lat="46.01847733393817" lon="1.2932693773172563"><ele>409.0</ele><time>2026-05-02T15:45:03Z</time></trkpt><trkpt lat="46.01860913097156" lon="1.2934418489662776"><ele>408.0</ele><time>2026-05-02T15:45:04Z</time></trkpt><trkpt lat="46.01874944883228" lon="1.293625586580016"><ele>407.0</ele><time>2026-05-02T15:45:05Z</time></trkpt><trkpt lat="46.018903491541174" lon="1.293796499951064"><ele>409.0</ele><time>2026-05-02T15:45:06Z</time></trkpt><trkpt lat="46.01904974721797" lon="1.2940013187069082"><ele>411.0</ele><time>2026-05-02T15:45:07Z</time></trkpt><trkpt lat="46.01919048736804" lon="1.2942142711709308"><ele>413.0</ele><time>2026-05-02T15:45:08Z</time></trkpt><trkpt lat="46.01932693864904" lon="1.2944398868112652"><ele>412.66666666666663</ele><time>2026-05-02T15:45:09Z</time></trkpt><trkpt lat="46.0194574646644" lon="1.2946893478035164"><ele>412.33333333333337</ele><time>2026-05-02T15:45:10Z</time></trkpt><trkpt lat="46.019580036511016" lon="1.2949437803875616"><ele>412.0</ele><time>2026-05-02T15:45:11Z</time></trkpt><trkpt lat="46.019700147412934" lon="1.2952001895994534"><ele>412.0</ele><time>2026-05-02T15:45:12Z</time></trkpt><trkpt lat="46.01981861848301" lon="1.295459953317062"><ele>412.0</ele><time>2026-05-02T15:45:13Z</time></trkpt><trkpt lat="46.01994171644453" lon="1.295722064552248"><ele>412.0</ele><time>2026-05-02T15:45:14Z</time></trkpt><trkpt lat="46.02006955691549" lon="1.2959796194195736"><ele>411.6666666666667</ele><time>2026-05-02T15:45:15Z</time></trkpt><trkpt lat="46.02018886421547" lon="1.2962209155697604"><ele>411.33333333333337</ele><time>2026-05-02T15:45:16Z</time></trkpt><trkpt lat="46.020264072097625" lon="1.2964662547903787"><ele>411.0</ele><time>2026-05-02T15:45:17Z</time></trkpt><trkpt lat="46.020332395039006" lon="1.296729339416231"><ele>411.0</ele><time>2026-05-02T15:45:18Z</time></trkpt><trkpt lat="46.02038118088502" lon="1.2970089141400611"><ele>411.0</ele><time>2026-05-02T15:45:19Z</time></trkpt><trkpt lat="46.02043138273926" lon="1.297292760483042"><ele>411.0</ele><time>2026-05-02T15:45:20Z</time></trkpt><trkpt lat="46.02049308510941" lon="1.2975827398582815"><ele>411.66666666666663</ele><time>2026-05-02T15:45:21Z</time></trkpt><trkpt lat="46.02055147075647" lon="1.297879726255027"><ele>412.3333333333333</ele><time>2026-05-02T15:45:22Z</time></trkpt><trkpt lat="46.020601666675816" lon="1.298178225491192"><ele>413.0</ele><time>2026-05-02T15:45:23Z</time></trkpt><trkpt lat="46.02065444697526" lon="1.2984760379840463"><ele>414.0</ele><time>2026-05-02T15:45:24Z</time></trkpt><trkpt lat="46.020708310355324" lon="1.298778375473824"><ele>415.0</ele><time>2026-05-02T15:45:25Z</time></trkpt><trkpt lat="46.02075747248229" lon="1.2990804620366134"><ele>416.0</ele><time>2026-05-02T15:45:26Z</time></trkpt><trkpt lat="46.02080831154313" lon="1.2993728461537255"><ele>408.66666666666663</ele><time>2026-05-02T15:45:27Z</time></trkpt><trkpt lat="46.020853876726626" lon="1.2996812452657815"><ele>401.33333333333337</ele><time>2026-05-02T15:45:28Z</time></trkpt><trkpt lat="46.02091495377808" lon="1.2999590181767084"><ele>394.0</ele><time>2026-05-02T15:45:29Z</time></trkpt><trkpt lat="46.02097569599185" lon="1.300245786433374"><ele>393.6666666666667</ele><time>2026-05-02T15:45:30Z</time></trkpt><trkpt lat="46.02103343940486" lon="1.3005229524864104"><ele>393.33333333333337</ele><time>2026-05-02T15:45:31Z</time></trkpt><trkpt lat="46.0210961555695" lon="1.3007889369953185"><ele>393.0</ele><time>2026-05-02T15:45:32Z</time></trkpt><trkpt lat="46.02116494294628" lon="1.3010493971815853"><ele>393.0</ele><time>2026-05-02T15:45:33Z</time></trkpt><trkpt lat="46.0212449366495" lon="1.301295359442946"><ele>393.0</ele><time>2026-05-02T15:45:34Z</time></trkpt><trkpt lat="46.021348160245296" lon="1.3015277187667573"><ele>393.0</ele><time>2026-05-02T15:45:35Z</time></trkpt><trkpt lat="46.02147436870167" lon="1.301747368023956"><ele>393.0</ele><time>2026-05-02T15:45:36Z</time></trkpt><trkpt lat="46.021616879859806" lon="1.3019605105402303"><ele>393.0</ele><time>2026-05-02T15:45:37Z</time></trkpt><trkpt lat="46.02176487162856" lon="1.3021682453920969"><ele>393.0</ele><time>2026-05-02T15:45:38Z</time></trkpt><trkpt lat="46.02191037568777" lon="1.3023878874613344"><ele>387.6666666666667</ele><time>2026-05-02T15:45:39Z</time></trkpt><trkpt lat="46.02205295299013" lon="1.302611303168756"><ele>382.33333333333337</ele><time>2026-05-02T15:45:40Z</time></trkpt><trkpt lat="46.022197016204366" lon="1.3028321940003298"><ele>377.0</ele><time>2026-05-02T15:45:41Z</time></trkpt><trkpt lat="46.022340642136356" lon="1.3030482779719041"><ele>377.0</ele><time>2026-05-02T15:45:42Z</time></trkpt><trkpt lat="46.02248122741557" lon="1.3032663246932346"><ele>377.0</ele><time>2026-05-02T15:45:43Z</time></trkpt><trkpt lat="46.02261765075768" lon="1.3034829834872774"><ele>377.0</ele><time>2026-05-02T15:45:44Z</time></trkpt><trkpt lat="46.02274901929861" lon="1.3036889537237892"><ele>377.0</ele><time>2026-05-02T15:45:45Z</time></trkpt><trkpt lat="46.022888949580114" lon="1.3038971052428197"><ele>377.0</ele><time>2026-05-02T15:45:46Z</time></trkpt><trkpt lat="46.02302390666619" lon="1.3041086516913671"><ele>377.0</ele><time>2026-05-02T15:45:47Z</time></trkpt><trkpt lat="46.02316021703855" lon="1.3043161642788195"><ele>378.0</ele><time>2026-05-02T15:45:48Z</time></trkpt><trkpt lat="46.02329565630263" lon="1.30452641529729"><ele>379.0</ele><time>2026-05-02T15:45:49Z</time></trkpt><trkpt lat="46.023433206794266" lon="1.304734027772081"><ele>380.0</ele><time>2026-05-02T15:45:50Z</time></trkpt><trkpt lat="46.023566416062486" lon="1.3049363892615953"><ele>380.0</ele><time>2026-05-02T15:45:51Z</time></trkpt><trkpt lat="46.023701067286886" lon="1.3051510206690784"><ele>380.0</ele><time>2026-05-02T15:45:52Z</time></trkpt><trkpt lat="46.02384401185901" lon="1.3053666234701375"><ele>380.0</ele><time>2026-05-02T15:45:53Z</time></trkpt><trkpt lat="46.023989253712486" lon="1.3055840510667118"><ele>379.33333333333337</ele><time>2026-05-02T15:45:54Z</time></trkpt><trkpt lat="46.024126164293996" lon="1.3058246957389223"><ele>378.6666666666667</ele><time>2026-05-02T15:45:55Z</time></trkpt><trkpt lat="46.024278140686455" lon="1.306052462920387"><ele>378.0</ele><time>2026-05-02T15:45:56Z</time></trkpt><trkpt lat="46.02443045793738" lon="1.3062744808621454"><ele>379.3333333333333</ele><time>2026-05-02T15:45:57Z</time></trkpt><trkpt lat="46.02458914046965" lon="1.306481924468028"><ele>380.66666666666663</ele><time>2026-05-02T15:45:58Z</time></trkpt><trkpt lat="46.024764433269056" lon="1.3066499123892386"><ele>382.0</ele><time>2026-05-02T15:45:59Z</time></trkpt><trkpt lat="46.02493049758612" lon="1.3068272637283445"><ele>382.0</ele><time>2026-05-02T15:46:00Z</time></trkpt><trkpt lat="46.02510436228186" lon="1.3069899990166576"><ele>382.0</ele><time>2026-05-02T15:46:01Z</time></trkpt><trkpt lat="46.025283508821275" lon="1.3071413010169957"><ele>382.0</ele><time>2026-05-02T15:46:02Z</time></trkpt><trkpt lat="46.02547125945239" lon="1.307269708825918"><ele>382.3333333333333</ele><time>2026-05-02T15:46:03Z</time></trkpt><trkpt lat="46.02566822689865" lon="1.30737515630952"><ele>382.6666666666667</ele><time>2026-05-02T15:46:04Z</time></trkpt><trkpt lat="46.02586441287095" lon="1.3074937445411083"><ele>383.0</ele><time>2026-05-02T15:46:05Z</time></trkpt><trkpt lat="46.02606832680131" lon="1.3075573792357096"><ele>384.33333333333337</ele><time>2026-05-02T15:46:06Z</time></trkpt><trkpt lat="46.02627312527854" lon="1.3076263753443056"><ele>385.6666666666667</ele><time>2026-05-02T15:46:07Z</time></trkpt><trkpt lat="46.02648457546229" lon="1.3076802337691324"><ele>387.0</ele><time>2026-05-02T15:46:08Z</time></trkpt><trkpt lat="46.02669997905845" lon="1.3077114162174197"><ele>388.33333333333337</ele><time>2026-05-02T15:46:09Z</time></trkpt><trkpt lat="46.026915745620556" lon="1.3077234774738307"><ele>389.6666666666667</ele><time>2026-05-02T15:46:10Z</time></trkpt><trkpt lat="46.027134352188206" lon="1.3077186261649054"><ele>391.0</ele><time>2026-05-02T15:46:11Z</time></trkpt><trkpt lat="46.027352359951095" lon="1.307695314709484"><ele>392.33333333333337</ele><time>2026-05-02T15:46:12Z</time></trkpt><trkpt lat="46.02757162507839" lon="1.307674166534191"><ele>393.66666666666663</ele><time>2026-05-02T15:46:13Z</time></trkpt><trkpt lat="46.02778911078146" lon="1.3076475288013283"><ele>395.0</ele><time>2026-05-02T15:46:14Z</time></trkpt><trkpt lat="46.02801304041088" lon="1.307626397643736"><ele>395.0</ele><time>2026-05-02T15:46:15Z</time></trkpt><trkpt lat="46.02823014312493" lon="1.3076026986750748"><ele>395.0</ele><time>2026-05-02T15:46:16Z</time></trkpt><trkpt lat="46.02844759240526" lon="1.307587338512367"><ele>395.0</ele><time>2026-05-02T15:46:17Z</time></trkpt><trkpt lat="46.028659354748214" lon="1.3075696161189685"><ele>394.3333333333333</ele><time>2026-05-02T15:46:18Z</time></trkpt><trkpt lat="46.02887006427628" lon="1.3075517150734732"><ele>393.66666666666663</ele><time>2026-05-02T15:46:19Z</time></trkpt><trkpt lat="46.029079237254955" lon="1.307526398776691"><ele>393.0</ele><time>2026-05-02T15:46:20Z</time></trkpt><trkpt lat="46.029284555179636" lon="1.3075074256594095"><ele>396.0</ele><time>2026-05-02T15:46:21Z</time></trkpt><trkpt lat="46.02948851030705" lon="1.3074917405226971"><ele>399.0</ele><time>2026-05-02T15:46:22Z</time></trkpt><trkpt lat="46.02969254194695" lon="1.3074763462455568"><ele>402.0</ele><time>2026-05-02T15:46:23Z</time></trkpt><trkpt lat="46.0298985590947" lon="1.3074583787078478"><ele>405.0</ele><time>2026-05-02T15:46:24Z</time></trkpt><trkpt lat="46.030103924292526" lon="1.3074430440589146"><ele>408.0</ele><time>2026-05-02T15:46:25Z</time></trkpt><trkpt lat="46.030305528578296" lon="1.3074261838287877"><ele>411.0</ele><time>2026-05-02T15:46:26Z</time></trkpt><trkpt lat="46.03051052068523" lon="1.3074041413089579"><ele>411.0</ele><time>2026-05-02T15:46:27Z</time></trkpt><trkpt lat="46.03071641742066" lon="1.3073768063295317"><ele>411.0</ele><time>2026-05-02T15:46:28Z</time></trkpt><trkpt lat="46.03092320673089" lon="1.3073524308199105"><ele>411.0</ele><time>2026-05-02T15:46:29Z</time></trkpt><trkpt lat="46.031125777208146" lon="1.3073374689352155"><ele>412.0</ele><time>2026-05-02T15:46:30Z</time></trkpt><trkpt lat="46.03133025916648" lon="1.3073420867371073"><ele>413.0</ele><time>2026-05-02T15:46:31Z</time></trkpt><trkpt lat="46.031538671548844" lon="1.3073098835260735"><ele>414.0</ele><time>2026-05-02T15:46:31.999Z</time></trkpt><trkpt lat="46.03175028514608" lon="1.307297046068322"><ele>416.0</ele><time>2026-05-02T15:46:32.999Z</time></trkpt><trkpt lat="46.0319645975584" lon="1.307278176987399"><ele>418.0</ele><time>2026-05-02T15:46:33.999Z</time></trkpt><trkpt lat="46.03217287205309" lon="1.3072633302172734"><ele>420.0</ele><time>2026-05-02T15:46:34.999Z</time></trkpt><trkpt lat="46.03236647694059" lon="1.3072460076619092"><ele>416.33333333333337</ele><time>2026-05-02T15:46:35.999Z</time></trkpt><trkpt lat="46.03256279942932" lon="1.3072334227388143"><ele>412.6666666666667</ele><time>2026-05-02T15:46:36.999Z</time></trkpt><trkpt lat="46.0327572642595" lon="1.3071950581288772"><ele>409.0</ele><time>2026-05-02T15:46:37.999Z</time></trkpt><trkpt lat="46.03294057380759" lon="1.307136121960507"><ele>409.0</ele><time>2026-05-02T15:46:38.999Z</time></trkpt><trkpt lat="46.03312250364874" lon="1.3070440178635363"><ele>409.0</ele><time>2026-05-02T15:46:39.999Z</time></trkpt><trkpt lat="46.03328727801603" lon="1.306903458603207"><ele>409.0</ele><time>2026-05-02T15:46:40.999Z</time></trkpt><trkpt lat="46.03344363912368" lon="1.3067608631490109"><ele>408.33333333333337</ele><time>2026-05-02T15:46:41.999Z</time></trkpt><trkpt lat="46.033597397987876" lon="1.3065887060686214"><ele>407.66666666666663</ele><time>2026-05-02T15:46:42.999Z</time></trkpt><trkpt lat="46.03375247695315" lon="1.3064104652902975"><ele>407.0</ele><time>2026-05-02T15:46:43.999Z</time></trkpt><trkpt lat="46.03388431112672" lon="1.3061894765229467"><ele>404.66666666666663</ele><time>2026-05-02T15:46:44.999Z</time></trkpt><trkpt lat="46.033995876349" lon="1.3059495634242853"><ele>402.33333333333337</ele><time>2026-05-02T15:46:45.999Z</time></trkpt><trkpt lat="46.034079537016424" lon="1.3056846020189958"><ele>400.0</ele><time>2026-05-02T15:46:46.999Z</time></trkpt><trkpt lat="46.034153499340896" lon="1.3054278371591397"><ele>400.0</ele><time>2026-05-02T15:46:47.999Z</time></trkpt><trkpt lat="46.03420155743509" lon="1.3051468289619172"><ele>400.0</ele><time>2026-05-02T15:46:48.999Z</time></trkpt><trkpt lat="46.034230436783986" lon="1.304858921642754"><ele>400.0</ele><time>2026-05-02T15:46:49.999Z</time></trkpt><trkpt lat="46.03425267161582" lon="1.304557081757016"><ele>397.0</ele><time>2026-05-02T15:46:51.001Z</time></trkpt><trkpt lat="46.03427726148848" lon="1.3042495751415304"><ele>394.0</ele><time>2026-05-02T15:46:52.001Z</time></trkpt><trkpt lat="46.03430250496809" lon="1.3039344147438467"><ele>391.0</ele><time>2026-05-02T15:46:53.001Z</time></trkpt><trkpt lat="46.0343235503535" lon="1.3036171210910952"><ele>389.6666666666667</ele><time>2026-05-02T15:46:54.001Z</time></trkpt><trkpt lat="46.03434472688829" lon="1.3032970061769578"><ele>388.33333333333337</ele><time>2026-05-02T15:46:55.001Z</time></trkpt><trkpt lat="46.034360244583254" lon="1.3029775690307346"><ele>387.0</ele><time>2026-05-02T15:46:56.001Z</time></trkpt><trkpt lat="46.0343768613559" lon="1.3026639170020082"><ele>386.0</ele><time>2026-05-02T15:46:57.001Z</time></trkpt><trkpt lat="46.0343899605613" lon="1.302356979369436"><ele>385.0</ele><time>2026-05-02T15:46:58.001Z</time></trkpt><trkpt lat="46.034421802499125" lon="1.3020336514608524"><ele>384.0</ele><time>2026-05-02T15:46:59Z</time></trkpt><trkpt lat="46.03443726290856" lon="1.3017259527376523"><ele>381.3333333333333</ele><time>2026-05-02T15:47:00Z</time></trkpt><trkpt lat="46.034450895679015" lon="1.3014153301348954"><ele>378.66666666666663</ele><time>2026-05-02T15:47:01Z</time></trkpt><trkpt lat="46.034477584146785" lon="1.3011101355045083"><ele>376.0</ele><time>2026-05-02T15:47:02Z</time></trkpt><trkpt lat="46.03449953266692" lon="1.3008105593467012"><ele>376.0</ele><time>2026-05-02T15:47:03Z</time></trkpt><trkpt lat="46.03451840289485" lon="1.300497348581031"><ele>376.0</ele><time>2026-05-02T15:47:04Z</time></trkpt><trkpt lat="46.03455213881256" lon="1.3001817815373222"><ele>376.0</ele><time>2026-05-02T15:47:05Z</time></trkpt><trkpt lat="46.03457760884834" lon="1.2998700512597556"><ele>376.66666666666663</ele><time>2026-05-02T15:47:06Z</time></trkpt><trkpt lat="46.03459616244337" lon="1.2995514142465951"><ele>377.3333333333333</ele><time>2026-05-02T15:47:07Z</time></trkpt><trkpt lat="46.03461615496679" lon="1.299236038713275"><ele>378.0</ele><time>2026-05-02T15:47:08Z</time></trkpt><trkpt lat="46.03463884119962" lon="1.298918171277603"><ele>378.0</ele><time>2026-05-02T15:47:09Z</time></trkpt><trkpt lat="46.034681232237865" lon="1.2986097834902641"><ele>378.0</ele><time>2026-05-02T15:47:10Z</time></trkpt><trkpt lat="46.034725399257866" lon="1.2983079564098459"><ele>378.0</ele><time>2026-05-02T15:47:11Z</time></trkpt><trkpt lat="46.03478233162" lon="1.2980198017944824"><ele>378.6666666666667</ele><time>2026-05-02T15:47:12Z</time></trkpt><trkpt lat="46.03486646100769" lon="1.2977371676239282"><ele>379.33333333333337</ele><time>2026-05-02T15:47:13Z</time></trkpt><trkpt lat="46.034970397512694" lon="1.2974703363875288"><ele>380.0</ele><time>2026-05-02T15:47:14Z</time></trkpt><trkpt lat="46.0350885770299" lon="1.2972132392395979"><ele>378.6666666666667</ele><time>2026-05-02T15:47:15Z</time></trkpt><trkpt lat="46.03522232726845" lon="1.2969742359939602"><ele>377.3333333333333</ele><time>2026-05-02T15:47:16Z</time></trkpt><trkpt lat="46.035367279435924" lon="1.2967640550413442"><ele>376.0</ele><time>2026-05-02T15:47:17Z</time></trkpt><trkpt lat="46.03553195405316" lon="1.296586445915549"><ele>376.0</ele><time>2026-05-02T15:47:18Z</time></trkpt><trkpt lat="46.03568915368766" lon="1.2964253865930377"><ele>376.0</ele><time>2026-05-02T15:47:19Z</time></trkpt><trkpt lat="46.03585000344001" lon="1.2962655810630126"><ele>376.0</ele><time>2026-05-02T15:47:20Z</time></trkpt><trkpt lat="46.03602983837933" lon="1.296132721717021"><ele>374.66666666666663</ele><time>2026-05-02T15:47:21Z</time></trkpt><trkpt lat="46.03621308837792" lon="1.2960272600859084"><ele>373.3333333333333</ele><time>2026-05-02T15:47:22Z</time></trkpt><trkpt lat="46.036406370898774" lon="1.2959507475127632"><ele>372.0</ele><time>2026-05-02T15:47:23Z</time></trkpt><trkpt lat="46.03661014057533" lon="1.2958968653424194"><ele>369.3333333333333</ele><time>2026-05-02T15:47:24Z</time></trkpt><trkpt lat="46.036781710307686" lon="1.2958489604405217"><ele>366.66666666666663</ele><time>2026-05-02T15:47:25Z</time></trkpt><trkpt lat="46.03697470242762" lon="1.2958516124368609"><ele>364.0</ele><time>2026-05-02T15:47:26Z</time></trkpt><trkpt lat="46.037152079668864" lon="1.2958894760452553"><ele>364.0</ele><time>2026-05-02T15:47:27Z</time></trkpt><trkpt lat="46.03734916394967" lon="1.2959706654760637"><ele>364.0</ele><time>2026-05-02T15:47:28Z</time></trkpt><trkpt lat="46.037517088976074" lon="1.2960258300295913"><ele>364.0</ele><time>2026-05-02T15:47:29Z</time></trkpt><trkpt lat="46.037701225279385" lon="1.2961001372901457"><ele>365.3333333333333</ele><time>2026-05-02T15:47:30Z</time></trkpt><trkpt lat="46.037879906423235" lon="1.296206337566069"><ele>366.6666666666667</ele><time>2026-05-02T15:47:31Z</time></trkpt><trkpt lat="46.038066459635345" lon="1.2963089953228286"><ele>368.0</ele><time>2026-05-02T15:47:32Z</time></trkpt><trkpt lat="46.03825217514374" lon="1.2964133672091918"><ele>367.6666666666667</ele><time>2026-05-02T15:47:33Z</time></trkpt><trkpt lat="46.03844330118218" lon="1.296507310772978"><ele>367.3333333333333</ele><time>2026-05-02T15:47:34Z</time></trkpt><trkpt lat="46.038632451869184" lon="1.296596338737821"><ele>367.0</ele><time>2026-05-02T15:47:35Z</time></trkpt><trkpt lat="46.03882283913661" lon="1.2966753111299514"><ele>367.0</ele><time>2026-05-02T15:47:36Z</time></trkpt><trkpt lat="46.03901390821755" lon="1.296724447895795"><ele>367.0</ele><time>2026-05-02T15:47:37Z</time></trkpt><trkpt lat="46.03921138850306" lon="1.2967518651028114"><ele>367.0</ele><time>2026-05-02T15:47:38Z</time></trkpt><trkpt lat="46.03940297844861" lon="1.2967516703237472"><ele>365.66666666666663</ele><time>2026-05-02T15:47:39Z</time></trkpt><trkpt lat="46.03958312059124" lon="1.2967170711363545"><ele>364.3333333333333</ele><time>2026-05-02T15:47:40Z</time></trkpt><trkpt lat="46.03976390515925" lon="1.2966489538332704"><ele>363.0</ele><time>2026-05-02T15:47:41Z</time></trkpt><trkpt lat="46.039945705307574" lon="1.2965549913632823"><ele>363.0</ele><time>2026-05-02T15:47:42Z</time></trkpt><trkpt lat="46.04012397271408" lon="1.2964235623582483"><ele>363.0</ele><time>2026-05-02T15:47:43Z</time></trkpt><trkpt lat="46.04028690281664" lon="1.2962598158511485"><ele>363.0</ele><time>2026-05-02T15:47:44Z</time></trkpt><trkpt lat="46.04045280966322" lon="1.2960773085568207"><ele>363.0</ele><time>2026-05-02T15:47:45Z</time></trkpt><trkpt lat="46.04061146138099" lon="1.2958875650456583"><ele>363.0</ele><time>2026-05-02T15:47:46Z</time></trkpt><trkpt lat="46.040763362752735" lon="1.295686810933005"><ele>363.0</ele><time>2026-05-02T15:47:47Z</time></trkpt><trkpt lat="46.04091325982212" lon="1.295500012787184"><ele>364.6666666666667</ele><time>2026-05-02T15:47:48Z</time></trkpt><trkpt lat="46.041071067901875" lon="1.2952933461141487"><ele>366.33333333333337</ele><time>2026-05-02T15:47:49Z</time></trkpt><trkpt lat="46.04122972424712" lon="1.2950867281078786"><ele>368.0</ele><time>2026-05-02T15:47:50Z</time></trkpt><trkpt lat="46.04139063033639" lon="1.2948805672969623"><ele>368.0</ele><time>2026-05-02T15:47:51Z</time></trkpt><trkpt lat="46.041552221597314" lon="1.2946759202168263"><ele>368.0</ele><time>2026-05-02T15:47:52Z</time></trkpt><trkpt lat="46.04171519242059" lon="1.2944684990220194"><ele>368.0</ele><time>2026-05-02T15:47:53Z</time></trkpt><trkpt lat="46.041876676558346" lon="1.2942596502405164"><ele>370.6666666666667</ele><time>2026-05-02T15:47:54Z</time></trkpt><trkpt lat="46.04203703298394" lon="1.294054340788896"><ele>373.3333333333333</ele><time>2026-05-02T15:47:55Z</time></trkpt><trkpt lat="46.04219933216367" lon="1.2938463477288422"><ele>376.0</ele><time>2026-05-02T15:47:56Z</time></trkpt><trkpt lat="46.04235716135742" lon="1.2936375356147514"><ele>378.0</ele><time>2026-05-02T15:47:57Z</time></trkpt><trkpt lat="46.04251874043361" lon="1.2934353334434232"><ele>380.0</ele><time>2026-05-02T15:47:58Z</time></trkpt><trkpt lat="46.042672445859665" lon="1.2932407899211444"><ele>382.0</ele><time>2026-05-02T15:47:59Z</time></trkpt><trkpt lat="46.04283239377791" lon="1.293070569646537"><ele>382.0</ele><time>2026-05-02T15:48:00Z</time></trkpt><trkpt lat="46.04299558846884" lon="1.2929173038332298"><ele>382.0</ele><time>2026-05-02T15:48:01Z</time></trkpt><trkpt lat="46.043171698365924" lon="1.2927877968819184"><ele>382.0</ele><time>2026-05-02T15:48:02Z</time></trkpt><trkpt lat="46.04334752667454" lon="1.2926764282083318"><ele>384.0</ele><time>2026-05-02T15:48:03Z</time></trkpt><trkpt lat="46.04353272116323" lon="1.2925823153990696"><ele>386.0</ele><time>2026-05-02T15:48:04Z</time></trkpt><trkpt lat="46.04371857139129" lon="1.2925045529137908"><ele>388.0</ele><time>2026-05-02T15:48:05Z</time></trkpt><trkpt lat="46.04390884886721" lon="1.2924476757716545"><ele>388.0</ele><time>2026-05-02T15:48:06Z</time></trkpt><trkpt lat="46.04410517559987" lon="1.2924064030668216"><ele>388.0</ele><time>2026-05-02T15:48:07Z</time></trkpt><trkpt lat="46.04431084962477" lon="1.2923931824046364"><ele>388.0</ele><time>2026-05-02T15:48:08Z</time></trkpt><trkpt lat="46.04450529642045" lon="1.292403335735607"><ele>388.6666666666667</ele><time>2026-05-02T15:48:09Z</time></trkpt><trkpt lat="46.04470289380703" lon="1.292433080583092"><ele>389.33333333333337</ele><time>2026-05-02T15:48:10Z</time></trkpt><trkpt lat="46.04490758144657" lon="1.2924816311618306"><ele>390.0</ele><time>2026-05-02T15:48:11Z</time></trkpt><trkpt lat="46.04511295695742" lon="1.2925515110428842"><ele>390.0</ele><time>2026-05-02T15:48:12Z</time></trkpt><trkpt lat="46.04531506411104" lon="1.2926472438303969"><ele>390.0</ele><time>2026-05-02T15:48:13Z</time></trkpt><trkpt lat="46.04550703985549" lon="1.2927612943202813"><ele>390.0</ele><time>2026-05-02T15:48:14Z</time></trkpt><trkpt lat="46.04569058019194" lon="1.2928968098207303"><ele>390.33333333333337</ele><time>2026-05-02T15:48:15Z</time></trkpt><trkpt lat="46.0458643935792" lon="1.2930560368268793"><ele>390.6666666666667</ele><time>2026-05-02T15:48:16Z</time></trkpt><trkpt lat="46.046034096469825" lon="1.2932244242178068"><ele>391.0</ele><time>2026-05-02T15:48:17Z</time></trkpt><trkpt lat="46.04620608631928" lon="1.2933935107091166"><ele>390.33333333333337</ele><time>2026-05-02T15:48:17.999Z</time></trkpt><trkpt lat="46.046393295858095" lon="1.2935675793826937"><ele>389.66666666666663</ele><time>2026-05-02T15:48:18.999Z</time></trkpt><trkpt lat="46.04657275865239" lon="1.293742304407139"><ele>389.0</ele><time>2026-05-02T15:48:19.999Z</time></trkpt><trkpt lat="46.046752019147576" lon="1.2939134771617027"><ele>388.66666666666663</ele><time>2026-05-02T15:48:20.999Z</time></trkpt><trkpt lat="46.04693550878639" lon="1.2940949992020705"><ele>388.33333333333337</ele><time>2026-05-02T15:48:21.999Z</time></trkpt><trkpt lat="46.04711806441178" lon="1.2942764739969423"><ele>388.0</ele><time>2026-05-02T15:48:22.999Z</time></trkpt><trkpt lat="46.04729902609267" lon="1.2944546832235697"><ele>389.0</ele><time>2026-05-02T15:48:23.999Z</time></trkpt><trkpt lat="46.04748683343081" lon="1.2946337426021823"><ele>390.0</ele><time>2026-05-02T15:48:24.999Z</time></trkpt><trkpt lat="46.047672301121224" lon="1.2948105517458577"><ele>391.0</ele><time>2026-05-02T15:48:25.999Z</time></trkpt><trkpt lat="46.04785819404931" lon="1.2949840866675737"><ele>391.0</ele><time>2026-05-02T15:48:26.999Z</time></trkpt><trkpt lat="46.04803388936634" lon="1.2951665405496502"><ele>391.0</ele><time>2026-05-02T15:48:27.999Z</time></trkpt><trkpt lat="46.04819709309785" lon="1.2953333821615058"><ele>391.0</ele><time>2026-05-02T15:48:28.999Z</time></trkpt><trkpt lat="46.04835283200665" lon="1.2954849503540105"><ele>390.33333333333337</ele><time>2026-05-02T15:48:29.999Z</time></trkpt><trkpt lat="46.048509048692985" lon="1.295629885779628"><ele>389.66666666666663</ele><time>2026-05-02T15:48:30.999Z</time></trkpt><trkpt lat="46.04866577233113" lon="1.2957525839933786"><ele>389.0</ele><time>2026-05-02T15:48:31.999Z</time></trkpt><trkpt lat="46.04880662515317" lon="1.2958575828374108"><ele>389.0</ele><time>2026-05-02T15:48:32.999Z</time></trkpt><trkpt lat="46.04892850096448" lon="1.2959363998262694"><ele>389.0</ele><time>2026-05-02T15:48:33.999Z</time></trkpt><trkpt lat="46.04903044912948" lon="1.2959988256775656"><ele>389.0</ele><time>2026-05-02T15:48:34.999Z</time></trkpt><trkpt lat="46.04909290567342" lon="1.2960818878600826"><ele>389.0</ele><time>2026-05-02T15:48:35.999Z</time></trkpt><trkpt lat="46.04913112318488" lon="1.2962096342613991"><ele>389.0</ele><time>2026-05-02T15:48:36.999Z</time></trkpt><trkpt lat="46.049152502267006" lon="1.2963797435740023"><ele>386.66666666666663</ele><time>2026-05-02T15:48:37.999Z</time></trkpt><trkpt lat="46.04921160965498" lon="1.2965627062552882"><ele>384.3333333333333</ele><time>2026-05-02T15:48:38.999Z</time></trkpt><trkpt lat="46.049306493060605" lon="1.2967357556654766"><ele>382.0</ele><time>2026-05-02T15:48:39.999Z</time></trkpt><trkpt lat="46.049397249453015" lon="1.2969196171198847"><ele>382.0</ele><time>2026-05-02T15:48:40.999Z</time></trkpt><trkpt lat="46.04948206150309" lon="1.2971001271746063"><ele>382.0</ele><time>2026-05-02T15:48:41.999Z</time></trkpt><trkpt lat="46.04955846491913" lon="1.2972820323689975"><ele>382.0</ele><time>2026-05-02T15:48:42.999Z</time></trkpt><trkpt lat="46.04963962173705" lon="1.2974707510935677"><ele>383.25</ele><time>2026-05-02T15:48:43.999Z</time></trkpt><trkpt lat="46.0497107159381" lon="1.2976407162988686"><ele>384.5</ele><time>2026-05-02T15:48:44.999Z</time></trkpt><trkpt lat="46.04976410981906" lon="1.2977794480700697"><ele>385.75</ele><time>2026-05-02T15:48:45.999Z</time></trkpt><trkpt lat="46.04983564611472" lon="1.2979165347134825"><ele>387.0</ele><time>2026-05-02T15:48:46.999Z</time></trkpt><trkpt lat="46.04993324955564" lon="1.2980749174794195"><ele>386.66666666666663</ele><time>2026-05-02T15:48:47.999Z</time></trkpt><trkpt lat="46.05005510217775" lon="1.298214873721143"><ele>386.3333333333333</ele><time>2026-05-02T15:48:48.999Z</time></trkpt><trkpt lat="46.05019320438795" lon="1.298363678555572"><ele>386.0</ele><time>2026-05-02T15:48:49.999Z</time></trkpt><trkpt lat="46.050336089984576" lon="1.2985129571790155"><ele>386.0</ele><time>2026-05-02T15:48:50.999Z</time></trkpt><trkpt lat="46.050471321302936" lon="1.2986512152862737"><ele>386.0</ele><time>2026-05-02T15:48:51.999Z</time></trkpt><trkpt lat="46.05058862972255" lon="1.2988383391677605"><ele>386.0</ele><time>2026-05-02T15:48:52.999Z</time></trkpt><trkpt lat="46.050713248447636" lon="1.2990362145989194"><ele>385.66666666666663</ele><time>2026-05-02T15:48:53.999Z</time></trkpt><trkpt lat="46.05082617459741" lon="1.2992364752852295"><ele>385.33333333333337</ele><time>2026-05-02T15:48:54.999Z</time></trkpt><trkpt lat="46.05094429640499" lon="1.2994304572671371"><ele>385.0</ele><time>2026-05-02T15:48:55.999Z</time></trkpt><trkpt lat="46.051078606011885" lon="1.2995950283694946"><ele>385.6666666666667</ele><time>2026-05-02T15:48:57Z</time></trkpt><trkpt lat="46.051208580827826" lon="1.2997639371790013"><ele>386.33333333333337</ele><time>2026-05-02T15:48:58Z</time></trkpt><trkpt lat="46.05135076312823" lon="1.2999295147154923"><ele>387.0</ele><time>2026-05-02T15:48:59Z</time></trkpt><trkpt lat="46.051495940470595" lon="1.300099573907367"><ele>387.66666666666663</ele><time>2026-05-02T15:49:00Z</time></trkpt><trkpt lat="46.05164802705881" lon="1.3002826445756948"><ele>388.3333333333333</ele><time>2026-05-02T15:49:01Z</time></trkpt><trkpt lat="46.05179955899521" lon="1.3004723116499415"><ele>389.0</ele><time>2026-05-02T15:49:02Z</time></trkpt><trkpt lat="46.05195447902694" lon="1.3006647003991434"><ele>389.0</ele><time>2026-05-02T15:49:03Z</time></trkpt><trkpt lat="46.052114778634156" lon="1.3008505981798508"><ele>389.0</ele><time>2026-05-02T15:49:04Z</time></trkpt><trkpt lat="46.05226641791063" lon="1.3010319130086774"><ele>389.0</ele><time>2026-05-02T15:49:05Z</time></trkpt><trkpt lat="46.05241593261431" lon="1.3012000773991959"><ele>389.3333333333333</ele><time>2026-05-02T15:49:06Z</time></trkpt><trkpt lat="46.052580447145864" lon="1.3013513840830417"><ele>389.66666666666663</ele><time>2026-05-02T15:49:07Z</time></trkpt><trkpt lat="46.05275306512552" lon="1.3014851461976078"><ele>390.0</ele><time>2026-05-02T15:49:08Z</time></trkpt><trkpt lat="46.052960336336675" lon="1.3015796025869844"><ele>390.0</ele><time>2026-05-02T15:49:09Z</time></trkpt><trkpt lat="46.05314562005088" lon="1.3016912384091828"><ele>390.0</ele><time>2026-05-02T15:49:10Z</time></trkpt><trkpt lat="46.05332951239766" lon="1.3018114535347223"><ele>390.0</ele><time>2026-05-02T15:49:11Z</time></trkpt><trkpt lat="46.05351112081703" lon="1.3019507022536438"><ele>389.66666666666663</ele><time>2026-05-02T15:49:12Z</time></trkpt><trkpt lat="46.05369590215271" lon="1.3020694092016096"><ele>389.3333333333333</ele><time>2026-05-02T15:49:13Z</time></trkpt><trkpt lat="46.05388714610861" lon="1.302168761182483"><ele>389.0</ele><time>2026-05-02T15:49:14Z</time></trkpt><trkpt lat="46.05406010960157" lon="1.3023057292511693"><ele>389.66666666666663</ele><time>2026-05-02T15:49:15Z</time></trkpt><trkpt lat="46.054239864158845" lon="1.302398329721871"><ele>390.33333333333337</ele><time>2026-05-02T15:49:16Z</time></trkpt><trkpt lat="46.05440829858154" lon="1.3024895040950581"><ele>391.0</ele><time>2026-05-02T15:49:17Z</time></trkpt><trkpt lat="46.05458456758389" lon="1.3025604616782254"><ele>391.0</ele><time>2026-05-02T15:49:18Z</time></trkpt><trkpt lat="46.054758623989144" lon="1.3025974020647442"><ele>391.0</ele><time>2026-05-02T15:49:19Z</time></trkpt><trkpt lat="46.0549331527514" lon="1.3026204689684882"><ele>391.0</ele><time>2026-05-02T15:49:20Z</time></trkpt><trkpt lat="46.05511271133631" lon="1.3025997273877745"><ele>391.33333333333337</ele><time>2026-05-02T15:49:21Z</time></trkpt><trkpt lat="46.05528342685173" lon="1.3025330702883389"><ele>391.66666666666663</ele><time>2026-05-02T15:49:22Z</time></trkpt><trkpt lat="46.05545519043101" lon="1.30244510818043"><ele>392.0</ele><time>2026-05-02T15:49:23Z</time></trkpt><trkpt lat="46.055623078236444" lon="1.3024173263110872"><ele>392.0</ele><time>2026-05-02T15:49:24Z</time></trkpt><trkpt lat="46.05577321076059" lon="1.3024385394980131"><ele>392.0</ele><time>2026-05-02T15:49:25Z</time></trkpt><trkpt lat="46.055926679074815" lon="1.3024929978292963"><ele>392.0</ele><time>2026-05-02T15:49:26Z</time></trkpt><trkpt lat="46.0561001162683" lon="1.3025694100535026"><ele>394.3333333333333</ele><time>2026-05-02T15:49:27Z</time></trkpt><trkpt lat="46.056271499925174" lon="1.3026473504657154"><ele>396.66666666666663</ele><time>2026-05-02T15:49:28Z</time></trkpt><trkpt lat="46.056447562572956" lon="1.3027034208754613"><ele>399.0</ele><time>2026-05-02T15:49:29Z</time></trkpt><trkpt lat="46.05662859642289" lon="1.3027957927975056"><ele>401.66666666666663</ele><time>2026-05-02T15:49:30Z</time></trkpt><trkpt lat="46.056808208253614" lon="1.3028821550940575"><ele>404.3333333333333</ele><time>2026-05-02T15:49:31Z</time></trkpt><trkpt lat="46.05698465899876" lon="1.3029501494998865"><ele>407.0</ele><time>2026-05-02T15:49:32Z</time></trkpt><trkpt lat="46.05716845185379" lon="1.3030338461142623"><ele>406.3333333333333</ele><time>2026-05-02T15:49:33Z</time></trkpt><trkpt lat="46.05736341172158" lon="1.3031341688753055"><ele>405.66666666666663</ele><time>2026-05-02T15:49:34Z</time></trkpt><trkpt lat="46.05754645306705" lon="1.3032083464502453"><ele>405.0</ele><time>2026-05-02T15:49:35Z</time></trkpt><trkpt lat="46.057724614142074" lon="1.3032829867964564"><ele>406.66666666666663</ele><time>2026-05-02T15:49:36Z</time></trkpt><trkpt lat="46.05789416549076" lon="1.303381943892178"><ele>408.3333333333333</ele><time>2026-05-02T15:49:37Z</time></trkpt><trkpt lat="46.0580675563466" lon="1.3034692542407602"><ele>410.0</ele><time>2026-05-02T15:49:38Z</time></trkpt><trkpt lat="46.058225897380126" lon="1.303573629047235"><ele>411.3333333333333</ele><time>2026-05-02T15:49:39Z</time></trkpt><trkpt lat="46.05838332405872" lon="1.3037058942168422"><ele>412.66666666666663</ele><time>2026-05-02T15:49:40Z</time></trkpt><trkpt lat="46.058531851728034" lon="1.3038537868844213"><ele>414.0</ele><time>2026-05-02T15:49:41Z</time></trkpt><trkpt lat="46.05866826574035" lon="1.3040140565692946"><ele>414.0</ele><time>2026-05-02T15:49:42Z</time></trkpt><trkpt lat="46.05880623707198" lon="1.3041843364238892"><ele>414.0</ele><time>2026-05-02T15:49:43Z</time></trkpt><trkpt lat="46.05892955925613" lon="1.3043386240588402"><ele>414.0</ele><time>2026-05-02T15:49:44Z</time></trkpt><trkpt lat="46.059033902855475" lon="1.304479242458791"><ele>413.79999999999995</ele><time>2026-05-02T15:49:45Z</time></trkpt><trkpt lat="46.05912441011579" lon="1.304580588302214"><ele>413.59999999999997</ele><time>2026-05-02T15:49:46Z</time></trkpt><trkpt lat="46.059225348139194" lon="1.3046423004526881"><ele>413.4</ele><time>2026-05-02T15:49:47Z</time></trkpt><trkpt lat="46.05931556242834" lon="1.3046682333806663"><ele>413.2</ele><time>2026-05-02T15:49:48Z</time></trkpt><trkpt lat="46.059371039881405" lon="1.304782010586971"><ele>413.0</ele><time>2026-05-02T15:49:49Z</time></trkpt><trkpt lat="46.059451217224215" lon="1.304897469203935"><ele>413.0</ele><time>2026-05-02T15:49:50Z</time></trkpt><trkpt lat="46.05953524182633" lon="1.3050127816055546"><ele>413.0</ele><time>2026-05-02T15:49:51Z</time></trkpt><trkpt lat="46.05961633173764" lon="1.3051223537317724"><ele>413.0</ele><time>2026-05-02T15:49:52Z</time></trkpt><trkpt lat="46.05976748396462" lon="1.3051377717418668"><ele>413.0</ele><time>2026-05-02T15:49:53Z</time></trkpt><trkpt lat="46.05991497328732" lon="1.3052192598523007"><ele>413.3333333333333</ele><time>2026-05-02T15:49:54Z</time></trkpt><trkpt lat="46.060078278339795" lon="1.3053009187873514"><ele>413.66666666666663</ele><time>2026-05-02T15:49:55Z</time></trkpt><trkpt lat="46.06024339286455" lon="1.3053990243225584"><ele>414.0</ele><time>2026-05-02T15:49:56Z</time></trkpt><trkpt lat="46.060394727788285" lon="1.3055024990901636"><ele>413.33333333333337</ele><time>2026-05-02T15:49:57Z</time></trkpt><trkpt lat="46.060542935921454" lon="1.305611195338583"><ele>412.6666666666667</ele><time>2026-05-02T15:49:58Z</time></trkpt><trkpt lat="46.06070058292962" lon="1.3057220871353756"><ele>412.0</ele><time>2026-05-02T15:49:59Z</time></trkpt><trkpt lat="46.06085135921926" lon="1.305809387396155"><ele>410.33333333333337</ele><time>2026-05-02T15:50:00Z</time></trkpt><trkpt lat="46.06099135724178" lon="1.3059050055565138"><ele>408.66666666666663</ele><time>2026-05-02T15:50:01Z</time></trkpt><trkpt lat="46.061148478043144" lon="1.3059637810802613"><ele>407.0</ele><time>2026-05-02T15:50:02Z</time></trkpt><trkpt lat="46.061322653709105" lon="1.3059594760653974"><ele>407.0</ele><time>2026-05-02T15:50:03Z</time></trkpt><trkpt lat="46.06150436166544" lon="1.3059310118953817"><ele>407.0</ele><time>2026-05-02T15:50:04Z</time></trkpt><trkpt lat="46.061696015784214" lon="1.3059005947286837"><ele>407.0</ele><time>2026-05-02T15:50:05Z</time></trkpt><trkpt lat="46.06188868953315" lon="1.3058976138850178"><ele>406.3333333333333</ele><time>2026-05-02T15:50:06Z</time></trkpt><trkpt lat="46.062088761900355" lon="1.3058723455575216"><ele>405.66666666666663</ele><time>2026-05-02T15:50:07Z</time></trkpt><trkpt lat="46.06228956967192" lon="1.3058444912252303"><ele>405.0</ele><time>2026-05-02T15:50:08Z</time></trkpt><trkpt lat="46.062482537497864" lon="1.3057909099480622"><ele>405.0</ele><time>2026-05-02T15:50:09Z</time></trkpt><trkpt lat="46.06266285741786" lon="1.3057096171647382"><ele>405.0</ele><time>2026-05-02T15:50:10Z</time></trkpt><trkpt lat="46.06282463516971" lon="1.3056541213210886"><ele>405.0</ele><time>2026-05-02T15:50:11Z</time></trkpt><trkpt lat="46.06297860180235" lon="1.3055861942480047"><ele>404.66666666666663</ele><time>2026-05-02T15:50:12Z</time></trkpt><trkpt lat="46.06313455272104" lon="1.3055091588243948"><ele>404.3333333333333</ele><time>2026-05-02T15:50:13Z</time></trkpt><trkpt lat="46.063293004915884" lon="1.3054295466715762"><ele>404.0</ele><time>2026-05-02T15:50:14Z</time></trkpt><trkpt lat="46.06346422154646" lon="1.3053540856085204"><ele>404.0</ele><time>2026-05-02T15:50:15Z</time></trkpt><trkpt lat="46.06362822707348" lon="1.3052849217213618"><ele>404.0</ele><time>2026-05-02T15:50:16Z</time></trkpt><trkpt lat="46.06379893029725" lon="1.305239983807004"><ele>404.0</ele><time>2026-05-02T15:50:17Z</time></trkpt><trkpt lat="46.06398350955843" lon="1.305197719035501"><ele>403.0</ele><time>2026-05-02T15:50:17.999Z</time></trkpt><trkpt lat="46.06416181822504" lon="1.3051927445757647"><ele>402.0</ele><time>2026-05-02T15:50:18.999Z</time></trkpt><trkpt lat="46.06434503822466" lon="1.3051930111758328"><ele>401.0</ele><time>2026-05-02T15:50:19.999Z</time></trkpt><trkpt lat="46.06452044822524" lon="1.3051895525919701"><ele>401.0</ele><time>2026-05-02T15:50:20.999Z</time></trkpt><trkpt lat="46.06468212835986" lon="1.3052058921271397"><ele>401.0</ele><time>2026-05-02T15:50:21.999Z</time></trkpt><trkpt lat="46.064837432338315" lon="1.3052663974648524"><ele>401.0</ele><time>2026-05-02T15:50:22.999Z</time></trkpt><trkpt lat="46.06497793427966" lon="1.305394172967963"><ele>399.0</ele><time>2026-05-02T15:50:23.999Z</time></trkpt><trkpt lat="46.06512438364269" lon="1.305520218747465"><ele>397.0</ele><time>2026-05-02T15:50:24.999Z</time></trkpt><trkpt lat="46.06526647252865" lon="1.3056678285674097"><ele>395.0</ele><time>2026-05-02T15:50:25.999Z</time></trkpt><trkpt lat="46.06541153235374" lon="1.30582226038773"><ele>395.0</ele><time>2026-05-02T15:50:26.999Z</time></trkpt><trkpt lat="46.065555446016" lon="1.3059735841642366"><ele>395.0</ele><time>2026-05-02T15:50:27.999Z</time></trkpt><trkpt lat="46.06569369606731" lon="1.3061266070743562"><ele>395.0</ele><time>2026-05-02T15:50:28.999Z</time></trkpt><trkpt lat="46.0658023087925" lon="1.3062912687742423"><ele>395.0</ele><time>2026-05-02T15:50:29.999Z</time></trkpt><trkpt lat="46.065895590453714" lon="1.306457220433355"><ele>395.0</ele><time>2026-05-02T15:50:30.999Z</time></trkpt><trkpt lat="46.065987881280265" lon="1.3065875556858497"><ele>395.0</ele><time>2026-05-02T15:50:31.999Z</time></trkpt><trkpt lat="46.066085563756936" lon="1.306696491763795"><ele>395.0</ele><time>2026-05-02T15:50:32.999Z</time></trkpt><trkpt lat="46.06620212728162" lon="1.306759750775726"><ele>395.0</ele><time>2026-05-02T15:50:33.999Z</time></trkpt><trkpt lat="46.06632774531092" lon="1.3067613540481307"><ele>395.0</ele><time>2026-05-02T15:50:34.999Z</time></trkpt><trkpt lat="46.06645972845242" lon="1.3066985347087032"><ele>395.0</ele><time>2026-05-02T15:50:35.999Z</time></trkpt><trkpt lat="46.06659464146901" lon="1.3066247873990562"><ele>395.0</ele><time>2026-05-02T15:50:36.999Z</time></trkpt><trkpt lat="46.06674141095218" lon="1.3065387349805693"><ele>397.66666666666663</ele><time>2026-05-02T15:50:37.999Z</time></trkpt><trkpt lat="46.06689459842115" lon="1.3064958934136806"><ele>400.33333333333337</ele><time>2026-05-02T15:50:38.999Z</time></trkpt><trkpt lat="46.06704981473051" lon="1.3064406423498565"><ele>403.0</ele><time>2026-05-02T15:50:39.999Z</time></trkpt><trkpt lat="46.06721028128942" lon="1.3063803718941986"><ele>404.0</ele><time>2026-05-02T15:50:40.999Z</time></trkpt><trkpt lat="46.0673759877974" lon="1.3063353363158128"><ele>405.0</ele><time>2026-05-02T15:50:41.999Z</time></trkpt><trkpt lat="46.06753953853363" lon="1.3063310370035583"><ele>406.0</ele><time>2026-05-02T15:50:42.999Z</time></trkpt><trkpt lat="46.06770425604665" lon="1.3063710358723732"><ele>406.0</ele><time>2026-05-02T15:50:43.999Z</time></trkpt><trkpt lat="46.06787345562167" lon="1.3064349595646756"><ele>406.0</ele><time>2026-05-02T15:50:44.999Z</time></trkpt><trkpt lat="46.06804385860362" lon="1.3065040370167618"><ele>406.0</ele><time>2026-05-02T15:50:45.999Z</time></trkpt><trkpt lat="46.06822164604932" lon="1.3065823443210287"><ele>406.33333333333337</ele><time>2026-05-02T15:50:46.999Z</time></trkpt><trkpt lat="46.06839883698088" lon="1.3066615347117208"><ele>406.66666666666663</ele><time>2026-05-02T15:50:47.999Z</time></trkpt><trkpt lat="46.06857776117797" lon="1.306719573637623"><ele>407.0</ele><time>2026-05-02T15:50:48.999Z</time></trkpt><trkpt lat="46.06875086288855" lon="1.3068032526498514"><ele>407.0</ele><time>2026-05-02T15:50:49.999Z</time></trkpt><trkpt lat="46.06892895790325" lon="1.3068880426254392"><ele>407.0</ele><time>2026-05-02T15:50:50.999Z</time></trkpt><trkpt lat="46.0691086686447" lon="1.3069434868091434"><ele>407.0</ele><time>2026-05-02T15:50:51.999Z</time></trkpt><trkpt lat="46.069265260255804" lon="1.3070183234291721"><ele>407.25</ele><time>2026-05-02T15:50:52.999Z</time></trkpt><trkpt lat="46.069403184405814" lon="1.307097017377798"><ele>407.5</ele><time>2026-05-02T15:50:53.999Z</time></trkpt><trkpt lat="46.06952813058887" lon="1.3071232529949595"><ele>407.75</ele><time>2026-05-02T15:50:54.999Z</time></trkpt><trkpt lat="46.06963368242377" lon="1.307102691710574"><ele>408.0</ele><time>2026-05-02T15:50:55.999Z</time></trkpt><trkpt lat="46.06972855044147" lon="1.3070375150077875"><ele>408.0</ele><time>2026-05-02T15:50:56.999Z</time></trkpt><trkpt lat="46.069818300399476" lon="1.3069138290863267"><ele>408.0</ele><time>2026-05-02T15:50:57.999Z</time></trkpt><trkpt lat="46.0699044066771" lon="1.306747438194262"><ele>408.0</ele><time>2026-05-02T15:50:58.999Z</time></trkpt><trkpt lat="46.06998770424214" lon="1.3065525171154708"><ele>408.0</ele><time>2026-05-02T15:50:59.999Z</time></trkpt><trkpt lat="46.0700664364921" lon="1.3063338936094888"><ele>406.66666666666663</ele><time>2026-05-02T15:51:00.999Z</time></trkpt><trkpt lat="46.07016458243279" lon="1.30611796308425"><ele>405.3333333333333</ele><time>2026-05-02T15:51:01.999Z</time></trkpt><trkpt lat="46.07027294265966" lon="1.3058903879364383"><ele>404.0</ele><time>2026-05-02T15:51:03Z</time></trkpt><trkpt lat="46.07036834385922" lon="1.3056449148094345"><ele>403.3333333333333</ele><time>2026-05-02T15:51:04Z</time></trkpt><trkpt lat="46.07047274439578" lon="1.3053948924317664"><ele>402.66666666666663</ele><time>2026-05-02T15:51:05Z</time></trkpt><trkpt lat="46.07057663412936" lon="1.3051439554866608"><ele>402.0</ele><time>2026-05-02T15:51:06Z</time></trkpt><trkpt lat="46.070682678474554" lon="1.3048861086502699"><ele>401.66666666666663</ele><time>2026-05-02T15:51:07Z</time></trkpt><trkpt lat="46.07078934907776" lon="1.3046270639860047"><ele>401.3333333333333</ele><time>2026-05-02T15:51:08Z</time></trkpt><trkpt lat="46.070893091910825" lon="1.304371522437176"><ele>401.0</ele><time>2026-05-02T15:51:09Z</time></trkpt><trkpt lat="46.071003075551246" lon="1.3041285006063663"><ele>400.3333333333333</ele><time>2026-05-02T15:51:10Z</time></trkpt><trkpt lat="46.07111064624082" lon="1.3039090637210426"><ele>399.66666666666663</ele><time>2026-05-02T15:51:11Z</time></trkpt><trkpt lat="46.07123930683317" lon="1.303749015987259"><ele>399.0</ele><time>2026-05-02T15:51:12Z</time></trkpt><trkpt lat="46.07139502275622" lon="1.3036015731801627"><ele>399.0</ele><time>2026-05-02T15:51:13Z</time></trkpt><trkpt lat="46.07155524906321" lon="1.3034504928095156"><ele>399.0</ele><time>2026-05-02T15:51:14Z</time></trkpt><trkpt lat="46.07172802543029" lon="1.3033250117596478"><ele>399.0</ele><time>2026-05-02T15:51:15Z</time></trkpt><trkpt lat="46.07190851226126" lon="1.303189892452875"><ele>398.66666666666663</ele><time>2026-05-02T15:51:16Z</time></trkpt><trkpt lat="46.07208877364916" lon="1.3030478003111707"><ele>398.3333333333333</ele><time>2026-05-02T15:51:17Z</time></trkpt><trkpt lat="46.07226953592382" lon="1.3028990071185098"><ele>398.0</ele><time>2026-05-02T15:51:18Z</time></trkpt><trkpt lat="46.07245102883858" lon="1.3027445369760178"><ele>398.0</ele><time>2026-05-02T15:51:19Z</time></trkpt><trkpt lat="46.07262785673783" lon="1.3025838790819195"><ele>398.0</ele><time>2026-05-02T15:51:20Z</time></trkpt><trkpt lat="46.07280015480358" lon="1.3024124216404143"><ele>398.0</ele><time>2026-05-02T15:51:21Z</time></trkpt><trkpt lat="46.072966106343394" lon="1.3022219417120018"><ele>398.0</ele><time>2026-05-02T15:51:22Z</time></trkpt><trkpt lat="46.07311734170669" lon="1.3020211350708348"><ele>398.0</ele><time>2026-05-02T15:51:23Z</time></trkpt><trkpt lat="46.073258503892745" lon="1.3018120899035275"><ele>398.0</ele><time>2026-05-02T15:51:24Z</time></trkpt><trkpt lat="46.07338077631842" lon="1.3016133719009282"><ele>398.0</ele><time>2026-05-02T15:51:25Z</time></trkpt><trkpt lat="46.073496015942084" lon="1.3014510369799996"><ele>398.0</ele><time>2026-05-02T15:51:26Z</time></trkpt><trkpt lat="46.073613022141416" lon="1.3013017520868042"><ele>398.0</ele><time>2026-05-02T15:51:27Z</time></trkpt><trkpt lat="46.07368592070875" lon="1.3011828007370596"><ele>398.0</ele><time>2026-05-02T15:51:28Z</time></trkpt><trkpt lat="46.073750188943634" lon="1.3010974987118482"><ele>397.79999999999995</ele><time>2026-05-02T15:51:29Z</time></trkpt><trkpt lat="46.073805790004386" lon="1.3010411591487632"><ele>397.6</ele><time>2026-05-02T15:51:30Z</time></trkpt><trkpt lat="46.07387205881407" lon="1.3009929576520833"><ele>397.4</ele><time>2026-05-02T15:51:32Z</time></trkpt><trkpt lat="46.07393441753216" lon="1.300929881619702"><ele>397.20000000000005</ele><time>2026-05-02T15:51:37Z</time></trkpt><trkpt lat="46.07402602687026" lon="1.301130943873818"><ele>397.0</ele><time>2026-05-02T15:51:38Z</time></trkpt><trkpt lat="46.07412626390088" lon="1.3012485415807606"><ele>398.33333333333337</ele><time>2026-05-02T15:51:39Z</time></trkpt><trkpt lat="46.07424505809703" lon="1.3013597608394492"><ele>399.66666666666663</ele><time>2026-05-02T15:51:40Z</time></trkpt><trkpt lat="46.07438121978724" lon="1.301486182822161"><ele>401.0</ele><time>2026-05-02T15:51:41Z</time></trkpt><trkpt lat="46.074532559192804" lon="1.3015941065423848"><ele>401.0</ele><time>2026-05-02T15:51:42Z</time></trkpt><trkpt lat="46.0747036370375" lon="1.301704457057752"><ele>401.0</ele><time>2026-05-02T15:51:43Z</time></trkpt><trkpt lat="46.07487781854466" lon="1.3018366011163325"><ele>401.0</ele><time>2026-05-02T15:51:44Z</time></trkpt><trkpt lat="46.075083348470834" lon="1.301950734192949"><ele>402.0</ele><time>2026-05-02T15:51:45Z</time></trkpt><trkpt lat="46.07527774984979" lon="1.3020729965172764"><ele>403.0</ele><time>2026-05-02T15:51:46Z</time></trkpt><trkpt lat="46.07545465502343" lon="1.3021937637973324"><ele>404.0</ele><time>2026-05-02T15:51:47Z</time></trkpt><trkpt lat="46.075613428939704" lon="1.302310476242559"><ele>402.3333333333333</ele><time>2026-05-02T15:51:48Z</time></trkpt><trkpt lat="46.075751036354404" lon="1.3024879728402696"><ele>400.66666666666663</ele><time>2026-05-02T15:51:49Z</time></trkpt><trkpt lat="46.07586130205755" lon="1.3026531536922172"><ele>399.0</ele><time>2026-05-02T15:51:50Z</time></trkpt><trkpt lat="46.07597713335205" lon="1.3027941821885693"><ele>399.0</ele><time>2026-05-02T15:51:51Z</time></trkpt><trkpt lat="46.07607019810608" lon="1.3029042174643963"><ele>399.0</ele><time>2026-05-02T15:51:52Z</time></trkpt><trkpt lat="46.076189772714265" lon="1.3029722843081182"><ele>399.0</ele><time>2026-05-02T15:51:53Z</time></trkpt><trkpt lat="46.07631815460338" lon="1.3030360898291289"><ele>399.0</ele><time>2026-05-02T15:51:54Z</time></trkpt><trkpt lat="46.07646616099352" lon="1.303007218882505"><ele>398.66666666666663</ele><time>2026-05-02T15:51:55Z</time></trkpt><trkpt lat="46.07661776553554" lon="1.3029406279694218"><ele>398.3333333333333</ele><time>2026-05-02T15:51:56Z</time></trkpt><trkpt lat="46.076784520830316" lon="1.302896559376206"><ele>398.0</ele><time>2026-05-02T15:51:57Z</time></trkpt><trkpt lat="46.076933807443396" lon="1.302855382229319"><ele>398.0</ele><time>2026-05-02T15:51:58Z</time></trkpt><trkpt lat="46.07707177004475" lon="1.3028542305866995"><ele>398.0</ele><time>2026-05-02T15:51:59Z</time></trkpt><trkpt lat="46.07720734642415" lon="1.3029342780397328"><ele>398.0</ele><time>2026-05-02T15:52:00Z</time></trkpt><trkpt lat="46.07734741730096" lon="1.303029243824101"><ele>398.0</ele><time>2026-05-02T15:52:01Z</time></trkpt><trkpt lat="46.07750152473193" lon="1.3031396607765542"><ele>393.66666666666663</ele><time>2026-05-02T15:52:02Z</time></trkpt><trkpt lat="46.07764777655085" lon="1.3032493124051618"><ele>389.33333333333337</ele><time>2026-05-02T15:52:03Z</time></trkpt><trkpt lat="46.07779904260343" lon="1.3033464683736653"><ele>385.0</ele><time>2026-05-02T15:52:04Z</time></trkpt><trkpt lat="46.07796774931549" lon="1.3033853733180758"><ele>385.0</ele><time>2026-05-02T15:52:05Z</time></trkpt><trkpt lat="46.07813733198417" lon="1.303456209304689"><ele>385.0</ele><time>2026-05-02T15:52:06Z</time></trkpt><trkpt lat="46.07828274344279" lon="1.3035180209111854"><ele>385.0</ele><time>2026-05-02T15:52:07Z</time></trkpt><trkpt lat="46.0784213561946" lon="1.3035955892314168"><ele>384.0</ele><time>2026-05-02T15:52:08Z</time></trkpt><trkpt lat="46.07855187164975" lon="1.303694421742458"><ele>383.0</ele><time>2026-05-02T15:52:09Z</time></trkpt><trkpt lat="46.07868924317351" lon="1.3038412943425195"><ele>382.0</ele><time>2026-05-02T15:52:10Z</time></trkpt><trkpt lat="46.07879145536761" lon="1.3040091593593186"><ele>382.0</ele><time>2026-05-02T15:52:11Z</time></trkpt><trkpt lat="46.07889142963602" lon="1.3042078055643922"><ele>382.0</ele><time>2026-05-02T15:52:11.999Z</time></trkpt><trkpt lat="46.07898783640193" lon="1.3044376121050885"><ele>382.0</ele><time>2026-05-02T15:52:12.999Z</time></trkpt><trkpt lat="46.07908488488517" lon="1.3046798283704335"><ele>380.66666666666663</ele><time>2026-05-02T15:52:13.999Z</time></trkpt><trkpt lat="46.07918238559383" lon="1.304920707674973"><ele>379.3333333333333</ele><time>2026-05-02T15:52:14.999Z</time></trkpt><trkpt lat="46.07928307976469" lon="1.3051676309642022"><ele>378.0</ele><time>2026-05-02T15:52:15.999Z</time></trkpt><trkpt lat="46.07938505311529" lon="1.3054187983227485"><ele>378.6666666666667</ele><time>2026-05-02T15:52:16.999Z</time></trkpt><trkpt lat="46.079488246319656" lon="1.3056729699685337"><ele>379.33333333333337</ele><time>2026-05-02T15:52:17.999Z</time></trkpt><trkpt lat="46.07959036666996" lon="1.3059244993021126"><ele>380.0</ele><time>2026-05-02T15:52:18.999Z</time></trkpt><trkpt lat="46.07969300067965" lon="1.3061764439829728"><ele>380.0</ele><time>2026-05-02T15:52:19.999Z</time></trkpt><trkpt lat="46.079795792929616" lon="1.3064263841186219"><ele>380.0</ele><time>2026-05-02T15:52:20.999Z</time></trkpt><trkpt lat="46.07989846458799" lon="1.3066760304185183"><ele>380.0</ele><time>2026-05-02T15:52:21.999Z</time></trkpt><trkpt lat="46.08001515447998" lon="1.3069126808537481"><ele>380.0</ele><time>2026-05-02T15:52:22.999Z</time></trkpt><trkpt lat="46.08011514410947" lon="1.3071624945151017"><ele>380.0</ele><time>2026-05-02T15:52:23.999Z</time></trkpt><trkpt lat="46.08022015463535" lon="1.3074133668121888"><ele>380.0</ele><time>2026-05-02T15:52:24.999Z</time></trkpt><trkpt lat="46.08032643094765" lon="1.3076683011049737"><ele>378.6666666666667</ele><time>2026-05-02T15:52:25.999Z</time></trkpt><trkpt lat="46.08043155209645" lon="1.307925632411429"><ele>377.3333333333333</ele><time>2026-05-02T15:52:26.999Z</time></trkpt><trkpt lat="46.080537850142306" lon="1.3081847461189964"><ele>376.0</ele><time>2026-05-02T15:52:27.999Z</time></trkpt><trkpt lat="46.080644897198695" lon="1.3084442796854014"><ele>374.3333333333333</ele><time>2026-05-02T15:52:28.999Z</time></trkpt><trkpt lat="46.080744102730385" lon="1.3087099384032057"><ele>372.6666666666667</ele><time>2026-05-02T15:52:29.999Z</time></trkpt><trkpt lat="46.0808450112434" lon="1.3089632679270404"><ele>371.0</ele><time>2026-05-02T15:52:30.999Z</time></trkpt><trkpt lat="46.080947968085965" lon="1.3092157038084382"><ele>371.0</ele><time>2026-05-02T15:52:31.999Z</time></trkpt><trkpt lat="46.081039081995776" lon="1.3094781682286445"><ele>371.0</ele><time>2026-05-02T15:52:32.999Z</time></trkpt><trkpt lat="46.081140886140176" lon="1.3097245822994998"><ele>371.0</ele><time>2026-05-02T15:52:33.999Z</time></trkpt><trkpt lat="46.08123671500171" lon="1.309967373661733"><ele>372.33333333333337</ele><time>2026-05-02T15:52:34.999Z</time></trkpt><trkpt lat="46.081340657619926" lon="1.3101997086099322"><ele>373.6666666666667</ele><time>2026-05-02T15:52:35.999Z</time></trkpt><trkpt lat="46.08144790854034" lon="1.310408227109949"><ele>375.0</ele><time>2026-05-02T15:52:36.999Z</time></trkpt><trkpt lat="46.08156457174133" lon="1.3106032228826354"><ele>376.0</ele><time>2026-05-02T15:52:37.999Z</time></trkpt><trkpt lat="46.081706392037056" lon="1.3107853502400395"><ele>377.0</ele><time>2026-05-02T15:52:38.999Z</time></trkpt><trkpt lat="46.081862407125435" lon="1.3109450565532375"><ele>378.0</ele><time>2026-05-02T15:52:39.999Z</time></trkpt><trkpt lat="46.08201784779158" lon="1.3110915179109854"><ele>378.0</ele><time>2026-05-02T15:52:40.999Z</time></trkpt><trkpt lat="46.08217325061304" lon="1.3112416117222643"><ele>378.0</ele><time>2026-05-02T15:52:41.999Z</time></trkpt><trkpt lat="46.08233880434644" lon="1.3113966805953783"><ele>378.0</ele><time>2026-05-02T15:52:42.999Z</time></trkpt><trkpt lat="46.08249640877885" lon="1.3115390796239594"><ele>379.3333333333333</ele><time>2026-05-02T15:52:43.999Z</time></trkpt><trkpt lat="46.08267099162348" lon="1.31166002267816"><ele>380.66666666666663</ele><time>2026-05-02T15:52:44.999Z</time></trkpt><trkpt lat="46.082853413502455" lon="1.3117307666086826"><ele>382.0</ele><time>2026-05-02T15:52:45.999Z</time></trkpt><trkpt lat="46.083036083052114" lon="1.311767375431583"><ele>382.0</ele><time>2026-05-02T15:52:46.999Z</time></trkpt><trkpt lat="46.083226881356005" lon="1.3117996656232906"><ele>382.0</ele><time>2026-05-02T15:52:47.999Z</time></trkpt><trkpt lat="46.08340406303703" lon="1.3118214539084956"><ele>382.0</ele><time>2026-05-02T15:52:48.999Z</time></trkpt><trkpt lat="46.08355941682257" lon="1.3118263380527064"><ele>380.0</ele><time>2026-05-02T15:52:49.999Z</time></trkpt><trkpt lat="46.08375218047201" lon="1.3118450843105764"><ele>378.0</ele><time>2026-05-02T15:52:50.999Z</time></trkpt><trkpt lat="46.08394174193036" lon="1.3118593073965161"><ele>376.0</ele><time>2026-05-02T15:52:51.999Z</time></trkpt><trkpt lat="46.08413703969503" lon="1.3118695802929412"><ele>374.66666666666663</ele><time>2026-05-02T15:52:52.999Z</time></trkpt><trkpt lat="46.08433586307772" lon="1.3118943906835625"><ele>373.3333333333333</ele><time>2026-05-02T15:52:53.999Z</time></trkpt><trkpt lat="46.08452864564028" lon="1.3119098231419999"><ele>372.0</ele><time>2026-05-02T15:52:54.999Z</time></trkpt><trkpt lat="46.084721134919754" lon="1.3119602128356682"><ele>372.0</ele><time>2026-05-02T15:52:55.999Z</time></trkpt><trkpt lat="46.08491614609656" lon="1.3119994758552345"><ele>372.0</ele><time>2026-05-02T15:52:56.999Z</time></trkpt><trkpt lat="46.085106131120945" lon="1.3120483934291254"><ele>372.0</ele><time>2026-05-02T15:52:57.999Z</time></trkpt><trkpt lat="46.08528905248938" lon="1.3121457199256106"><ele>371.6666666666667</ele><time>2026-05-02T15:52:58.999Z</time></trkpt><trkpt lat="46.08547123894483" lon="1.3122509818136479"><ele>371.33333333333337</ele><time>2026-05-02T15:52:59.999Z</time></trkpt><trkpt lat="46.085650409926174" lon="1.312360241886578"><ele>371.0</ele><time>2026-05-02T15:53:00.999Z</time></trkpt><trkpt lat="46.085829400614514" lon="1.3124764914694484"><ele>371.0</ele><time>2026-05-02T15:53:01.999Z</time></trkpt><trkpt lat="46.08601107511353" lon="1.3126015851981805"><ele>371.0</ele><time>2026-05-02T15:53:02.999Z</time></trkpt><trkpt lat="46.08620154337937" lon="1.3127053983028827"><ele>371.0</ele><time>2026-05-02T15:53:03.999Z</time></trkpt><trkpt lat="46.08638620667932" lon="1.3128250437675633"><ele>371.0</ele><time>2026-05-02T15:53:04.999Z</time></trkpt><trkpt lat="46.08656511122288" lon="1.312967454236217"><ele>371.0</ele><time>2026-05-02T15:53:05.999Z</time></trkpt><trkpt lat="46.08674989233907" lon="1.3130890513063378"><ele>371.0</ele><time>2026-05-02T15:53:06.999Z</time></trkpt><trkpt lat="46.08693313238247" lon="1.31321128900805"><ele>371.0</ele><time>2026-05-02T15:53:07.999Z</time></trkpt><trkpt lat="46.087115154873956" lon="1.3133327142669529"><ele>371.0</ele><time>2026-05-02T15:53:09Z</time></trkpt><trkpt lat="46.087301767427746" lon="1.3134545899634167"><ele>371.0</ele><time>2026-05-02T15:53:10Z</time></trkpt><trkpt lat="46.08749290821632" lon="1.3135786035859167"><ele>369.6666666666667</ele><time>2026-05-02T15:53:11Z</time></trkpt><trkpt lat="46.08769131068863" lon="1.313683804157939"><ele>368.3333333333333</ele><time>2026-05-02T15:53:12Z</time></trkpt><trkpt lat="46.087881142974815" lon="1.3138189380191223"><ele>367.0</ele><time>2026-05-02T15:53:13Z</time></trkpt><trkpt lat="46.08807508075509" lon="1.313949598051448"><ele>364.3333333333333</ele><time>2026-05-02T15:53:14Z</time></trkpt><trkpt lat="46.08826443557577" lon="1.314082520502549"><ele>361.6666666666667</ele><time>2026-05-02T15:53:15Z</time></trkpt><trkpt lat="46.08846593344662" lon="1.3141974047392238"><ele>359.0</ele><time>2026-05-02T15:53:16Z</time></trkpt><trkpt lat="46.08864671478505" lon="1.314347118135873"><ele>359.0</ele><time>2026-05-02T15:53:17Z</time></trkpt><trkpt lat="46.08881568393376" lon="1.3144723514510679"><ele>359.0</ele><time>2026-05-02T15:53:18Z</time></trkpt><trkpt lat="46.088982498246935" lon="1.3146134671386858"><ele>359.0</ele><time>2026-05-02T15:53:19Z</time></trkpt><trkpt lat="46.08913987238731" lon="1.314776953403092"><ele>357.6666666666667</ele><time>2026-05-02T15:53:20Z</time></trkpt><trkpt lat="46.08928445925828" lon="1.31496291270266"><ele>356.3333333333333</ele><time>2026-05-02T15:53:21Z</time></trkpt><trkpt lat="46.08940565201893" lon="1.3151730048173322"><ele>355.0</ele><time>2026-05-02T15:53:22Z</time></trkpt><trkpt lat="46.08951517829669" lon="1.3154055856930942"><ele>354.0</ele><time>2026-05-02T15:53:23Z</time></trkpt><trkpt lat="46.0896259842024" lon="1.3156439998653722"><ele>353.0</ele><time>2026-05-02T15:53:24Z</time></trkpt><trkpt lat="46.089738588847894" lon="1.3158862843404726"><ele>352.0</ele><time>2026-05-02T15:53:25Z</time></trkpt><trkpt lat="46.08985224079218" lon="1.3161308220434738"><ele>352.66666666666663</ele><time>2026-05-02T15:53:26Z</time></trkpt><trkpt lat="46.08996628439219" lon="1.3163761279273374"><ele>353.3333333333333</ele><time>2026-05-02T15:53:27Z</time></trkpt><trkpt lat="46.09007942639882" lon="1.3166194736202037"><ele>354.0</ele><time>2026-05-02T15:53:28Z</time></trkpt><trkpt lat="46.09020499532709" lon="1.3168483455335982"><ele>352.3333333333333</ele><time>2026-05-02T15:53:29Z</time></trkpt><trkpt lat="46.09031133738746" lon="1.3170829384195195"><ele>350.66666666666663</ele><time>2026-05-02T15:53:30Z</time></trkpt><trkpt lat="46.0904169049616" lon="1.3173075656945987"><ele>349.0</ele><time>2026-05-02T15:53:31Z</time></trkpt><trkpt lat="46.09052123126329" lon="1.3175375909325515"><ele>347.0</ele><time>2026-05-02T15:53:32Z</time></trkpt><trkpt lat="46.0906254545653" lon="1.3177620649899324"><ele>345.0</ele><time>2026-05-02T15:53:33Z</time></trkpt><trkpt lat="46.09073567748714" lon="1.3179871576641473"><ele>343.0</ele><time>2026-05-02T15:53:34Z</time></trkpt><trkpt lat="46.090834118372975" lon="1.3182324156291263"><ele>341.3333333333333</ele><time>2026-05-02T15:53:35Z</time></trkpt><trkpt lat="46.09094528399395" lon="1.3184699285433152"><ele>339.6666666666667</ele><time>2026-05-02T15:53:36Z</time></trkpt><trkpt lat="46.091071002145114" lon="1.3186968425291623"><ele>338.0</ele><time>2026-05-02T15:53:37Z</time></trkpt><trkpt lat="46.09117148098841" lon="1.318953109832113"><ele>336.0</ele><time>2026-05-02T15:53:38Z</time></trkpt><trkpt lat="46.091285777822655" lon="1.3191972599086323"><ele>334.0</ele><time>2026-05-02T15:53:39Z</time></trkpt><trkpt lat="46.091413025048475" lon="1.3194318854685523"><ele>332.0</ele><time>2026-05-02T15:53:40Z</time></trkpt><trkpt lat="46.09152518434514" lon="1.3196843587738623"><ele>332.0</ele><time>2026-05-02T15:53:41Z</time></trkpt><trkpt lat="46.09163920998654" lon="1.319942358613482"><ele>332.0</ele><time>2026-05-02T15:53:42Z</time></trkpt><trkpt lat="46.09175483206361" lon="1.320198529161136"><ele>332.0</ele><time>2026-05-02T15:53:43Z</time></trkpt><trkpt lat="46.09187120555601" lon="1.320459192467105"><ele>331.6666666666667</ele><time>2026-05-02T15:53:44Z</time></trkpt><trkpt lat="46.09197262134396" lon="1.32070160564866"><ele>331.3333333333333</ele><time>2026-05-02T15:53:45Z</time></trkpt><trkpt lat="46.09207837452524" lon="1.3209405606760207"><ele>331.0</ele><time>2026-05-02T15:53:46Z</time></trkpt><trkpt lat="46.09221042204553" lon="1.3211582215203377"><ele>331.0</ele><time>2026-05-02T15:53:47Z</time></trkpt><trkpt lat="46.092360093755374" lon="1.3213429755415498"><ele>331.0</ele><time>2026-05-02T15:53:48Z</time></trkpt><trkpt lat="46.092512285994815" lon="1.3215159184449587"><ele>331.0</ele><time>2026-05-02T15:53:49Z</time></trkpt><trkpt lat="46.092667077428885" lon="1.321685480833712"><ele>331.66666666666663</ele><time>2026-05-02T15:53:50Z</time></trkpt><trkpt lat="46.09281383159143" lon="1.3218706992665357"><ele>332.3333333333333</ele><time>2026-05-02T15:53:51Z</time></trkpt><trkpt lat="46.09297194337671" lon="1.3220369176402489"><ele>333.0</ele><time>2026-05-02T15:53:52Z</time></trkpt><trkpt lat="46.093130879514405" lon="1.3222012082843002"><ele>332.3333333333333</ele><time>2026-05-02T15:53:53Z</time></trkpt><trkpt lat="46.09329272338068" lon="1.3223672728317155"><ele>331.66666666666663</ele><time>2026-05-02T15:53:54Z</time></trkpt><trkpt lat="46.093456540108185" lon="1.322534311955867"><ele>331.0</ele><time>2026-05-02T15:53:55Z</time></trkpt><trkpt lat="46.09363385446924" lon="1.3226866917248723"><ele>331.0</ele><time>2026-05-02T15:53:56Z</time></trkpt><trkpt lat="46.09379570037437" lon="1.3228614178561393"><ele>331.0</ele><time>2026-05-02T15:53:57Z</time></trkpt><trkpt lat="46.093946745236586" lon="1.3230595088171104"><ele>331.0</ele><time>2026-05-02T15:53:58Z</time></trkpt><trkpt lat="46.094066040527466" lon="1.323278478528391"><ele>330.66666666666663</ele><time>2026-05-02T15:53:59Z</time></trkpt><trkpt lat="46.09417616541517" lon="1.323506295918565"><ele>330.3333333333333</ele><time>2026-05-02T15:54:00Z</time></trkpt><trkpt lat="46.09427581952703" lon="1.3237559159539596"><ele>330.0</ele><time>2026-05-02T15:54:01Z</time></trkpt><trkpt lat="46.094369501082696" lon="1.3240161303862341"><ele>331.6666666666667</ele><time>2026-05-02T15:54:02Z</time></trkpt><trkpt lat="46.09446401529658" lon="1.3242817473340147"><ele>333.33333333333337</ele><time>2026-05-02T15:54:03Z</time></trkpt><trkpt lat="46.094558981066726" lon="1.3245540729639935"><ele>335.0</ele><time>2026-05-02T15:54:04Z</time></trkpt><trkpt lat="46.0946561735804" lon="1.3248302126595033"><ele>335.6666666666667</ele><time>2026-05-02T15:54:05Z</time></trkpt><trkpt lat="46.094755236967764" lon="1.3251104076720435"><ele>336.3333333333333</ele><time>2026-05-02T15:54:06Z</time></trkpt><trkpt lat="46.094854156670245" lon="1.3253901960092478"><ele>337.0</ele><time>2026-05-02T15:54:07Z</time></trkpt><trkpt lat="46.09495246524283" lon="1.3256682557364239"><ele>336.66666666666663</ele><time>2026-05-02T15:54:08Z</time></trkpt><trkpt lat="46.09504840442667" lon="1.325940588741352"><ele>336.3333333333333</ele><time>2026-05-02T15:54:09Z</time></trkpt><trkpt lat="46.09514198511583" lon="1.326208873000502"><ele>336.0</ele><time>2026-05-02T15:54:10Z</time></trkpt><trkpt lat="46.09523427414577" lon="1.3264705390560954"><ele>336.0</ele><time>2026-05-02T15:54:10.999Z</time></trkpt><trkpt lat="46.095327747844046" lon="1.326733198767573"><ele>336.0</ele><time>2026-05-02T15:54:11.999Z</time></trkpt><trkpt lat="46.09541891462378" lon="1.326996472235803"><ele>336.0</ele><time>2026-05-02T15:54:12.999Z</time></trkpt><trkpt lat="46.095509725570196" lon="1.3272551303845428"><ele>336.0</ele><time>2026-05-02T15:54:13.999Z</time></trkpt><trkpt lat="46.0956097881614" lon="1.327503205099165"><ele>336.0</ele><time>2026-05-02T15:54:14.999Z</time></trkpt><trkpt lat="46.09570493830473" lon="1.3277561369738968"><ele>336.0</ele><time>2026-05-02T15:54:15.999Z</time></trkpt><trkpt lat="46.09577872646415" lon="1.328016692554701"><ele>337.3333333333333</ele><time>2026-05-02T15:54:16.999Z</time></trkpt><trkpt lat="46.09586768637898" lon="1.328271162404038"><ele>338.66666666666663</ele><time>2026-05-02T15:54:17.999Z</time></trkpt><trkpt lat="46.09595447411448" lon="1.3285194187122316"><ele>340.0</ele><time>2026-05-02T15:54:18.999Z</time></trkpt><trkpt lat="46.09604575817629" lon="1.3287805367396406"><ele>340.66666666666663</ele><time>2026-05-02T15:54:19.999Z</time></trkpt><trkpt lat="46.096136445322564" lon="1.329039795522929"><ele>341.3333333333333</ele><time>2026-05-02T15:54:20.999Z</time></trkpt><trkpt lat="46.09622609720066" lon="1.329292730894421"><ele>342.0</ele><time>2026-05-02T15:54:21.999Z</time></trkpt><trkpt lat="46.096326390847594" lon="1.3295417475236904"><ele>342.0</ele><time>2026-05-02T15:54:22.999Z</time></trkpt><trkpt lat="46.096414723660075" lon="1.3297988725135954"><ele>342.0</ele><time>2026-05-02T15:54:23.999Z</time></trkpt><trkpt lat="46.09650279473707" lon="1.3300564285033734"><ele>342.0</ele><time>2026-05-02T15:54:24.999Z</time></trkpt><trkpt lat="46.09659393085036" lon="1.3303048774040978"><ele>342.0</ele><time>2026-05-02T15:54:25.999Z</time></trkpt><trkpt lat="46.09666344540486" lon="1.3305557223444624"><ele>342.0</ele><time>2026-05-02T15:54:26.999Z</time></trkpt><trkpt lat="46.09674401154702" lon="1.330787572140843"><ele>342.0</ele><time>2026-05-02T15:54:27.999Z</time></trkpt><trkpt lat="46.096816285430954" lon="1.331021712974237"><ele>343.0</ele><time>2026-05-02T15:54:28.999Z</time></trkpt><trkpt lat="46.09686914777318" lon="1.3312578399891097"><ele>344.0</ele><time>2026-05-02T15:54:29.999Z</time></trkpt><trkpt lat="46.09691182020213" lon="1.3314844430566168"><ele>345.0</ele><time>2026-05-02T15:54:30.999Z</time></trkpt><trkpt lat="46.096906818846506" lon="1.3317319893267074"><ele>346.3333333333333</ele><time>2026-05-02T15:54:31.999Z</time></trkpt><trkpt lat="46.09689870700205" lon="1.3319949249183964"><ele>347.66666666666663</ele><time>2026-05-02T15:54:32.999Z</time></trkpt><trkpt lat="46.096883027250534" lon="1.3322639715833782"><ele>349.0</ele><time>2026-05-02T15:54:33.999Z</time></trkpt><trkpt lat="46.09686273467619" lon="1.3325414101923068"><ele>350.66666666666663</ele><time>2026-05-02T15:54:34.999Z</time></trkpt><trkpt lat="46.09684424995556" lon="1.3328196561620522"><ele>352.3333333333333</ele><time>2026-05-02T15:54:35.999Z</time></trkpt><trkpt lat="46.09682678568214" lon="1.3330984561260506"><ele>354.0</ele><time>2026-05-02T15:54:36.999Z</time></trkpt><trkpt lat="46.0968083972665" lon="1.3333816060982113"><ele>354.0</ele><time>2026-05-02T15:54:37.999Z</time></trkpt><trkpt lat="46.096792919143184" lon="1.3336623116604405"><ele>354.0</ele><time>2026-05-02T15:54:38.999Z</time></trkpt><trkpt lat="46.09677673363982" lon="1.3339355935988635"><ele>354.0</ele><time>2026-05-02T15:54:39.999Z</time></trkpt><trkpt lat="46.096769069707214" lon="1.3341776863109382"><ele>354.0</ele><time>2026-05-02T15:54:40.999Z</time></trkpt><trkpt lat="46.09675741447808" lon="1.3344104043407012"><ele>354.0</ele><time>2026-05-02T15:54:41.999Z</time></trkpt><trkpt lat="46.09676612508652" lon="1.3346178320110211"><ele>354.0</ele><time>2026-05-02T15:54:42.999Z</time></trkpt><trkpt lat="46.09679815045497" lon="1.3348154263556038"><ele>354.0</ele><time>2026-05-02T15:54:43.999Z</time></trkpt><trkpt lat="46.09683285437037" lon="1.3350166965223444"><ele>354.0</ele><time>2026-05-02T15:54:44.999Z</time></trkpt><trkpt lat="46.0969349585612" lon="1.3351718639319488"><ele>354.0</ele><time>2026-05-02T15:54:45.999Z</time></trkpt><trkpt lat="46.09704121529298" lon="1.3353283530994557"><ele>354.0</ele><time>2026-05-02T15:54:46.999Z</time></trkpt><trkpt lat="46.097196983397104" lon="1.3354228076119796"><ele>354.0</ele><time>2026-05-02T15:54:47.999Z</time></trkpt><trkpt lat="46.097357209634346" lon="1.3355466558076494"><ele>354.0</ele><time>2026-05-02T15:54:48.999Z</time></trkpt><trkpt lat="46.09753013890995" lon="1.335640315934653"><ele>354.0</ele><time>2026-05-02T15:54:49.999Z</time></trkpt><trkpt lat="46.097711715212874" lon="1.335736676232906"><ele>353.3333333333333</ele><time>2026-05-02T15:54:50.999Z</time></trkpt><trkpt lat="46.09789623210371" lon="1.3358368233692066"><ele>352.66666666666663</ele><time>2026-05-02T15:54:51.999Z</time></trkpt><trkpt lat="46.098082522348186" lon="1.3359403467135795"><ele>352.0</ele><time>2026-05-02T15:54:52.999Z</time></trkpt><trkpt lat="46.098281119510496" lon="1.3360492712201117"><ele>352.0</ele><time>2026-05-02T15:54:53.999Z</time></trkpt><trkpt lat="46.0984754564714" lon="1.3361602272326245"><ele>352.0</ele><time>2026-05-02T15:54:54.999Z</time></trkpt><trkpt lat="46.098655650690255" lon="1.3362564962224905"><ele>352.0</ele><time>2026-05-02T15:54:55.999Z</time></trkpt><trkpt lat="46.09882460238565" lon="1.3363472560740273"><ele>351.66666666666663</ele><time>2026-05-02T15:54:56.999Z</time></trkpt><trkpt lat="46.09899141475759" lon="1.336440118436541"><ele>351.3333333333333</ele><time>2026-05-02T15:54:57.999Z</time></trkpt><trkpt lat="46.09913857518223" lon="1.336503134410451"><ele>351.0</ele><time>2026-05-02T15:54:58.999Z</time></trkpt><trkpt lat="46.099230962697455" lon="1.3366163040816612"><ele>351.0</ele><time>2026-05-02T15:54:59.999Z</time></trkpt><trkpt lat="46.099303785776236" lon="1.3367645237763661"><ele>351.0</ele><time>2026-05-02T15:55:00.999Z</time></trkpt><trkpt lat="46.09934432375895" lon="1.3369254345888488"><ele>351.0</ele><time>2026-05-02T15:55:01.999Z</time></trkpt><trkpt lat="46.0993784654886" lon="1.3371082972238817"><ele>351.0</ele><time>2026-05-02T15:55:02.999Z</time></trkpt><trkpt lat="46.099346461723826" lon="1.337320584861575"><ele>351.5</ele><time>2026-05-02T15:55:03.999Z</time></trkpt><trkpt lat="46.09931091663457" lon="1.3375252083227611"><ele>352.0</ele><time>2026-05-02T15:55:04.999Z</time></trkpt><trkpt lat="46.099267819980255" lon="1.3377253636252797"><ele>352.5</ele><time>2026-05-02T15:55:05.999Z</time></trkpt><trkpt lat="46.09924070356814" lon="1.3378952110919304"><ele>353.0</ele><time>2026-05-02T15:55:06.999Z</time></trkpt><trkpt lat="46.0992184831163" lon="1.3380979717989288"><ele>353.0</ele><time>2026-05-02T15:55:07.999Z</time></trkpt><trkpt lat="46.0991656409983" lon="1.3383154976281582"><ele>353.0</ele><time>2026-05-02T15:55:08.999Z</time></trkpt><trkpt lat="46.09912482853111" lon="1.3385134563598022"><ele>353.0</ele><time>2026-05-02T15:55:09.999Z</time></trkpt><trkpt lat="46.09911410950414" lon="1.3386933677083872"><ele>353.0</ele><time>2026-05-02T15:55:10.999Z</time></trkpt><trkpt lat="46.0991260228329" lon="1.338867139593581"><ele>355.33333333333337</ele><time>2026-05-02T15:55:11.999Z</time></trkpt><trkpt lat="46.09917718029928" lon="1.3390545961021283"><ele>357.6666666666667</ele><time>2026-05-02T15:55:12.999Z</time></trkpt><trkpt lat="46.09926004041617" lon="1.3392411717909634"><ele>360.0</ele><time>2026-05-02T15:55:13.999Z</time></trkpt><trkpt lat="46.09936774828473" lon="1.3394264622015462"><ele>360.0</ele><time>2026-05-02T15:55:15Z</time></trkpt><trkpt lat="46.099479578313556" lon="1.3396146891556933"><ele>360.0</ele><time>2026-05-02T15:55:16Z</time></trkpt><trkpt lat="46.099610674660724" lon="1.3397881483938447"><ele>360.0</ele><time>2026-05-02T15:55:17Z</time></trkpt><trkpt lat="46.09974043158126" lon="1.3399761119451803"><ele>357.6666666666667</ele><time>2026-05-02T15:55:18Z</time></trkpt><trkpt lat="46.099868383800136" lon="1.3401396674548245"><ele>355.33333333333337</ele><time>2026-05-02T15:55:19Z</time></trkpt><trkpt lat="46.10001511305208" lon="1.3402600838574203"><ele>353.0</ele><time>2026-05-02T15:55:20Z</time></trkpt><trkpt lat="46.100189781976475" lon="1.3403203779334818"><ele>353.0</ele><time>2026-05-02T15:55:21Z</time></trkpt><trkpt lat="46.10036158718684" lon="1.3403372238690836"><ele>353.0</ele><time>2026-05-02T15:55:22Z</time></trkpt><trkpt lat="46.10055727424254" lon="1.3403284313287471"><ele>353.0</ele><time>2026-05-02T15:55:23Z</time></trkpt><trkpt lat="46.10075166800709" lon="1.3403233219781787"><ele>349.0</ele><time>2026-05-02T15:55:24Z</time></trkpt><trkpt lat="46.10093091914719" lon="1.3403486491963459"><ele>345.0</ele><time>2026-05-02T15:55:25Z</time></trkpt><trkpt lat="46.10115455208171" lon="1.3404150699700912"><ele>341.0</ele><time>2026-05-02T15:55:26Z</time></trkpt><trkpt lat="46.101225881145254" lon="1.3404437068837276"><ele>341.0</ele><time>2026-05-02T15:55:27Z</time></trkpt><trkpt lat="46.101440008220585" lon="1.340523809039414"><ele>341.0</ele><time>2026-05-02T15:55:28Z</time></trkpt><trkpt lat="46.10166662310967" lon="1.3405977095032058"><ele>345.0</ele><time>2026-05-02T15:55:29Z</time></trkpt><trkpt lat="46.1018927351077" lon="1.3406755825005043"><ele>349.0</ele><time>2026-05-02T15:55:30Z</time></trkpt><trkpt lat="46.10210804337398" lon="1.3407442399321818"><ele>349.0</ele><time>2026-05-02T15:55:31Z</time></trkpt><trkpt lat="46.10230552749121" lon="1.3408175348547569"><ele>349.0</ele><time>2026-05-02T15:55:32Z</time></trkpt><trkpt lat="46.10251557487149" lon="1.3408907571651092"><ele>349.0</ele><time>2026-05-02T15:55:33Z</time></trkpt><trkpt lat="46.10271836421382" lon="1.3409623853944928"><ele>347.0</ele><time>2026-05-02T15:55:34Z</time></trkpt><trkpt lat="46.10291287114056" lon="1.3410287798664042"><ele>345.0</ele><time>2026-05-02T15:55:35Z</time></trkpt><trkpt lat="46.103093135806034" lon="1.3410918787483486"><ele>343.0</ele><time>2026-05-02T15:55:36Z</time></trkpt><trkpt lat="46.103257133202874" lon="1.3411477901714268"><ele>342.25</ele><time>2026-05-02T15:55:37Z</time></trkpt><trkpt lat="46.10340468622531" lon="1.3412139611334464"><ele>341.5</ele><time>2026-05-02T15:55:38Z</time></trkpt><trkpt lat="46.103516439152045" lon="1.3412934161570567"><ele>340.75</ele><time>2026-05-02T15:55:39Z</time></trkpt><trkpt lat="46.10358641728608" lon="1.3414074222818149"><ele>340.0</ele><time>2026-05-02T15:55:40Z</time></trkpt><trkpt lat="46.10363461613273" lon="1.341524079577512"><ele>340.0</ele><time>2026-05-02T15:55:41Z</time></trkpt><trkpt lat="46.103654407334005" lon="1.3416874562600922"><ele>340.0</ele><time>2026-05-02T15:55:42Z</time></trkpt><trkpt lat="46.10364283399067" lon="1.3418642855994105"><ele>340.0</ele><time>2026-05-02T15:55:43Z</time></trkpt><trkpt lat="46.10360484723612" lon="1.3420548598408037"><ele>340.0</ele><time>2026-05-02T15:55:44Z</time></trkpt><trkpt lat="46.103554986112314" lon="1.3422749020174183"><ele>340.0</ele><time>2026-05-02T15:55:45Z</time></trkpt><trkpt lat="46.10349424134176" lon="1.3425112850265248"><ele>340.0</ele><time>2026-05-02T15:55:46Z</time></trkpt><trkpt lat="46.103434844680436" lon="1.342765182539367"><ele>340.0</ele><time>2026-05-02T15:55:47Z</time></trkpt><trkpt lat="46.103374145571586" lon="1.343024919335178"><ele>339.0</ele><time>2026-05-02T15:55:48Z</time></trkpt><trkpt lat="46.10331202845295" lon="1.3432907207317295"><ele>338.0</ele><time>2026-05-02T15:55:49Z</time></trkpt><trkpt lat="46.10327119082344" lon="1.3435434566210724"><ele>337.0</ele><time>2026-05-02T15:55:50Z</time></trkpt><trkpt lat="46.103249922259145" lon="1.3437741299265504"><ele>337.66666666666663</ele><time>2026-05-02T15:55:51Z</time></trkpt><trkpt lat="46.103259112088516" lon="1.34399613453963"><ele>338.3333333333333</ele><time>2026-05-02T15:55:52Z</time></trkpt><trkpt lat="46.10328719621537" lon="1.3442043670838182"><ele>339.0</ele><time>2026-05-02T15:55:53Z</time></trkpt><trkpt lat="46.10335193983836" lon="1.3444183067709643"><ele>339.0</ele><time>2026-05-02T15:55:54Z</time></trkpt><trkpt lat="46.103429617629345" lon="1.344648481017053"><ele>339.0</ele><time>2026-05-02T15:55:55Z</time></trkpt><trkpt lat="46.10350794757979" lon="1.3448933305149047"><ele>339.0</ele><time>2026-05-02T15:55:56Z</time></trkpt><trkpt lat="46.10357021729265" lon="1.3451403842879466"><ele>341.0</ele><time>2026-05-02T15:55:57Z</time></trkpt><trkpt lat="46.103595144287986" lon="1.3453836457986323"><ele>343.0</ele><time>2026-05-02T15:55:58Z</time></trkpt><trkpt lat="46.10359869051653" lon="1.345613357988536"><ele>345.0</ele><time>2026-05-02T15:55:59Z</time></trkpt><trkpt lat="46.1035776806139" lon="1.3458615338808457"><ele>345.3333333333333</ele><time>2026-05-02T15:56:00Z</time></trkpt><trkpt lat="46.10353676352499" lon="1.346108618127865"><ele>345.66666666666663</ele><time>2026-05-02T15:56:01Z</time></trkpt><trkpt lat="46.10348563287247" lon="1.346357645243066"><ele>346.0</ele><time>2026-05-02T15:56:01.999Z</time></trkpt><trkpt lat="46.10344476940715" lon="1.3466249778595463"><ele>344.3333333333333</ele><time>2026-05-02T15:56:02.999Z</time></trkpt><trkpt lat="46.103385739522295" lon="1.3468878924365435"><ele>342.6666666666667</ele><time>2026-05-02T15:56:03.999Z</time></trkpt><trkpt lat="46.10333282531115" lon="1.347163954807572"><ele>341.0</ele><time>2026-05-02T15:56:04.999Z</time></trkpt><trkpt lat="46.10327729982258" lon="1.3474383085245465"><ele>342.0</ele><time>2026-05-02T15:56:05.999Z</time></trkpt><trkpt lat="46.103225802134475" lon="1.3476951907527996"><ele>343.0</ele><time>2026-05-02T15:56:06.999Z</time></trkpt><trkpt lat="46.10317830498662" lon="1.3479249212376363"><ele>344.0</ele><time>2026-05-02T15:56:07.999Z</time></trkpt><trkpt lat="46.10313283942924" lon="1.348139683911077"><ele>344.0</ele><time>2026-05-02T15:56:08.999Z</time></trkpt><trkpt lat="46.10308822955055" lon="1.3483476892955408"><ele>344.0</ele><time>2026-05-02T15:56:09.999Z</time></trkpt><trkpt lat="46.1030493520248" lon="1.348554158488129"><ele>344.0</ele><time>2026-05-02T15:56:10.999Z</time></trkpt><trkpt lat="46.10300294722557" lon="1.3487643249157053"><ele>343.0</ele><time>2026-05-02T15:56:11.999Z</time></trkpt><trkpt lat="46.102960025699396" lon="1.3489750134534955"><ele>342.0</ele><time>2026-05-02T15:56:12.999Z</time></trkpt><trkpt lat="46.10293098348872" lon="1.3492137437316098"><ele>341.0</ele><time>2026-05-02T15:56:13.999Z</time></trkpt><trkpt lat="46.10292441958962" lon="1.3494543420742127"><ele>341.0</ele><time>2026-05-02T15:56:14.999Z</time></trkpt><trkpt lat="46.10293297036756" lon="1.3496774291573448"><ele>341.0</ele><time>2026-05-02T15:56:15.999Z</time></trkpt><trkpt lat="46.1029724863336" lon="1.3499243725475851"><ele>341.0</ele><time>2026-05-02T15:56:16.999Z</time></trkpt><trkpt lat="46.10303497628573" lon="1.3501693304320366"><ele>340.33333333333337</ele><time>2026-05-02T15:56:17.999Z</time></trkpt><trkpt lat="46.10311046580426" lon="1.3504206241263725"><ele>339.6666666666667</ele><time>2026-05-02T15:56:18.999Z</time></trkpt><trkpt lat="46.103173135613154" lon="1.350685410816417"><ele>339.0</ele><time>2026-05-02T15:56:19.999Z</time></trkpt><trkpt lat="46.103260225974566" lon="1.350919234580353"><ele>337.0</ele><time>2026-05-02T15:56:20.999Z</time></trkpt><trkpt lat="46.10332407283029" lon="1.3511472616259854"><ele>335.0</ele><time>2026-05-02T15:56:21.999Z</time></trkpt><trkpt lat="46.10338542236191" lon="1.351360137643889"><ele>333.0</ele><time>2026-05-02T15:56:22.999Z</time></trkpt><trkpt lat="46.10342464542542" lon="1.3515766668418454"><ele>332.6666666666667</ele><time>2026-05-02T15:56:23.999Z</time></trkpt><trkpt lat="46.103454978949635" lon="1.3517860963966932"><ele>332.33333333333337</ele><time>2026-05-02T15:56:24.999Z</time></trkpt><trkpt lat="46.10346423065791" lon="1.3520109661572057"><ele>332.0</ele><time>2026-05-02T15:56:25.999Z</time></trkpt><trkpt lat="46.103460203603554" lon="1.3522464440026534"><ele>331.75</ele><time>2026-05-02T15:56:26.999Z</time></trkpt><trkpt lat="46.10343926428451" lon="1.352464800593285"><ele>331.5</ele><time>2026-05-02T15:56:27.999Z</time></trkpt><trkpt lat="46.10341548027953" lon="1.3526491138159644"><ele>331.25</ele><time>2026-05-02T15:56:28.999Z</time></trkpt><trkpt lat="46.10333357703823" lon="1.352799679363031"><ele>331.0</ele><time>2026-05-02T15:56:29.999Z</time></trkpt><trkpt lat="46.103228878700364" lon="1.352925763587241"><ele>331.0</ele><time>2026-05-02T15:56:30.999Z</time></trkpt><trkpt lat="46.10309686934876" lon="1.353013652055351"><ele>331.0</ele><time>2026-05-02T15:56:31.999Z</time></trkpt><trkpt lat="46.10293621794958" lon="1.3531309530661564"><ele>331.0</ele><time>2026-05-02T15:56:32.999Z</time></trkpt><trkpt lat="46.102799370468155" lon="1.353236130346052"><ele>331.75</ele><time>2026-05-02T15:56:33.999Z</time></trkpt><trkpt lat="46.1026656515542" lon="1.3533335524891525"><ele>332.5</ele><time>2026-05-02T15:56:34.999Z</time></trkpt><trkpt lat="46.10254372584231" lon="1.353428274434399"><ele>333.25</ele><time>2026-05-02T15:56:35.999Z</time></trkpt><trkpt lat="46.10242445089209" lon="1.3535033340980611"><ele>334.0</ele><time>2026-05-02T15:56:36.999Z</time></trkpt><trkpt lat="46.10231819451073" lon="1.3536218726555382"><ele>334.0</ele><time>2026-05-02T15:56:37.999Z</time></trkpt><trkpt lat="46.10223968212509" lon="1.3537851239481133"><ele>334.0</ele><time>2026-05-02T15:56:38.999Z</time></trkpt><trkpt lat="46.10217782731461" lon="1.35395628330714"><ele>334.0</ele><time>2026-05-02T15:56:39.999Z</time></trkpt><trkpt lat="46.10213726546309" lon="1.3541424269041409"><ele>334.0</ele><time>2026-05-02T15:56:40.999Z</time></trkpt><trkpt lat="46.102124557727045" lon="1.3543424640140074"><ele>334.75</ele><time>2026-05-02T15:56:41.999Z</time></trkpt><trkpt lat="46.10215138478355" lon="1.3545225408334391"><ele>335.5</ele><time>2026-05-02T15:56:42.999Z</time></trkpt><trkpt lat="46.102196138740354" lon="1.3547287196159954"><ele>336.25</ele><time>2026-05-02T15:56:43.999Z</time></trkpt><trkpt lat="46.10222621910016" lon="1.354944891320736"><ele>337.0</ele><time>2026-05-02T15:56:44.999Z</time></trkpt><trkpt lat="46.10226212403215" lon="1.3551618503582978"><ele>337.5</ele><time>2026-05-02T15:56:45.999Z</time></trkpt><trkpt lat="46.102300125834994" lon="1.355378894557774"><ele>338.0</ele><time>2026-05-02T15:56:46.999Z</time></trkpt><trkpt lat="46.10233417745085" lon="1.3555757043453516"><ele>338.5</ele><time>2026-05-02T15:56:47.999Z</time></trkpt><trkpt lat="46.10237587760874" lon="1.3557564090045557"><ele>339.0</ele><time>2026-05-02T15:56:48.999Z</time></trkpt><trkpt lat="46.10238561726436" lon="1.3559344478657969"><ele>340.0</ele><time>2026-05-02T15:56:49.999Z</time></trkpt><trkpt lat="46.102423248059544" lon="1.356111508677432"><ele>341.0</ele><time>2026-05-02T15:56:50.999Z</time></trkpt><trkpt lat="46.102451906511234" lon="1.356285248840038"><ele>342.0</ele><time>2026-05-02T15:56:51.999Z</time></trkpt><trkpt lat="46.10248322679351" lon="1.356463967006362"><ele>343.0</ele><time>2026-05-02T15:56:52.999Z</time></trkpt><trkpt lat="46.102505255614645" lon="1.3566230535560915"><ele>343.75</ele><time>2026-05-02T15:56:53.999Z</time></trkpt><trkpt lat="46.10253918216149" lon="1.3568159954876535"><ele>344.5</ele><time>2026-05-02T15:56:54.999Z</time></trkpt><trkpt lat="46.10256289159024" lon="1.35700027444772"><ele>345.25</ele><time>2026-05-02T15:56:55.999Z</time></trkpt><trkpt lat="46.10259334384993" lon="1.3571851155481331"><ele>346.0</ele><time>2026-05-02T15:56:56.999Z</time></trkpt><trkpt lat="46.10263452328952" lon="1.3573693380320404"><ele>346.0</ele><time>2026-05-02T15:56:57.999Z</time></trkpt><trkpt lat="46.102671008248336" lon="1.3575571097266144"><ele>346.0</ele><time>2026-05-02T15:56:58.999Z</time></trkpt><trkpt lat="46.10269620399365" lon="1.357751532357513"><ele>346.0</ele><time>2026-05-02T15:56:59.999Z</time></trkpt><trkpt lat="46.10272748874011" lon="1.3579453773298562"><ele>346.0</ele><time>2026-05-02T15:57:00.999Z</time></trkpt><trkpt lat="46.1027593209209" lon="1.358137979299006"><ele>346.0</ele><time>2026-05-02T15:57:01.999Z</time></trkpt><trkpt lat="46.10278769455859" lon="1.3583324999831643"><ele>346.0</ele><time>2026-05-02T15:57:02.999Z</time></trkpt><trkpt lat="46.10281710779789" lon="1.3585292730783802"><ele>346.0</ele><time>2026-05-02T15:57:03.999Z</time></trkpt><trkpt lat="46.10285133699562" lon="1.3587226190811508"><ele>346.0</ele><time>2026-05-02T15:57:04.999Z</time></trkpt><trkpt lat="46.10288829122416" lon="1.358921121532328"><ele>345.5</ele><time>2026-05-02T15:57:05.999Z</time></trkpt><trkpt lat="46.1029076619209" lon="1.3591268990183742"><ele>345.0</ele><time>2026-05-02T15:57:06.999Z</time></trkpt><trkpt lat="46.10294070602714" lon="1.3593327556156445"><ele>344.5</ele><time>2026-05-02T15:57:07.999Z</time></trkpt><trkpt lat="46.10297244614111" lon="1.359530884166436"><ele>344.0</ele><time>2026-05-02T15:57:08.999Z</time></trkpt><trkpt lat="46.10300513793523" lon="1.359735187309257"><ele>343.5</ele><time>2026-05-02T15:57:09.999Z</time></trkpt><trkpt lat="46.10303566816004" lon="1.3599259818739136"><ele>343.0</ele><time>2026-05-02T15:57:10.999Z</time></trkpt><trkpt lat="46.103067734282284" lon="1.3601263749759827"><ele>342.5</ele><time>2026-05-02T15:57:11.999Z</time></trkpt><trkpt lat="46.10309842542687" lon="1.360318175296328"><ele>342.0</ele><time>2026-05-02T15:57:12.999Z</time></trkpt><trkpt lat="46.10313059448646" lon="1.3605192115930567"><ele>341.5</ele><time>2026-05-02T15:57:13.999Z</time></trkpt><trkpt lat="46.10316062200381" lon="1.3607095378888847"><ele>341.0</ele><time>2026-05-02T15:57:14.999Z</time></trkpt><trkpt lat="46.103191838586895" lon="1.360912757463442"><ele>340.5</ele><time>2026-05-02T15:57:15.999Z</time></trkpt><trkpt lat="46.10323720236726" lon="1.361101138084945"><ele>340.0</ele><time>2026-05-02T15:57:16.999Z</time></trkpt><trkpt lat="46.10325476434694" lon="1.361305970136991"><ele>339.25</ele><time>2026-05-02T15:57:17.999Z</time></trkpt><trkpt lat="46.103292485058844" lon="1.361494724943888"><ele>338.5</ele><time>2026-05-02T15:57:18.999Z</time></trkpt><trkpt lat="46.10332235272786" lon="1.3616751036577914"><ele>337.75</ele><time>2026-05-02T15:57:19.999Z</time></trkpt><trkpt lat="46.10334207433337" lon="1.3618357932806389"><ele>337.0</ele><time>2026-05-02T15:57:21Z</time></trkpt><trkpt lat="46.103365822355016" lon="1.3619937098848838"><ele>337.0</ele><time>2026-05-02T15:57:22Z</time></trkpt><trkpt lat="46.10338398202285" lon="1.3621338740920417"><ele>337.0</ele><time>2026-05-02T15:57:23Z</time></trkpt><trkpt lat="46.10339535334834" lon="1.362233258005504"><ele>337.0</ele><time>2026-05-02T15:57:24Z</time></trkpt><trkpt lat="46.10337236291483" lon="1.3623233077620167"><ele>337.0</ele><time>2026-05-02T15:57:26Z</time></trkpt><trkpt lat="46.1034138274319" lon="1.3624557718325874"><ele>337.0</ele><time>2026-05-02T15:57:31Z</time></trkpt><trkpt lat="46.10352652546296" lon="1.3625287519797282"><ele>336.3333333333333</ele><time>2026-05-02T15:57:32Z</time></trkpt><trkpt lat="46.10365726955462" lon="1.3626038410161552"><ele>335.6666666666667</ele><time>2026-05-02T15:57:33Z</time></trkpt><trkpt lat="46.10378988493225" lon="1.3627314242741246"><ele>335.0</ele><time>2026-05-02T15:57:34Z</time></trkpt><trkpt lat="46.10391913113085" lon="1.362898402751386"><ele>334.0</ele><time>2026-05-02T15:57:35Z</time></trkpt><trkpt lat="46.10406390218245" lon="1.3630716748698009"><ele>333.0</ele><time>2026-05-02T15:57:36Z</time></trkpt><trkpt lat="46.10421182942667" lon="1.363241328620404"><ele>332.0</ele><time>2026-05-02T15:57:37Z</time></trkpt><trkpt lat="46.104334448090015" lon="1.3633881822857816"><ele>331.5</ele><time>2026-05-02T15:57:38Z</time></trkpt><trkpt lat="46.10442304678087" lon="1.363494804520587"><ele>331.0</ele><time>2026-05-02T15:57:39Z</time></trkpt><trkpt lat="46.10452208118924" lon="1.3636109422946139"><ele>330.5</ele><time>2026-05-02T15:57:40Z</time></trkpt><trkpt lat="46.104622373924975" lon="1.3637276598727548"><ele>330.0</ele><time>2026-05-02T15:57:41Z</time></trkpt><trkpt lat="46.10472241963954" lon="1.3638494692775052"><ele>329.25</ele><time>2026-05-02T15:57:42Z</time></trkpt><trkpt lat="46.10482185671121" lon="1.3639709369700725"><ele>328.5</ele><time>2026-05-02T15:57:43Z</time></trkpt><trkpt lat="46.104923766718535" lon="1.364098845467352"><ele>327.75</ele><time>2026-05-02T15:57:44Z</time></trkpt><trkpt lat="46.10503088293144" lon="1.3642329791119125"><ele>327.0</ele><time>2026-05-02T15:57:45Z</time></trkpt><trkpt lat="46.1051350745702" lon="1.3643640619787836"><ele>326.75</ele><time>2026-05-02T15:57:46Z</time></trkpt><trkpt lat="46.10524448203643" lon="1.364489140396867"><ele>326.5</ele><time>2026-05-02T15:57:47Z</time></trkpt><trkpt lat="46.105353162973195" lon="1.3646161008448743"><ele>326.25</ele><time>2026-05-02T15:57:48Z</time></trkpt><trkpt lat="46.10545625701916" lon="1.3647482669689355"><ele>326.0</ele><time>2026-05-02T15:57:49Z</time></trkpt><trkpt lat="46.10556232358359" lon="1.3648710093649232"><ele>323.5</ele><time>2026-05-02T15:57:50Z</time></trkpt><trkpt lat="46.10566997869682" lon="1.364996111346945"><ele>321.0</ele><time>2026-05-02T15:57:51Z</time></trkpt><trkpt lat="46.105769481415685" lon="1.365128314997259"><ele>318.5</ele><time>2026-05-02T15:57:52Z</time></trkpt><trkpt lat="46.10587384414011" lon="1.3652562353260076"><ele>316.0</ele><time>2026-05-02T15:57:53Z</time></trkpt><trkpt lat="46.1059768545665" lon="1.365384222332429"><ele>316.0</ele><time>2026-05-02T15:57:54Z</time></trkpt><trkpt lat="46.10607525105239" lon="1.3655256275668155"><ele>316.0</ele><time>2026-05-02T15:57:55Z</time></trkpt><trkpt lat="46.10617353475683" lon="1.3656543782576094"><ele>316.0</ele><time>2026-05-02T15:57:56Z</time></trkpt><trkpt lat="46.106258702372145" lon="1.3658071969014454"><ele>316.0</ele><time>2026-05-02T15:57:57Z</time></trkpt><trkpt lat="46.106341367211044" lon="1.3659674650692168"><ele>314.75</ele><time>2026-05-02T15:57:58Z</time></trkpt><trkpt lat="46.10642028066569" lon="1.366141706847426"><ele>313.5</ele><time>2026-05-02T15:57:59Z</time></trkpt><trkpt lat="46.106493302520256" lon="1.3663168269671533"><ele>312.25</ele><time>2026-05-02T15:58:00Z</time></trkpt><trkpt lat="46.106558877298276" lon="1.366499677860356"><ele>311.0</ele><time>2026-05-02T15:58:01Z</time></trkpt><trkpt lat="46.10662034146769" lon="1.3666818767758053"><ele>310.5</ele><time>2026-05-02T15:58:02Z</time></trkpt><trkpt lat="46.10668174952662" lon="1.3668649846895409"><ele>310.0</ele><time>2026-05-02T15:58:03Z</time></trkpt><trkpt lat="46.10672847762505" lon="1.367049783621193"><ele>309.5</ele><time>2026-05-02T15:58:04Z</time></trkpt><trkpt lat="46.106777529330614" lon="1.3672413765585543"><ele>309.0</ele><time>2026-05-02T15:58:05Z</time></trkpt><trkpt lat="46.10681431413336" lon="1.3674324144579708"><ele>309.0</ele><time>2026-05-02T15:58:06Z</time></trkpt><trkpt lat="46.1068417064548" lon="1.36763585137145"><ele>309.0</ele><time>2026-05-02T15:58:07Z</time></trkpt><trkpt lat="46.106879591817425" lon="1.3678628127933985"><ele>309.0</ele><time>2026-05-02T15:58:08Z</time></trkpt><trkpt lat="46.10690678517865" lon="1.3680922883872613"><ele>310.75</ele><time>2026-05-02T15:58:09Z</time></trkpt><trkpt lat="46.10690978460263" lon="1.3682975079254147"><ele>312.5</ele><time>2026-05-02T15:58:10Z</time></trkpt><trkpt lat="46.1069279265415" lon="1.368454898376631"><ele>314.25</ele><time>2026-05-02T15:58:11Z</time></trkpt><trkpt lat="46.106938095154455" lon="1.3686167480841809"><ele>316.0</ele><time>2026-05-02T15:58:12Z</time></trkpt><trkpt lat="46.10694895220759" lon="1.368752173875319"><ele>316.8</ele><time>2026-05-02T15:58:13Z</time></trkpt><trkpt lat="46.10696315516127" lon="1.3688717397841537"><ele>317.6</ele><time>2026-05-02T15:58:14Z</time></trkpt><trkpt lat="46.106983252565" lon="1.3690261184086534"><ele>318.4</ele><time>2026-05-02T15:58:15.999Z</time></trkpt><trkpt lat="46.106999337716665" lon="1.3691221579449342"><ele>319.2</ele><time>2026-05-02T15:58:17.999Z</time></trkpt><trkpt lat="46.107013964406754" lon="1.3692314804918821"><ele>320.0</ele><time>2026-05-02T15:58:58.999Z</time></trkpt><trkpt lat="46.10705117141103" lon="1.3693850617905199"><ele>320.0</ele><time>2026-05-02T15:59:00.999Z</time></trkpt><trkpt lat="46.107065709679375" lon="1.3694939586927832"><ele>320.0</ele><time>2026-05-02T15:59:01.999Z</time></trkpt><trkpt lat="46.10705603161154" lon="1.3696082062763044"><ele>320.0</ele><time>2026-05-02T15:59:02.999Z</time></trkpt><trkpt lat="46.10709038137646" lon="1.3697177156979636"><ele>320.0</ele><time>2026-05-02T15:59:03.999Z</time></trkpt><trkpt lat="46.10691535421055" lon="1.3698519574195687"><ele>320.0</ele><time>2026-05-02T15:59:04.999Z</time></trkpt><trkpt lat="46.10688803689986" lon="1.3699433486718664"><ele>321.75</ele><time>2026-05-02T15:59:05.999Z</time></trkpt><trkpt lat="46.107022361506644" lon="1.3700918220067766"><ele>323.5</ele><time>2026-05-02T15:59:06.999Z</time></trkpt><trkpt lat="46.107107905171496" lon="1.3701636475706152"><ele>325.25</ele><time>2026-05-02T15:59:07.999Z</time></trkpt><trkpt lat="46.10718226282076" lon="1.3702557109899511"><ele>327.0</ele><time>2026-05-02T15:59:08.999Z</time></trkpt><trkpt lat="46.107256566359034" lon="1.3703815478539996"><ele>328.0</ele><time>2026-05-02T15:59:09.999Z</time></trkpt><trkpt lat="46.10734730447767" lon="1.3705313211590966"><ele>329.0</ele><time>2026-05-02T15:59:10.999Z</time></trkpt><trkpt lat="46.107424107529326" lon="1.3707184740390386"><ele>330.0</ele><time>2026-05-02T15:59:11.999Z</time></trkpt><trkpt lat="46.1075253477431" lon="1.3709035763820903"><ele>330.0</ele><time>2026-05-02T15:59:12.999Z</time></trkpt><trkpt lat="46.10762671356953" lon="1.3711008095398869"><ele>330.0</ele><time>2026-05-02T15:59:13.999Z</time></trkpt><trkpt lat="46.10771759297133" lon="1.371279834228091"><ele>330.0</ele><time>2026-05-02T15:59:14.999Z</time></trkpt><trkpt lat="46.10780051019643" lon="1.3714491145469705"><ele>330.75</ele><time>2026-05-02T15:59:15.999Z</time></trkpt><trkpt lat="46.10787467677506" lon="1.3716022609301595"><ele>331.5</ele><time>2026-05-02T15:59:16.999Z</time></trkpt><trkpt lat="46.10795276600276" lon="1.371763507258269"><ele>332.25</ele><time>2026-05-02T15:59:17.999Z</time></trkpt><trkpt lat="46.10803467391201" lon="1.3718847492782118"><ele>333.0</ele><time>2026-05-02T15:59:18.999Z</time></trkpt><trkpt lat="46.10807701870442" lon="1.3719686724768574"><ele>333.0</ele><time>2026-05-02T15:59:19.999Z</time></trkpt><trkpt lat="46.10811501347768" lon="1.3720957029676177"><ele>333.0</ele><time>2026-05-02T15:59:21.999Z</time></trkpt><trkpt lat="46.107891696649595" lon="1.3723039211610453"><ele>333.0</ele><time>2026-05-02T15:59:24.999Z</time></trkpt><trkpt lat="46.10777230071972" lon="1.372333174568837"><ele>333.0</ele><time>2026-05-02T15:59:25.999Z</time></trkpt><trkpt lat="46.10767460894079" lon="1.3723664898015402"><ele>333.0</ele><time>2026-05-02T15:59:27Z</time></trkpt><trkpt lat="46.107606491556105" lon="1.3723724619933246"><ele>333.0</ele><time>2026-05-02T15:59:28Z</time></trkpt><trkpt lat="46.10754134072991" lon="1.3722986009954896"><ele>333.0</ele><time>2026-05-02T15:59:30Z</time></trkpt><trkpt lat="46.107491605874934" lon="1.3721458043139827"><ele>333.0</ele><time>2026-05-02T15:59:32Z</time></trkpt><trkpt lat="46.10745781184459" lon="1.372045985011574"><ele>333.0</ele><time>2026-05-02T15:59:34Z</time></trkpt><trkpt lat="46.1075279195762" lon="1.3719649071952835"><ele>333.0</ele><time>2026-05-02T16:00:34.999Z</time></trkpt><trkpt lat="46.10764333168947" lon="1.3719081917788842"><ele>333.0</ele><time>2026-05-02T16:00:44.999Z</time></trkpt><trkpt lat="46.10769050408543" lon="1.3718448028723824"><ele>333.0</ele><time>2026-05-02T16:00:51.999Z</time></trkpt><trkpt lat="46.10774016320439" lon="1.3717704274809472"><ele>333.0</ele><time>2026-05-02T16:00:59.999Z</time></trkpt><trkpt lat="46.107764005633996" lon="1.3716766928555673"><ele>333.0</ele><time>2026-05-02T16:01:18.999Z</time></trkpt><trkpt lat="46.10769656942732" lon="1.3716885880481569"><ele>333.0</ele><time>2026-05-02T16:01:45Z</time></trkpt><trkpt lat="46.1077645669565" lon="1.371628240148302"><ele>333.0</ele><time>2026-05-02T16:04:41Z</time></trkpt><trkpt lat="46.107812356686615" lon="1.3715598774947106"><ele>333.0</ele><time>2026-05-02T16:04:47Z</time></trkpt><trkpt lat="46.107842692467415" lon="1.3714741638564159"><ele>333.0</ele><time>2026-05-02T16:04:50Z</time></trkpt><trkpt lat="46.10782086216595" lon="1.3715808963254061"><ele>333.0</ele><time>2026-05-02T16:04:52.999Z</time></trkpt><trkpt lat="46.10778864641838" lon="1.3716589203585976"><ele>333.0</ele><time>2026-05-02T16:04:59.999Z</time></trkpt><trkpt lat="46.10782479921744" lon="1.3717635536369832"><ele>333.0</ele><time>2026-05-02T16:05:20.999Z</time></trkpt><trkpt lat="46.10781446788934" lon="1.3718685226330138"><ele>333.0</ele><time>2026-05-02T16:05:38.999Z</time></trkpt><trkpt lat="46.10779427182903" lon="1.3717609116295708"><ele>333.0</ele><time>2026-05-02T16:06:15Z</time></trkpt><trkpt lat="46.1077462922618" lon="1.371683067845911"><ele>333.0</ele><time>2026-05-02T16:06:18Z</time></trkpt><trkpt lat="46.10768590881342" lon="1.371625600266275"><ele>333.0</ele><time>2026-05-02T16:06:22Z</time></trkpt><trkpt lat="46.10776393212974" lon="1.371639696882452"><ele>333.0</ele><time>2026-05-02T16:06:24Z</time></trkpt><trkpt lat="46.1076870230168" lon="1.3717351190864246"><ele>333.0</ele><time>2026-05-02T16:06:43Z</time></trkpt><trkpt lat="46.10763607704028" lon="1.3718168388760754"><ele>333.0</ele><time>2026-05-02T16:06:52Z</time></trkpt><trkpt lat="46.10757373796787" lon="1.371791956070068"><ele>333.0</ele><time>2026-05-02T16:06:58.999Z</time></trkpt><trkpt lat="46.10762814707482" lon="1.371737203009511"><ele>333.0</ele><time>2026-05-02T16:07:46.999Z</time></trkpt><trkpt lat="46.10767655293208" lon="1.3716760331812992"><ele>333.0</ele><time>2026-05-02T16:07:57Z</time></trkpt><trkpt lat="46.10761649447352" lon="1.3717167982956602"><ele>333.0</ele><time>2026-05-02T16:08:47Z</time></trkpt></trkseg></trk></gpx>